<?xml version="1.0" encoding="UTF-8" standalone="no" ?>
<gpx xmlns="http://www.topografix.com/GPX/1/1" xmlns:xsi="http://www.w3.org/2001/XMLSchema-instance" xsi:schemaLocation="http://www.topografix.com/GPX/1/1 http://www.topografix.com/GPX/1/1/gpx.xsd" version="1.1" creator="VisuGPX - https://www.visugpx.com">
  <metadata>
    <name>Col du Tubé</name>
    <desc><![CDATA[Itinéraire facile autour du Garlaban.]]></desc>
  </metadata>
  <trk>
    <name><![CDATA[Col du Tubé_1]]></name>
    <trkseg>
      <trkpt lat="43.31243" lon="5.51217">
        <ele>148.699996</ele>
        <time>2014-03-05T07:47:27Z</time>
      </trkpt>
      <trkpt lat="43.31244" lon="5.51217">
        <ele>148.5</ele>
        <time>2014-03-05T07:47:28Z</time>
      </trkpt>
      <trkpt lat="43.31251" lon="5.51221">
        <ele>153.3</ele>
        <time>2014-03-05T07:48:42Z</time>
      </trkpt>
      <trkpt lat="43.31251" lon="5.51221">
        <ele>153.3</ele>
        <time>2014-03-05T07:48:43Z</time>
      </trkpt>
      <trkpt lat="43.31259" lon="5.51224">
        <ele>157.8</ele>
        <time>2014-03-05T07:49:27Z</time>
      </trkpt>
      <trkpt lat="43.31263" lon="5.51223">
        <ele>158.3</ele>
        <time>2014-03-05T07:49:32Z</time>
      </trkpt>
      <trkpt lat="43.31267" lon="5.5122">
        <ele>158.8</ele>
        <time>2014-03-05T07:49:37Z</time>
      </trkpt>
      <trkpt lat="43.3127" lon="5.51218">
        <ele>161.1</ele>
        <time>2014-03-05T07:49:53Z</time>
      </trkpt>
      <trkpt lat="43.31271" lon="5.51218">
        <ele>161.3</ele>
        <time>2014-03-05T07:49:54Z</time>
      </trkpt>
      <trkpt lat="43.31278" lon="5.5122">
        <ele>160.8</ele>
        <time>2014-03-05T07:50:05Z</time>
      </trkpt>
      <trkpt lat="43.31282" lon="5.51222">
        <ele>161.1</ele>
        <time>2014-03-05T07:50:12Z</time>
      </trkpt>
      <trkpt lat="43.31286" lon="5.51222">
        <ele>161.8</ele>
        <time>2014-03-05T07:50:17Z</time>
      </trkpt>
      <trkpt lat="43.3129" lon="5.51222">
        <ele>163.6</ele>
        <time>2014-03-05T07:50:21Z</time>
      </trkpt>
      <trkpt lat="43.31294" lon="5.51221">
        <ele>165.8</ele>
        <time>2014-03-05T07:50:24Z</time>
      </trkpt>
      <trkpt lat="43.31298" lon="5.51221">
        <ele>167.3</ele>
        <time>2014-03-05T07:50:30Z</time>
      </trkpt>
      <trkpt lat="43.31302" lon="5.51222">
        <ele>165.1</ele>
        <time>2014-03-05T07:50:39Z</time>
      </trkpt>
      <trkpt lat="43.31306" lon="5.51225">
        <ele>165.6</ele>
        <time>2014-03-05T07:50:45Z</time>
      </trkpt>
      <trkpt lat="43.3131" lon="5.51226">
        <ele>168.8</ele>
        <time>2014-03-05T07:50:49Z</time>
      </trkpt>
      <trkpt lat="43.31313" lon="5.51229">
        <ele>170.8</ele>
        <time>2014-03-05T07:50:53Z</time>
      </trkpt>
      <trkpt lat="43.31318" lon="5.5123">
        <ele>172.3</ele>
        <time>2014-03-05T07:50:57Z</time>
      </trkpt>
      <trkpt lat="43.31319" lon="5.51229">
        <ele>173.1</ele>
        <time>2014-03-05T07:50:58Z</time>
      </trkpt>
      <trkpt lat="43.31325" lon="5.51229">
        <ele>175.6</ele>
        <time>2014-03-05T07:51:05Z</time>
      </trkpt>
      <trkpt lat="43.3133" lon="5.51229">
        <ele>177.1</ele>
        <time>2014-03-05T07:51:09Z</time>
      </trkpt>
      <trkpt lat="43.31334" lon="5.5123">
        <ele>176.3</ele>
        <time>2014-03-05T07:51:13Z</time>
      </trkpt>
      <trkpt lat="43.31338" lon="5.51231">
        <ele>173</ele>
        <time>2014-03-05T07:51:18Z</time>
      </trkpt>
      <trkpt lat="43.31342" lon="5.51229">
        <ele>170.8</ele>
        <time>2014-03-05T07:51:23Z</time>
      </trkpt>
      <trkpt lat="43.31346" lon="5.51228">
        <ele>172.1</ele>
        <time>2014-03-05T07:51:27Z</time>
      </trkpt>
      <trkpt lat="43.3135" lon="5.51228">
        <ele>171.8</ele>
        <time>2014-03-05T07:51:31Z</time>
      </trkpt>
      <trkpt lat="43.31354" lon="5.51227">
        <ele>172.3</ele>
        <time>2014-03-05T07:51:35Z</time>
      </trkpt>
      <trkpt lat="43.31359" lon="5.51227">
        <ele>173</ele>
        <time>2014-03-05T07:51:39Z</time>
      </trkpt>
      <trkpt lat="43.31362" lon="5.51227">
        <ele>174.3</ele>
        <time>2014-03-05T07:51:42Z</time>
      </trkpt>
      <trkpt lat="43.31366" lon="5.51225">
        <ele>175</ele>
        <time>2014-03-05T07:51:45Z</time>
      </trkpt>
      <trkpt lat="43.31369" lon="5.51226">
        <ele>174.3</ele>
        <time>2014-03-05T07:51:48Z</time>
      </trkpt>
      <trkpt lat="43.31374" lon="5.51226">
        <ele>174.5</ele>
        <time>2014-03-05T07:51:52Z</time>
      </trkpt>
      <trkpt lat="43.31377" lon="5.51222">
        <ele>173.1</ele>
        <time>2014-03-05T07:51:56Z</time>
      </trkpt>
      <trkpt lat="43.31381" lon="5.5122">
        <ele>173.8</ele>
        <time>2014-03-05T07:52:00Z</time>
      </trkpt>
      <trkpt lat="43.31382" lon="5.5122">
        <ele>173.5</ele>
        <time>2014-03-05T07:52:01Z</time>
      </trkpt>
      <trkpt lat="43.31389" lon="5.51218">
        <ele>171.1</ele>
        <time>2014-03-05T07:52:10Z</time>
      </trkpt>
      <trkpt lat="43.31393" lon="5.5122">
        <ele>171.3</ele>
        <time>2014-03-05T07:52:17Z</time>
      </trkpt>
      <trkpt lat="43.31396" lon="5.51223">
        <ele>173.1</ele>
        <time>2014-03-05T07:52:22Z</time>
      </trkpt>
      <trkpt lat="43.31399" lon="5.51227">
        <ele>176.8</ele>
        <time>2014-03-05T07:52:27Z</time>
      </trkpt>
      <trkpt lat="43.31403" lon="5.51229">
        <ele>181.6</ele>
        <time>2014-03-05T07:52:32Z</time>
      </trkpt>
      <trkpt lat="43.31407" lon="5.51233">
        <ele>182.8</ele>
        <time>2014-03-05T07:52:37Z</time>
      </trkpt>
      <trkpt lat="43.31409" lon="5.51237">
        <ele>180.8</ele>
        <time>2014-03-05T07:52:42Z</time>
      </trkpt>
      <trkpt lat="43.31413" lon="5.51241">
        <ele>179.8</ele>
        <time>2014-03-05T07:52:53Z</time>
      </trkpt>
      <trkpt lat="43.31417" lon="5.51239">
        <ele>183</ele>
        <time>2014-03-05T07:52:56Z</time>
      </trkpt>
      <trkpt lat="43.3142" lon="5.51238">
        <ele>185.1</ele>
        <time>2014-03-05T07:52:58Z</time>
      </trkpt>
      <trkpt lat="43.31424" lon="5.51237">
        <ele>185.3</ele>
        <time>2014-03-05T07:53:01Z</time>
      </trkpt>
      <trkpt lat="43.31425" lon="5.51236">
        <ele>185.6</ele>
        <time>2014-03-05T07:53:02Z</time>
      </trkpt>
      <trkpt lat="43.31431" lon="5.51235">
        <ele>185.3</ele>
        <time>2014-03-05T07:53:08Z</time>
      </trkpt>
      <trkpt lat="43.31433" lon="5.5124">
        <ele>182.1</ele>
        <time>2014-03-05T07:53:10Z</time>
      </trkpt>
      <trkpt lat="43.31436" lon="5.51245">
        <ele>178.8</ele>
        <time>2014-03-05T07:53:16Z</time>
      </trkpt>
      <trkpt lat="43.3144" lon="5.51248">
        <ele>176.5</ele>
        <time>2014-03-05T07:53:22Z</time>
      </trkpt>
      <trkpt lat="43.31439" lon="5.51254">
        <ele>179.1</ele>
        <time>2014-03-05T07:53:39Z</time>
      </trkpt>
      <trkpt lat="43.3144" lon="5.5126">
        <ele>179</ele>
        <time>2014-03-05T07:53:51Z</time>
      </trkpt>
      <trkpt lat="43.31442" lon="5.51265">
        <ele>177.1</ele>
        <time>2014-03-05T07:54:01Z</time>
      </trkpt>
      <trkpt lat="43.31445" lon="5.51268">
        <ele>176.5</ele>
        <time>2014-03-05T07:54:06Z</time>
      </trkpt>
      <trkpt lat="43.31446" lon="5.51269">
        <ele>176.3</ele>
        <time>2014-03-05T07:54:07Z</time>
      </trkpt>
      <trkpt lat="43.31453" lon="5.51271">
        <ele>181.6</ele>
        <time>2014-03-05T07:54:16Z</time>
      </trkpt>
      <trkpt lat="43.31457" lon="5.51273">
        <ele>182.6</ele>
        <time>2014-03-05T07:54:19Z</time>
      </trkpt>
      <trkpt lat="43.3146" lon="5.51277">
        <ele>183</ele>
        <time>2014-03-05T07:54:25Z</time>
      </trkpt>
      <trkpt lat="43.31463" lon="5.51282">
        <ele>183.1</ele>
        <time>2014-03-05T07:54:30Z</time>
      </trkpt>
      <trkpt lat="43.31465" lon="5.51286">
        <ele>182.3</ele>
        <time>2014-03-05T07:54:34Z</time>
      </trkpt>
      <trkpt lat="43.31468" lon="5.51289">
        <ele>181.6</ele>
        <time>2014-03-05T07:54:38Z</time>
      </trkpt>
      <trkpt lat="43.31469" lon="5.51294">
        <ele>181.8</ele>
        <time>2014-03-05T07:54:42Z</time>
      </trkpt>
      <trkpt lat="43.3147" lon="5.51299">
        <ele>182.6</ele>
        <time>2014-03-05T07:54:46Z</time>
      </trkpt>
      <trkpt lat="43.31471" lon="5.51305">
        <ele>182.8</ele>
        <time>2014-03-05T07:54:50Z</time>
      </trkpt>
      <trkpt lat="43.31474" lon="5.5131">
        <ele>182.5</ele>
        <time>2014-03-05T07:54:55Z</time>
      </trkpt>
      <trkpt lat="43.31477" lon="5.51314">
        <ele>182.1</ele>
        <time>2014-03-05T07:55:02Z</time>
      </trkpt>
      <trkpt lat="43.31481" lon="5.51315">
        <ele>184.6</ele>
        <time>2014-03-05T07:55:06Z</time>
      </trkpt>
      <trkpt lat="43.31484" lon="5.51317">
        <ele>185.8</ele>
        <time>2014-03-05T07:55:09Z</time>
      </trkpt>
      <trkpt lat="43.31485" lon="5.51316">
        <ele>186.8</ele>
        <time>2014-03-05T07:55:10Z</time>
      </trkpt>
      <trkpt lat="43.31491" lon="5.51319">
        <ele>190.8</ele>
        <time>2014-03-05T07:55:16Z</time>
      </trkpt>
      <trkpt lat="43.31495" lon="5.51319">
        <ele>192.8</ele>
        <time>2014-03-05T07:55:19Z</time>
      </trkpt>
      <trkpt lat="43.31499" lon="5.51319">
        <ele>195.1</ele>
        <time>2014-03-05T07:55:22Z</time>
      </trkpt>
      <trkpt lat="43.31503" lon="5.51321">
        <ele>194.6</ele>
        <time>2014-03-05T07:55:26Z</time>
      </trkpt>
      <trkpt lat="43.31507" lon="5.5132">
        <ele>193.8</ele>
        <time>2014-03-05T07:55:31Z</time>
      </trkpt>
      <trkpt lat="43.3151" lon="5.51319">
        <ele>194.8</ele>
        <time>2014-03-05T07:55:35Z</time>
      </trkpt>
      <trkpt lat="43.31514" lon="5.51318">
        <ele>194.5</ele>
        <time>2014-03-05T07:55:39Z</time>
      </trkpt>
      <trkpt lat="43.31518" lon="5.51317">
        <ele>193.8</ele>
        <time>2014-03-05T07:55:44Z</time>
      </trkpt>
      <trkpt lat="43.31522" lon="5.51316">
        <ele>193.5</ele>
        <time>2014-03-05T07:55:48Z</time>
      </trkpt>
      <trkpt lat="43.31525" lon="5.51316">
        <ele>194.6</ele>
        <time>2014-03-05T07:55:51Z</time>
      </trkpt>
      <trkpt lat="43.31529" lon="5.51315">
        <ele>196.6</ele>
        <time>2014-03-05T07:55:53Z</time>
      </trkpt>
      <trkpt lat="43.31533" lon="5.51315">
        <ele>198.3</ele>
        <time>2014-03-05T07:55:56Z</time>
      </trkpt>
      <trkpt lat="43.31537" lon="5.51314">
        <ele>197.1</ele>
        <time>2014-03-05T07:56:01Z</time>
      </trkpt>
      <trkpt lat="43.31541" lon="5.51313">
        <ele>195</ele>
        <time>2014-03-05T07:56:06Z</time>
      </trkpt>
      <trkpt lat="43.31546" lon="5.51312">
        <ele>194.8</ele>
        <time>2014-03-05T07:56:11Z</time>
      </trkpt>
      <trkpt lat="43.31547" lon="5.51312">
        <ele>195.3</ele>
        <time>2014-03-05T07:56:12Z</time>
      </trkpt>
      <trkpt lat="43.31553" lon="5.5131">
        <ele>196.1</ele>
        <time>2014-03-05T07:56:20Z</time>
      </trkpt>
      <trkpt lat="43.31557" lon="5.51309">
        <ele>197.3</ele>
        <time>2014-03-05T07:56:23Z</time>
      </trkpt>
      <trkpt lat="43.3156" lon="5.51309">
        <ele>198.1</ele>
        <time>2014-03-05T07:56:26Z</time>
      </trkpt>
      <trkpt lat="43.31564" lon="5.51307">
        <ele>198.1</ele>
        <time>2014-03-05T07:56:31Z</time>
      </trkpt>
      <trkpt lat="43.31568" lon="5.51304">
        <ele>196.8</ele>
        <time>2014-03-05T07:56:36Z</time>
      </trkpt>
      <trkpt lat="43.31571" lon="5.51302">
        <ele>195</ele>
        <time>2014-03-05T07:56:39Z</time>
      </trkpt>
      <trkpt lat="43.31574" lon="5.51301">
        <ele>194.6</ele>
        <time>2014-03-05T07:56:42Z</time>
      </trkpt>
      <trkpt lat="43.31578" lon="5.513">
        <ele>196.3</ele>
        <time>2014-03-05T07:56:45Z</time>
      </trkpt>
      <trkpt lat="43.31582" lon="5.513">
        <ele>199.6</ele>
        <time>2014-03-05T07:56:48Z</time>
      </trkpt>
      <trkpt lat="43.31586" lon="5.51299">
        <ele>201.8</ele>
        <time>2014-03-05T07:56:52Z</time>
      </trkpt>
      <trkpt lat="43.31591" lon="5.51297">
        <ele>201.3</ele>
        <time>2014-03-05T07:56:56Z</time>
      </trkpt>
      <trkpt lat="43.31594" lon="5.51296">
        <ele>201.3</ele>
        <time>2014-03-05T07:57:00Z</time>
      </trkpt>
      <trkpt lat="43.31598" lon="5.51295">
        <ele>201</ele>
        <time>2014-03-05T07:57:03Z</time>
      </trkpt>
      <trkpt lat="43.31601" lon="5.51293">
        <ele>200.3</ele>
        <time>2014-03-05T07:57:07Z</time>
      </trkpt>
      <trkpt lat="43.31605" lon="5.51292">
        <ele>200</ele>
        <time>2014-03-05T07:57:11Z</time>
      </trkpt>
      <trkpt lat="43.31609" lon="5.5129">
        <ele>200.6</ele>
        <time>2014-03-05T07:57:14Z</time>
      </trkpt>
      <trkpt lat="43.31611" lon="5.5129">
        <ele>201.3</ele>
        <time>2014-03-05T07:57:15Z</time>
      </trkpt>
      <trkpt lat="43.31615" lon="5.51288">
        <ele>203.3</ele>
        <time>2014-03-05T07:57:19Z</time>
      </trkpt>
      <trkpt lat="43.31619" lon="5.51287">
        <ele>203.3</ele>
        <time>2014-03-05T07:57:23Z</time>
      </trkpt>
      <trkpt lat="43.31622" lon="5.51285">
        <ele>200.1</ele>
        <time>2014-03-05T07:57:29Z</time>
      </trkpt>
      <trkpt lat="43.31627" lon="5.51283">
        <ele>199.1</ele>
        <time>2014-03-05T07:57:33Z</time>
      </trkpt>
      <trkpt lat="43.3163" lon="5.51281">
        <ele>199.5</ele>
        <time>2014-03-05T07:57:37Z</time>
      </trkpt>
      <trkpt lat="43.31634" lon="5.51279">
        <ele>201.8</ele>
        <time>2014-03-05T07:57:39Z</time>
      </trkpt>
      <trkpt lat="43.31637" lon="5.51278">
        <ele>202.1</ele>
        <time>2014-03-05T07:57:41Z</time>
      </trkpt>
      <trkpt lat="43.3164" lon="5.51276">
        <ele>200.8</ele>
        <time>2014-03-05T07:57:44Z</time>
      </trkpt>
      <trkpt lat="43.31644" lon="5.51275">
        <ele>201.1</ele>
        <time>2014-03-05T07:57:47Z</time>
      </trkpt>
      <trkpt lat="43.31647" lon="5.51273">
        <ele>201.3</ele>
        <time>2014-03-05T07:57:50Z</time>
      </trkpt>
      <trkpt lat="43.31651" lon="5.51271">
        <ele>201.8</ele>
        <time>2014-03-05T07:57:53Z</time>
      </trkpt>
      <trkpt lat="43.31654" lon="5.5127">
        <ele>202.1</ele>
        <time>2014-03-05T07:57:55Z</time>
      </trkpt>
      <trkpt lat="43.31658" lon="5.51269">
        <ele>204.6</ele>
        <time>2014-03-05T07:57:58Z</time>
      </trkpt>
      <trkpt lat="43.31662" lon="5.51267">
        <ele>207.1</ele>
        <time>2014-03-05T07:58:01Z</time>
      </trkpt>
      <trkpt lat="43.31666" lon="5.51265">
        <ele>209.1</ele>
        <time>2014-03-05T07:58:04Z</time>
      </trkpt>
      <trkpt lat="43.31669" lon="5.51263">
        <ele>209.8</ele>
        <time>2014-03-05T07:58:07Z</time>
      </trkpt>
      <trkpt lat="43.31672" lon="5.51259">
        <ele>208.6</ele>
        <time>2014-03-05T07:58:11Z</time>
      </trkpt>
      <trkpt lat="43.31676" lon="5.51256">
        <ele>207.1</ele>
        <time>2014-03-05T07:58:15Z</time>
      </trkpt>
      <trkpt lat="43.31676" lon="5.51255">
        <ele>207</ele>
        <time>2014-03-05T07:58:16Z</time>
      </trkpt>
      <trkpt lat="43.31682" lon="5.51248">
        <ele>206.1</ele>
        <time>2014-03-05T07:58:23Z</time>
      </trkpt>
      <trkpt lat="43.31685" lon="5.51246">
        <ele>205.8</ele>
        <time>2014-03-05T07:58:26Z</time>
      </trkpt>
      <trkpt lat="43.31688" lon="5.51242">
        <ele>205.6</ele>
        <time>2014-03-05T07:58:30Z</time>
      </trkpt>
      <trkpt lat="43.31691" lon="5.51239">
        <ele>205.1</ele>
        <time>2014-03-05T07:58:33Z</time>
      </trkpt>
      <trkpt lat="43.31694" lon="5.51236">
        <ele>204.1</ele>
        <time>2014-03-05T07:58:36Z</time>
      </trkpt>
      <trkpt lat="43.31697" lon="5.51233">
        <ele>203.1</ele>
        <time>2014-03-05T07:58:39Z</time>
      </trkpt>
      <trkpt lat="43.317" lon="5.5123">
        <ele>201.6</ele>
        <time>2014-03-05T07:58:43Z</time>
      </trkpt>
      <trkpt lat="43.31703" lon="5.51226">
        <ele>201</ele>
        <time>2014-03-05T07:58:46Z</time>
      </trkpt>
      <trkpt lat="43.31705" lon="5.51222">
        <ele>199.6</ele>
        <time>2014-03-05T07:58:49Z</time>
      </trkpt>
      <trkpt lat="43.31708" lon="5.51218">
        <ele>197.8</ele>
        <time>2014-03-05T07:58:53Z</time>
      </trkpt>
      <trkpt lat="43.31711" lon="5.51214">
        <ele>196.8</ele>
        <time>2014-03-05T07:58:57Z</time>
      </trkpt>
      <trkpt lat="43.31714" lon="5.5121">
        <ele>197.3</ele>
        <time>2014-03-05T07:59:00Z</time>
      </trkpt>
      <trkpt lat="43.31717" lon="5.51207">
        <ele>197.8</ele>
        <time>2014-03-05T07:59:03Z</time>
      </trkpt>
      <trkpt lat="43.31721" lon="5.51205">
        <ele>199</ele>
        <time>2014-03-05T07:59:06Z</time>
      </trkpt>
      <trkpt lat="43.31725" lon="5.51202">
        <ele>200.1</ele>
        <time>2014-03-05T07:59:13Z</time>
      </trkpt>
      <trkpt lat="43.31728" lon="5.51199">
        <ele>199.6</ele>
        <time>2014-03-05T07:59:16Z</time>
      </trkpt>
      <trkpt lat="43.31729" lon="5.51197">
        <ele>199.3</ele>
        <time>2014-03-05T07:59:17Z</time>
      </trkpt>
      <trkpt lat="43.31734" lon="5.51191">
        <ele>196.1</ele>
        <time>2014-03-05T07:59:24Z</time>
      </trkpt>
      <trkpt lat="43.31737" lon="5.51188">
        <ele>195.1</ele>
        <time>2014-03-05T07:59:27Z</time>
      </trkpt>
      <trkpt lat="43.3174" lon="5.51184">
        <ele>194.8</ele>
        <time>2014-03-05T07:59:30Z</time>
      </trkpt>
      <trkpt lat="43.31743" lon="5.51181">
        <ele>196.5</ele>
        <time>2014-03-05T07:59:33Z</time>
      </trkpt>
      <trkpt lat="43.31746" lon="5.51179">
        <ele>198.1</ele>
        <time>2014-03-05T07:59:36Z</time>
      </trkpt>
      <trkpt lat="43.31749" lon="5.51178">
        <ele>199.1</ele>
        <time>2014-03-05T07:59:38Z</time>
      </trkpt>
      <trkpt lat="43.31753" lon="5.51177">
        <ele>198.8</ele>
        <time>2014-03-05T07:59:41Z</time>
      </trkpt>
      <trkpt lat="43.31757" lon="5.51175">
        <ele>198.5</ele>
        <time>2014-03-05T07:59:44Z</time>
      </trkpt>
      <trkpt lat="43.3176" lon="5.51174">
        <ele>198</ele>
        <time>2014-03-05T07:59:46Z</time>
      </trkpt>
      <trkpt lat="43.31762" lon="5.51173">
        <ele>197.8</ele>
        <time>2014-03-05T07:59:48Z</time>
      </trkpt>
      <trkpt lat="43.31765" lon="5.51172">
        <ele>197.3</ele>
        <time>2014-03-05T07:59:50Z</time>
      </trkpt>
      <trkpt lat="43.31768" lon="5.51171">
        <ele>198.1</ele>
        <time>2014-03-05T07:59:52Z</time>
      </trkpt>
      <trkpt lat="43.31771" lon="5.5117">
        <ele>199.3</ele>
        <time>2014-03-05T07:59:54Z</time>
      </trkpt>
      <trkpt lat="43.31775" lon="5.51169">
        <ele>199.8</ele>
        <time>2014-03-05T07:59:57Z</time>
      </trkpt>
      <trkpt lat="43.31779" lon="5.51168">
        <ele>200.3</ele>
        <time>2014-03-05T08:00:00Z</time>
      </trkpt>
      <trkpt lat="43.31784" lon="5.51168">
        <ele>201.3</ele>
        <time>2014-03-05T08:00:03Z</time>
      </trkpt>
      <trkpt lat="43.31787" lon="5.51167">
        <ele>202</ele>
        <time>2014-03-05T08:00:06Z</time>
      </trkpt>
      <trkpt lat="43.31791" lon="5.51166">
        <ele>201.8</ele>
        <time>2014-03-05T08:00:09Z</time>
      </trkpt>
      <trkpt lat="43.31794" lon="5.51165">
        <ele>202.1</ele>
        <time>2014-03-05T08:00:12Z</time>
      </trkpt>
      <trkpt lat="43.31798" lon="5.51164">
        <ele>202.3</ele>
        <time>2014-03-05T08:00:15Z</time>
      </trkpt>
      <trkpt lat="43.31801" lon="5.51163">
        <ele>203.1</ele>
        <time>2014-03-05T08:00:18Z</time>
      </trkpt>
      <trkpt lat="43.31803" lon="5.51162">
        <ele>203.3</ele>
        <time>2014-03-05T08:00:19Z</time>
      </trkpt>
      <trkpt lat="43.31808" lon="5.51162">
        <ele>205.1</ele>
        <time>2014-03-05T08:00:24Z</time>
      </trkpt>
      <trkpt lat="43.31812" lon="5.51161">
        <ele>206.1</ele>
        <time>2014-03-05T08:00:27Z</time>
      </trkpt>
      <trkpt lat="43.31815" lon="5.51162">
        <ele>206.3</ele>
        <time>2014-03-05T08:00:30Z</time>
      </trkpt>
      <trkpt lat="43.31818" lon="5.51163">
        <ele>205.6</ele>
        <time>2014-03-05T08:00:33Z</time>
      </trkpt>
      <trkpt lat="43.31822" lon="5.51164">
        <ele>204.6</ele>
        <time>2014-03-05T08:00:36Z</time>
      </trkpt>
      <trkpt lat="43.31826" lon="5.51167">
        <ele>204.6</ele>
        <time>2014-03-05T08:00:40Z</time>
      </trkpt>
      <trkpt lat="43.31829" lon="5.5117">
        <ele>204.6</ele>
        <time>2014-03-05T08:00:44Z</time>
      </trkpt>
      <trkpt lat="43.31832" lon="5.51173">
        <ele>205</ele>
        <time>2014-03-05T08:00:48Z</time>
      </trkpt>
      <trkpt lat="43.31836" lon="5.51175">
        <ele>206</ele>
        <time>2014-03-05T08:00:52Z</time>
      </trkpt>
      <trkpt lat="43.31839" lon="5.51177">
        <ele>206.5</ele>
        <time>2014-03-05T08:00:55Z</time>
      </trkpt>
      <trkpt lat="43.31842" lon="5.51179">
        <ele>206.3</ele>
        <time>2014-03-05T08:00:59Z</time>
      </trkpt>
      <trkpt lat="43.31846" lon="5.5118">
        <ele>206</ele>
        <time>2014-03-05T08:01:03Z</time>
      </trkpt>
      <trkpt lat="43.31849" lon="5.51181">
        <ele>205.5</ele>
        <time>2014-03-05T08:01:06Z</time>
      </trkpt>
      <trkpt lat="43.31853" lon="5.51181">
        <ele>206.8</ele>
        <time>2014-03-05T08:01:08Z</time>
      </trkpt>
      <trkpt lat="43.31856" lon="5.51182">
        <ele>207.3</ele>
        <time>2014-03-05T08:01:11Z</time>
      </trkpt>
      <trkpt lat="43.3186" lon="5.51182">
        <ele>207.1</ele>
        <time>2014-03-05T08:01:14Z</time>
      </trkpt>
      <trkpt lat="43.31864" lon="5.51183">
        <ele>208</ele>
        <time>2014-03-05T08:01:17Z</time>
      </trkpt>
      <trkpt lat="43.31868" lon="5.51183">
        <ele>209.3</ele>
        <time>2014-03-05T08:01:21Z</time>
      </trkpt>
      <trkpt lat="43.31869" lon="5.51183">
        <ele>209.8</ele>
        <time>2014-03-05T08:01:22Z</time>
      </trkpt>
      <trkpt lat="43.31876" lon="5.51184">
        <ele>212.3</ele>
        <time>2014-03-05T08:01:29Z</time>
      </trkpt>
      <trkpt lat="43.3188" lon="5.51183">
        <ele>210.8</ele>
        <time>2014-03-05T08:01:33Z</time>
      </trkpt>
      <trkpt lat="43.31884" lon="5.51182">
        <ele>211</ele>
        <time>2014-03-05T08:01:38Z</time>
      </trkpt>
      <trkpt lat="43.31888" lon="5.51182">
        <ele>211.1</ele>
        <time>2014-03-05T08:01:41Z</time>
      </trkpt>
      <trkpt lat="43.31892" lon="5.51181">
        <ele>211.3</ele>
        <time>2014-03-05T08:01:45Z</time>
      </trkpt>
      <trkpt lat="43.31895" lon="5.51181">
        <ele>210.8</ele>
        <time>2014-03-05T08:01:49Z</time>
      </trkpt>
      <trkpt lat="43.31899" lon="5.51181">
        <ele>212.1</ele>
        <time>2014-03-05T08:01:52Z</time>
      </trkpt>
      <trkpt lat="43.31902" lon="5.51181">
        <ele>214.3</ele>
        <time>2014-03-05T08:01:54Z</time>
      </trkpt>
      <trkpt lat="43.31906" lon="5.51182">
        <ele>216.3</ele>
        <time>2014-03-05T08:01:57Z</time>
      </trkpt>
      <trkpt lat="43.31909" lon="5.51184">
        <ele>216.3</ele>
        <time>2014-03-05T08:02:01Z</time>
      </trkpt>
      <trkpt lat="43.31913" lon="5.51186">
        <ele>215.8</ele>
        <time>2014-03-05T08:02:05Z</time>
      </trkpt>
      <trkpt lat="43.31916" lon="5.51188">
        <ele>216</ele>
        <time>2014-03-05T08:02:09Z</time>
      </trkpt>
      <trkpt lat="43.3192" lon="5.51191">
        <ele>213.8</ele>
        <time>2014-03-05T08:02:14Z</time>
      </trkpt>
      <trkpt lat="43.31922" lon="5.51193">
        <ele>213.3</ele>
        <time>2014-03-05T08:02:17Z</time>
      </trkpt>
      <trkpt lat="43.31926" lon="5.51195">
        <ele>213.6</ele>
        <time>2014-03-05T08:02:20Z</time>
      </trkpt>
      <trkpt lat="43.3193" lon="5.51197">
        <ele>213.6</ele>
        <time>2014-03-05T08:02:24Z</time>
      </trkpt>
      <trkpt lat="43.31931" lon="5.51198">
        <ele>213.6</ele>
        <time>2014-03-05T08:02:25Z</time>
      </trkpt>
      <trkpt lat="43.31936" lon="5.51202">
        <ele>214.1</ele>
        <time>2014-03-05T08:02:31Z</time>
      </trkpt>
      <trkpt lat="43.3194" lon="5.51205">
        <ele>214.8</ele>
        <time>2014-03-05T08:02:34Z</time>
      </trkpt>
      <trkpt lat="43.31943" lon="5.51207">
        <ele>215.6</ele>
        <time>2014-03-05T08:02:37Z</time>
      </trkpt>
      <trkpt lat="43.31947" lon="5.51209">
        <ele>216.1</ele>
        <time>2014-03-05T08:02:40Z</time>
      </trkpt>
      <trkpt lat="43.31951" lon="5.51211">
        <ele>216.6</ele>
        <time>2014-03-05T08:02:43Z</time>
      </trkpt>
      <trkpt lat="43.31954" lon="5.51214">
        <ele>216.8</ele>
        <time>2014-03-05T08:02:46Z</time>
      </trkpt>
      <trkpt lat="43.31958" lon="5.51217">
        <ele>216.8</ele>
        <time>2014-03-05T08:02:50Z</time>
      </trkpt>
      <trkpt lat="43.31961" lon="5.5122">
        <ele>216.3</ele>
        <time>2014-03-05T08:02:54Z</time>
      </trkpt>
      <trkpt lat="43.31965" lon="5.51221">
        <ele>217.1</ele>
        <time>2014-03-05T08:02:57Z</time>
      </trkpt>
      <trkpt lat="43.31968" lon="5.51223">
        <ele>217.3</ele>
        <time>2014-03-05T08:03:00Z</time>
      </trkpt>
      <trkpt lat="43.31972" lon="5.51224">
        <ele>218.1</ele>
        <time>2014-03-05T08:03:03Z</time>
      </trkpt>
      <trkpt lat="43.31976" lon="5.51226">
        <ele>217.6</ele>
        <time>2014-03-05T08:03:07Z</time>
      </trkpt>
      <trkpt lat="43.31979" lon="5.51227">
        <ele>217.3</ele>
        <time>2014-03-05T08:03:10Z</time>
      </trkpt>
      <trkpt lat="43.31983" lon="5.51228">
        <ele>217.5</ele>
        <time>2014-03-05T08:03:13Z</time>
      </trkpt>
      <trkpt lat="43.31987" lon="5.51229">
        <ele>217.1</ele>
        <time>2014-03-05T08:03:16Z</time>
      </trkpt>
      <trkpt lat="43.3199" lon="5.5123">
        <ele>217.8</ele>
        <time>2014-03-05T08:03:18Z</time>
      </trkpt>
      <trkpt lat="43.31993" lon="5.51231">
        <ele>218.1</ele>
        <time>2014-03-05T08:03:21Z</time>
      </trkpt>
      <trkpt lat="43.31997" lon="5.51233">
        <ele>216.8</ele>
        <time>2014-03-05T08:03:27Z</time>
      </trkpt>
      <trkpt lat="43.31998" lon="5.51234">
        <ele>216.8</ele>
        <time>2014-03-05T08:03:28Z</time>
      </trkpt>
      <trkpt lat="43.32004" lon="5.51236">
        <ele>218.1</ele>
        <time>2014-03-05T08:03:33Z</time>
      </trkpt>
      <trkpt lat="43.32008" lon="5.51236">
        <ele>218.3</ele>
        <time>2014-03-05T08:03:36Z</time>
      </trkpt>
      <trkpt lat="43.32012" lon="5.51236">
        <ele>218.5</ele>
        <time>2014-03-05T08:03:40Z</time>
      </trkpt>
      <trkpt lat="43.32017" lon="5.51238">
        <ele>218.6</ele>
        <time>2014-03-05T08:03:44Z</time>
      </trkpt>
      <trkpt lat="43.3202" lon="5.5124">
        <ele>217.8</ele>
        <time>2014-03-05T08:03:47Z</time>
      </trkpt>
      <trkpt lat="43.32024" lon="5.51241">
        <ele>218.3</ele>
        <time>2014-03-05T08:03:50Z</time>
      </trkpt>
      <trkpt lat="43.32028" lon="5.51242">
        <ele>219.1</ele>
        <time>2014-03-05T08:03:53Z</time>
      </trkpt>
      <trkpt lat="43.32031" lon="5.51245">
        <ele>219.5</ele>
        <time>2014-03-05T08:03:56Z</time>
      </trkpt>
      <trkpt lat="43.32035" lon="5.51246">
        <ele>219.5</ele>
        <time>2014-03-05T08:04:00Z</time>
      </trkpt>
      <trkpt lat="43.32038" lon="5.51248">
        <ele>219.8</ele>
        <time>2014-03-05T08:04:05Z</time>
      </trkpt>
      <trkpt lat="43.32042" lon="5.5125">
        <ele>221.1</ele>
        <time>2014-03-05T08:04:10Z</time>
      </trkpt>
      <trkpt lat="43.32046" lon="5.51251">
        <ele>221.6</ele>
        <time>2014-03-05T08:04:15Z</time>
      </trkpt>
      <trkpt lat="43.3205" lon="5.51252">
        <ele>219.6</ele>
        <time>2014-03-05T08:04:19Z</time>
      </trkpt>
      <trkpt lat="43.32055" lon="5.51253">
        <ele>217.8</ele>
        <time>2014-03-05T08:04:23Z</time>
      </trkpt>
      <trkpt lat="43.32058" lon="5.51254">
        <ele>216.8</ele>
        <time>2014-03-05T08:04:26Z</time>
      </trkpt>
      <trkpt lat="43.32062" lon="5.51254">
        <ele>216.1</ele>
        <time>2014-03-05T08:04:29Z</time>
      </trkpt>
      <trkpt lat="43.32063" lon="5.51254">
        <ele>215.8</ele>
        <time>2014-03-05T08:04:30Z</time>
      </trkpt>
      <trkpt lat="43.3207" lon="5.51253">
        <ele>215.3</ele>
        <time>2014-03-05T08:04:35Z</time>
      </trkpt>
      <trkpt lat="43.32073" lon="5.51252">
        <ele>214.8</ele>
        <time>2014-03-05T08:04:38Z</time>
      </trkpt>
      <trkpt lat="43.32077" lon="5.51252">
        <ele>214.1</ele>
        <time>2014-03-05T08:04:41Z</time>
      </trkpt>
      <trkpt lat="43.32081" lon="5.51251">
        <ele>213.6</ele>
        <time>2014-03-05T08:04:44Z</time>
      </trkpt>
      <trkpt lat="43.32085" lon="5.51251">
        <ele>213.3</ele>
        <time>2014-03-05T08:04:47Z</time>
      </trkpt>
      <trkpt lat="43.32089" lon="5.5125">
        <ele>213.1</ele>
        <time>2014-03-05T08:04:50Z</time>
      </trkpt>
      <trkpt lat="43.32092" lon="5.5125">
        <ele>213.6</ele>
        <time>2014-03-05T08:04:53Z</time>
      </trkpt>
      <trkpt lat="43.32096" lon="5.51253">
        <ele>216.3</ele>
        <time>2014-03-05T08:04:56Z</time>
      </trkpt>
      <trkpt lat="43.321" lon="5.51254">
        <ele>216.5</ele>
        <time>2014-03-05T08:05:00Z</time>
      </trkpt>
      <trkpt lat="43.32104" lon="5.51256">
        <ele>218.3</ele>
        <time>2014-03-05T08:05:03Z</time>
      </trkpt>
      <trkpt lat="43.32108" lon="5.51255">
        <ele>217</ele>
        <time>2014-03-05T08:05:07Z</time>
      </trkpt>
      <trkpt lat="43.32112" lon="5.51255">
        <ele>216.1</ele>
        <time>2014-03-05T08:05:14Z</time>
      </trkpt>
      <trkpt lat="43.32116" lon="5.51254">
        <ele>218.8</ele>
        <time>2014-03-05T08:05:19Z</time>
      </trkpt>
      <trkpt lat="43.32117" lon="5.5126">
        <ele>216.3</ele>
        <time>2014-03-05T08:06:44Z</time>
      </trkpt>
      <trkpt lat="43.32117" lon="5.51261">
        <ele>216.5</ele>
        <time>2014-03-05T08:06:45Z</time>
      </trkpt>
      <trkpt lat="43.32123" lon="5.51266">
        <ele>213.3</ele>
        <time>2014-03-05T08:06:53Z</time>
      </trkpt>
      <trkpt lat="43.32127" lon="5.51269">
        <ele>210.8</ele>
        <time>2014-03-05T08:06:57Z</time>
      </trkpt>
      <trkpt lat="43.3213" lon="5.51272">
        <ele>209.3</ele>
        <time>2014-03-05T08:07:00Z</time>
      </trkpt>
      <trkpt lat="43.32133" lon="5.51274">
        <ele>207.8</ele>
        <time>2014-03-05T08:07:03Z</time>
      </trkpt>
      <trkpt lat="43.32136" lon="5.51278">
        <ele>206.3</ele>
        <time>2014-03-05T08:07:07Z</time>
      </trkpt>
      <trkpt lat="43.32139" lon="5.51281">
        <ele>204.6</ele>
        <time>2014-03-05T08:07:10Z</time>
      </trkpt>
      <trkpt lat="43.32142" lon="5.51284">
        <ele>203.1</ele>
        <time>2014-03-05T08:07:13Z</time>
      </trkpt>
      <trkpt lat="43.32144" lon="5.51288">
        <ele>202.1</ele>
        <time>2014-03-05T08:07:16Z</time>
      </trkpt>
      <trkpt lat="43.32147" lon="5.51291">
        <ele>201.1</ele>
        <time>2014-03-05T08:07:19Z</time>
      </trkpt>
      <trkpt lat="43.3215" lon="5.51294">
        <ele>200.1</ele>
        <time>2014-03-05T08:07:22Z</time>
      </trkpt>
      <trkpt lat="43.32153" lon="5.51297">
        <ele>198.8</ele>
        <time>2014-03-05T08:07:25Z</time>
      </trkpt>
      <trkpt lat="43.32155" lon="5.51302">
        <ele>197.6</ele>
        <time>2014-03-05T08:07:28Z</time>
      </trkpt>
      <trkpt lat="43.32158" lon="5.51305">
        <ele>196.8</ele>
        <time>2014-03-05T08:07:31Z</time>
      </trkpt>
      <trkpt lat="43.3216" lon="5.51309">
        <ele>195.8</ele>
        <time>2014-03-05T08:07:34Z</time>
      </trkpt>
      <trkpt lat="43.32163" lon="5.51313">
        <ele>193.8</ele>
        <time>2014-03-05T08:07:38Z</time>
      </trkpt>
      <trkpt lat="43.32166" lon="5.51317">
        <ele>192.1</ele>
        <time>2014-03-05T08:07:42Z</time>
      </trkpt>
      <trkpt lat="43.32169" lon="5.51321">
        <ele>191.3</ele>
        <time>2014-03-05T08:07:45Z</time>
      </trkpt>
      <trkpt lat="43.3217" lon="5.51322">
        <ele>191.1</ele>
        <time>2014-03-05T08:07:46Z</time>
      </trkpt>
      <trkpt lat="43.32175" lon="5.51327">
        <ele>192.3</ele>
        <time>2014-03-05T08:07:50Z</time>
      </trkpt>
      <trkpt lat="43.32176" lon="5.51331">
        <ele>194.8</ele>
        <time>2014-03-05T08:07:52Z</time>
      </trkpt>
      <trkpt lat="43.32177" lon="5.51336">
        <ele>195.1</ele>
        <time>2014-03-05T08:07:55Z</time>
      </trkpt>
      <trkpt lat="43.3218" lon="5.5134">
        <ele>193.3</ele>
        <time>2014-03-05T08:08:00Z</time>
      </trkpt>
      <trkpt lat="43.32182" lon="5.51345">
        <ele>193.5</ele>
        <time>2014-03-05T08:08:03Z</time>
      </trkpt>
      <trkpt lat="43.32182" lon="5.51349">
        <ele>195.3</ele>
        <time>2014-03-05T08:08:04Z</time>
      </trkpt>
      <trkpt lat="43.32182" lon="5.51352">
        <ele>196.8</ele>
        <time>2014-03-05T08:08:05Z</time>
      </trkpt>
      <trkpt lat="43.32182" lon="5.51358">
        <ele>198.8</ele>
        <time>2014-03-05T08:08:07Z</time>
      </trkpt>
      <trkpt lat="43.32183" lon="5.51364">
        <ele>199.3</ele>
        <time>2014-03-05T08:08:10Z</time>
      </trkpt>
      <trkpt lat="43.32184" lon="5.51368">
        <ele>199.1</ele>
        <time>2014-03-05T08:08:13Z</time>
      </trkpt>
      <trkpt lat="43.32185" lon="5.51373">
        <ele>199.5</ele>
        <time>2014-03-05T08:08:16Z</time>
      </trkpt>
      <trkpt lat="43.32184" lon="5.51378">
        <ele>199.8</ele>
        <time>2014-03-05T08:08:19Z</time>
      </trkpt>
      <trkpt lat="43.32184" lon="5.51383">
        <ele>200</ele>
        <time>2014-03-05T08:08:22Z</time>
      </trkpt>
      <trkpt lat="43.32184" lon="5.51389">
        <ele>199.1</ele>
        <time>2014-03-05T08:08:26Z</time>
      </trkpt>
      <trkpt lat="43.32185" lon="5.51395">
        <ele>198</ele>
        <time>2014-03-05T08:08:30Z</time>
      </trkpt>
      <trkpt lat="43.32186" lon="5.514">
        <ele>194.6</ele>
        <time>2014-03-05T08:08:35Z</time>
      </trkpt>
      <trkpt lat="43.32187" lon="5.51406">
        <ele>195.3</ele>
        <time>2014-03-05T08:08:38Z</time>
      </trkpt>
      <trkpt lat="43.32187" lon="5.51412">
        <ele>194.6</ele>
        <time>2014-03-05T08:08:41Z</time>
      </trkpt>
      <trkpt lat="43.32188" lon="5.51416">
        <ele>194.8</ele>
        <time>2014-03-05T08:08:44Z</time>
      </trkpt>
      <trkpt lat="43.32188" lon="5.5142">
        <ele>194.8</ele>
        <time>2014-03-05T08:08:47Z</time>
      </trkpt>
      <trkpt lat="43.32187" lon="5.51422">
        <ele>194.5</ele>
        <time>2014-03-05T08:08:48Z</time>
      </trkpt>
      <trkpt lat="43.32185" lon="5.51429">
        <ele>193.3</ele>
        <time>2014-03-05T08:08:53Z</time>
      </trkpt>
      <trkpt lat="43.32183" lon="5.51434">
        <ele>193.1</ele>
        <time>2014-03-05T08:08:56Z</time>
      </trkpt>
      <trkpt lat="43.32181" lon="5.51439">
        <ele>192.8</ele>
        <time>2014-03-05T08:09:00Z</time>
      </trkpt>
      <trkpt lat="43.32179" lon="5.51443">
        <ele>191.6</ele>
        <time>2014-03-05T08:09:04Z</time>
      </trkpt>
      <trkpt lat="43.32176" lon="5.51448">
        <ele>190.8</ele>
        <time>2014-03-05T08:09:08Z</time>
      </trkpt>
      <trkpt lat="43.32174" lon="5.51452">
        <ele>189.8</ele>
        <time>2014-03-05T08:09:11Z</time>
      </trkpt>
      <trkpt lat="43.32171" lon="5.51456">
        <ele>189.5</ele>
        <time>2014-03-05T08:09:14Z</time>
      </trkpt>
      <trkpt lat="43.3217" lon="5.51459">
        <ele>189.1</ele>
        <time>2014-03-05T08:09:16Z</time>
      </trkpt>
      <trkpt lat="43.32168" lon="5.51463">
        <ele>190.1</ele>
        <time>2014-03-05T08:09:17Z</time>
      </trkpt>
      <trkpt lat="43.32166" lon="5.51467">
        <ele>190.8</ele>
        <time>2014-03-05T08:09:19Z</time>
      </trkpt>
      <trkpt lat="43.32164" lon="5.51471">
        <ele>191.1</ele>
        <time>2014-03-05T08:09:21Z</time>
      </trkpt>
      <trkpt lat="43.32162" lon="5.51475">
        <ele>191.5</ele>
        <time>2014-03-05T08:09:24Z</time>
      </trkpt>
      <trkpt lat="43.32159" lon="5.5148">
        <ele>192</ele>
        <time>2014-03-05T08:09:27Z</time>
      </trkpt>
      <trkpt lat="43.32156" lon="5.51484">
        <ele>191.3</ele>
        <time>2014-03-05T08:09:31Z</time>
      </trkpt>
      <trkpt lat="43.32154" lon="5.51488">
        <ele>191.3</ele>
        <time>2014-03-05T08:09:34Z</time>
      </trkpt>
      <trkpt lat="43.32152" lon="5.51492">
        <ele>191</ele>
        <time>2014-03-05T08:09:37Z</time>
      </trkpt>
      <trkpt lat="43.3215" lon="5.51496">
        <ele>190.6</ele>
        <time>2014-03-05T08:09:40Z</time>
      </trkpt>
      <trkpt lat="43.32148" lon="5.51502">
        <ele>191.5</ele>
        <time>2014-03-05T08:09:43Z</time>
      </trkpt>
      <trkpt lat="43.32147" lon="5.51507">
        <ele>191.6</ele>
        <time>2014-03-05T08:09:45Z</time>
      </trkpt>
      <trkpt lat="43.32147" lon="5.51512">
        <ele>192</ele>
        <time>2014-03-05T08:09:48Z</time>
      </trkpt>
      <trkpt lat="43.32148" lon="5.51514">
        <ele>191.8</ele>
        <time>2014-03-05T08:09:49Z</time>
      </trkpt>
      <trkpt lat="43.32149" lon="5.51523">
        <ele>190.1</ele>
        <time>2014-03-05T08:09:55Z</time>
      </trkpt>
      <trkpt lat="43.3215" lon="5.51528">
        <ele>189.5</ele>
        <time>2014-03-05T08:09:58Z</time>
      </trkpt>
      <trkpt lat="43.32152" lon="5.51532">
        <ele>190.1</ele>
        <time>2014-03-05T08:10:01Z</time>
      </trkpt>
      <trkpt lat="43.32154" lon="5.51538">
        <ele>188.3</ele>
        <time>2014-03-05T08:10:05Z</time>
      </trkpt>
      <trkpt lat="43.32155" lon="5.51543">
        <ele>186.6</ele>
        <time>2014-03-05T08:10:09Z</time>
      </trkpt>
      <trkpt lat="43.32156" lon="5.51548">
        <ele>185.8</ele>
        <time>2014-03-05T08:10:12Z</time>
      </trkpt>
      <trkpt lat="43.32156" lon="5.51554">
        <ele>185.6</ele>
        <time>2014-03-05T08:10:15Z</time>
      </trkpt>
      <trkpt lat="43.32157" lon="5.51558">
        <ele>185.1</ele>
        <time>2014-03-05T08:10:18Z</time>
      </trkpt>
      <trkpt lat="43.32158" lon="5.51563">
        <ele>185.3</ele>
        <time>2014-03-05T08:10:21Z</time>
      </trkpt>
      <trkpt lat="43.32159" lon="5.51567">
        <ele>185.6</ele>
        <time>2014-03-05T08:10:24Z</time>
      </trkpt>
      <trkpt lat="43.32161" lon="5.51572">
        <ele>187.1</ele>
        <time>2014-03-05T08:10:27Z</time>
      </trkpt>
      <trkpt lat="43.32163" lon="5.51578">
        <ele>188.5</ele>
        <time>2014-03-05T08:10:31Z</time>
      </trkpt>
      <trkpt lat="43.32166" lon="5.51582">
        <ele>189.1</ele>
        <time>2014-03-05T08:10:35Z</time>
      </trkpt>
      <trkpt lat="43.32168" lon="5.51586">
        <ele>189.6</ele>
        <time>2014-03-05T08:10:38Z</time>
      </trkpt>
      <trkpt lat="43.3217" lon="5.5159">
        <ele>189.8</ele>
        <time>2014-03-05T08:10:41Z</time>
      </trkpt>
      <trkpt lat="43.32172" lon="5.51594">
        <ele>189.6</ele>
        <time>2014-03-05T08:10:44Z</time>
      </trkpt>
      <trkpt lat="43.32175" lon="5.51598">
        <ele>190.1</ele>
        <time>2014-03-05T08:10:47Z</time>
      </trkpt>
      <trkpt lat="43.32177" lon="5.51604">
        <ele>189.8</ele>
        <time>2014-03-05T08:10:51Z</time>
      </trkpt>
      <trkpt lat="43.32177" lon="5.51605">
        <ele>189.6</ele>
        <time>2014-03-05T08:10:52Z</time>
      </trkpt>
      <trkpt lat="43.3218" lon="5.51614">
        <ele>190.6</ele>
        <time>2014-03-05T08:10:58Z</time>
      </trkpt>
      <trkpt lat="43.32183" lon="5.51618">
        <ele>192</ele>
        <time>2014-03-05T08:11:02Z</time>
      </trkpt>
      <trkpt lat="43.32185" lon="5.51623">
        <ele>193.1</ele>
        <time>2014-03-05T08:11:05Z</time>
      </trkpt>
      <trkpt lat="43.32188" lon="5.51628">
        <ele>193.8</ele>
        <time>2014-03-05T08:11:09Z</time>
      </trkpt>
      <trkpt lat="43.32191" lon="5.51631">
        <ele>193.6</ele>
        <time>2014-03-05T08:11:12Z</time>
      </trkpt>
      <trkpt lat="43.32194" lon="5.51635">
        <ele>194.1</ele>
        <time>2014-03-05T08:11:15Z</time>
      </trkpt>
      <trkpt lat="43.32198" lon="5.51637">
        <ele>194.1</ele>
        <time>2014-03-05T08:11:18Z</time>
      </trkpt>
      <trkpt lat="43.32201" lon="5.51639">
        <ele>194.6</ele>
        <time>2014-03-05T08:11:21Z</time>
      </trkpt>
      <trkpt lat="43.32204" lon="5.51642">
        <ele>195.1</ele>
        <time>2014-03-05T08:11:24Z</time>
      </trkpt>
      <trkpt lat="43.32208" lon="5.51646">
        <ele>195.3</ele>
        <time>2014-03-05T08:11:27Z</time>
      </trkpt>
      <trkpt lat="43.3221" lon="5.5165">
        <ele>195.3</ele>
        <time>2014-03-05T08:11:30Z</time>
      </trkpt>
      <trkpt lat="43.32211" lon="5.51655">
        <ele>194.3</ele>
        <time>2014-03-05T08:11:34Z</time>
      </trkpt>
      <trkpt lat="43.32215" lon="5.51659">
        <ele>196.8</ele>
        <time>2014-03-05T08:11:37Z</time>
      </trkpt>
      <trkpt lat="43.32216" lon="5.51663">
        <ele>196.8</ele>
        <time>2014-03-05T08:11:40Z</time>
      </trkpt>
      <trkpt lat="43.32216" lon="5.51669">
        <ele>196.6</ele>
        <time>2014-03-05T08:11:43Z</time>
      </trkpt>
      <trkpt lat="43.32219" lon="5.51672">
        <ele>196.3</ele>
        <time>2014-03-05T08:11:46Z</time>
      </trkpt>
      <trkpt lat="43.32221" lon="5.51676">
        <ele>196.1</ele>
        <time>2014-03-05T08:11:49Z</time>
      </trkpt>
      <trkpt lat="43.32223" lon="5.51677">
        <ele>196.1</ele>
        <time>2014-03-05T08:11:51Z</time>
      </trkpt>
      <trkpt lat="43.32226" lon="5.51678">
        <ele>198.6</ele>
        <time>2014-03-05T08:11:52Z</time>
      </trkpt>
      <trkpt lat="43.32227" lon="5.51679">
        <ele>198.3</ele>
        <time>2014-03-05T08:11:53Z</time>
      </trkpt>
      <trkpt lat="43.32233" lon="5.51683">
        <ele>197.3</ele>
        <time>2014-03-05T08:11:59Z</time>
      </trkpt>
      <trkpt lat="43.32236" lon="5.51687">
        <ele>198.1</ele>
        <time>2014-03-05T08:12:03Z</time>
      </trkpt>
      <trkpt lat="43.32239" lon="5.51688">
        <ele>200.8</ele>
        <time>2014-03-05T08:12:05Z</time>
      </trkpt>
      <trkpt lat="43.32242" lon="5.5169">
        <ele>202.3</ele>
        <time>2014-03-05T08:12:07Z</time>
      </trkpt>
      <trkpt lat="43.32245" lon="5.51693">
        <ele>201.6</ele>
        <time>2014-03-05T08:12:11Z</time>
      </trkpt>
      <trkpt lat="43.32249" lon="5.51695">
        <ele>201.5</ele>
        <time>2014-03-05T08:12:15Z</time>
      </trkpt>
      <trkpt lat="43.32253" lon="5.51696">
        <ele>200.1</ele>
        <time>2014-03-05T08:12:20Z</time>
      </trkpt>
      <trkpt lat="43.32257" lon="5.51697">
        <ele>200.6</ele>
        <time>2014-03-05T08:12:23Z</time>
      </trkpt>
      <trkpt lat="43.3226" lon="5.51697">
        <ele>201.5</ele>
        <time>2014-03-05T08:12:25Z</time>
      </trkpt>
      <trkpt lat="43.32264" lon="5.51698">
        <ele>202.1</ele>
        <time>2014-03-05T08:12:28Z</time>
      </trkpt>
      <trkpt lat="43.32267" lon="5.517">
        <ele>203.6</ele>
        <time>2014-03-05T08:12:31Z</time>
      </trkpt>
      <trkpt lat="43.32271" lon="5.51701">
        <ele>204.1</ele>
        <time>2014-03-05T08:12:34Z</time>
      </trkpt>
      <trkpt lat="43.32275" lon="5.51701">
        <ele>204.1</ele>
        <time>2014-03-05T08:12:37Z</time>
      </trkpt>
      <trkpt lat="43.32279" lon="5.51703">
        <ele>207.6</ele>
        <time>2014-03-05T08:12:40Z</time>
      </trkpt>
      <trkpt lat="43.32282" lon="5.51706">
        <ele>208.1</ele>
        <time>2014-03-05T08:12:44Z</time>
      </trkpt>
      <trkpt lat="43.32286" lon="5.51708">
        <ele>207.8</ele>
        <time>2014-03-05T08:12:47Z</time>
      </trkpt>
      <trkpt lat="43.32289" lon="5.51712">
        <ele>207.8</ele>
        <time>2014-03-05T08:12:50Z</time>
      </trkpt>
      <trkpt lat="43.32292" lon="5.51715">
        <ele>206.6</ele>
        <time>2014-03-05T08:12:54Z</time>
      </trkpt>
      <trkpt lat="43.32292" lon="5.51716">
        <ele>205.6</ele>
        <time>2014-03-05T08:12:55Z</time>
      </trkpt>
      <trkpt lat="43.32297" lon="5.51724">
        <ele>202.1</ele>
        <time>2014-03-05T08:13:03Z</time>
      </trkpt>
      <trkpt lat="43.323" lon="5.51728">
        <ele>201.8</ele>
        <time>2014-03-05T08:13:07Z</time>
      </trkpt>
      <trkpt lat="43.32302" lon="5.51731">
        <ele>202.8</ele>
        <time>2014-03-05T08:13:11Z</time>
      </trkpt>
      <trkpt lat="43.32306" lon="5.51735">
        <ele>199.8</ele>
        <time>2014-03-05T08:13:15Z</time>
      </trkpt>
      <trkpt lat="43.32308" lon="5.51738">
        <ele>200.1</ele>
        <time>2014-03-05T08:13:18Z</time>
      </trkpt>
      <trkpt lat="43.32311" lon="5.5174">
        <ele>200.6</ele>
        <time>2014-03-05T08:13:21Z</time>
      </trkpt>
      <trkpt lat="43.32315" lon="5.51743">
        <ele>199.8</ele>
        <time>2014-03-05T08:13:25Z</time>
      </trkpt>
      <trkpt lat="43.32318" lon="5.51746">
        <ele>199.8</ele>
        <time>2014-03-05T08:13:28Z</time>
      </trkpt>
      <trkpt lat="43.32321" lon="5.51749">
        <ele>199.5</ele>
        <time>2014-03-05T08:13:31Z</time>
      </trkpt>
      <trkpt lat="43.32324" lon="5.51752">
        <ele>199.3</ele>
        <time>2014-03-05T08:13:33Z</time>
      </trkpt>
      <trkpt lat="43.32326" lon="5.51755">
        <ele>199.5</ele>
        <time>2014-03-05T08:13:35Z</time>
      </trkpt>
      <trkpt lat="43.32329" lon="5.51758">
        <ele>199.6</ele>
        <time>2014-03-05T08:13:37Z</time>
      </trkpt>
      <trkpt lat="43.32332" lon="5.51761">
        <ele>199.5</ele>
        <time>2014-03-05T08:13:40Z</time>
      </trkpt>
      <trkpt lat="43.32335" lon="5.51764">
        <ele>199.6</ele>
        <time>2014-03-05T08:13:43Z</time>
      </trkpt>
      <trkpt lat="43.32338" lon="5.51768">
        <ele>199.5</ele>
        <time>2014-03-05T08:13:47Z</time>
      </trkpt>
      <trkpt lat="43.32341" lon="5.51771">
        <ele>201.1</ele>
        <time>2014-03-05T08:13:50Z</time>
      </trkpt>
      <trkpt lat="43.32344" lon="5.51775">
        <ele>202.3</ele>
        <time>2014-03-05T08:13:54Z</time>
      </trkpt>
      <trkpt lat="43.32346" lon="5.51779">
        <ele>202</ele>
        <time>2014-03-05T08:13:58Z</time>
      </trkpt>
      <trkpt lat="43.32347" lon="5.5178">
        <ele>201.8</ele>
        <time>2014-03-05T08:13:59Z</time>
      </trkpt>
      <trkpt lat="43.3235" lon="5.51789">
        <ele>201</ele>
        <time>2014-03-05T08:14:07Z</time>
      </trkpt>
      <trkpt lat="43.32353" lon="5.51793">
        <ele>202</ele>
        <time>2014-03-05T08:14:11Z</time>
      </trkpt>
      <trkpt lat="43.32356" lon="5.51798">
        <ele>203.3</ele>
        <time>2014-03-05T08:14:16Z</time>
      </trkpt>
      <trkpt lat="43.32354" lon="5.51803">
        <ele>205.3</ele>
        <time>2014-03-05T08:14:25Z</time>
      </trkpt>
      <trkpt lat="43.32351" lon="5.51807">
        <ele>205.3</ele>
        <time>2014-03-05T08:14:32Z</time>
      </trkpt>
      <trkpt lat="43.32348" lon="5.5181">
        <ele>205</ele>
        <time>2014-03-05T08:14:37Z</time>
      </trkpt>
      <trkpt lat="43.32345" lon="5.51813">
        <ele>204.8</ele>
        <time>2014-03-05T08:14:41Z</time>
      </trkpt>
      <trkpt lat="43.32343" lon="5.51817">
        <ele>205.5</ele>
        <time>2014-03-05T08:14:44Z</time>
      </trkpt>
      <trkpt lat="43.32341" lon="5.51822">
        <ele>205.5</ele>
        <time>2014-03-05T08:14:47Z</time>
      </trkpt>
      <trkpt lat="43.32339" lon="5.51828">
        <ele>206.3</ele>
        <time>2014-03-05T08:14:51Z</time>
      </trkpt>
      <trkpt lat="43.32338" lon="5.51833">
        <ele>206.3</ele>
        <time>2014-03-05T08:14:54Z</time>
      </trkpt>
      <trkpt lat="43.32336" lon="5.51838">
        <ele>206.5</ele>
        <time>2014-03-05T08:14:59Z</time>
      </trkpt>
      <trkpt lat="43.32336" lon="5.5184">
        <ele>206.6</ele>
        <time>2014-03-05T08:15:00Z</time>
      </trkpt>
      <trkpt lat="43.32335" lon="5.51849">
        <ele>205.1</ele>
        <time>2014-03-05T08:15:07Z</time>
      </trkpt>
      <trkpt lat="43.32334" lon="5.51855">
        <ele>203.6</ele>
        <time>2014-03-05T08:15:11Z</time>
      </trkpt>
      <trkpt lat="43.32334" lon="5.5186">
        <ele>205.5</ele>
        <time>2014-03-05T08:15:15Z</time>
      </trkpt>
      <trkpt lat="43.32333" lon="5.51865">
        <ele>205.1</ele>
        <time>2014-03-05T08:15:18Z</time>
      </trkpt>
      <trkpt lat="43.32331" lon="5.5187">
        <ele>205.3</ele>
        <time>2014-03-05T08:15:22Z</time>
      </trkpt>
      <trkpt lat="43.32331" lon="5.51876">
        <ele>207.5</ele>
        <time>2014-03-05T08:15:26Z</time>
      </trkpt>
      <trkpt lat="43.3233" lon="5.51882">
        <ele>208.8</ele>
        <time>2014-03-05T08:15:29Z</time>
      </trkpt>
      <trkpt lat="43.32329" lon="5.51887">
        <ele>209.1</ele>
        <time>2014-03-05T08:15:32Z</time>
      </trkpt>
      <trkpt lat="43.32328" lon="5.51892">
        <ele>210.6</ele>
        <time>2014-03-05T08:15:36Z</time>
      </trkpt>
      <trkpt lat="43.32328" lon="5.51898">
        <ele>211.8</ele>
        <time>2014-03-05T08:15:40Z</time>
      </trkpt>
      <trkpt lat="43.32328" lon="5.51903">
        <ele>210.1</ele>
        <time>2014-03-05T08:15:44Z</time>
      </trkpt>
      <trkpt lat="43.32329" lon="5.51908">
        <ele>209.6</ele>
        <time>2014-03-05T08:15:47Z</time>
      </trkpt>
      <trkpt lat="43.3233" lon="5.51914">
        <ele>210.3</ele>
        <time>2014-03-05T08:15:51Z</time>
      </trkpt>
      <trkpt lat="43.3233" lon="5.51918">
        <ele>210.5</ele>
        <time>2014-03-05T08:15:54Z</time>
      </trkpt>
      <trkpt lat="43.32331" lon="5.51924">
        <ele>211.3</ele>
        <time>2014-03-05T08:15:57Z</time>
      </trkpt>
      <trkpt lat="43.32331" lon="5.51929">
        <ele>211.6</ele>
        <time>2014-03-05T08:16:00Z</time>
      </trkpt>
      <trkpt lat="43.32331" lon="5.51931">
        <ele>211.8</ele>
        <time>2014-03-05T08:16:01Z</time>
      </trkpt>
      <trkpt lat="43.32331" lon="5.5194">
        <ele>213.1</ele>
        <time>2014-03-05T08:16:07Z</time>
      </trkpt>
      <trkpt lat="43.3233" lon="5.51946">
        <ele>213.6</ele>
        <time>2014-03-05T08:16:11Z</time>
      </trkpt>
      <trkpt lat="43.3233" lon="5.51951">
        <ele>213.6</ele>
        <time>2014-03-05T08:16:15Z</time>
      </trkpt>
      <trkpt lat="43.3233" lon="5.51956">
        <ele>213.6</ele>
        <time>2014-03-05T08:16:18Z</time>
      </trkpt>
      <trkpt lat="43.3233" lon="5.51962">
        <ele>214.8</ele>
        <time>2014-03-05T08:16:22Z</time>
      </trkpt>
      <trkpt lat="43.32329" lon="5.51967">
        <ele>214.8</ele>
        <time>2014-03-05T08:16:25Z</time>
      </trkpt>
      <trkpt lat="43.3233" lon="5.51972">
        <ele>214.1</ele>
        <time>2014-03-05T08:16:28Z</time>
      </trkpt>
      <trkpt lat="43.32331" lon="5.51977">
        <ele>214.1</ele>
        <time>2014-03-05T08:16:31Z</time>
      </trkpt>
      <trkpt lat="43.32331" lon="5.51983">
        <ele>213.3</ele>
        <time>2014-03-05T08:16:35Z</time>
      </trkpt>
      <trkpt lat="43.32332" lon="5.51988">
        <ele>212</ele>
        <time>2014-03-05T08:16:39Z</time>
      </trkpt>
      <trkpt lat="43.32333" lon="5.51994">
        <ele>211.1</ele>
        <time>2014-03-05T08:16:43Z</time>
      </trkpt>
      <trkpt lat="43.32334" lon="5.51999">
        <ele>211.6</ele>
        <time>2014-03-05T08:16:46Z</time>
      </trkpt>
      <trkpt lat="43.32335" lon="5.52005">
        <ele>211.8</ele>
        <time>2014-03-05T08:16:50Z</time>
      </trkpt>
      <trkpt lat="43.32335" lon="5.5201">
        <ele>211.3</ele>
        <time>2014-03-05T08:16:54Z</time>
      </trkpt>
      <trkpt lat="43.32334" lon="5.52016">
        <ele>211.6</ele>
        <time>2014-03-05T08:16:57Z</time>
      </trkpt>
      <trkpt lat="43.32334" lon="5.52021">
        <ele>212.6</ele>
        <time>2014-03-05T08:17:00Z</time>
      </trkpt>
      <trkpt lat="43.32334" lon="5.52027">
        <ele>214.3</ele>
        <time>2014-03-05T08:17:03Z</time>
      </trkpt>
      <trkpt lat="43.32334" lon="5.52028">
        <ele>214.3</ele>
        <time>2014-03-05T08:17:04Z</time>
      </trkpt>
      <trkpt lat="43.32333" lon="5.52037">
        <ele>216.1</ele>
        <time>2014-03-05T08:17:10Z</time>
      </trkpt>
      <trkpt lat="43.32333" lon="5.52043">
        <ele>217.1</ele>
        <time>2014-03-05T08:17:14Z</time>
      </trkpt>
      <trkpt lat="43.32334" lon="5.52048">
        <ele>217.6</ele>
        <time>2014-03-05T08:17:17Z</time>
      </trkpt>
      <trkpt lat="43.32337" lon="5.52053">
        <ele>216.6</ele>
        <time>2014-03-05T08:17:21Z</time>
      </trkpt>
      <trkpt lat="43.32339" lon="5.52057">
        <ele>216.3</ele>
        <time>2014-03-05T08:17:25Z</time>
      </trkpt>
      <trkpt lat="43.32342" lon="5.52061">
        <ele>216.8</ele>
        <time>2014-03-05T08:17:28Z</time>
      </trkpt>
      <trkpt lat="43.32342" lon="5.52067">
        <ele>216.8</ele>
        <time>2014-03-05T08:17:31Z</time>
      </trkpt>
      <trkpt lat="43.32343" lon="5.52072">
        <ele>217.1</ele>
        <time>2014-03-05T08:17:34Z</time>
      </trkpt>
      <trkpt lat="43.32344" lon="5.52078">
        <ele>216.1</ele>
        <time>2014-03-05T08:17:38Z</time>
      </trkpt>
      <trkpt lat="43.32346" lon="5.52083">
        <ele>216.6</ele>
        <time>2014-03-05T08:17:41Z</time>
      </trkpt>
      <trkpt lat="43.32346" lon="5.52087">
        <ele>216.8</ele>
        <time>2014-03-05T08:17:44Z</time>
      </trkpt>
      <trkpt lat="43.32347" lon="5.52093">
        <ele>218.1</ele>
        <time>2014-03-05T08:17:47Z</time>
      </trkpt>
      <trkpt lat="43.32349" lon="5.52098">
        <ele>217.3</ele>
        <time>2014-03-05T08:17:51Z</time>
      </trkpt>
      <trkpt lat="43.32352" lon="5.52101">
        <ele>216.6</ele>
        <time>2014-03-05T08:17:55Z</time>
      </trkpt>
      <trkpt lat="43.32353" lon="5.52105">
        <ele>216.1</ele>
        <time>2014-03-05T08:17:58Z</time>
      </trkpt>
      <trkpt lat="43.32355" lon="5.5211">
        <ele>215.8</ele>
        <time>2014-03-05T08:18:02Z</time>
      </trkpt>
      <trkpt lat="43.32356" lon="5.52116">
        <ele>216.6</ele>
        <time>2014-03-05T08:18:05Z</time>
      </trkpt>
      <trkpt lat="43.32356" lon="5.52117">
        <ele>216.6</ele>
        <time>2014-03-05T08:18:06Z</time>
      </trkpt>
      <trkpt lat="43.32361" lon="5.52124">
        <ele>220.1</ele>
        <time>2014-03-05T08:18:12Z</time>
      </trkpt>
      <trkpt lat="43.32364" lon="5.52129">
        <ele>221.1</ele>
        <time>2014-03-05T08:18:16Z</time>
      </trkpt>
      <trkpt lat="43.32367" lon="5.52131">
        <ele>221.5</ele>
        <time>2014-03-05T08:18:18Z</time>
      </trkpt>
      <trkpt lat="43.3237" lon="5.52134">
        <ele>222.3</ele>
        <time>2014-03-05T08:18:21Z</time>
      </trkpt>
      <trkpt lat="43.32373" lon="5.52138">
        <ele>224.8</ele>
        <time>2014-03-05T08:18:24Z</time>
      </trkpt>
      <trkpt lat="43.32375" lon="5.52143">
        <ele>225.3</ele>
        <time>2014-03-05T08:18:28Z</time>
      </trkpt>
      <trkpt lat="43.32376" lon="5.52148">
        <ele>224.1</ele>
        <time>2014-03-05T08:18:33Z</time>
      </trkpt>
      <trkpt lat="43.32377" lon="5.52153">
        <ele>223.1</ele>
        <time>2014-03-05T08:18:37Z</time>
      </trkpt>
      <trkpt lat="43.32379" lon="5.52159">
        <ele>221.6</ele>
        <time>2014-03-05T08:18:42Z</time>
      </trkpt>
      <trkpt lat="43.32379" lon="5.52164">
        <ele>221.3</ele>
        <time>2014-03-05T08:18:46Z</time>
      </trkpt>
      <trkpt lat="43.3238" lon="5.52169">
        <ele>219.5</ele>
        <time>2014-03-05T08:18:50Z</time>
      </trkpt>
      <trkpt lat="43.3238" lon="5.52174">
        <ele>219.1</ele>
        <time>2014-03-05T08:18:54Z</time>
      </trkpt>
      <trkpt lat="43.3238" lon="5.5218">
        <ele>218.5</ele>
        <time>2014-03-05T08:18:58Z</time>
      </trkpt>
      <trkpt lat="43.32381" lon="5.52185">
        <ele>217.8</ele>
        <time>2014-03-05T08:19:03Z</time>
      </trkpt>
      <trkpt lat="43.32383" lon="5.52189">
        <ele>217.3</ele>
        <time>2014-03-05T08:19:07Z</time>
      </trkpt>
      <trkpt lat="43.32384" lon="5.5219">
        <ele>217.6</ele>
        <time>2014-03-05T08:19:08Z</time>
      </trkpt>
      <trkpt lat="43.32389" lon="5.52198">
        <ele>219</ele>
        <time>2014-03-05T08:19:16Z</time>
      </trkpt>
      <trkpt lat="43.32391" lon="5.52202">
        <ele>219.6</ele>
        <time>2014-03-05T08:19:20Z</time>
      </trkpt>
      <trkpt lat="43.32393" lon="5.52208">
        <ele>220.6</ele>
        <time>2014-03-05T08:19:24Z</time>
      </trkpt>
      <trkpt lat="43.32395" lon="5.52211">
        <ele>220.1</ele>
        <time>2014-03-05T08:19:27Z</time>
      </trkpt>
      <trkpt lat="43.32397" lon="5.52215">
        <ele>219.3</ele>
        <time>2014-03-05T08:19:30Z</time>
      </trkpt>
      <trkpt lat="43.324" lon="5.52217">
        <ele>218.5</ele>
        <time>2014-03-05T08:19:33Z</time>
      </trkpt>
      <trkpt lat="43.32403" lon="5.52221">
        <ele>218.5</ele>
        <time>2014-03-05T08:19:36Z</time>
      </trkpt>
      <trkpt lat="43.32405" lon="5.52224">
        <ele>218.5</ele>
        <time>2014-03-05T08:19:39Z</time>
      </trkpt>
      <trkpt lat="43.32409" lon="5.52228">
        <ele>218.8</ele>
        <time>2014-03-05T08:19:43Z</time>
      </trkpt>
      <trkpt lat="43.32412" lon="5.52231">
        <ele>217.6</ele>
        <time>2014-03-05T08:19:48Z</time>
      </trkpt>
      <trkpt lat="43.32415" lon="5.52235">
        <ele>218.1</ele>
        <time>2014-03-05T08:19:51Z</time>
      </trkpt>
      <trkpt lat="43.32417" lon="5.5224">
        <ele>218.8</ele>
        <time>2014-03-05T08:19:54Z</time>
      </trkpt>
      <trkpt lat="43.32419" lon="5.52245">
        <ele>218.6</ele>
        <time>2014-03-05T08:19:58Z</time>
      </trkpt>
      <trkpt lat="43.32421" lon="5.5225">
        <ele>218.6</ele>
        <time>2014-03-05T08:20:02Z</time>
      </trkpt>
      <trkpt lat="43.32424" lon="5.52252">
        <ele>219.3</ele>
        <time>2014-03-05T08:20:05Z</time>
      </trkpt>
      <trkpt lat="43.32428" lon="5.52255">
        <ele>219.8</ele>
        <time>2014-03-05T08:20:09Z</time>
      </trkpt>
      <trkpt lat="43.32429" lon="5.52256">
        <ele>220.1</ele>
        <time>2014-03-05T08:20:10Z</time>
      </trkpt>
      <trkpt lat="43.32435" lon="5.5226">
        <ele>219.6</ele>
        <time>2014-03-05T08:20:15Z</time>
      </trkpt>
      <trkpt lat="43.32438" lon="5.52262">
        <ele>219.3</ele>
        <time>2014-03-05T08:20:18Z</time>
      </trkpt>
      <trkpt lat="43.32441" lon="5.52265">
        <ele>218.8</ele>
        <time>2014-03-05T08:20:22Z</time>
      </trkpt>
      <trkpt lat="43.32444" lon="5.52268">
        <ele>219.3</ele>
        <time>2014-03-05T08:20:26Z</time>
      </trkpt>
      <trkpt lat="43.32448" lon="5.5227">
        <ele>219.8</ele>
        <time>2014-03-05T08:20:30Z</time>
      </trkpt>
      <trkpt lat="43.32452" lon="5.52272">
        <ele>220.1</ele>
        <time>2014-03-05T08:20:34Z</time>
      </trkpt>
      <trkpt lat="43.32455" lon="5.52275">
        <ele>220.5</ele>
        <time>2014-03-05T08:20:38Z</time>
      </trkpt>
      <trkpt lat="43.32459" lon="5.52276">
        <ele>220.5</ele>
        <time>2014-03-05T08:20:41Z</time>
      </trkpt>
      <trkpt lat="43.32462" lon="5.5228">
        <ele>220.8</ele>
        <time>2014-03-05T08:20:45Z</time>
      </trkpt>
      <trkpt lat="43.32464" lon="5.52284">
        <ele>221.6</ele>
        <time>2014-03-05T08:20:48Z</time>
      </trkpt>
      <trkpt lat="43.32464" lon="5.52289">
        <ele>223.5</ele>
        <time>2014-03-05T08:20:51Z</time>
      </trkpt>
      <trkpt lat="43.32465" lon="5.52295">
        <ele>224.6</ele>
        <time>2014-03-05T08:20:55Z</time>
      </trkpt>
      <trkpt lat="43.32466" lon="5.52301">
        <ele>225.5</ele>
        <time>2014-03-05T08:20:59Z</time>
      </trkpt>
      <trkpt lat="43.32466" lon="5.52306">
        <ele>227.3</ele>
        <time>2014-03-05T08:21:03Z</time>
      </trkpt>
      <trkpt lat="43.32466" lon="5.52312">
        <ele>228.6</ele>
        <time>2014-03-05T08:21:07Z</time>
      </trkpt>
      <trkpt lat="43.32466" lon="5.52317">
        <ele>228.3</ele>
        <time>2014-03-05T08:21:11Z</time>
      </trkpt>
      <trkpt lat="43.32466" lon="5.52318">
        <ele>228.3</ele>
        <time>2014-03-05T08:21:12Z</time>
      </trkpt>
      <trkpt lat="43.32467" lon="5.52327">
        <ele>225.3</ele>
        <time>2014-03-05T08:21:19Z</time>
      </trkpt>
      <trkpt lat="43.32469" lon="5.52333">
        <ele>225.3</ele>
        <time>2014-03-05T08:21:23Z</time>
      </trkpt>
      <trkpt lat="43.32471" lon="5.52337">
        <ele>225</ele>
        <time>2014-03-05T08:21:27Z</time>
      </trkpt>
      <trkpt lat="43.32473" lon="5.52341">
        <ele>225.1</ele>
        <time>2014-03-05T08:21:31Z</time>
      </trkpt>
      <trkpt lat="43.32475" lon="5.52346">
        <ele>225.1</ele>
        <time>2014-03-05T08:21:35Z</time>
      </trkpt>
      <trkpt lat="43.32477" lon="5.5235">
        <ele>225.6</ele>
        <time>2014-03-05T08:21:39Z</time>
      </trkpt>
      <trkpt lat="43.3248" lon="5.52354">
        <ele>225</ele>
        <time>2014-03-05T08:21:43Z</time>
      </trkpt>
      <trkpt lat="43.32482" lon="5.52358">
        <ele>225.6</ele>
        <time>2014-03-05T08:21:47Z</time>
      </trkpt>
      <trkpt lat="43.32483" lon="5.52363">
        <ele>226.6</ele>
        <time>2014-03-05T08:21:50Z</time>
      </trkpt>
      <trkpt lat="43.32484" lon="5.52368">
        <ele>227</ele>
        <time>2014-03-05T08:21:53Z</time>
      </trkpt>
      <trkpt lat="43.32487" lon="5.52371">
        <ele>227.5</ele>
        <time>2014-03-05T08:21:56Z</time>
      </trkpt>
      <trkpt lat="43.32488" lon="5.52376">
        <ele>227.6</ele>
        <time>2014-03-05T08:21:59Z</time>
      </trkpt>
      <trkpt lat="43.32488" lon="5.5238">
        <ele>228.8</ele>
        <time>2014-03-05T08:22:01Z</time>
      </trkpt>
      <trkpt lat="43.32489" lon="5.52385">
        <ele>229.3</ele>
        <time>2014-03-05T08:22:04Z</time>
      </trkpt>
      <trkpt lat="43.3249" lon="5.52389">
        <ele>229.5</ele>
        <time>2014-03-05T08:22:07Z</time>
      </trkpt>
      <trkpt lat="43.32491" lon="5.52394">
        <ele>230.1</ele>
        <time>2014-03-05T08:22:10Z</time>
      </trkpt>
      <trkpt lat="43.32494" lon="5.52397">
        <ele>229.6</ele>
        <time>2014-03-05T08:22:14Z</time>
      </trkpt>
      <trkpt lat="43.32495" lon="5.52398">
        <ele>229.5</ele>
        <time>2014-03-05T08:22:15Z</time>
      </trkpt>
      <trkpt lat="43.325" lon="5.52404">
        <ele>229.3</ele>
        <time>2014-03-05T08:22:21Z</time>
      </trkpt>
      <trkpt lat="43.32502" lon="5.52409">
        <ele>231</ele>
        <time>2014-03-05T08:22:24Z</time>
      </trkpt>
      <trkpt lat="43.32504" lon="5.52413">
        <ele>232.1</ele>
        <time>2014-03-05T08:22:27Z</time>
      </trkpt>
      <trkpt lat="43.32506" lon="5.52417">
        <ele>231.8</ele>
        <time>2014-03-05T08:22:30Z</time>
      </trkpt>
      <trkpt lat="43.32507" lon="5.52422">
        <ele>233.3</ele>
        <time>2014-03-05T08:22:33Z</time>
      </trkpt>
      <trkpt lat="43.32508" lon="5.52427">
        <ele>233.6</ele>
        <time>2014-03-05T08:22:36Z</time>
      </trkpt>
      <trkpt lat="43.32508" lon="5.52433">
        <ele>234</ele>
        <time>2014-03-05T08:22:40Z</time>
      </trkpt>
      <trkpt lat="43.32509" lon="5.52437">
        <ele>234.6</ele>
        <time>2014-03-05T08:22:43Z</time>
      </trkpt>
      <trkpt lat="43.32509" lon="5.52443">
        <ele>235.6</ele>
        <time>2014-03-05T08:22:46Z</time>
      </trkpt>
      <trkpt lat="43.3251" lon="5.52448">
        <ele>235</ele>
        <time>2014-03-05T08:22:50Z</time>
      </trkpt>
      <trkpt lat="43.32512" lon="5.52452">
        <ele>235.6</ele>
        <time>2014-03-05T08:22:54Z</time>
      </trkpt>
      <trkpt lat="43.32515" lon="5.52455">
        <ele>237.6</ele>
        <time>2014-03-05T08:23:00Z</time>
      </trkpt>
      <trkpt lat="43.32519" lon="5.52452">
        <ele>243.6</ele>
        <time>2014-03-05T08:23:04Z</time>
      </trkpt>
      <trkpt lat="43.32524" lon="5.52453">
        <ele>250</ele>
        <time>2014-03-05T08:23:09Z</time>
      </trkpt>
      <trkpt lat="43.32528" lon="5.52455">
        <ele>248.3</ele>
        <time>2014-03-05T08:23:17Z</time>
      </trkpt>
      <trkpt lat="43.32528" lon="5.52455">
        <ele>246.6</ele>
        <time>2014-03-05T08:23:18Z</time>
      </trkpt>
      <trkpt lat="43.32535" lon="5.52455">
        <ele>242.6</ele>
        <time>2014-03-05T08:23:26Z</time>
      </trkpt>
      <trkpt lat="43.32539" lon="5.52453">
        <ele>242.1</ele>
        <time>2014-03-05T08:23:29Z</time>
      </trkpt>
      <trkpt lat="43.32542" lon="5.52452">
        <ele>240.1</ele>
        <time>2014-03-05T08:23:32Z</time>
      </trkpt>
      <trkpt lat="43.32545" lon="5.52448">
        <ele>241</ele>
        <time>2014-03-05T08:23:36Z</time>
      </trkpt>
      <trkpt lat="43.32548" lon="5.52445">
        <ele>238.8</ele>
        <time>2014-03-05T08:23:40Z</time>
      </trkpt>
      <trkpt lat="43.32551" lon="5.52441">
        <ele>239</ele>
        <time>2014-03-05T08:23:44Z</time>
      </trkpt>
      <trkpt lat="43.32555" lon="5.52439">
        <ele>236.8</ele>
        <time>2014-03-05T08:23:49Z</time>
      </trkpt>
      <trkpt lat="43.32558" lon="5.52434">
        <ele>235.3</ele>
        <time>2014-03-05T08:23:53Z</time>
      </trkpt>
      <trkpt lat="43.3256" lon="5.5243">
        <ele>236.8</ele>
        <time>2014-03-05T08:23:56Z</time>
      </trkpt>
      <trkpt lat="43.32563" lon="5.52425">
        <ele>234.6</ele>
        <time>2014-03-05T08:24:01Z</time>
      </trkpt>
      <trkpt lat="43.32566" lon="5.52423">
        <ele>231.8</ele>
        <time>2014-03-05T08:24:05Z</time>
      </trkpt>
      <trkpt lat="43.3257" lon="5.5242">
        <ele>229.3</ele>
        <time>2014-03-05T08:24:09Z</time>
      </trkpt>
      <trkpt lat="43.32572" lon="5.52417">
        <ele>229.1</ele>
        <time>2014-03-05T08:24:13Z</time>
      </trkpt>
      <trkpt lat="43.32576" lon="5.52415">
        <ele>229.3</ele>
        <time>2014-03-05T08:24:16Z</time>
      </trkpt>
      <trkpt lat="43.32579" lon="5.52411">
        <ele>236.6</ele>
        <time>2014-03-05T08:24:21Z</time>
      </trkpt>
      <trkpt lat="43.3258" lon="5.52411">
        <ele>236.8</ele>
        <time>2014-03-05T08:24:22Z</time>
      </trkpt>
      <trkpt lat="43.32586" lon="5.52414">
        <ele>237.3</ele>
        <time>2014-03-05T08:24:28Z</time>
      </trkpt>
      <trkpt lat="43.3259" lon="5.52416">
        <ele>237.5</ele>
        <time>2014-03-05T08:24:32Z</time>
      </trkpt>
      <trkpt lat="43.32594" lon="5.52419">
        <ele>236.8</ele>
        <time>2014-03-05T08:24:36Z</time>
      </trkpt>
      <trkpt lat="43.32597" lon="5.52422">
        <ele>237.3</ele>
        <time>2014-03-05T08:24:40Z</time>
      </trkpt>
      <trkpt lat="43.326" lon="5.52426">
        <ele>237.6</ele>
        <time>2014-03-05T08:24:44Z</time>
      </trkpt>
      <trkpt lat="43.32603" lon="5.5243">
        <ele>237.3</ele>
        <time>2014-03-05T08:24:48Z</time>
      </trkpt>
      <trkpt lat="43.32606" lon="5.52433">
        <ele>237.5</ele>
        <time>2014-03-05T08:24:52Z</time>
      </trkpt>
      <trkpt lat="43.32609" lon="5.52437">
        <ele>238.1</ele>
        <time>2014-03-05T08:24:56Z</time>
      </trkpt>
      <trkpt lat="43.32612" lon="5.5244">
        <ele>238.8</ele>
        <time>2014-03-05T08:25:00Z</time>
      </trkpt>
      <trkpt lat="43.32615" lon="5.52444">
        <ele>240.3</ele>
        <time>2014-03-05T08:25:04Z</time>
      </trkpt>
      <trkpt lat="43.32617" lon="5.52449">
        <ele>240.5</ele>
        <time>2014-03-05T08:25:09Z</time>
      </trkpt>
      <trkpt lat="43.32621" lon="5.52452">
        <ele>241.3</ele>
        <time>2014-03-05T08:25:15Z</time>
      </trkpt>
      <trkpt lat="43.32624" lon="5.52455">
        <ele>241.8</ele>
        <time>2014-03-05T08:25:20Z</time>
      </trkpt>
      <trkpt lat="43.32628" lon="5.52457">
        <ele>242.3</ele>
        <time>2014-03-05T08:25:24Z</time>
      </trkpt>
      <trkpt lat="43.32629" lon="5.52458">
        <ele>242.6</ele>
        <time>2014-03-05T08:25:25Z</time>
      </trkpt>
      <trkpt lat="43.32635" lon="5.52463">
        <ele>243.6</ele>
        <time>2014-03-05T08:25:30Z</time>
      </trkpt>
      <trkpt lat="43.32637" lon="5.52466">
        <ele>244</ele>
        <time>2014-03-05T08:25:33Z</time>
      </trkpt>
      <trkpt lat="43.3264" lon="5.52471">
        <ele>244.5</ele>
        <time>2014-03-05T08:25:37Z</time>
      </trkpt>
      <trkpt lat="43.32643" lon="5.52474">
        <ele>244.3</ele>
        <time>2014-03-05T08:25:41Z</time>
      </trkpt>
      <trkpt lat="43.32646" lon="5.52478">
        <ele>243.5</ele>
        <time>2014-03-05T08:25:46Z</time>
      </trkpt>
      <trkpt lat="43.32649" lon="5.52482">
        <ele>243.5</ele>
        <time>2014-03-05T08:25:50Z</time>
      </trkpt>
      <trkpt lat="43.32652" lon="5.52485">
        <ele>243.8</ele>
        <time>2014-03-05T08:25:55Z</time>
      </trkpt>
      <trkpt lat="43.32655" lon="5.52488">
        <ele>243.8</ele>
        <time>2014-03-05T08:25:59Z</time>
      </trkpt>
      <trkpt lat="43.32658" lon="5.52492">
        <ele>244</ele>
        <time>2014-03-05T08:26:03Z</time>
      </trkpt>
      <trkpt lat="43.32661" lon="5.52496">
        <ele>244.6</ele>
        <time>2014-03-05T08:26:07Z</time>
      </trkpt>
      <trkpt lat="43.32664" lon="5.525">
        <ele>245.1</ele>
        <time>2014-03-05T08:26:11Z</time>
      </trkpt>
      <trkpt lat="43.32668" lon="5.52504">
        <ele>246.8</ele>
        <time>2014-03-05T08:26:15Z</time>
      </trkpt>
      <trkpt lat="43.32672" lon="5.52506">
        <ele>247.3</ele>
        <time>2014-03-05T08:26:19Z</time>
      </trkpt>
      <trkpt lat="43.32675" lon="5.52509">
        <ele>248.1</ele>
        <time>2014-03-05T08:26:23Z</time>
      </trkpt>
      <trkpt lat="43.32679" lon="5.52513">
        <ele>248.8</ele>
        <time>2014-03-05T08:26:27Z</time>
      </trkpt>
      <trkpt lat="43.32679" lon="5.52513">
        <ele>249</ele>
        <time>2014-03-05T08:26:28Z</time>
      </trkpt>
      <trkpt lat="43.32686" lon="5.52519">
        <ele>249</ele>
        <time>2014-03-05T08:26:35Z</time>
      </trkpt>
      <trkpt lat="43.32689" lon="5.52521">
        <ele>248.8</ele>
        <time>2014-03-05T08:26:38Z</time>
      </trkpt>
      <trkpt lat="43.32692" lon="5.52523">
        <ele>248.3</ele>
        <time>2014-03-05T08:26:41Z</time>
      </trkpt>
      <trkpt lat="43.32696" lon="5.52526">
        <ele>248.3</ele>
        <time>2014-03-05T08:26:45Z</time>
      </trkpt>
      <trkpt lat="43.32699" lon="5.52528">
        <ele>248.3</ele>
        <time>2014-03-05T08:26:48Z</time>
      </trkpt>
      <trkpt lat="43.32702" lon="5.52531">
        <ele>248.1</ele>
        <time>2014-03-05T08:26:51Z</time>
      </trkpt>
      <trkpt lat="43.32705" lon="5.52533">
        <ele>248.5</ele>
        <time>2014-03-05T08:26:54Z</time>
      </trkpt>
      <trkpt lat="43.32708" lon="5.52536">
        <ele>248.3</ele>
        <time>2014-03-05T08:26:57Z</time>
      </trkpt>
      <trkpt lat="43.32711" lon="5.52538">
        <ele>248.6</ele>
        <time>2014-03-05T08:27:00Z</time>
      </trkpt>
      <trkpt lat="43.32715" lon="5.52541">
        <ele>250.1</ele>
        <time>2014-03-05T08:27:04Z</time>
      </trkpt>
      <trkpt lat="43.32719" lon="5.52542">
        <ele>250.6</ele>
        <time>2014-03-05T08:27:07Z</time>
      </trkpt>
      <trkpt lat="43.32723" lon="5.52545">
        <ele>252.1</ele>
        <time>2014-03-05T08:27:12Z</time>
      </trkpt>
      <trkpt lat="43.32727" lon="5.52545">
        <ele>252.5</ele>
        <time>2014-03-05T08:27:17Z</time>
      </trkpt>
      <trkpt lat="43.32731" lon="5.52544">
        <ele>251.5</ele>
        <time>2014-03-05T08:27:21Z</time>
      </trkpt>
      <trkpt lat="43.32736" lon="5.52544">
        <ele>250.3</ele>
        <time>2014-03-05T08:27:25Z</time>
      </trkpt>
      <trkpt lat="43.32739" lon="5.52545">
        <ele>249</ele>
        <time>2014-03-05T08:27:28Z</time>
      </trkpt>
      <trkpt lat="43.3274" lon="5.52546">
        <ele>248.8</ele>
        <time>2014-03-05T08:27:29Z</time>
      </trkpt>
      <trkpt lat="43.32745" lon="5.5255">
        <ele>248.3</ele>
        <time>2014-03-05T08:27:34Z</time>
      </trkpt>
      <trkpt lat="43.32748" lon="5.52553">
        <ele>248.1</ele>
        <time>2014-03-05T08:27:37Z</time>
      </trkpt>
      <trkpt lat="43.32751" lon="5.52555">
        <ele>248.3</ele>
        <time>2014-03-05T08:27:40Z</time>
      </trkpt>
      <trkpt lat="43.32755" lon="5.52557">
        <ele>248.8</ele>
        <time>2014-03-05T08:27:43Z</time>
      </trkpt>
      <trkpt lat="43.32758" lon="5.52557">
        <ele>248.6</ele>
        <time>2014-03-05T08:27:46Z</time>
      </trkpt>
      <trkpt lat="43.32762" lon="5.52558">
        <ele>248.8</ele>
        <time>2014-03-05T08:27:49Z</time>
      </trkpt>
      <trkpt lat="43.32765" lon="5.52558">
        <ele>249.1</ele>
        <time>2014-03-05T08:27:52Z</time>
      </trkpt>
      <trkpt lat="43.3277" lon="5.52559">
        <ele>249.6</ele>
        <time>2014-03-05T08:27:56Z</time>
      </trkpt>
      <trkpt lat="43.32774" lon="5.5256">
        <ele>250.1</ele>
        <time>2014-03-05T08:28:00Z</time>
      </trkpt>
      <trkpt lat="43.32778" lon="5.52559">
        <ele>251.3</ele>
        <time>2014-03-05T08:28:03Z</time>
      </trkpt>
      <trkpt lat="43.32782" lon="5.52559">
        <ele>253.6</ele>
        <time>2014-03-05T08:28:07Z</time>
      </trkpt>
      <trkpt lat="43.32785" lon="5.52558">
        <ele>254.6</ele>
        <time>2014-03-05T08:28:10Z</time>
      </trkpt>
      <trkpt lat="43.32789" lon="5.52557">
        <ele>255.6</ele>
        <time>2014-03-05T08:28:14Z</time>
      </trkpt>
      <trkpt lat="43.32793" lon="5.52557">
        <ele>256.7</ele>
        <time>2014-03-05T08:28:18Z</time>
      </trkpt>
      <trkpt lat="43.32796" lon="5.52556">
        <ele>257.3</ele>
        <time>2014-03-05T08:28:22Z</time>
      </trkpt>
      <trkpt lat="43.328" lon="5.52556">
        <ele>257.7</ele>
        <time>2014-03-05T08:28:26Z</time>
      </trkpt>
      <trkpt lat="43.32804" lon="5.52555">
        <ele>258.2</ele>
        <time>2014-03-05T08:28:30Z</time>
      </trkpt>
      <trkpt lat="43.32805" lon="5.52555">
        <ele>258.5</ele>
        <time>2014-03-05T08:28:31Z</time>
      </trkpt>
      <trkpt lat="43.32811" lon="5.52551">
        <ele>256.3</ele>
        <time>2014-03-05T08:28:46Z</time>
      </trkpt>
      <trkpt lat="43.32816" lon="5.52552">
        <ele>257.2</ele>
        <time>2014-03-05T08:29:45Z</time>
      </trkpt>
      <trkpt lat="43.32816" lon="5.52552">
        <ele>257.1</ele>
        <time>2014-03-05T08:29:46Z</time>
      </trkpt>
      <trkpt lat="43.32823" lon="5.52546">
        <ele>261</ele>
        <time>2014-03-05T08:34:24Z</time>
      </trkpt>
      <trkpt lat="43.32824" lon="5.52546">
        <ele>261</ele>
        <time>2014-03-05T08:34:25Z</time>
      </trkpt>
      <trkpt lat="43.32831" lon="5.52543">
        <ele>258.1</ele>
        <time>2014-03-05T08:34:38Z</time>
      </trkpt>
      <trkpt lat="43.32835" lon="5.52543">
        <ele>258.2</ele>
        <time>2014-03-05T08:34:45Z</time>
      </trkpt>
      <trkpt lat="43.32839" lon="5.52541">
        <ele>257.7</ele>
        <time>2014-03-05T08:34:50Z</time>
      </trkpt>
      <trkpt lat="43.32843" lon="5.52538">
        <ele>255.8</ele>
        <time>2014-03-05T08:34:55Z</time>
      </trkpt>
      <trkpt lat="43.32846" lon="5.52535">
        <ele>256.2</ele>
        <time>2014-03-05T08:34:58Z</time>
      </trkpt>
      <trkpt lat="43.3285" lon="5.52533">
        <ele>254.3</ele>
        <time>2014-03-05T08:35:03Z</time>
      </trkpt>
      <trkpt lat="43.32854" lon="5.52535">
        <ele>256.2</ele>
        <time>2014-03-05T08:35:07Z</time>
      </trkpt>
      <trkpt lat="43.32857" lon="5.52539">
        <ele>257</ele>
        <time>2014-03-05T08:35:11Z</time>
      </trkpt>
      <trkpt lat="43.32858" lon="5.52544">
        <ele>257.7</ele>
        <time>2014-03-05T08:35:15Z</time>
      </trkpt>
      <trkpt lat="43.32859" lon="5.52549">
        <ele>257.7</ele>
        <time>2014-03-05T08:35:19Z</time>
      </trkpt>
      <trkpt lat="43.32861" lon="5.52555">
        <ele>257.8</ele>
        <time>2014-03-05T08:35:23Z</time>
      </trkpt>
      <trkpt lat="43.32863" lon="5.5256">
        <ele>257.7</ele>
        <time>2014-03-05T08:35:27Z</time>
      </trkpt>
      <trkpt lat="43.32863" lon="5.52561">
        <ele>257.7</ele>
        <time>2014-03-05T08:35:28Z</time>
      </trkpt>
      <trkpt lat="43.32867" lon="5.52568">
        <ele>258.1</ele>
        <time>2014-03-05T08:35:33Z</time>
      </trkpt>
      <trkpt lat="43.32871" lon="5.5257">
        <ele>258.2</ele>
        <time>2014-03-05T08:35:38Z</time>
      </trkpt>
      <trkpt lat="43.32875" lon="5.52568">
        <ele>258.3</ele>
        <time>2014-03-05T08:35:43Z</time>
      </trkpt>
      <trkpt lat="43.32878" lon="5.52564">
        <ele>258.2</ele>
        <time>2014-03-05T08:35:48Z</time>
      </trkpt>
      <trkpt lat="43.32881" lon="5.52561">
        <ele>257.2</ele>
        <time>2014-03-05T08:35:53Z</time>
      </trkpt>
      <trkpt lat="43.32886" lon="5.52559">
        <ele>257.7</ele>
        <time>2014-03-05T08:36:00Z</time>
      </trkpt>
      <trkpt lat="43.32889" lon="5.52555">
        <ele>257.5</ele>
        <time>2014-03-05T08:36:07Z</time>
      </trkpt>
      <trkpt lat="43.32892" lon="5.52552">
        <ele>257.6</ele>
        <time>2014-03-05T08:36:11Z</time>
      </trkpt>
      <trkpt lat="43.32896" lon="5.52551">
        <ele>258</ele>
        <time>2014-03-05T08:36:17Z</time>
      </trkpt>
      <trkpt lat="43.32899" lon="5.52553">
        <ele>259.5</ele>
        <time>2014-03-05T08:36:22Z</time>
      </trkpt>
      <trkpt lat="43.32904" lon="5.52555">
        <ele>261.7</ele>
        <time>2014-03-05T08:36:28Z</time>
      </trkpt>
      <trkpt lat="43.32904" lon="5.52555">
        <ele>261.8</ele>
        <time>2014-03-05T08:36:29Z</time>
      </trkpt>
      <trkpt lat="43.3291" lon="5.52548">
        <ele>262.8</ele>
        <time>2014-03-05T08:36:39Z</time>
      </trkpt>
      <trkpt lat="43.32912" lon="5.52543">
        <ele>262.7</ele>
        <time>2014-03-05T08:36:43Z</time>
      </trkpt>
      <trkpt lat="43.32915" lon="5.52538">
        <ele>262.6</ele>
        <time>2014-03-05T08:36:47Z</time>
      </trkpt>
      <trkpt lat="43.32918" lon="5.52534">
        <ele>261.8</ele>
        <time>2014-03-05T08:36:51Z</time>
      </trkpt>
      <trkpt lat="43.32921" lon="5.52529">
        <ele>260.3</ele>
        <time>2014-03-05T08:36:55Z</time>
      </trkpt>
      <trkpt lat="43.32925" lon="5.52527">
        <ele>260.2</ele>
        <time>2014-03-05T08:37:00Z</time>
      </trkpt>
      <trkpt lat="43.32929" lon="5.52529">
        <ele>262.7</ele>
        <time>2014-03-05T08:37:06Z</time>
      </trkpt>
      <trkpt lat="43.32933" lon="5.52528">
        <ele>264.3</ele>
        <time>2014-03-05T08:37:11Z</time>
      </trkpt>
      <trkpt lat="43.32937" lon="5.52527">
        <ele>266.1</ele>
        <time>2014-03-05T08:37:16Z</time>
      </trkpt>
      <trkpt lat="43.32941" lon="5.52525">
        <ele>267.8</ele>
        <time>2014-03-05T08:37:22Z</time>
      </trkpt>
      <trkpt lat="43.32945" lon="5.52523">
        <ele>269</ele>
        <time>2014-03-05T08:37:28Z</time>
      </trkpt>
      <trkpt lat="43.32949" lon="5.52519">
        <ele>269.3</ele>
        <time>2014-03-05T08:37:34Z</time>
      </trkpt>
      <trkpt lat="43.32949" lon="5.52519">
        <ele>269.2</ele>
        <time>2014-03-05T08:37:35Z</time>
      </trkpt>
      <trkpt lat="43.32956" lon="5.52514">
        <ele>270</ele>
        <time>2014-03-05T08:37:49Z</time>
      </trkpt>
      <trkpt lat="43.3296" lon="5.52512">
        <ele>270.2</ele>
        <time>2014-03-05T08:37:55Z</time>
      </trkpt>
      <trkpt lat="43.32964" lon="5.5251">
        <ele>272.1</ele>
        <time>2014-03-05T08:38:01Z</time>
      </trkpt>
      <trkpt lat="43.32966" lon="5.52506">
        <ele>273.3</ele>
        <time>2014-03-05T08:38:07Z</time>
      </trkpt>
      <trkpt lat="43.32969" lon="5.52503">
        <ele>272.2</ele>
        <time>2014-03-05T08:38:13Z</time>
      </trkpt>
      <trkpt lat="43.32973" lon="5.52499">
        <ele>273.2</ele>
        <time>2014-03-05T08:38:19Z</time>
      </trkpt>
      <trkpt lat="43.32976" lon="5.52498">
        <ele>276.1</ele>
        <time>2014-03-05T08:38:24Z</time>
      </trkpt>
      <trkpt lat="43.32981" lon="5.52496">
        <ele>277.2</ele>
        <time>2014-03-05T08:38:30Z</time>
      </trkpt>
      <trkpt lat="43.32984" lon="5.52494">
        <ele>279</ele>
        <time>2014-03-05T08:38:35Z</time>
      </trkpt>
      <trkpt lat="43.32985" lon="5.52494">
        <ele>278.7</ele>
        <time>2014-03-05T08:38:36Z</time>
      </trkpt>
      <trkpt lat="43.32992" lon="5.52488">
        <ele>280.6</ele>
        <time>2014-03-05T08:38:47Z</time>
      </trkpt>
      <trkpt lat="43.32994" lon="5.52485">
        <ele>281.1</ele>
        <time>2014-03-05T08:38:52Z</time>
      </trkpt>
      <trkpt lat="43.32998" lon="5.52483">
        <ele>282.2</ele>
        <time>2014-03-05T08:38:58Z</time>
      </trkpt>
      <trkpt lat="43.33002" lon="5.52479">
        <ele>283.3</ele>
        <time>2014-03-05T08:39:04Z</time>
      </trkpt>
      <trkpt lat="43.33006" lon="5.52477">
        <ele>284.3</ele>
        <time>2014-03-05T08:39:10Z</time>
      </trkpt>
      <trkpt lat="43.3301" lon="5.52476">
        <ele>285.2</ele>
        <time>2014-03-05T08:39:16Z</time>
      </trkpt>
      <trkpt lat="43.33014" lon="5.52474">
        <ele>286</ele>
        <time>2014-03-05T08:39:22Z</time>
      </trkpt>
      <trkpt lat="43.33018" lon="5.52474">
        <ele>287.7</ele>
        <time>2014-03-05T08:39:28Z</time>
      </trkpt>
      <trkpt lat="43.33022" lon="5.52475">
        <ele>289.2</ele>
        <time>2014-03-05T08:39:36Z</time>
      </trkpt>
      <trkpt lat="43.33023" lon="5.52475">
        <ele>289.5</ele>
        <time>2014-03-05T08:39:37Z</time>
      </trkpt>
      <trkpt lat="43.3303" lon="5.52476">
        <ele>292.7</ele>
        <time>2014-03-05T08:39:46Z</time>
      </trkpt>
      <trkpt lat="43.33034" lon="5.52476">
        <ele>294.7</ele>
        <time>2014-03-05T08:39:51Z</time>
      </trkpt>
      <trkpt lat="43.33037" lon="5.52476">
        <ele>296.7</ele>
        <time>2014-03-05T08:39:56Z</time>
      </trkpt>
      <trkpt lat="43.33042" lon="5.52475">
        <ele>298.2</ele>
        <time>2014-03-05T08:40:01Z</time>
      </trkpt>
      <trkpt lat="43.33046" lon="5.52475">
        <ele>300.7</ele>
        <time>2014-03-05T08:40:12Z</time>
      </trkpt>
      <trkpt lat="43.3305" lon="5.52472">
        <ele>304.2</ele>
        <time>2014-03-05T08:41:10Z</time>
      </trkpt>
      <trkpt lat="43.3305" lon="5.52471">
        <ele>304</ele>
        <time>2014-03-05T08:41:11Z</time>
      </trkpt>
      <trkpt lat="43.33052" lon="5.52462">
        <ele>303.3</ele>
        <time>2014-03-05T08:41:17Z</time>
      </trkpt>
      <trkpt lat="43.33053" lon="5.52457">
        <ele>301.7</ele>
        <time>2014-03-05T08:41:21Z</time>
      </trkpt>
      <trkpt lat="43.33057" lon="5.52454">
        <ele>301.2</ele>
        <time>2014-03-05T08:41:25Z</time>
      </trkpt>
      <trkpt lat="43.33061" lon="5.52455">
        <ele>300.8</ele>
        <time>2014-03-05T08:41:29Z</time>
      </trkpt>
      <trkpt lat="43.33064" lon="5.52458">
        <ele>301.6</ele>
        <time>2014-03-05T08:41:34Z</time>
      </trkpt>
      <trkpt lat="43.33068" lon="5.5246">
        <ele>302</ele>
        <time>2014-03-05T08:41:41Z</time>
      </trkpt>
      <trkpt lat="43.33072" lon="5.52462">
        <ele>304.5</ele>
        <time>2014-03-05T08:41:50Z</time>
      </trkpt>
      <trkpt lat="43.33076" lon="5.52463">
        <ele>306.7</ele>
        <time>2014-03-05T08:41:58Z</time>
      </trkpt>
      <trkpt lat="43.3308" lon="5.52465">
        <ele>307.7</ele>
        <time>2014-03-05T08:42:05Z</time>
      </trkpt>
      <trkpt lat="43.33084" lon="5.52467">
        <ele>310.6</ele>
        <time>2014-03-05T08:42:11Z</time>
      </trkpt>
      <trkpt lat="43.33085" lon="5.52467">
        <ele>310.7</ele>
        <time>2014-03-05T08:42:12Z</time>
      </trkpt>
      <trkpt lat="43.33091" lon="5.52472">
        <ele>313.7</ele>
        <time>2014-03-05T08:42:28Z</time>
      </trkpt>
      <trkpt lat="43.33095" lon="5.52474">
        <ele>315.2</ele>
        <time>2014-03-05T08:42:40Z</time>
      </trkpt>
      <trkpt lat="43.33099" lon="5.52477">
        <ele>317.2</ele>
        <time>2014-03-05T08:42:50Z</time>
      </trkpt>
      <trkpt lat="43.33103" lon="5.5248">
        <ele>318.7</ele>
        <time>2014-03-05T08:43:00Z</time>
      </trkpt>
      <trkpt lat="43.33106" lon="5.52484">
        <ele>319</ele>
        <time>2014-03-05T08:43:13Z</time>
      </trkpt>
      <trkpt lat="43.33106" lon="5.52484">
        <ele>319</ele>
        <time>2014-03-05T08:43:14Z</time>
      </trkpt>
      <trkpt lat="43.33114" lon="5.52487">
        <ele>322</ele>
        <time>2014-03-05T08:43:40Z</time>
      </trkpt>
      <trkpt lat="43.33118" lon="5.52488">
        <ele>322.8</ele>
        <time>2014-03-05T08:43:48Z</time>
      </trkpt>
      <trkpt lat="43.33122" lon="5.52489">
        <ele>324</ele>
        <time>2014-03-05T08:43:56Z</time>
      </trkpt>
      <trkpt lat="43.33127" lon="5.5249">
        <ele>325.2</ele>
        <time>2014-03-05T08:44:02Z</time>
      </trkpt>
      <trkpt lat="43.33131" lon="5.5249">
        <ele>326.7</ele>
        <time>2014-03-05T08:44:08Z</time>
      </trkpt>
      <trkpt lat="43.33135" lon="5.52491">
        <ele>327.7</ele>
        <time>2014-03-05T08:44:15Z</time>
      </trkpt>
      <trkpt lat="43.33136" lon="5.52491">
        <ele>327.7</ele>
        <time>2014-03-05T08:44:16Z</time>
      </trkpt>
      <trkpt lat="43.33144" lon="5.52493">
        <ele>330</ele>
        <time>2014-03-05T08:44:30Z</time>
      </trkpt>
      <trkpt lat="43.33148" lon="5.52495">
        <ele>331.5</ele>
        <time>2014-03-05T08:44:38Z</time>
      </trkpt>
      <trkpt lat="43.33152" lon="5.52496">
        <ele>332.2</ele>
        <time>2014-03-05T08:44:45Z</time>
      </trkpt>
      <trkpt lat="43.33156" lon="5.52498">
        <ele>333.3</ele>
        <time>2014-03-05T08:44:54Z</time>
      </trkpt>
      <trkpt lat="43.33158" lon="5.52503">
        <ele>334.5</ele>
        <time>2014-03-05T08:45:01Z</time>
      </trkpt>
      <trkpt lat="43.3316" lon="5.52508">
        <ele>336.1</ele>
        <time>2014-03-05T08:45:08Z</time>
      </trkpt>
      <trkpt lat="43.33162" lon="5.52513">
        <ele>337</ele>
        <time>2014-03-05T08:45:16Z</time>
      </trkpt>
      <trkpt lat="43.33162" lon="5.52514">
        <ele>337</ele>
        <time>2014-03-05T08:45:17Z</time>
      </trkpt>
      <trkpt lat="43.33165" lon="5.52523">
        <ele>339.2</ele>
        <time>2014-03-05T08:45:30Z</time>
      </trkpt>
      <trkpt lat="43.33167" lon="5.52528">
        <ele>340.2</ele>
        <time>2014-03-05T08:45:37Z</time>
      </trkpt>
      <trkpt lat="43.33168" lon="5.52534">
        <ele>341.7</ele>
        <time>2014-03-05T08:45:45Z</time>
      </trkpt>
      <trkpt lat="43.33169" lon="5.52539">
        <ele>342.1</ele>
        <time>2014-03-05T08:45:52Z</time>
      </trkpt>
      <trkpt lat="43.33169" lon="5.52545">
        <ele>342.7</ele>
        <time>2014-03-05T08:45:59Z</time>
      </trkpt>
      <trkpt lat="43.3317" lon="5.52551">
        <ele>344.6</ele>
        <time>2014-03-05T08:46:13Z</time>
      </trkpt>
      <trkpt lat="43.3317" lon="5.52556">
        <ele>349.1</ele>
        <time>2014-03-05T08:50:15Z</time>
      </trkpt>
      <trkpt lat="43.3317" lon="5.52557">
        <ele>349.2</ele>
        <time>2014-03-05T08:50:16Z</time>
      </trkpt>
      <trkpt lat="43.33171" lon="5.52567">
        <ele>350.8</ele>
        <time>2014-03-05T08:50:27Z</time>
      </trkpt>
      <trkpt lat="43.33172" lon="5.52573">
        <ele>352.1</ele>
        <time>2014-03-05T08:50:34Z</time>
      </trkpt>
      <trkpt lat="43.33174" lon="5.52578">
        <ele>352.3</ele>
        <time>2014-03-05T08:50:41Z</time>
      </trkpt>
      <trkpt lat="43.33176" lon="5.52583">
        <ele>352.8</ele>
        <time>2014-03-05T08:50:47Z</time>
      </trkpt>
      <trkpt lat="43.33179" lon="5.52587">
        <ele>353.6</ele>
        <time>2014-03-05T08:50:52Z</time>
      </trkpt>
      <trkpt lat="43.33182" lon="5.5259">
        <ele>354.2</ele>
        <time>2014-03-05T08:50:57Z</time>
      </trkpt>
      <trkpt lat="43.33185" lon="5.52593">
        <ele>355.2</ele>
        <time>2014-03-05T08:51:03Z</time>
      </trkpt>
      <trkpt lat="43.33189" lon="5.52597">
        <ele>356.3</ele>
        <time>2014-03-05T08:51:10Z</time>
      </trkpt>
      <trkpt lat="43.33192" lon="5.526">
        <ele>357.2</ele>
        <time>2014-03-05T08:51:16Z</time>
      </trkpt>
      <trkpt lat="43.33193" lon="5.526">
        <ele>357.2</ele>
        <time>2014-03-05T08:51:17Z</time>
      </trkpt>
      <trkpt lat="43.332" lon="5.52604">
        <ele>358.7</ele>
        <time>2014-03-05T08:51:30Z</time>
      </trkpt>
      <trkpt lat="43.33204" lon="5.52607">
        <ele>359.7</ele>
        <time>2014-03-05T08:51:38Z</time>
      </trkpt>
      <trkpt lat="43.33208" lon="5.5261">
        <ele>360.7</ele>
        <time>2014-03-05T08:51:46Z</time>
      </trkpt>
      <trkpt lat="43.33212" lon="5.52613">
        <ele>361.6</ele>
        <time>2014-03-05T08:51:53Z</time>
      </trkpt>
      <trkpt lat="43.33215" lon="5.52616">
        <ele>362.7</ele>
        <time>2014-03-05T08:52:00Z</time>
      </trkpt>
      <trkpt lat="43.33218" lon="5.52619">
        <ele>363.6</ele>
        <time>2014-03-05T08:52:07Z</time>
      </trkpt>
      <trkpt lat="43.33222" lon="5.52622">
        <ele>364.6</ele>
        <time>2014-03-05T08:52:15Z</time>
      </trkpt>
      <trkpt lat="43.33226" lon="5.52626">
        <ele>366</ele>
        <time>2014-03-05T08:52:24Z</time>
      </trkpt>
      <trkpt lat="43.33226" lon="5.52626">
        <ele>366.1</ele>
        <time>2014-03-05T08:52:25Z</time>
      </trkpt>
      <trkpt lat="43.3323" lon="5.52636">
        <ele>367.7</ele>
        <time>2014-03-05T08:52:38Z</time>
      </trkpt>
      <trkpt lat="43.33232" lon="5.52641">
        <ele>367.8</ele>
        <time>2014-03-05T08:52:44Z</time>
      </trkpt>
      <trkpt lat="43.33233" lon="5.52647">
        <ele>369.2</ele>
        <time>2014-03-05T08:52:51Z</time>
      </trkpt>
      <trkpt lat="43.33234" lon="5.52652">
        <ele>369.5</ele>
        <time>2014-03-05T08:52:58Z</time>
      </trkpt>
      <trkpt lat="43.33236" lon="5.52658">
        <ele>370.3</ele>
        <time>2014-03-05T08:53:04Z</time>
      </trkpt>
      <trkpt lat="43.33238" lon="5.52663">
        <ele>371.2</ele>
        <time>2014-03-05T08:53:09Z</time>
      </trkpt>
      <trkpt lat="43.33241" lon="5.52666">
        <ele>372.2</ele>
        <time>2014-03-05T08:53:15Z</time>
      </trkpt>
      <trkpt lat="43.33244" lon="5.52671">
        <ele>373.2</ele>
        <time>2014-03-05T08:53:21Z</time>
      </trkpt>
      <trkpt lat="43.33246" lon="5.52675">
        <ele>374.2</ele>
        <time>2014-03-05T08:53:27Z</time>
      </trkpt>
      <trkpt lat="43.33247" lon="5.52676">
        <ele>374.5</ele>
        <time>2014-03-05T08:53:28Z</time>
      </trkpt>
      <trkpt lat="43.33253" lon="5.52682">
        <ele>376.3</ele>
        <time>2014-03-05T08:53:40Z</time>
      </trkpt>
      <trkpt lat="43.33257" lon="5.52683">
        <ele>377.7</ele>
        <time>2014-03-05T08:53:47Z</time>
      </trkpt>
      <trkpt lat="43.33262" lon="5.52683">
        <ele>378.8</ele>
        <time>2014-03-05T08:53:57Z</time>
      </trkpt>
      <trkpt lat="43.33266" lon="5.52684">
        <ele>379.8</ele>
        <time>2014-03-05T08:54:06Z</time>
      </trkpt>
      <trkpt lat="43.3327" lon="5.52685">
        <ele>381.3</ele>
        <time>2014-03-05T08:54:15Z</time>
      </trkpt>
      <trkpt lat="43.33274" lon="5.52685">
        <ele>382.2</ele>
        <time>2014-03-05T08:54:24Z</time>
      </trkpt>
      <trkpt lat="43.33278" lon="5.52683">
        <ele>383</ele>
        <time>2014-03-05T08:54:32Z</time>
      </trkpt>
      <trkpt lat="43.33279" lon="5.52683">
        <ele>383.2</ele>
        <time>2014-03-05T08:54:33Z</time>
      </trkpt>
      <trkpt lat="43.33286" lon="5.52681">
        <ele>385</ele>
        <time>2014-03-05T08:54:45Z</time>
      </trkpt>
      <trkpt lat="43.3329" lon="5.52681">
        <ele>385.3</ele>
        <time>2014-03-05T08:54:50Z</time>
      </trkpt>
      <trkpt lat="43.33294" lon="5.52682">
        <ele>385.8</ele>
        <time>2014-03-05T08:54:55Z</time>
      </trkpt>
      <trkpt lat="43.33298" lon="5.52683">
        <ele>386.6</ele>
        <time>2014-03-05T08:55:00Z</time>
      </trkpt>
      <trkpt lat="43.33302" lon="5.52686">
        <ele>387.2</ele>
        <time>2014-03-05T08:55:07Z</time>
      </trkpt>
      <trkpt lat="43.33306" lon="5.52687">
        <ele>388</ele>
        <time>2014-03-05T08:55:13Z</time>
      </trkpt>
      <trkpt lat="43.3331" lon="5.52688">
        <ele>388.3</ele>
        <time>2014-03-05T08:55:19Z</time>
      </trkpt>
      <trkpt lat="43.33315" lon="5.52689">
        <ele>389</ele>
        <time>2014-03-05T08:55:25Z</time>
      </trkpt>
      <trkpt lat="43.33319" lon="5.52688">
        <ele>390</ele>
        <time>2014-03-05T08:55:31Z</time>
      </trkpt>
      <trkpt lat="43.33323" lon="5.52688">
        <ele>390.5</ele>
        <time>2014-03-05T08:55:36Z</time>
      </trkpt>
      <trkpt lat="43.33324" lon="5.52688">
        <ele>390.7</ele>
        <time>2014-03-05T08:55:37Z</time>
      </trkpt>
      <trkpt lat="43.33331" lon="5.52689">
        <ele>391.8</ele>
        <time>2014-03-05T08:55:54Z</time>
      </trkpt>
      <trkpt lat="43.33335" lon="5.52689">
        <ele>391.8</ele>
        <time>2014-03-05T08:55:59Z</time>
      </trkpt>
      <trkpt lat="43.33338" lon="5.5269">
        <ele>392.1</ele>
        <time>2014-03-05T08:56:03Z</time>
      </trkpt>
      <trkpt lat="43.33342" lon="5.52692">
        <ele>392.6</ele>
        <time>2014-03-05T08:56:07Z</time>
      </trkpt>
      <trkpt lat="43.33346" lon="5.52692">
        <ele>393.1</ele>
        <time>2014-03-05T08:56:12Z</time>
      </trkpt>
      <trkpt lat="43.3335" lon="5.52693">
        <ele>393.8</ele>
        <time>2014-03-05T08:56:16Z</time>
      </trkpt>
      <trkpt lat="43.33353" lon="5.52694">
        <ele>394.7</ele>
        <time>2014-03-05T08:56:23Z</time>
      </trkpt>
      <trkpt lat="43.33358" lon="5.52695">
        <ele>395.2</ele>
        <time>2014-03-05T08:56:28Z</time>
      </trkpt>
      <trkpt lat="43.33361" lon="5.52697">
        <ele>395.5</ele>
        <time>2014-03-05T08:56:33Z</time>
      </trkpt>
      <trkpt lat="43.33365" lon="5.52697">
        <ele>395.6</ele>
        <time>2014-03-05T08:56:37Z</time>
      </trkpt>
      <trkpt lat="43.33366" lon="5.52698">
        <ele>395.7</ele>
        <time>2014-03-05T08:56:38Z</time>
      </trkpt>
      <trkpt lat="43.33373" lon="5.52699">
        <ele>396.2</ele>
        <time>2014-03-05T08:56:45Z</time>
      </trkpt>
      <trkpt lat="43.33377" lon="5.52701">
        <ele>397</ele>
        <time>2014-03-05T08:56:49Z</time>
      </trkpt>
      <trkpt lat="43.3338" lon="5.52704">
        <ele>397.7</ele>
        <time>2014-03-05T08:56:53Z</time>
      </trkpt>
      <trkpt lat="43.33383" lon="5.52707">
        <ele>398.6</ele>
        <time>2014-03-05T08:56:57Z</time>
      </trkpt>
      <trkpt lat="43.33386" lon="5.52712">
        <ele>399.3</ele>
        <time>2014-03-05T08:57:02Z</time>
      </trkpt>
      <trkpt lat="43.33389" lon="5.52716">
        <ele>399.7</ele>
        <time>2014-03-05T08:57:27Z</time>
      </trkpt>
      <trkpt lat="43.33392" lon="5.52719">
        <ele>399.6</ele>
        <time>2014-03-05T08:57:37Z</time>
      </trkpt>
      <trkpt lat="43.33396" lon="5.52723">
        <ele>400</ele>
        <time>2014-03-05T08:57:43Z</time>
      </trkpt>
      <trkpt lat="43.33396" lon="5.52724">
        <ele>400.2</ele>
        <time>2014-03-05T08:57:44Z</time>
      </trkpt>
      <trkpt lat="43.33402" lon="5.52716">
        <ele>401.2</ele>
        <time>2014-03-05T09:00:19Z</time>
      </trkpt>
      <trkpt lat="43.33402" lon="5.52716">
        <ele>401</ele>
        <time>2014-03-05T09:00:20Z</time>
      </trkpt>
      <trkpt lat="43.33403" lon="5.52717">
        <ele>404.1</ele>
        <time>2014-03-05T09:06:25Z</time>
      </trkpt>
      <trkpt lat="43.33402" lon="5.52716">
        <ele>404.2</ele>
        <time>2014-03-05T09:06:26Z</time>
      </trkpt>
      <trkpt lat="43.33395" lon="5.52713">
        <ele>404.3</ele>
        <time>2014-03-05T09:06:35Z</time>
      </trkpt>
      <trkpt lat="43.33392" lon="5.52709">
        <ele>403.7</ele>
        <time>2014-03-05T09:06:39Z</time>
      </trkpt>
      <trkpt lat="43.3339" lon="5.52704">
        <ele>403.1</ele>
        <time>2014-03-05T09:06:44Z</time>
      </trkpt>
      <trkpt lat="43.33389" lon="5.52698">
        <ele>401.6</ele>
        <time>2014-03-05T09:06:53Z</time>
      </trkpt>
      <trkpt lat="43.33388" lon="5.52693">
        <ele>400.1</ele>
        <time>2014-03-05T09:07:00Z</time>
      </trkpt>
      <trkpt lat="43.33391" lon="5.52688">
        <ele>397.6</ele>
        <time>2014-03-05T09:07:08Z</time>
      </trkpt>
      <trkpt lat="43.33394" lon="5.52686">
        <ele>396.5</ele>
        <time>2014-03-05T09:07:15Z</time>
      </trkpt>
      <trkpt lat="43.33398" lon="5.52683">
        <ele>395.3</ele>
        <time>2014-03-05T09:07:21Z</time>
      </trkpt>
      <trkpt lat="43.33402" lon="5.5268">
        <ele>395.6</ele>
        <time>2014-03-05T09:07:28Z</time>
      </trkpt>
      <trkpt lat="43.33402" lon="5.52679">
        <ele>395.6</ele>
        <time>2014-03-05T09:07:29Z</time>
      </trkpt>
      <trkpt lat="43.33408" lon="5.52672">
        <ele>395.6</ele>
        <time>2014-03-05T09:07:39Z</time>
      </trkpt>
      <trkpt lat="43.3341" lon="5.52667">
        <ele>395.6</ele>
        <time>2014-03-05T09:07:43Z</time>
      </trkpt>
      <trkpt lat="43.33413" lon="5.52663">
        <ele>395.5</ele>
        <time>2014-03-05T09:07:48Z</time>
      </trkpt>
      <trkpt lat="43.33415" lon="5.52658">
        <ele>394.6</ele>
        <time>2014-03-05T09:07:56Z</time>
      </trkpt>
      <trkpt lat="43.33417" lon="5.52652">
        <ele>393.6</ele>
        <time>2014-03-05T09:08:04Z</time>
      </trkpt>
      <trkpt lat="43.33419" lon="5.52648">
        <ele>394.2</ele>
        <time>2014-03-05T09:08:10Z</time>
      </trkpt>
      <trkpt lat="43.33422" lon="5.52643">
        <ele>393.6</ele>
        <time>2014-03-05T09:08:16Z</time>
      </trkpt>
      <trkpt lat="43.33425" lon="5.52639">
        <ele>393.5</ele>
        <time>2014-03-05T09:08:23Z</time>
      </trkpt>
      <trkpt lat="43.33429" lon="5.52637">
        <ele>394.1</ele>
        <time>2014-03-05T09:08:28Z</time>
      </trkpt>
      <trkpt lat="43.33432" lon="5.52637">
        <ele>394.7</ele>
        <time>2014-03-05T09:08:33Z</time>
      </trkpt>
      <trkpt lat="43.33433" lon="5.52637">
        <ele>394.7</ele>
        <time>2014-03-05T09:08:34Z</time>
      </trkpt>
      <trkpt lat="43.3344" lon="5.52638">
        <ele>396.2</ele>
        <time>2014-03-05T09:08:43Z</time>
      </trkpt>
      <trkpt lat="43.33444" lon="5.52639">
        <ele>396.6</ele>
        <time>2014-03-05T09:08:49Z</time>
      </trkpt>
      <trkpt lat="43.33448" lon="5.52641">
        <ele>397.5</ele>
        <time>2014-03-05T09:08:54Z</time>
      </trkpt>
      <trkpt lat="43.33452" lon="5.52642">
        <ele>398.2</ele>
        <time>2014-03-05T09:08:59Z</time>
      </trkpt>
      <trkpt lat="43.33456" lon="5.52643">
        <ele>398.6</ele>
        <time>2014-03-05T09:09:04Z</time>
      </trkpt>
      <trkpt lat="43.3346" lon="5.52642">
        <ele>399.1</ele>
        <time>2014-03-05T09:09:09Z</time>
      </trkpt>
      <trkpt lat="43.33464" lon="5.52642">
        <ele>399.2</ele>
        <time>2014-03-05T09:09:14Z</time>
      </trkpt>
      <trkpt lat="43.33468" lon="5.52642">
        <ele>399.3</ele>
        <time>2014-03-05T09:09:18Z</time>
      </trkpt>
      <trkpt lat="43.33472" lon="5.52642">
        <ele>400.3</ele>
        <time>2014-03-05T09:09:21Z</time>
      </trkpt>
      <trkpt lat="43.33475" lon="5.52641">
        <ele>401.7</ele>
        <time>2014-03-05T09:09:24Z</time>
      </trkpt>
      <trkpt lat="43.33479" lon="5.5264">
        <ele>402.2</ele>
        <time>2014-03-05T09:09:27Z</time>
      </trkpt>
      <trkpt lat="43.33482" lon="5.52638">
        <ele>402.1</ele>
        <time>2014-03-05T09:09:31Z</time>
      </trkpt>
      <trkpt lat="43.33486" lon="5.52636">
        <ele>401.7</ele>
        <time>2014-03-05T09:09:36Z</time>
      </trkpt>
      <trkpt lat="43.33487" lon="5.52637">
        <ele>401.7</ele>
        <time>2014-03-05T09:09:37Z</time>
      </trkpt>
      <trkpt lat="43.33493" lon="5.52642">
        <ele>403.2</ele>
        <time>2014-03-05T09:09:45Z</time>
      </trkpt>
      <trkpt lat="43.33495" lon="5.52646">
        <ele>404.2</ele>
        <time>2014-03-05T09:09:49Z</time>
      </trkpt>
      <trkpt lat="43.33498" lon="5.5265">
        <ele>405</ele>
        <time>2014-03-05T09:09:54Z</time>
      </trkpt>
      <trkpt lat="43.33501" lon="5.52655">
        <ele>405.6</ele>
        <time>2014-03-05T09:09:59Z</time>
      </trkpt>
      <trkpt lat="43.33504" lon="5.52659">
        <ele>406.3</ele>
        <time>2014-03-05T09:10:04Z</time>
      </trkpt>
      <trkpt lat="43.33507" lon="5.52663">
        <ele>406.8</ele>
        <time>2014-03-05T09:10:09Z</time>
      </trkpt>
      <trkpt lat="43.3351" lon="5.52667">
        <ele>407.5</ele>
        <time>2014-03-05T09:10:14Z</time>
      </trkpt>
      <trkpt lat="43.33513" lon="5.52672">
        <ele>408.1</ele>
        <time>2014-03-05T09:10:19Z</time>
      </trkpt>
      <trkpt lat="43.33516" lon="5.52676">
        <ele>409.2</ele>
        <time>2014-03-05T09:10:24Z</time>
      </trkpt>
      <trkpt lat="43.33519" lon="5.5268">
        <ele>410</ele>
        <time>2014-03-05T09:10:29Z</time>
      </trkpt>
      <trkpt lat="43.33522" lon="5.52684">
        <ele>411.2</ele>
        <time>2014-03-05T09:10:34Z</time>
      </trkpt>
      <trkpt lat="43.33526" lon="5.52686">
        <ele>412.5</ele>
        <time>2014-03-05T09:10:39Z</time>
      </trkpt>
      <trkpt lat="43.33527" lon="5.52686">
        <ele>412.6</ele>
        <time>2014-03-05T09:10:40Z</time>
      </trkpt>
      <trkpt lat="43.33534" lon="5.52684">
        <ele>412.6</ele>
        <time>2014-03-05T09:10:48Z</time>
      </trkpt>
      <trkpt lat="43.33537" lon="5.52681">
        <ele>412.8</ele>
        <time>2014-03-05T09:10:52Z</time>
      </trkpt>
      <trkpt lat="43.3354" lon="5.52678">
        <ele>413.3</ele>
        <time>2014-03-05T09:10:56Z</time>
      </trkpt>
      <trkpt lat="43.33543" lon="5.52673">
        <ele>413.8</ele>
        <time>2014-03-05T09:11:01Z</time>
      </trkpt>
      <trkpt lat="43.33545" lon="5.52669">
        <ele>414</ele>
        <time>2014-03-05T09:11:05Z</time>
      </trkpt>
      <trkpt lat="43.33549" lon="5.52666">
        <ele>415.1</ele>
        <time>2014-03-05T09:11:21Z</time>
      </trkpt>
      <trkpt lat="43.33552" lon="5.52661">
        <ele>415.7</ele>
        <time>2014-03-05T09:11:27Z</time>
      </trkpt>
      <trkpt lat="43.33554" lon="5.52657">
        <ele>415.3</ele>
        <time>2014-03-05T09:11:31Z</time>
      </trkpt>
      <trkpt lat="43.33558" lon="5.52657">
        <ele>415.7</ele>
        <time>2014-03-05T09:11:37Z</time>
      </trkpt>
      <trkpt lat="43.33562" lon="5.5266">
        <ele>416.2</ele>
        <time>2014-03-05T09:11:42Z</time>
      </trkpt>
      <trkpt lat="43.33563" lon="5.52661">
        <ele>416.2</ele>
        <time>2014-03-05T09:11:43Z</time>
      </trkpt>
      <trkpt lat="43.33569" lon="5.52666">
        <ele>418</ele>
        <time>2014-03-05T09:11:52Z</time>
      </trkpt>
      <trkpt lat="43.33572" lon="5.5267">
        <ele>418.7</ele>
        <time>2014-03-05T09:11:56Z</time>
      </trkpt>
      <trkpt lat="43.33576" lon="5.52673">
        <ele>420</ele>
        <time>2014-03-05T09:12:02Z</time>
      </trkpt>
      <trkpt lat="43.3358" lon="5.52676">
        <ele>420.7</ele>
        <time>2014-03-05T09:12:07Z</time>
      </trkpt>
      <trkpt lat="43.33582" lon="5.5268">
        <ele>421.2</ele>
        <time>2014-03-05T09:12:12Z</time>
      </trkpt>
      <trkpt lat="43.33585" lon="5.52685">
        <ele>421.3</ele>
        <time>2014-03-05T09:12:17Z</time>
      </trkpt>
      <trkpt lat="43.33588" lon="5.52689">
        <ele>421.7</ele>
        <time>2014-03-05T09:12:22Z</time>
      </trkpt>
      <trkpt lat="43.33591" lon="5.52693">
        <ele>422.7</ele>
        <time>2014-03-05T09:12:28Z</time>
      </trkpt>
      <trkpt lat="43.33595" lon="5.52696">
        <ele>423.3</ele>
        <time>2014-03-05T09:12:34Z</time>
      </trkpt>
      <trkpt lat="43.33598" lon="5.52699">
        <ele>424.6</ele>
        <time>2014-03-05T09:12:40Z</time>
      </trkpt>
      <trkpt lat="43.33602" lon="5.52701">
        <ele>425.8</ele>
        <time>2014-03-05T09:12:46Z</time>
      </trkpt>
      <trkpt lat="43.33602" lon="5.52702">
        <ele>426.1</ele>
        <time>2014-03-05T09:12:47Z</time>
      </trkpt>
      <trkpt lat="43.33609" lon="5.52706">
        <ele>427.2</ele>
        <time>2014-03-05T09:12:57Z</time>
      </trkpt>
      <trkpt lat="43.33613" lon="5.52706">
        <ele>427.7</ele>
        <time>2014-03-05T09:13:03Z</time>
      </trkpt>
      <trkpt lat="43.33617" lon="5.52704">
        <ele>427.1</ele>
        <time>2014-03-05T09:13:07Z</time>
      </trkpt>
      <trkpt lat="43.33622" lon="5.52704">
        <ele>426.2</ele>
        <time>2014-03-05T09:13:12Z</time>
      </trkpt>
      <trkpt lat="43.33625" lon="5.52705">
        <ele>426.5</ele>
        <time>2014-03-05T09:13:17Z</time>
      </trkpt>
      <trkpt lat="43.3363" lon="5.52706">
        <ele>427.7</ele>
        <time>2014-03-05T09:13:23Z</time>
      </trkpt>
      <trkpt lat="43.33634" lon="5.52705">
        <ele>430.5</ele>
        <time>2014-03-05T09:13:32Z</time>
      </trkpt>
      <trkpt lat="43.33638" lon="5.52706">
        <ele>432.2</ele>
        <time>2014-03-05T09:13:38Z</time>
      </trkpt>
      <trkpt lat="43.33642" lon="5.52706">
        <ele>433.7</ele>
        <time>2014-03-05T09:13:46Z</time>
      </trkpt>
      <trkpt lat="43.33646" lon="5.52706">
        <ele>435.5</ele>
        <time>2014-03-05T09:13:54Z</time>
      </trkpt>
      <trkpt lat="43.33647" lon="5.52706">
        <ele>435.7</ele>
        <time>2014-03-05T09:13:55Z</time>
      </trkpt>
      <trkpt lat="43.33653" lon="5.52704">
        <ele>437.2</ele>
        <time>2014-03-05T09:14:05Z</time>
      </trkpt>
      <trkpt lat="43.33658" lon="5.52706">
        <ele>438.3</ele>
        <time>2014-03-05T09:14:11Z</time>
      </trkpt>
      <trkpt lat="43.33662" lon="5.52707">
        <ele>439</ele>
        <time>2014-03-05T09:14:18Z</time>
      </trkpt>
      <trkpt lat="43.33666" lon="5.52707">
        <ele>440</ele>
        <time>2014-03-05T09:14:25Z</time>
      </trkpt>
      <trkpt lat="43.3367" lon="5.52708">
        <ele>440.7</ele>
        <time>2014-03-05T09:14:31Z</time>
      </trkpt>
      <trkpt lat="43.33674" lon="5.52709">
        <ele>442.7</ele>
        <time>2014-03-05T09:14:40Z</time>
      </trkpt>
      <trkpt lat="43.33678" lon="5.52711">
        <ele>444.5</ele>
        <time>2014-03-05T09:14:47Z</time>
      </trkpt>
      <trkpt lat="43.33683" lon="5.5271">
        <ele>445.2</ele>
        <time>2014-03-05T09:15:06Z</time>
      </trkpt>
      <trkpt lat="43.33683" lon="5.5271">
        <ele>444.8</ele>
        <time>2014-03-05T09:15:07Z</time>
      </trkpt>
      <trkpt lat="43.33687" lon="5.52709">
        <ele>451.5</ele>
        <time>2014-03-05T09:16:10Z</time>
      </trkpt>
      <trkpt lat="43.33695" lon="5.52706">
        <ele>454.2</ele>
        <time>2014-03-05T09:16:27Z</time>
      </trkpt>
      <trkpt lat="43.33699" lon="5.52708">
        <ele>454</ele>
        <time>2014-03-05T09:16:34Z</time>
      </trkpt>
      <trkpt lat="43.33703" lon="5.52708">
        <ele>454.8</ele>
        <time>2014-03-05T09:16:43Z</time>
      </trkpt>
      <trkpt lat="43.33707" lon="5.52708">
        <ele>455.3</ele>
        <time>2014-03-05T09:16:53Z</time>
      </trkpt>
      <trkpt lat="43.33712" lon="5.52709">
        <ele>458.5</ele>
        <time>2014-03-05T09:18:36Z</time>
      </trkpt>
      <trkpt lat="43.33712" lon="5.52709">
        <ele>458.5</ele>
        <time>2014-03-05T09:18:37Z</time>
      </trkpt>
      <trkpt lat="43.33719" lon="5.52713">
        <ele>458.3</ele>
        <time>2014-03-05T09:18:50Z</time>
      </trkpt>
      <trkpt lat="43.33722" lon="5.52716">
        <ele>459.1</ele>
        <time>2014-03-05T09:19:01Z</time>
      </trkpt>
      <trkpt lat="43.33727" lon="5.52716">
        <ele>460.5</ele>
        <time>2014-03-05T09:19:12Z</time>
      </trkpt>
      <trkpt lat="43.33731" lon="5.52716">
        <ele>462.2</ele>
        <time>2014-03-05T09:19:24Z</time>
      </trkpt>
      <trkpt lat="43.33735" lon="5.52717">
        <ele>463.6</ele>
        <time>2014-03-05T09:19:32Z</time>
      </trkpt>
      <trkpt lat="43.3374" lon="5.52718">
        <ele>465.1</ele>
        <time>2014-03-05T09:19:44Z</time>
      </trkpt>
      <trkpt lat="43.3374" lon="5.52718">
        <ele>465.1</ele>
        <time>2014-03-05T09:19:45Z</time>
      </trkpt>
      <trkpt lat="43.33748" lon="5.52719">
        <ele>467.7</ele>
        <time>2014-03-05T09:20:07Z</time>
      </trkpt>
      <trkpt lat="43.33752" lon="5.52722">
        <ele>469.6</ele>
        <time>2014-03-05T09:20:18Z</time>
      </trkpt>
      <trkpt lat="43.33755" lon="5.52723">
        <ele>471.8</ele>
        <time>2014-03-05T09:20:33Z</time>
      </trkpt>
      <trkpt lat="43.33759" lon="5.52724">
        <ele>473.2</ele>
        <time>2014-03-05T09:20:44Z</time>
      </trkpt>
      <trkpt lat="43.33764" lon="5.52725">
        <ele>474.6</ele>
        <time>2014-03-05T09:20:54Z</time>
      </trkpt>
      <trkpt lat="43.33764" lon="5.52725">
        <ele>474.7</ele>
        <time>2014-03-05T09:20:55Z</time>
      </trkpt>
      <trkpt lat="43.33771" lon="5.5273">
        <ele>476</ele>
        <time>2014-03-05T09:21:10Z</time>
      </trkpt>
      <trkpt lat="43.33775" lon="5.52733">
        <ele>476.7</ele>
        <time>2014-03-05T09:21:18Z</time>
      </trkpt>
      <trkpt lat="43.33778" lon="5.52729">
        <ele>477.7</ele>
        <time>2014-03-05T09:21:30Z</time>
      </trkpt>
      <trkpt lat="43.33782" lon="5.52725">
        <ele>480.5</ele>
        <time>2014-03-05T09:21:46Z</time>
      </trkpt>
      <trkpt lat="43.33786" lon="5.52724">
        <ele>481.3</ele>
        <time>2014-03-05T09:22:03Z</time>
      </trkpt>
      <trkpt lat="43.33786" lon="5.52724">
        <ele>481.2</ele>
        <time>2014-03-05T09:22:04Z</time>
      </trkpt>
      <trkpt lat="43.33789" lon="5.52719">
        <ele>488.2</ele>
        <time>2014-03-05T09:24:32Z</time>
      </trkpt>
      <trkpt lat="43.33797" lon="5.52715">
        <ele>489.2</ele>
        <time>2014-03-05T09:24:53Z</time>
      </trkpt>
      <trkpt lat="43.33802" lon="5.52714">
        <ele>490.8</ele>
        <time>2014-03-05T09:25:08Z</time>
      </trkpt>
      <trkpt lat="43.33806" lon="5.52715">
        <ele>493.3</ele>
        <time>2014-03-05T09:25:21Z</time>
      </trkpt>
      <trkpt lat="43.3381" lon="5.52713">
        <ele>493.8</ele>
        <time>2014-03-05T09:25:32Z</time>
      </trkpt>
      <trkpt lat="43.3381" lon="5.52712">
        <ele>493.7</ele>
        <time>2014-03-05T09:25:33Z</time>
      </trkpt>
      <trkpt lat="43.33816" lon="5.52705">
        <ele>494.7</ele>
        <time>2014-03-05T09:26:00Z</time>
      </trkpt>
      <trkpt lat="43.3382" lon="5.52702">
        <ele>498.1</ele>
        <time>2014-03-05T09:26:17Z</time>
      </trkpt>
      <trkpt lat="43.33824" lon="5.52699">
        <ele>497.7</ele>
        <time>2014-03-05T09:26:27Z</time>
      </trkpt>
      <trkpt lat="43.33828" lon="5.52697">
        <ele>500.7</ele>
        <time>2014-03-05T09:26:41Z</time>
      </trkpt>
      <trkpt lat="43.33828" lon="5.52698">
        <ele>500.8</ele>
        <time>2014-03-05T09:26:42Z</time>
      </trkpt>
      <trkpt lat="43.33836" lon="5.52699">
        <ele>503.3</ele>
        <time>2014-03-05T09:27:03Z</time>
      </trkpt>
      <trkpt lat="43.33839" lon="5.52701">
        <ele>505.3</ele>
        <time>2014-03-05T09:27:13Z</time>
      </trkpt>
      <trkpt lat="43.33843" lon="5.52704">
        <ele>507.2</ele>
        <time>2014-03-05T09:27:24Z</time>
      </trkpt>
      <trkpt lat="43.33847" lon="5.52701">
        <ele>509.1</ele>
        <time>2014-03-05T09:27:43Z</time>
      </trkpt>
      <trkpt lat="43.33847" lon="5.52701">
        <ele>509.2</ele>
        <time>2014-03-05T09:27:44Z</time>
      </trkpt>
      <trkpt lat="43.33855" lon="5.52704">
        <ele>513.2</ele>
        <time>2014-03-05T09:28:05Z</time>
      </trkpt>
      <trkpt lat="43.33858" lon="5.52708">
        <ele>514</ele>
        <time>2014-03-05T09:28:13Z</time>
      </trkpt>
      <trkpt lat="43.33863" lon="5.52709">
        <ele>514.7</ele>
        <time>2014-03-05T09:28:33Z</time>
      </trkpt>
      <trkpt lat="43.33867" lon="5.52708">
        <ele>515.5</ele>
        <time>2014-03-05T09:28:41Z</time>
      </trkpt>
      <trkpt lat="43.3387" lon="5.5271">
        <ele>516.5</ele>
        <time>2014-03-05T09:28:47Z</time>
      </trkpt>
      <trkpt lat="43.33871" lon="5.5271">
        <ele>516.7</ele>
        <time>2014-03-05T09:28:48Z</time>
      </trkpt>
      <trkpt lat="43.33879" lon="5.5271">
        <ele>520.4</ele>
        <time>2014-03-05T09:29:04Z</time>
      </trkpt>
      <trkpt lat="43.33883" lon="5.52711">
        <ele>522.5</ele>
        <time>2014-03-05T09:29:14Z</time>
      </trkpt>
      <trkpt lat="43.33887" lon="5.52712">
        <ele>523.7</ele>
        <time>2014-03-05T09:29:24Z</time>
      </trkpt>
      <trkpt lat="43.33891" lon="5.52714">
        <ele>523.5</ele>
        <time>2014-03-05T09:29:30Z</time>
      </trkpt>
      <trkpt lat="43.33895" lon="5.52715">
        <ele>524.5</ele>
        <time>2014-03-05T09:29:43Z</time>
      </trkpt>
      <trkpt lat="43.33899" lon="5.52714">
        <ele>525.7</ele>
        <time>2014-03-05T09:29:50Z</time>
      </trkpt>
      <trkpt lat="43.33899" lon="5.52714">
        <ele>526</ele>
        <time>2014-03-05T09:29:51Z</time>
      </trkpt>
      <trkpt lat="43.33907" lon="5.52712">
        <ele>527.5</ele>
        <time>2014-03-05T09:30:07Z</time>
      </trkpt>
      <trkpt lat="43.3391" lon="5.52708">
        <ele>528.2</ele>
        <time>2014-03-05T09:30:15Z</time>
      </trkpt>
      <trkpt lat="43.33914" lon="5.5271">
        <ele>530.2</ele>
        <time>2014-03-05T09:30:25Z</time>
      </trkpt>
      <trkpt lat="43.33913" lon="5.52704">
        <ele>537.9</ele>
        <time>2014-03-05T09:33:45Z</time>
      </trkpt>
      <trkpt lat="43.33913" lon="5.52704">
        <ele>538</ele>
        <time>2014-03-05T09:33:46Z</time>
      </trkpt>
      <trkpt lat="43.33921" lon="5.52706">
        <ele>536.5</ele>
        <time>2014-03-05T09:35:28Z</time>
      </trkpt>
      <trkpt lat="43.33921" lon="5.52706">
        <ele>536.5</ele>
        <time>2014-03-05T09:35:29Z</time>
      </trkpt>
      <trkpt lat="43.33924" lon="5.5271">
        <ele>539.4</ele>
        <time>2014-03-05T09:36:40Z</time>
      </trkpt>
      <trkpt lat="43.33928" lon="5.52718">
        <ele>539.2</ele>
        <time>2014-03-05T09:36:49Z</time>
      </trkpt>
      <trkpt lat="43.3393" lon="5.52722">
        <ele>539.5</ele>
        <time>2014-03-05T09:36:53Z</time>
      </trkpt>
      <trkpt lat="43.33932" lon="5.52726">
        <ele>539.2</ele>
        <time>2014-03-05T09:36:57Z</time>
      </trkpt>
      <trkpt lat="43.33934" lon="5.52731">
        <ele>539</ele>
        <time>2014-03-05T09:37:02Z</time>
      </trkpt>
      <trkpt lat="43.33936" lon="5.52736">
        <ele>538.9</ele>
        <time>2014-03-05T09:37:06Z</time>
      </trkpt>
      <trkpt lat="43.33937" lon="5.52741">
        <ele>537.9</ele>
        <time>2014-03-05T09:37:10Z</time>
      </trkpt>
      <trkpt lat="43.33938" lon="5.52745">
        <ele>537.5</ele>
        <time>2014-03-05T09:37:14Z</time>
      </trkpt>
      <trkpt lat="43.33939" lon="5.5275">
        <ele>537.5</ele>
        <time>2014-03-05T09:37:17Z</time>
      </trkpt>
      <trkpt lat="43.3394" lon="5.52755">
        <ele>537</ele>
        <time>2014-03-05T09:37:21Z</time>
      </trkpt>
      <trkpt lat="43.33943" lon="5.5276">
        <ele>536.2</ele>
        <time>2014-03-05T09:37:25Z</time>
      </trkpt>
      <trkpt lat="43.33945" lon="5.52764">
        <ele>536.4</ele>
        <time>2014-03-05T09:37:29Z</time>
      </trkpt>
      <trkpt lat="43.33948" lon="5.52768">
        <ele>536.2</ele>
        <time>2014-03-05T09:37:33Z</time>
      </trkpt>
      <trkpt lat="43.3395" lon="5.52772">
        <ele>536.4</ele>
        <time>2014-03-05T09:37:36Z</time>
      </trkpt>
      <trkpt lat="43.33952" lon="5.52776">
        <ele>536.9</ele>
        <time>2014-03-05T09:37:39Z</time>
      </trkpt>
      <trkpt lat="43.33953" lon="5.52781">
        <ele>537.5</ele>
        <time>2014-03-05T09:37:42Z</time>
      </trkpt>
      <trkpt lat="43.33954" lon="5.52782">
        <ele>537.7</ele>
        <time>2014-03-05T09:37:43Z</time>
      </trkpt>
      <trkpt lat="43.33958" lon="5.52791">
        <ele>537</ele>
        <time>2014-03-05T09:37:50Z</time>
      </trkpt>
      <trkpt lat="43.3396" lon="5.52795">
        <ele>537</ele>
        <time>2014-03-05T09:37:53Z</time>
      </trkpt>
      <trkpt lat="43.33962" lon="5.52799">
        <ele>536.5</ele>
        <time>2014-03-05T09:37:57Z</time>
      </trkpt>
      <trkpt lat="43.33964" lon="5.52804">
        <ele>536.5</ele>
        <time>2014-03-05T09:38:01Z</time>
      </trkpt>
      <trkpt lat="43.33966" lon="5.52809">
        <ele>536.5</ele>
        <time>2014-03-05T09:38:05Z</time>
      </trkpt>
      <trkpt lat="43.33968" lon="5.52815">
        <ele>536.7</ele>
        <time>2014-03-05T09:38:09Z</time>
      </trkpt>
      <trkpt lat="43.3397" lon="5.5282">
        <ele>537</ele>
        <time>2014-03-05T09:38:13Z</time>
      </trkpt>
      <trkpt lat="43.33971" lon="5.52825">
        <ele>537.9</ele>
        <time>2014-03-05T09:38:17Z</time>
      </trkpt>
      <trkpt lat="43.33971" lon="5.5283">
        <ele>539</ele>
        <time>2014-03-05T09:38:21Z</time>
      </trkpt>
      <trkpt lat="43.33973" lon="5.52836">
        <ele>538.7</ele>
        <time>2014-03-05T09:38:26Z</time>
      </trkpt>
      <trkpt lat="43.33974" lon="5.52841">
        <ele>538.5</ele>
        <time>2014-03-05T09:38:30Z</time>
      </trkpt>
      <trkpt lat="43.33975" lon="5.52846">
        <ele>538.9</ele>
        <time>2014-03-05T09:38:34Z</time>
      </trkpt>
      <trkpt lat="43.33977" lon="5.52851">
        <ele>538.7</ele>
        <time>2014-03-05T09:38:39Z</time>
      </trkpt>
      <trkpt lat="43.33978" lon="5.52856">
        <ele>539</ele>
        <time>2014-03-05T09:38:43Z</time>
      </trkpt>
      <trkpt lat="43.33978" lon="5.52858">
        <ele>539.4</ele>
        <time>2014-03-05T09:38:44Z</time>
      </trkpt>
      <trkpt lat="43.33981" lon="5.52867">
        <ele>539.5</ele>
        <time>2014-03-05T09:38:53Z</time>
      </trkpt>
      <trkpt lat="43.33983" lon="5.52871">
        <ele>540.2</ele>
        <time>2014-03-05T09:38:58Z</time>
      </trkpt>
      <trkpt lat="43.33985" lon="5.52876">
        <ele>541</ele>
        <time>2014-03-05T09:39:03Z</time>
      </trkpt>
      <trkpt lat="43.33988" lon="5.5288">
        <ele>541.7</ele>
        <time>2014-03-05T09:39:07Z</time>
      </trkpt>
      <trkpt lat="43.3399" lon="5.52885">
        <ele>542</ele>
        <time>2014-03-05T09:39:11Z</time>
      </trkpt>
      <trkpt lat="43.33992" lon="5.5289">
        <ele>542</ele>
        <time>2014-03-05T09:39:15Z</time>
      </trkpt>
      <trkpt lat="43.33993" lon="5.52895">
        <ele>541.9</ele>
        <time>2014-03-05T09:39:19Z</time>
      </trkpt>
      <trkpt lat="43.33995" lon="5.52901">
        <ele>541.5</ele>
        <time>2014-03-05T09:39:23Z</time>
      </trkpt>
      <trkpt lat="43.33996" lon="5.52906">
        <ele>540.9</ele>
        <time>2014-03-05T09:39:27Z</time>
      </trkpt>
      <trkpt lat="43.33997" lon="5.52912">
        <ele>541</ele>
        <time>2014-03-05T09:39:32Z</time>
      </trkpt>
      <trkpt lat="43.33998" lon="5.52917">
        <ele>540.9</ele>
        <time>2014-03-05T09:39:37Z</time>
      </trkpt>
      <trkpt lat="43.33999" lon="5.52923">
        <ele>540.5</ele>
        <time>2014-03-05T09:39:41Z</time>
      </trkpt>
      <trkpt lat="43.34" lon="5.52928">
        <ele>540.2</ele>
        <time>2014-03-05T09:39:44Z</time>
      </trkpt>
      <trkpt lat="43.34" lon="5.5293">
        <ele>540</ele>
        <time>2014-03-05T09:39:45Z</time>
      </trkpt>
      <trkpt lat="43.34002" lon="5.52939">
        <ele>540.9</ele>
        <time>2014-03-05T09:39:51Z</time>
      </trkpt>
      <trkpt lat="43.34004" lon="5.52944">
        <ele>540.7</ele>
        <time>2014-03-05T09:39:55Z</time>
      </trkpt>
      <trkpt lat="43.34005" lon="5.5295">
        <ele>540.5</ele>
        <time>2014-03-05T09:39:59Z</time>
      </trkpt>
      <trkpt lat="43.34006" lon="5.52955">
        <ele>540.4</ele>
        <time>2014-03-05T09:40:03Z</time>
      </trkpt>
      <trkpt lat="43.34007" lon="5.52961">
        <ele>540.5</ele>
        <time>2014-03-05T09:40:07Z</time>
      </trkpt>
      <trkpt lat="43.34009" lon="5.52966">
        <ele>540.7</ele>
        <time>2014-03-05T09:40:11Z</time>
      </trkpt>
      <trkpt lat="43.3401" lon="5.52971">
        <ele>541.5</ele>
        <time>2014-03-05T09:40:15Z</time>
      </trkpt>
      <trkpt lat="43.34011" lon="5.52977">
        <ele>541.2</ele>
        <time>2014-03-05T09:40:19Z</time>
      </trkpt>
      <trkpt lat="43.34012" lon="5.52982">
        <ele>541.9</ele>
        <time>2014-03-05T09:40:23Z</time>
      </trkpt>
      <trkpt lat="43.34014" lon="5.52987">
        <ele>541</ele>
        <time>2014-03-05T09:40:27Z</time>
      </trkpt>
      <trkpt lat="43.34016" lon="5.52992">
        <ele>539.9</ele>
        <time>2014-03-05T09:40:32Z</time>
      </trkpt>
      <trkpt lat="43.34017" lon="5.52997">
        <ele>541.4</ele>
        <time>2014-03-05T09:40:37Z</time>
      </trkpt>
      <trkpt lat="43.34018" lon="5.53002">
        <ele>541.9</ele>
        <time>2014-03-05T09:40:41Z</time>
      </trkpt>
      <trkpt lat="43.34018" lon="5.53007">
        <ele>542.7</ele>
        <time>2014-03-05T09:40:45Z</time>
      </trkpt>
      <trkpt lat="43.34018" lon="5.53009">
        <ele>542.5</ele>
        <time>2014-03-05T09:40:46Z</time>
      </trkpt>
      <trkpt lat="43.3402" lon="5.53018">
        <ele>543.9</ele>
        <time>2014-03-05T09:40:55Z</time>
      </trkpt>
      <trkpt lat="43.3402" lon="5.53023">
        <ele>545.2</ele>
        <time>2014-03-05T09:41:01Z</time>
      </trkpt>
      <trkpt lat="43.3402" lon="5.53029">
        <ele>548.5</ele>
        <time>2014-03-05T09:41:07Z</time>
      </trkpt>
      <trkpt lat="43.34022" lon="5.53034">
        <ele>549.5</ele>
        <time>2014-03-05T09:41:12Z</time>
      </trkpt>
      <trkpt lat="43.34023" lon="5.53039">
        <ele>550.4</ele>
        <time>2014-03-05T09:41:17Z</time>
      </trkpt>
      <trkpt lat="43.34025" lon="5.53044">
        <ele>550.9</ele>
        <time>2014-03-05T09:41:23Z</time>
      </trkpt>
      <trkpt lat="43.34027" lon="5.53049">
        <ele>552.4</ele>
        <time>2014-03-05T09:41:29Z</time>
      </trkpt>
      <trkpt lat="43.3403" lon="5.53053">
        <ele>554.5</ele>
        <time>2014-03-05T09:41:35Z</time>
      </trkpt>
      <trkpt lat="43.34034" lon="5.53057">
        <ele>554.5</ele>
        <time>2014-03-05T09:41:40Z</time>
      </trkpt>
      <trkpt lat="43.34038" lon="5.5306">
        <ele>555.2</ele>
        <time>2014-03-05T09:41:46Z</time>
      </trkpt>
      <trkpt lat="43.34038" lon="5.5306">
        <ele>555.2</ele>
        <time>2014-03-05T09:41:47Z</time>
      </trkpt>
      <trkpt lat="43.34046" lon="5.53064">
        <ele>557.5</ele>
        <time>2014-03-05T09:41:58Z</time>
      </trkpt>
      <trkpt lat="43.3405" lon="5.53066">
        <ele>558.5</ele>
        <time>2014-03-05T09:42:06Z</time>
      </trkpt>
      <trkpt lat="43.34054" lon="5.53067">
        <ele>559.2</ele>
        <time>2014-03-05T09:42:12Z</time>
      </trkpt>
      <trkpt lat="43.34058" lon="5.53068">
        <ele>559.7</ele>
        <time>2014-03-05T09:42:19Z</time>
      </trkpt>
      <trkpt lat="43.34062" lon="5.53069">
        <ele>560</ele>
        <time>2014-03-05T09:42:24Z</time>
      </trkpt>
      <trkpt lat="43.34066" lon="5.53071">
        <ele>561</ele>
        <time>2014-03-05T09:42:30Z</time>
      </trkpt>
      <trkpt lat="43.3407" lon="5.53073">
        <ele>561.7</ele>
        <time>2014-03-05T09:42:35Z</time>
      </trkpt>
      <trkpt lat="43.34074" lon="5.53075">
        <ele>563.5</ele>
        <time>2014-03-05T09:42:41Z</time>
      </trkpt>
      <trkpt lat="43.34078" lon="5.53076">
        <ele>564.4</ele>
        <time>2014-03-05T09:42:47Z</time>
      </trkpt>
      <trkpt lat="43.34079" lon="5.53076">
        <ele>564.5</ele>
        <time>2014-03-05T09:42:48Z</time>
      </trkpt>
      <trkpt lat="43.34085" lon="5.53079">
        <ele>564.4</ele>
        <time>2014-03-05T09:42:58Z</time>
      </trkpt>
      <trkpt lat="43.34089" lon="5.53081">
        <ele>565.7</ele>
        <time>2014-03-05T09:43:03Z</time>
      </trkpt>
      <trkpt lat="43.34092" lon="5.53085">
        <ele>565.2</ele>
        <time>2014-03-05T09:43:08Z</time>
      </trkpt>
      <trkpt lat="43.34095" lon="5.53088">
        <ele>564.2</ele>
        <time>2014-03-05T09:43:13Z</time>
      </trkpt>
      <trkpt lat="43.34098" lon="5.53092">
        <ele>563.5</ele>
        <time>2014-03-05T09:43:17Z</time>
      </trkpt>
      <trkpt lat="43.341" lon="5.53097">
        <ele>564.5</ele>
        <time>2014-03-05T09:43:22Z</time>
      </trkpt>
      <trkpt lat="43.34102" lon="5.53103">
        <ele>565.7</ele>
        <time>2014-03-05T09:43:28Z</time>
      </trkpt>
      <trkpt lat="43.34103" lon="5.53109">
        <ele>566.2</ele>
        <time>2014-03-05T09:43:34Z</time>
      </trkpt>
      <trkpt lat="43.34104" lon="5.53114">
        <ele>566.2</ele>
        <time>2014-03-05T09:43:39Z</time>
      </trkpt>
      <trkpt lat="43.34105" lon="5.53119">
        <ele>565.9</ele>
        <time>2014-03-05T09:43:43Z</time>
      </trkpt>
      <trkpt lat="43.34107" lon="5.53125">
        <ele>564.5</ele>
        <time>2014-03-05T09:43:47Z</time>
      </trkpt>
      <trkpt lat="43.34108" lon="5.5313">
        <ele>564</ele>
        <time>2014-03-05T09:43:51Z</time>
      </trkpt>
      <trkpt lat="43.34109" lon="5.53131">
        <ele>563.9</ele>
        <time>2014-03-05T09:43:52Z</time>
      </trkpt>
      <trkpt lat="43.34111" lon="5.5314">
        <ele>563.7</ele>
        <time>2014-03-05T09:44:00Z</time>
      </trkpt>
      <trkpt lat="43.34112" lon="5.53146">
        <ele>564.5</ele>
        <time>2014-03-05T09:44:05Z</time>
      </trkpt>
      <trkpt lat="43.34113" lon="5.53151">
        <ele>564.2</ele>
        <time>2014-03-05T09:44:10Z</time>
      </trkpt>
      <trkpt lat="43.34113" lon="5.53157">
        <ele>565.5</ele>
        <time>2014-03-05T09:44:15Z</time>
      </trkpt>
      <trkpt lat="43.34114" lon="5.53163">
        <ele>565</ele>
        <time>2014-03-05T09:44:21Z</time>
      </trkpt>
      <trkpt lat="43.34114" lon="5.53169">
        <ele>564.7</ele>
        <time>2014-03-05T09:44:26Z</time>
      </trkpt>
      <trkpt lat="43.34115" lon="5.53174">
        <ele>565.5</ele>
        <time>2014-03-05T09:44:32Z</time>
      </trkpt>
      <trkpt lat="43.34114" lon="5.5318">
        <ele>567</ele>
        <time>2014-03-05T09:44:40Z</time>
      </trkpt>
      <trkpt lat="43.34115" lon="5.53186">
        <ele>568.5</ele>
        <time>2014-03-05T09:44:48Z</time>
      </trkpt>
      <trkpt lat="43.34117" lon="5.53191">
        <ele>569.7</ele>
        <time>2014-03-05T09:44:54Z</time>
      </trkpt>
      <trkpt lat="43.34116" lon="5.53192">
        <ele>570.7</ele>
        <time>2014-03-05T09:44:55Z</time>
      </trkpt>
      <trkpt lat="43.34119" lon="5.53201">
        <ele>573.9</ele>
        <time>2014-03-05T09:45:04Z</time>
      </trkpt>
      <trkpt lat="43.34121" lon="5.53206">
        <ele>575</ele>
        <time>2014-03-05T09:45:10Z</time>
      </trkpt>
      <trkpt lat="43.34124" lon="5.5321">
        <ele>577</ele>
        <time>2014-03-05T09:45:16Z</time>
      </trkpt>
      <trkpt lat="43.34128" lon="5.53211">
        <ele>580.2</ele>
        <time>2014-03-05T09:45:23Z</time>
      </trkpt>
      <trkpt lat="43.34133" lon="5.53213">
        <ele>580</ele>
        <time>2014-03-05T09:45:28Z</time>
      </trkpt>
      <trkpt lat="43.34137" lon="5.53213">
        <ele>579.7</ele>
        <time>2014-03-05T09:45:33Z</time>
      </trkpt>
      <trkpt lat="43.3414" lon="5.53212">
        <ele>579.2</ele>
        <time>2014-03-05T09:45:37Z</time>
      </trkpt>
      <trkpt lat="43.34144" lon="5.53212">
        <ele>578</ele>
        <time>2014-03-05T09:45:40Z</time>
      </trkpt>
      <trkpt lat="43.34148" lon="5.53212">
        <ele>577</ele>
        <time>2014-03-05T09:45:43Z</time>
      </trkpt>
      <trkpt lat="43.34152" lon="5.53211">
        <ele>576.5</ele>
        <time>2014-03-05T09:45:47Z</time>
      </trkpt>
      <trkpt lat="43.34155" lon="5.5321">
        <ele>576.7</ele>
        <time>2014-03-05T09:45:50Z</time>
      </trkpt>
      <trkpt lat="43.34159" lon="5.5321">
        <ele>577.4</ele>
        <time>2014-03-05T09:45:54Z</time>
      </trkpt>
      <trkpt lat="43.34163" lon="5.53209">
        <ele>579</ele>
        <time>2014-03-05T09:45:59Z</time>
      </trkpt>
      <trkpt lat="43.34164" lon="5.53209">
        <ele>579.4</ele>
        <time>2014-03-05T09:46:00Z</time>
      </trkpt>
      <trkpt lat="43.34171" lon="5.5321">
        <ele>581.4</ele>
        <time>2014-03-05T09:46:07Z</time>
      </trkpt>
      <trkpt lat="43.34175" lon="5.5321">
        <ele>582.4</ele>
        <time>2014-03-05T09:46:12Z</time>
      </trkpt>
      <trkpt lat="43.34179" lon="5.53211">
        <ele>582.4</ele>
        <time>2014-03-05T09:46:16Z</time>
      </trkpt>
      <trkpt lat="43.34183" lon="5.53211">
        <ele>582.5</ele>
        <time>2014-03-05T09:46:20Z</time>
      </trkpt>
      <trkpt lat="43.34187" lon="5.53211">
        <ele>583</ele>
        <time>2014-03-05T09:46:24Z</time>
      </trkpt>
      <trkpt lat="43.34191" lon="5.53212">
        <ele>583.2</ele>
        <time>2014-03-05T09:46:28Z</time>
      </trkpt>
      <trkpt lat="43.34195" lon="5.53213">
        <ele>585.2</ele>
        <time>2014-03-05T09:46:35Z</time>
      </trkpt>
      <trkpt lat="43.34198" lon="5.53216">
        <ele>584.2</ele>
        <time>2014-03-05T09:46:41Z</time>
      </trkpt>
      <trkpt lat="43.34201" lon="5.53218">
        <ele>584.7</ele>
        <time>2014-03-05T09:46:45Z</time>
      </trkpt>
      <trkpt lat="43.34205" lon="5.5322">
        <ele>585.7</ele>
        <time>2014-03-05T09:46:50Z</time>
      </trkpt>
      <trkpt lat="43.34209" lon="5.53222">
        <ele>586.2</ele>
        <time>2014-03-05T09:46:54Z</time>
      </trkpt>
      <trkpt lat="43.34213" lon="5.53223">
        <ele>587</ele>
        <time>2014-03-05T09:46:58Z</time>
      </trkpt>
      <trkpt lat="43.34217" lon="5.53225">
        <ele>587.7</ele>
        <time>2014-03-05T09:47:03Z</time>
      </trkpt>
      <trkpt lat="43.34218" lon="5.53226">
        <ele>587.7</ele>
        <time>2014-03-05T09:47:04Z</time>
      </trkpt>
      <trkpt lat="43.34223" lon="5.53232">
        <ele>587.4</ele>
        <time>2014-03-05T09:47:10Z</time>
      </trkpt>
      <trkpt lat="43.34226" lon="5.53236">
        <ele>586.2</ele>
        <time>2014-03-05T09:47:14Z</time>
      </trkpt>
      <trkpt lat="43.34228" lon="5.5324">
        <ele>585.2</ele>
        <time>2014-03-05T09:47:17Z</time>
      </trkpt>
      <trkpt lat="43.3423" lon="5.53245">
        <ele>584</ele>
        <time>2014-03-05T09:47:20Z</time>
      </trkpt>
      <trkpt lat="43.34231" lon="5.53249">
        <ele>583.5</ele>
        <time>2014-03-05T09:47:23Z</time>
      </trkpt>
      <trkpt lat="43.34233" lon="5.53253">
        <ele>582.7</ele>
        <time>2014-03-05T09:47:26Z</time>
      </trkpt>
      <trkpt lat="43.34237" lon="5.53257">
        <ele>582.2</ele>
        <time>2014-03-05T09:47:30Z</time>
      </trkpt>
      <trkpt lat="43.34239" lon="5.53261">
        <ele>581.9</ele>
        <time>2014-03-05T09:47:34Z</time>
      </trkpt>
      <trkpt lat="43.34242" lon="5.53266">
        <ele>582</ele>
        <time>2014-03-05T09:47:43Z</time>
      </trkpt>
      <trkpt lat="43.34244" lon="5.5327">
        <ele>581</ele>
        <time>2014-03-05T09:47:48Z</time>
      </trkpt>
      <trkpt lat="43.34246" lon="5.53275">
        <ele>581</ele>
        <time>2014-03-05T09:47:52Z</time>
      </trkpt>
      <trkpt lat="43.34248" lon="5.5328">
        <ele>581.7</ele>
        <time>2014-03-05T09:47:56Z</time>
      </trkpt>
      <trkpt lat="43.34251" lon="5.53284">
        <ele>582.5</ele>
        <time>2014-03-05T09:48:01Z</time>
      </trkpt>
      <trkpt lat="43.34255" lon="5.53288">
        <ele>584</ele>
        <time>2014-03-05T09:48:09Z</time>
      </trkpt>
      <trkpt lat="43.34255" lon="5.53288">
        <ele>584.2</ele>
        <time>2014-03-05T09:48:10Z</time>
      </trkpt>
      <trkpt lat="43.34249" lon="5.5328">
        <ele>584.5</ele>
        <time>2014-03-05T09:48:34Z</time>
      </trkpt>
      <trkpt lat="43.34252" lon="5.53285">
        <ele>585.2</ele>
        <time>2014-03-05T09:49:16Z</time>
      </trkpt>
      <trkpt lat="43.34253" lon="5.53286">
        <ele>584.9</ele>
        <time>2014-03-05T09:49:17Z</time>
      </trkpt>
      <trkpt lat="43.34259" lon="5.53292">
        <ele>587.2</ele>
        <time>2014-03-05T09:49:48Z</time>
      </trkpt>
      <trkpt lat="43.34263" lon="5.53295">
        <ele>587.2</ele>
        <time>2014-03-05T09:49:57Z</time>
      </trkpt>
      <trkpt lat="43.34266" lon="5.53298">
        <ele>588</ele>
        <time>2014-03-05T09:50:02Z</time>
      </trkpt>
      <trkpt lat="43.3427" lon="5.533">
        <ele>589.5</ele>
        <time>2014-03-05T09:50:07Z</time>
      </trkpt>
      <trkpt lat="43.34274" lon="5.53302">
        <ele>589.7</ele>
        <time>2014-03-05T09:50:12Z</time>
      </trkpt>
      <trkpt lat="43.34278" lon="5.53304">
        <ele>587.7</ele>
        <time>2014-03-05T09:50:19Z</time>
      </trkpt>
      <trkpt lat="43.34279" lon="5.53304">
        <ele>587.7</ele>
        <time>2014-03-05T09:50:20Z</time>
      </trkpt>
      <trkpt lat="43.34286" lon="5.53307">
        <ele>586.2</ele>
        <time>2014-03-05T09:50:27Z</time>
      </trkpt>
      <trkpt lat="43.34288" lon="5.53312">
        <ele>586.5</ele>
        <time>2014-03-05T09:50:31Z</time>
      </trkpt>
      <trkpt lat="43.3429" lon="5.53317">
        <ele>586.5</ele>
        <time>2014-03-05T09:50:35Z</time>
      </trkpt>
      <trkpt lat="43.34292" lon="5.5332">
        <ele>584.7</ele>
        <time>2014-03-05T09:50:38Z</time>
      </trkpt>
      <trkpt lat="43.34294" lon="5.53325">
        <ele>585.5</ele>
        <time>2014-03-05T09:50:42Z</time>
      </trkpt>
      <trkpt lat="43.34297" lon="5.53329">
        <ele>585</ele>
        <time>2014-03-05T09:50:46Z</time>
      </trkpt>
      <trkpt lat="43.343" lon="5.53333">
        <ele>585.5</ele>
        <time>2014-03-05T09:50:51Z</time>
      </trkpt>
      <trkpt lat="43.34302" lon="5.53338">
        <ele>585.4</ele>
        <time>2014-03-05T09:50:56Z</time>
      </trkpt>
      <trkpt lat="43.34305" lon="5.53341">
        <ele>584.5</ele>
        <time>2014-03-05T09:51:01Z</time>
      </trkpt>
      <trkpt lat="43.34308" lon="5.53345">
        <ele>583.7</ele>
        <time>2014-03-05T09:51:06Z</time>
      </trkpt>
      <trkpt lat="43.34309" lon="5.53351">
        <ele>585.5</ele>
        <time>2014-03-05T09:51:12Z</time>
      </trkpt>
      <trkpt lat="43.34311" lon="5.53356">
        <ele>587.7</ele>
        <time>2014-03-05T09:51:18Z</time>
      </trkpt>
      <trkpt lat="43.34313" lon="5.53361">
        <ele>589.2</ele>
        <time>2014-03-05T09:51:23Z</time>
      </trkpt>
      <trkpt lat="43.34313" lon="5.53361">
        <ele>589</ele>
        <time>2014-03-05T09:51:24Z</time>
      </trkpt>
      <trkpt lat="43.34317" lon="5.5337">
        <ele>589</ele>
        <time>2014-03-05T09:51:34Z</time>
      </trkpt>
      <trkpt lat="43.3432" lon="5.53375">
        <ele>589.7</ele>
        <time>2014-03-05T09:51:40Z</time>
      </trkpt>
      <trkpt lat="43.34322" lon="5.53379">
        <ele>591.5</ele>
        <time>2014-03-05T09:51:46Z</time>
      </trkpt>
      <trkpt lat="43.34326" lon="5.53383">
        <ele>591</ele>
        <time>2014-03-05T09:51:52Z</time>
      </trkpt>
      <trkpt lat="43.34329" lon="5.53387">
        <ele>589.7</ele>
        <time>2014-03-05T09:51:57Z</time>
      </trkpt>
      <trkpt lat="43.34331" lon="5.53392">
        <ele>593</ele>
        <time>2014-03-05T09:52:03Z</time>
      </trkpt>
      <trkpt lat="43.34333" lon="5.53396">
        <ele>591.9</ele>
        <time>2014-03-05T09:52:08Z</time>
      </trkpt>
      <trkpt lat="43.34337" lon="5.53399">
        <ele>592.2</ele>
        <time>2014-03-05T09:52:14Z</time>
      </trkpt>
      <trkpt lat="43.34341" lon="5.53402">
        <ele>592.9</ele>
        <time>2014-03-05T09:52:19Z</time>
      </trkpt>
      <trkpt lat="43.34344" lon="5.53405">
        <ele>593.7</ele>
        <time>2014-03-05T09:52:25Z</time>
      </trkpt>
      <trkpt lat="43.34345" lon="5.53406">
        <ele>593.5</ele>
        <time>2014-03-05T09:52:26Z</time>
      </trkpt>
      <trkpt lat="43.34353" lon="5.53409">
        <ele>594</ele>
        <time>2014-03-05T09:52:36Z</time>
      </trkpt>
      <trkpt lat="43.34357" lon="5.53409">
        <ele>595</ele>
        <time>2014-03-05T09:52:42Z</time>
      </trkpt>
      <trkpt lat="43.34361" lon="5.53411">
        <ele>596</ele>
        <time>2014-03-05T09:52:48Z</time>
      </trkpt>
      <trkpt lat="43.34365" lon="5.53411">
        <ele>598.5</ele>
        <time>2014-03-05T09:52:57Z</time>
      </trkpt>
      <trkpt lat="43.34369" lon="5.53411">
        <ele>600</ele>
        <time>2014-03-05T09:53:03Z</time>
      </trkpt>
      <trkpt lat="43.34373" lon="5.53411">
        <ele>601.5</ele>
        <time>2014-03-05T09:53:11Z</time>
      </trkpt>
      <trkpt lat="43.34377" lon="5.5341">
        <ele>601</ele>
        <time>2014-03-05T09:53:17Z</time>
      </trkpt>
      <trkpt lat="43.34381" lon="5.53408">
        <ele>600.9</ele>
        <time>2014-03-05T09:53:22Z</time>
      </trkpt>
      <trkpt lat="43.34385" lon="5.53408">
        <ele>601</ele>
        <time>2014-03-05T09:53:28Z</time>
      </trkpt>
      <trkpt lat="43.34386" lon="5.53408">
        <ele>601.2</ele>
        <time>2014-03-05T09:53:29Z</time>
      </trkpt>
      <trkpt lat="43.34394" lon="5.53405">
        <ele>602.4</ele>
        <time>2014-03-05T09:53:39Z</time>
      </trkpt>
      <trkpt lat="43.34398" lon="5.53402">
        <ele>602</ele>
        <time>2014-03-05T09:53:44Z</time>
      </trkpt>
      <trkpt lat="43.34402" lon="5.53401">
        <ele>601.7</ele>
        <time>2014-03-05T09:53:47Z</time>
      </trkpt>
      <trkpt lat="43.34405" lon="5.534">
        <ele>601.9</ele>
        <time>2014-03-05T09:53:50Z</time>
      </trkpt>
      <trkpt lat="43.34409" lon="5.53399">
        <ele>602</ele>
        <time>2014-03-05T09:53:53Z</time>
      </trkpt>
      <trkpt lat="43.34412" lon="5.53398">
        <ele>601.5</ele>
        <time>2014-03-05T09:53:56Z</time>
      </trkpt>
      <trkpt lat="43.34416" lon="5.53396">
        <ele>602</ele>
        <time>2014-03-05T09:54:00Z</time>
      </trkpt>
      <trkpt lat="43.3442" lon="5.53394">
        <ele>603</ele>
        <time>2014-03-05T09:54:05Z</time>
      </trkpt>
      <trkpt lat="43.34424" lon="5.53392">
        <ele>603</ele>
        <time>2014-03-05T09:54:08Z</time>
      </trkpt>
      <trkpt lat="43.34428" lon="5.5339">
        <ele>604.4</ele>
        <time>2014-03-05T09:54:12Z</time>
      </trkpt>
      <trkpt lat="43.34432" lon="5.53388">
        <ele>607.7</ele>
        <time>2014-03-05T09:54:20Z</time>
      </trkpt>
      <trkpt lat="43.34435" lon="5.53385">
        <ele>610</ele>
        <time>2014-03-05T09:54:24Z</time>
      </trkpt>
      <trkpt lat="43.34439" lon="5.53384">
        <ele>610.4</ele>
        <time>2014-03-05T09:54:27Z</time>
      </trkpt>
      <trkpt lat="43.34442" lon="5.53383">
        <ele>610</ele>
        <time>2014-03-05T09:54:29Z</time>
      </trkpt>
      <trkpt lat="43.34444" lon="5.53382">
        <ele>609.9</ele>
        <time>2014-03-05T09:54:30Z</time>
      </trkpt>
      <trkpt lat="43.3445" lon="5.53381">
        <ele>610</ele>
        <time>2014-03-05T09:54:35Z</time>
      </trkpt>
      <trkpt lat="43.34453" lon="5.53381">
        <ele>610.4</ele>
        <time>2014-03-05T09:54:39Z</time>
      </trkpt>
      <trkpt lat="43.34458" lon="5.5338">
        <ele>611</ele>
        <time>2014-03-05T09:54:43Z</time>
      </trkpt>
      <trkpt lat="43.34461" lon="5.53381">
        <ele>610.7</ele>
        <time>2014-03-05T09:54:46Z</time>
      </trkpt>
      <trkpt lat="43.34465" lon="5.53382">
        <ele>610.7</ele>
        <time>2014-03-05T09:54:49Z</time>
      </trkpt>
      <trkpt lat="43.34468" lon="5.53383">
        <ele>610.4</ele>
        <time>2014-03-05T09:54:52Z</time>
      </trkpt>
      <trkpt lat="43.34471" lon="5.53387">
        <ele>611</ele>
        <time>2014-03-05T09:54:56Z</time>
      </trkpt>
      <trkpt lat="43.34475" lon="5.5339">
        <ele>612.7</ele>
        <time>2014-03-05T09:55:01Z</time>
      </trkpt>
      <trkpt lat="43.34479" lon="5.53393">
        <ele>612.7</ele>
        <time>2014-03-05T09:55:06Z</time>
      </trkpt>
      <trkpt lat="43.34483" lon="5.53396">
        <ele>612.2</ele>
        <time>2014-03-05T09:55:11Z</time>
      </trkpt>
      <trkpt lat="43.34486" lon="5.53398">
        <ele>610.9</ele>
        <time>2014-03-05T09:55:15Z</time>
      </trkpt>
      <trkpt lat="43.34489" lon="5.53401">
        <ele>611.2</ele>
        <time>2014-03-05T09:55:19Z</time>
      </trkpt>
      <trkpt lat="43.34492" lon="5.53403">
        <ele>610.2</ele>
        <time>2014-03-05T09:55:23Z</time>
      </trkpt>
      <trkpt lat="43.34496" lon="5.53406">
        <ele>611</ele>
        <time>2014-03-05T09:55:29Z</time>
      </trkpt>
      <trkpt lat="43.34499" lon="5.53409">
        <ele>610.7</ele>
        <time>2014-03-05T09:55:34Z</time>
      </trkpt>
      <trkpt lat="43.345" lon="5.53409">
        <ele>610.7</ele>
        <time>2014-03-05T09:55:35Z</time>
      </trkpt>
      <trkpt lat="43.34507" lon="5.53412">
        <ele>610.2</ele>
        <time>2014-03-05T09:55:44Z</time>
      </trkpt>
      <trkpt lat="43.34511" lon="5.53414">
        <ele>610.9</ele>
        <time>2014-03-05T09:55:48Z</time>
      </trkpt>
      <trkpt lat="43.34514" lon="5.53415">
        <ele>610.4</ele>
        <time>2014-03-05T09:55:52Z</time>
      </trkpt>
      <trkpt lat="43.34518" lon="5.53417">
        <ele>610.9</ele>
        <time>2014-03-05T09:55:56Z</time>
      </trkpt>
      <trkpt lat="43.34522" lon="5.53419">
        <ele>613</ele>
        <time>2014-03-05T09:56:02Z</time>
      </trkpt>
      <trkpt lat="43.34525" lon="5.53422">
        <ele>615</ele>
        <time>2014-03-05T09:56:08Z</time>
      </trkpt>
      <trkpt lat="43.34529" lon="5.53425">
        <ele>615.7</ele>
        <time>2014-03-05T09:56:13Z</time>
      </trkpt>
      <trkpt lat="43.34532" lon="5.53428">
        <ele>617.2</ele>
        <time>2014-03-05T09:56:18Z</time>
      </trkpt>
      <trkpt lat="43.34535" lon="5.53432">
        <ele>618.5</ele>
        <time>2014-03-05T09:56:24Z</time>
      </trkpt>
      <trkpt lat="43.34538" lon="5.53436">
        <ele>618.5</ele>
        <time>2014-03-05T09:56:30Z</time>
      </trkpt>
      <trkpt lat="43.34541" lon="5.53439">
        <ele>617.5</ele>
        <time>2014-03-05T09:56:36Z</time>
      </trkpt>
      <trkpt lat="43.34542" lon="5.53439">
        <ele>617.2</ele>
        <time>2014-03-05T09:56:37Z</time>
      </trkpt>
      <trkpt lat="43.34548" lon="5.53446">
        <ele>618.9</ele>
        <time>2014-03-05T09:56:50Z</time>
      </trkpt>
      <trkpt lat="43.34551" lon="5.5345">
        <ele>622.4</ele>
        <time>2014-03-05T09:56:58Z</time>
      </trkpt>
      <trkpt lat="43.34555" lon="5.53452">
        <ele>621.9</ele>
        <time>2014-03-05T09:57:02Z</time>
      </trkpt>
      <trkpt lat="43.34558" lon="5.53455">
        <ele>622</ele>
        <time>2014-03-05T09:57:07Z</time>
      </trkpt>
      <trkpt lat="43.34562" lon="5.53458">
        <ele>624.7</ele>
        <time>2014-03-05T09:57:13Z</time>
      </trkpt>
      <trkpt lat="43.34566" lon="5.53459">
        <ele>624.7</ele>
        <time>2014-03-05T09:57:18Z</time>
      </trkpt>
      <trkpt lat="43.3457" lon="5.5346">
        <ele>625.7</ele>
        <time>2014-03-05T09:57:26Z</time>
      </trkpt>
      <trkpt lat="43.34575" lon="5.5346">
        <ele>625.9</ele>
        <time>2014-03-05T09:57:32Z</time>
      </trkpt>
      <trkpt lat="43.34579" lon="5.5346">
        <ele>623</ele>
        <time>2014-03-05T09:57:36Z</time>
      </trkpt>
      <trkpt lat="43.34583" lon="5.53459">
        <ele>621.2</ele>
        <time>2014-03-05T09:57:40Z</time>
      </trkpt>
      <trkpt lat="43.34584" lon="5.53459">
        <ele>621.2</ele>
        <time>2014-03-05T09:57:41Z</time>
      </trkpt>
      <trkpt lat="43.34589" lon="5.53453">
        <ele>621.7</ele>
        <time>2014-03-05T09:57:51Z</time>
      </trkpt>
      <trkpt lat="43.34593" lon="5.53452">
        <ele>624.2</ele>
        <time>2014-03-05T09:57:58Z</time>
      </trkpt>
      <trkpt lat="43.34597" lon="5.53451">
        <ele>626.2</ele>
        <time>2014-03-05T09:58:05Z</time>
      </trkpt>
      <trkpt lat="43.346" lon="5.53447">
        <ele>623.9</ele>
        <time>2014-03-05T09:58:12Z</time>
      </trkpt>
      <trkpt lat="43.34604" lon="5.53445">
        <ele>627.2</ele>
        <time>2014-03-05T09:58:19Z</time>
      </trkpt>
      <trkpt lat="43.34608" lon="5.53446">
        <ele>628.5</ele>
        <time>2014-03-05T09:58:23Z</time>
      </trkpt>
      <trkpt lat="43.34612" lon="5.53448">
        <ele>630.4</ele>
        <time>2014-03-05T09:58:29Z</time>
      </trkpt>
      <trkpt lat="43.34616" lon="5.5345">
        <ele>630.9</ele>
        <time>2014-03-05T09:58:33Z</time>
      </trkpt>
      <trkpt lat="43.3462" lon="5.53451">
        <ele>634.2</ele>
        <time>2014-03-05T09:58:46Z</time>
      </trkpt>
      <trkpt lat="43.3462" lon="5.53452">
        <ele>634.2</ele>
        <time>2014-03-05T09:58:47Z</time>
      </trkpt>
      <trkpt lat="43.34626" lon="5.53445">
        <ele>632.2</ele>
        <time>2014-03-05T09:59:01Z</time>
      </trkpt>
      <trkpt lat="43.34624" lon="5.5345">
        <ele>631.5</ele>
        <time>2014-03-05T09:59:10Z</time>
      </trkpt>
      <trkpt lat="43.3462" lon="5.53451">
        <ele>632.2</ele>
        <time>2014-03-05T09:59:15Z</time>
      </trkpt>
      <trkpt lat="43.34616" lon="5.53453">
        <ele>631</ele>
        <time>2014-03-05T09:59:20Z</time>
      </trkpt>
      <trkpt lat="43.34618" lon="5.53456">
        <ele>632.7</ele>
        <time>2014-03-05T10:01:17Z</time>
      </trkpt>
      <trkpt lat="43.3462" lon="5.53457">
        <ele>633</ele>
        <time>2014-03-05T10:01:18Z</time>
      </trkpt>
      <trkpt lat="43.3461" lon="5.53459">
        <ele>629.5</ele>
        <time>2014-03-05T10:02:01Z</time>
      </trkpt>
      <trkpt lat="43.34605" lon="5.53461">
        <ele>631.5</ele>
        <time>2014-03-05T10:02:07Z</time>
      </trkpt>
      <trkpt lat="43.34602" lon="5.53464">
        <ele>628.5</ele>
        <time>2014-03-05T10:02:12Z</time>
      </trkpt>
      <trkpt lat="43.34599" lon="5.53469">
        <ele>624</ele>
        <time>2014-03-05T10:02:18Z</time>
      </trkpt>
      <trkpt lat="43.34599" lon="5.53469">
        <ele>623.5</ele>
        <time>2014-03-05T10:02:19Z</time>
      </trkpt>
      <trkpt lat="43.34592" lon="5.53473">
        <ele>622</ele>
        <time>2014-03-05T10:02:28Z</time>
      </trkpt>
      <trkpt lat="43.34588" lon="5.53476">
        <ele>622</ele>
        <time>2014-03-05T10:02:33Z</time>
      </trkpt>
      <trkpt lat="43.34586" lon="5.5348">
        <ele>623.2</ele>
        <time>2014-03-05T10:02:42Z</time>
      </trkpt>
      <trkpt lat="43.34582" lon="5.53482">
        <ele>623.7</ele>
        <time>2014-03-05T10:02:50Z</time>
      </trkpt>
      <trkpt lat="43.34579" lon="5.53486">
        <ele>623.4</ele>
        <time>2014-03-05T10:02:57Z</time>
      </trkpt>
      <trkpt lat="43.34576" lon="5.5349">
        <ele>623.7</ele>
        <time>2014-03-05T10:03:08Z</time>
      </trkpt>
      <trkpt lat="43.34574" lon="5.53495">
        <ele>623.2</ele>
        <time>2014-03-05T10:03:14Z</time>
      </trkpt>
      <trkpt lat="43.34572" lon="5.535">
        <ele>622.7</ele>
        <time>2014-03-05T10:03:21Z</time>
      </trkpt>
      <trkpt lat="43.34572" lon="5.53501">
        <ele>622.2</ele>
        <time>2014-03-05T10:03:22Z</time>
      </trkpt>
      <trkpt lat="43.34568" lon="5.53509">
        <ele>617.7</ele>
        <time>2014-03-05T10:03:32Z</time>
      </trkpt>
      <trkpt lat="43.34565" lon="5.53512">
        <ele>617.5</ele>
        <time>2014-03-05T10:03:37Z</time>
      </trkpt>
      <trkpt lat="43.34564" lon="5.53517">
        <ele>616.4</ele>
        <time>2014-03-05T10:03:41Z</time>
      </trkpt>
      <trkpt lat="43.34562" lon="5.53523">
        <ele>615</ele>
        <time>2014-03-05T10:03:46Z</time>
      </trkpt>
      <trkpt lat="43.3456" lon="5.53528">
        <ele>614</ele>
        <time>2014-03-05T10:03:51Z</time>
      </trkpt>
      <trkpt lat="43.3456" lon="5.53534">
        <ele>613</ele>
        <time>2014-03-05T10:03:55Z</time>
      </trkpt>
      <trkpt lat="43.34559" lon="5.53538">
        <ele>612.5</ele>
        <time>2014-03-05T10:03:59Z</time>
      </trkpt>
      <trkpt lat="43.34558" lon="5.53544">
        <ele>611.7</ele>
        <time>2014-03-05T10:04:03Z</time>
      </trkpt>
      <trkpt lat="43.34558" lon="5.53549">
        <ele>611.5</ele>
        <time>2014-03-05T10:04:08Z</time>
      </trkpt>
      <trkpt lat="43.34558" lon="5.53555">
        <ele>610</ele>
        <time>2014-03-05T10:04:13Z</time>
      </trkpt>
      <trkpt lat="43.34556" lon="5.5356">
        <ele>609.7</ele>
        <time>2014-03-05T10:04:18Z</time>
      </trkpt>
      <trkpt lat="43.34556" lon="5.53565">
        <ele>608.5</ele>
        <time>2014-03-05T10:04:22Z</time>
      </trkpt>
      <trkpt lat="43.34556" lon="5.53566">
        <ele>608</ele>
        <time>2014-03-05T10:04:23Z</time>
      </trkpt>
      <trkpt lat="43.34553" lon="5.53574">
        <ele>606.9</ele>
        <time>2014-03-05T10:04:30Z</time>
      </trkpt>
      <trkpt lat="43.34551" lon="5.53578">
        <ele>607.2</ele>
        <time>2014-03-05T10:04:33Z</time>
      </trkpt>
      <trkpt lat="43.3455" lon="5.53584">
        <ele>606.5</ele>
        <time>2014-03-05T10:04:37Z</time>
      </trkpt>
      <trkpt lat="43.34549" lon="5.53589">
        <ele>605.2</ele>
        <time>2014-03-05T10:04:41Z</time>
      </trkpt>
      <trkpt lat="43.34547" lon="5.53594">
        <ele>604.5</ele>
        <time>2014-03-05T10:04:45Z</time>
      </trkpt>
      <trkpt lat="43.34546" lon="5.53598">
        <ele>604.2</ele>
        <time>2014-03-05T10:04:49Z</time>
      </trkpt>
      <trkpt lat="43.34545" lon="5.53603">
        <ele>604.5</ele>
        <time>2014-03-05T10:04:53Z</time>
      </trkpt>
      <trkpt lat="43.34544" lon="5.53609">
        <ele>604.2</ele>
        <time>2014-03-05T10:04:57Z</time>
      </trkpt>
      <trkpt lat="43.34544" lon="5.53614">
        <ele>603.7</ele>
        <time>2014-03-05T10:05:01Z</time>
      </trkpt>
      <trkpt lat="43.34542" lon="5.5362">
        <ele>604</ele>
        <time>2014-03-05T10:05:07Z</time>
      </trkpt>
      <trkpt lat="43.34541" lon="5.53625">
        <ele>604</ele>
        <time>2014-03-05T10:05:13Z</time>
      </trkpt>
      <trkpt lat="43.34539" lon="5.5363">
        <ele>602.5</ele>
        <time>2014-03-05T10:05:20Z</time>
      </trkpt>
      <trkpt lat="43.34538" lon="5.53636">
        <ele>600.5</ele>
        <time>2014-03-05T10:05:27Z</time>
      </trkpt>
      <trkpt lat="43.34537" lon="5.53636">
        <ele>600.5</ele>
        <time>2014-03-05T10:05:28Z</time>
      </trkpt>
      <trkpt lat="43.34532" lon="5.53644">
        <ele>598.2</ele>
        <time>2014-03-05T10:05:46Z</time>
      </trkpt>
      <trkpt lat="43.34529" lon="5.53648">
        <ele>598.4</ele>
        <time>2014-03-05T10:06:00Z</time>
      </trkpt>
      <trkpt lat="43.34529" lon="5.53654">
        <ele>595.7</ele>
        <time>2014-03-05T10:06:09Z</time>
      </trkpt>
      <trkpt lat="43.34529" lon="5.5366">
        <ele>595.5</ele>
        <time>2014-03-05T10:06:16Z</time>
      </trkpt>
      <trkpt lat="43.34528" lon="5.53666">
        <ele>597.9</ele>
        <time>2014-03-05T10:07:47Z</time>
      </trkpt>
      <trkpt lat="43.34529" lon="5.53667">
        <ele>597.7</ele>
        <time>2014-03-05T10:07:48Z</time>
      </trkpt>
      <trkpt lat="43.34524" lon="5.5367">
        <ele>603.2</ele>
        <time>2014-03-05T10:11:18Z</time>
      </trkpt>
      <trkpt lat="43.34523" lon="5.53676">
        <ele>596.7</ele>
        <time>2014-03-05T10:13:26Z</time>
      </trkpt>
      <trkpt lat="43.34526" lon="5.53685">
        <ele>593</ele>
        <time>2014-03-05T10:13:32Z</time>
      </trkpt>
      <trkpt lat="43.34526" lon="5.5369">
        <ele>594</ele>
        <time>2014-03-05T10:13:37Z</time>
      </trkpt>
      <trkpt lat="43.34526" lon="5.53694">
        <ele>594.2</ele>
        <time>2014-03-05T10:13:41Z</time>
      </trkpt>
      <trkpt lat="43.34526" lon="5.53701">
        <ele>594.5</ele>
        <time>2014-03-05T10:13:46Z</time>
      </trkpt>
      <trkpt lat="43.34526" lon="5.53707">
        <ele>594.4</ele>
        <time>2014-03-05T10:13:50Z</time>
      </trkpt>
      <trkpt lat="43.34526" lon="5.53713">
        <ele>594</ele>
        <time>2014-03-05T10:13:54Z</time>
      </trkpt>
      <trkpt lat="43.34526" lon="5.53718">
        <ele>593.9</ele>
        <time>2014-03-05T10:13:58Z</time>
      </trkpt>
      <trkpt lat="43.34526" lon="5.53723">
        <ele>594</ele>
        <time>2014-03-05T10:14:01Z</time>
      </trkpt>
      <trkpt lat="43.34526" lon="5.53728">
        <ele>594</ele>
        <time>2014-03-05T10:14:04Z</time>
      </trkpt>
      <trkpt lat="43.34526" lon="5.53733">
        <ele>594.2</ele>
        <time>2014-03-05T10:14:07Z</time>
      </trkpt>
      <trkpt lat="43.34526" lon="5.53738">
        <ele>594.5</ele>
        <time>2014-03-05T10:14:10Z</time>
      </trkpt>
      <trkpt lat="43.34525" lon="5.53743">
        <ele>596.5</ele>
        <time>2014-03-05T10:14:18Z</time>
      </trkpt>
      <trkpt lat="43.34524" lon="5.53748">
        <ele>596.7</ele>
        <time>2014-03-05T10:14:22Z</time>
      </trkpt>
      <trkpt lat="43.34523" lon="5.53754">
        <ele>596.2</ele>
        <time>2014-03-05T10:14:25Z</time>
      </trkpt>
      <trkpt lat="43.34522" lon="5.53758">
        <ele>595.4</ele>
        <time>2014-03-05T10:14:28Z</time>
      </trkpt>
      <trkpt lat="43.34521" lon="5.5376">
        <ele>595</ele>
        <time>2014-03-05T10:14:29Z</time>
      </trkpt>
      <trkpt lat="43.34517" lon="5.53766">
        <ele>594.7</ele>
        <time>2014-03-05T10:14:34Z</time>
      </trkpt>
      <trkpt lat="43.34513" lon="5.53767">
        <ele>594.7</ele>
        <time>2014-03-05T10:14:37Z</time>
      </trkpt>
      <trkpt lat="43.34509" lon="5.53768">
        <ele>595.7</ele>
        <time>2014-03-05T10:14:41Z</time>
      </trkpt>
      <trkpt lat="43.34505" lon="5.53768">
        <ele>597.2</ele>
        <time>2014-03-05T10:14:45Z</time>
      </trkpt>
      <trkpt lat="43.34501" lon="5.53768">
        <ele>598.2</ele>
        <time>2014-03-05T10:14:50Z</time>
      </trkpt>
      <trkpt lat="43.34497" lon="5.53769">
        <ele>599</ele>
        <time>2014-03-05T10:14:55Z</time>
      </trkpt>
      <trkpt lat="43.34493" lon="5.53769">
        <ele>601</ele>
        <time>2014-03-05T10:15:02Z</time>
      </trkpt>
      <trkpt lat="43.34489" lon="5.53769">
        <ele>602.5</ele>
        <time>2014-03-05T10:15:10Z</time>
      </trkpt>
      <trkpt lat="43.34485" lon="5.53771">
        <ele>603.4</ele>
        <time>2014-03-05T10:15:18Z</time>
      </trkpt>
      <trkpt lat="43.34481" lon="5.53772">
        <ele>603.7</ele>
        <time>2014-03-05T10:15:28Z</time>
      </trkpt>
      <trkpt lat="43.34477" lon="5.53775">
        <ele>604.7</ele>
        <time>2014-03-05T10:15:41Z</time>
      </trkpt>
      <trkpt lat="43.34477" lon="5.53775">
        <ele>605</ele>
        <time>2014-03-05T10:15:42Z</time>
      </trkpt>
      <trkpt lat="43.3447" lon="5.53773">
        <ele>606</ele>
        <time>2014-03-05T10:15:59Z</time>
      </trkpt>
      <trkpt lat="43.34466" lon="5.53771">
        <ele>605.9</ele>
        <time>2014-03-05T10:16:03Z</time>
      </trkpt>
      <trkpt lat="43.34463" lon="5.5377">
        <ele>605.7</ele>
        <time>2014-03-05T10:16:07Z</time>
      </trkpt>
      <trkpt lat="43.34458" lon="5.53768">
        <ele>605.2</ele>
        <time>2014-03-05T10:16:12Z</time>
      </trkpt>
      <trkpt lat="43.34455" lon="5.53768">
        <ele>604.7</ele>
        <time>2014-03-05T10:16:16Z</time>
      </trkpt>
      <trkpt lat="43.34451" lon="5.53768">
        <ele>605.2</ele>
        <time>2014-03-05T10:16:20Z</time>
      </trkpt>
      <trkpt lat="43.34447" lon="5.53767">
        <ele>605.2</ele>
        <time>2014-03-05T10:16:24Z</time>
      </trkpt>
      <trkpt lat="43.34443" lon="5.53765">
        <ele>605.5</ele>
        <time>2014-03-05T10:16:27Z</time>
      </trkpt>
      <trkpt lat="43.34439" lon="5.53766">
        <ele>605.7</ele>
        <time>2014-03-05T10:16:31Z</time>
      </trkpt>
      <trkpt lat="43.34436" lon="5.5377">
        <ele>605.7</ele>
        <time>2014-03-05T10:16:36Z</time>
      </trkpt>
      <trkpt lat="43.34434" lon="5.53774">
        <ele>605.9</ele>
        <time>2014-03-05T10:16:40Z</time>
      </trkpt>
      <trkpt lat="43.34432" lon="5.53779">
        <ele>606</ele>
        <time>2014-03-05T10:16:45Z</time>
      </trkpt>
      <trkpt lat="43.34432" lon="5.5378">
        <ele>605.9</ele>
        <time>2014-03-05T10:16:46Z</time>
      </trkpt>
      <trkpt lat="43.34431" lon="5.5379">
        <ele>606.5</ele>
        <time>2014-03-05T10:16:56Z</time>
      </trkpt>
      <trkpt lat="43.34431" lon="5.53796">
        <ele>606.2</ele>
        <time>2014-03-05T10:17:01Z</time>
      </trkpt>
      <trkpt lat="43.3443" lon="5.53802">
        <ele>606.5</ele>
        <time>2014-03-05T10:17:06Z</time>
      </trkpt>
      <trkpt lat="43.3443" lon="5.53808">
        <ele>606.7</ele>
        <time>2014-03-05T10:17:11Z</time>
      </trkpt>
      <trkpt lat="43.3443" lon="5.53813">
        <ele>605.7</ele>
        <time>2014-03-05T10:17:15Z</time>
      </trkpt>
      <trkpt lat="43.34429" lon="5.53819">
        <ele>606.2</ele>
        <time>2014-03-05T10:17:20Z</time>
      </trkpt>
      <trkpt lat="43.34428" lon="5.53824">
        <ele>606.7</ele>
        <time>2014-03-05T10:17:25Z</time>
      </trkpt>
      <trkpt lat="43.34427" lon="5.53829">
        <ele>606.5</ele>
        <time>2014-03-05T10:17:29Z</time>
      </trkpt>
      <trkpt lat="43.34426" lon="5.53834">
        <ele>606.2</ele>
        <time>2014-03-05T10:17:34Z</time>
      </trkpt>
      <trkpt lat="43.34424" lon="5.5384">
        <ele>605.4</ele>
        <time>2014-03-05T10:17:38Z</time>
      </trkpt>
      <trkpt lat="43.34423" lon="5.53844">
        <ele>604.7</ele>
        <time>2014-03-05T10:17:41Z</time>
      </trkpt>
      <trkpt lat="43.34423" lon="5.53849">
        <ele>604.5</ele>
        <time>2014-03-05T10:17:44Z</time>
      </trkpt>
      <trkpt lat="43.34422" lon="5.53854">
        <ele>604.2</ele>
        <time>2014-03-05T10:17:47Z</time>
      </trkpt>
      <trkpt lat="43.34422" lon="5.53855">
        <ele>604.4</ele>
        <time>2014-03-05T10:17:48Z</time>
      </trkpt>
      <trkpt lat="43.3442" lon="5.53865">
        <ele>603.4</ele>
        <time>2014-03-05T10:17:55Z</time>
      </trkpt>
      <trkpt lat="43.3442" lon="5.53871">
        <ele>603.5</ele>
        <time>2014-03-05T10:17:59Z</time>
      </trkpt>
      <trkpt lat="43.3442" lon="5.53877">
        <ele>604</ele>
        <time>2014-03-05T10:18:03Z</time>
      </trkpt>
      <trkpt lat="43.34419" lon="5.53883">
        <ele>605.7</ele>
        <time>2014-03-05T10:18:07Z</time>
      </trkpt>
      <trkpt lat="43.34421" lon="5.53888">
        <ele>605</ele>
        <time>2014-03-05T10:18:12Z</time>
      </trkpt>
      <trkpt lat="43.34421" lon="5.53894">
        <ele>602.7</ele>
        <time>2014-03-05T10:18:20Z</time>
      </trkpt>
      <trkpt lat="43.34419" lon="5.53899">
        <ele>600.5</ele>
        <time>2014-03-05T10:18:29Z</time>
      </trkpt>
      <trkpt lat="43.34419" lon="5.53905">
        <ele>598.7</ele>
        <time>2014-03-05T10:18:37Z</time>
      </trkpt>
      <trkpt lat="43.34417" lon="5.5391">
        <ele>597.7</ele>
        <time>2014-03-05T10:18:43Z</time>
      </trkpt>
      <trkpt lat="43.34418" lon="5.53916">
        <ele>597</ele>
        <time>2014-03-05T10:18:48Z</time>
      </trkpt>
      <trkpt lat="43.34419" lon="5.53917">
        <ele>596.7</ele>
        <time>2014-03-05T10:18:49Z</time>
      </trkpt>
      <trkpt lat="43.34423" lon="5.53924">
        <ele>593.2</ele>
        <time>2014-03-05T10:18:57Z</time>
      </trkpt>
      <trkpt lat="43.34425" lon="5.53929">
        <ele>591.4</ele>
        <time>2014-03-05T10:19:02Z</time>
      </trkpt>
      <trkpt lat="43.34427" lon="5.53933">
        <ele>589.9</ele>
        <time>2014-03-05T10:19:06Z</time>
      </trkpt>
      <trkpt lat="43.34429" lon="5.53938">
        <ele>589</ele>
        <time>2014-03-05T10:19:10Z</time>
      </trkpt>
      <trkpt lat="43.3443" lon="5.53943">
        <ele>588.7</ele>
        <time>2014-03-05T10:19:14Z</time>
      </trkpt>
      <trkpt lat="43.34432" lon="5.53948">
        <ele>588</ele>
        <time>2014-03-05T10:19:19Z</time>
      </trkpt>
      <trkpt lat="43.34436" lon="5.53952">
        <ele>594</ele>
        <time>2014-03-05T10:19:40Z</time>
      </trkpt>
      <trkpt lat="43.34433" lon="5.53957">
        <ele>594.2</ele>
        <time>2014-03-05T10:19:50Z</time>
      </trkpt>
      <trkpt lat="43.34433" lon="5.53958">
        <ele>594.7</ele>
        <time>2014-03-05T10:19:51Z</time>
      </trkpt>
      <trkpt lat="43.34429" lon="5.53966">
        <ele>597.2</ele>
        <time>2014-03-05T10:20:01Z</time>
      </trkpt>
      <trkpt lat="43.34427" lon="5.53971">
        <ele>597.2</ele>
        <time>2014-03-05T10:20:05Z</time>
      </trkpt>
      <trkpt lat="43.34425" lon="5.53976">
        <ele>597.5</ele>
        <time>2014-03-05T10:20:09Z</time>
      </trkpt>
      <trkpt lat="43.34424" lon="5.53981">
        <ele>598.4</ele>
        <time>2014-03-05T10:20:12Z</time>
      </trkpt>
      <trkpt lat="43.34423" lon="5.53987">
        <ele>599.2</ele>
        <time>2014-03-05T10:20:15Z</time>
      </trkpt>
      <trkpt lat="43.34422" lon="5.53993">
        <ele>600.2</ele>
        <time>2014-03-05T10:20:19Z</time>
      </trkpt>
      <trkpt lat="43.34424" lon="5.53998">
        <ele>599.4</ele>
        <time>2014-03-05T10:20:23Z</time>
      </trkpt>
      <trkpt lat="43.34426" lon="5.54002">
        <ele>599.7</ele>
        <time>2014-03-05T10:20:27Z</time>
      </trkpt>
      <trkpt lat="43.34427" lon="5.54007">
        <ele>600</ele>
        <time>2014-03-05T10:20:30Z</time>
      </trkpt>
      <trkpt lat="43.3443" lon="5.54012">
        <ele>600.2</ele>
        <time>2014-03-05T10:20:34Z</time>
      </trkpt>
      <trkpt lat="43.34432" lon="5.54016">
        <ele>601.9</ele>
        <time>2014-03-05T10:20:38Z</time>
      </trkpt>
      <trkpt lat="43.34435" lon="5.5402">
        <ele>602.9</ele>
        <time>2014-03-05T10:20:43Z</time>
      </trkpt>
      <trkpt lat="43.34438" lon="5.54023">
        <ele>603.2</ele>
        <time>2014-03-05T10:20:46Z</time>
      </trkpt>
      <trkpt lat="43.34441" lon="5.54027">
        <ele>603.4</ele>
        <time>2014-03-05T10:20:50Z</time>
      </trkpt>
      <trkpt lat="43.34443" lon="5.54032">
        <ele>604.5</ele>
        <time>2014-03-05T10:20:55Z</time>
      </trkpt>
      <trkpt lat="43.34444" lon="5.54033">
        <ele>603.9</ele>
        <time>2014-03-05T10:20:56Z</time>
      </trkpt>
      <trkpt lat="43.34447" lon="5.54041">
        <ele>606.5</ele>
        <time>2014-03-05T10:21:02Z</time>
      </trkpt>
      <trkpt lat="43.3445" lon="5.54046">
        <ele>606.2</ele>
        <time>2014-03-05T10:21:06Z</time>
      </trkpt>
      <trkpt lat="43.34451" lon="5.54051">
        <ele>605.5</ele>
        <time>2014-03-05T10:21:09Z</time>
      </trkpt>
      <trkpt lat="43.34451" lon="5.54056">
        <ele>604.4</ele>
        <time>2014-03-05T10:21:12Z</time>
      </trkpt>
      <trkpt lat="43.3445" lon="5.54061">
        <ele>603.5</ele>
        <time>2014-03-05T10:21:15Z</time>
      </trkpt>
      <trkpt lat="43.3445" lon="5.54067">
        <ele>602.5</ele>
        <time>2014-03-05T10:21:19Z</time>
      </trkpt>
      <trkpt lat="43.3445" lon="5.54071">
        <ele>602.4</ele>
        <time>2014-03-05T10:21:22Z</time>
      </trkpt>
      <trkpt lat="43.34451" lon="5.54077">
        <ele>601.7</ele>
        <time>2014-03-05T10:21:26Z</time>
      </trkpt>
      <trkpt lat="43.34453" lon="5.54081">
        <ele>602.5</ele>
        <time>2014-03-05T10:21:29Z</time>
      </trkpt>
      <trkpt lat="43.34456" lon="5.54086">
        <ele>604</ele>
        <time>2014-03-05T10:21:33Z</time>
      </trkpt>
      <trkpt lat="43.34458" lon="5.54089">
        <ele>605.2</ele>
        <time>2014-03-05T10:21:36Z</time>
      </trkpt>
      <trkpt lat="43.34461" lon="5.54094">
        <ele>606.4</ele>
        <time>2014-03-05T10:21:40Z</time>
      </trkpt>
      <trkpt lat="43.34463" lon="5.54098">
        <ele>606.4</ele>
        <time>2014-03-05T10:21:43Z</time>
      </trkpt>
      <trkpt lat="43.34464" lon="5.54103">
        <ele>606.5</ele>
        <time>2014-03-05T10:21:47Z</time>
      </trkpt>
      <trkpt lat="43.34465" lon="5.54108">
        <ele>606.7</ele>
        <time>2014-03-05T10:21:51Z</time>
      </trkpt>
      <trkpt lat="43.34463" lon="5.54113">
        <ele>606.2</ele>
        <time>2014-03-05T10:21:56Z</time>
      </trkpt>
      <trkpt lat="43.34462" lon="5.54114">
        <ele>606</ele>
        <time>2014-03-05T10:21:57Z</time>
      </trkpt>
      <trkpt lat="43.34461" lon="5.54124">
        <ele>605.7</ele>
        <time>2014-03-05T10:22:05Z</time>
      </trkpt>
      <trkpt lat="43.34461" lon="5.5413">
        <ele>605.5</ele>
        <time>2014-03-05T10:22:10Z</time>
      </trkpt>
      <trkpt lat="43.34462" lon="5.54135">
        <ele>608.5</ele>
        <time>2014-03-05T10:22:14Z</time>
      </trkpt>
      <trkpt lat="43.34463" lon="5.54139">
        <ele>608.4</ele>
        <time>2014-03-05T10:22:17Z</time>
      </trkpt>
      <trkpt lat="43.34464" lon="5.54145">
        <ele>608.7</ele>
        <time>2014-03-05T10:22:21Z</time>
      </trkpt>
      <trkpt lat="43.34466" lon="5.54151">
        <ele>608.5</ele>
        <time>2014-03-05T10:22:25Z</time>
      </trkpt>
      <trkpt lat="43.34467" lon="5.54155">
        <ele>608.5</ele>
        <time>2014-03-05T10:22:28Z</time>
      </trkpt>
      <trkpt lat="43.34468" lon="5.5416">
        <ele>609.2</ele>
        <time>2014-03-05T10:22:31Z</time>
      </trkpt>
      <trkpt lat="43.34469" lon="5.54166">
        <ele>608.9</ele>
        <time>2014-03-05T10:22:35Z</time>
      </trkpt>
      <trkpt lat="43.34471" lon="5.54171">
        <ele>609</ele>
        <time>2014-03-05T10:22:39Z</time>
      </trkpt>
      <trkpt lat="43.34471" lon="5.54176">
        <ele>609.7</ele>
        <time>2014-03-05T10:22:42Z</time>
      </trkpt>
      <trkpt lat="43.34473" lon="5.54181">
        <ele>610.5</ele>
        <time>2014-03-05T10:22:46Z</time>
      </trkpt>
      <trkpt lat="43.34474" lon="5.54187">
        <ele>610.9</ele>
        <time>2014-03-05T10:22:50Z</time>
      </trkpt>
      <trkpt lat="43.34476" lon="5.54192">
        <ele>610.2</ele>
        <time>2014-03-05T10:22:54Z</time>
      </trkpt>
      <trkpt lat="43.34477" lon="5.54196">
        <ele>610</ele>
        <time>2014-03-05T10:22:58Z</time>
      </trkpt>
      <trkpt lat="43.34477" lon="5.54198">
        <ele>610.5</ele>
        <time>2014-03-05T10:22:59Z</time>
      </trkpt>
      <trkpt lat="43.34479" lon="5.54206">
        <ele>611.2</ele>
        <time>2014-03-05T10:23:06Z</time>
      </trkpt>
      <trkpt lat="43.3448" lon="5.54212">
        <ele>611.2</ele>
        <time>2014-03-05T10:23:11Z</time>
      </trkpt>
      <trkpt lat="43.34482" lon="5.54218">
        <ele>612.2</ele>
        <time>2014-03-05T10:23:17Z</time>
      </trkpt>
      <trkpt lat="43.34484" lon="5.54223">
        <ele>615.5</ele>
        <time>2014-03-05T10:23:26Z</time>
      </trkpt>
      <trkpt lat="43.34487" lon="5.54228">
        <ele>616.5</ele>
        <time>2014-03-05T10:23:33Z</time>
      </trkpt>
      <trkpt lat="43.34488" lon="5.54234">
        <ele>619</ele>
        <time>2014-03-05T10:23:43Z</time>
      </trkpt>
      <trkpt lat="43.3449" lon="5.54239">
        <ele>620</ele>
        <time>2014-03-05T10:23:51Z</time>
      </trkpt>
      <trkpt lat="43.34491" lon="5.54245">
        <ele>620.7</ele>
        <time>2014-03-05T10:24:03Z</time>
      </trkpt>
      <trkpt lat="43.34491" lon="5.54245">
        <ele>620.7</ele>
        <time>2014-03-05T10:24:04Z</time>
      </trkpt>
      <trkpt lat="43.34485" lon="5.54252">
        <ele>619.9</ele>
        <time>2014-03-05T10:24:22Z</time>
      </trkpt>
      <trkpt lat="43.34482" lon="5.54257">
        <ele>620.5</ele>
        <time>2014-03-05T10:24:32Z</time>
      </trkpt>
      <trkpt lat="43.34481" lon="5.54262">
        <ele>623</ele>
        <time>2014-03-05T10:24:41Z</time>
      </trkpt>
      <trkpt lat="43.3448" lon="5.54268">
        <ele>625.2</ele>
        <time>2014-03-05T10:24:51Z</time>
      </trkpt>
      <trkpt lat="43.34479" lon="5.54273">
        <ele>625.4</ele>
        <time>2014-03-05T10:24:59Z</time>
      </trkpt>
      <trkpt lat="43.34476" lon="5.54277">
        <ele>627</ele>
        <time>2014-03-05T10:25:09Z</time>
      </trkpt>
      <trkpt lat="43.34476" lon="5.54278">
        <ele>627.2</ele>
        <time>2014-03-05T10:25:10Z</time>
      </trkpt>
      <trkpt lat="43.34474" lon="5.54289">
        <ele>628.2</ele>
        <time>2014-03-05T10:25:26Z</time>
      </trkpt>
      <trkpt lat="43.34474" lon="5.54294">
        <ele>630.9</ele>
        <time>2014-03-05T10:25:34Z</time>
      </trkpt>
      <trkpt lat="43.34474" lon="5.543">
        <ele>630.7</ele>
        <time>2014-03-05T10:25:43Z</time>
      </trkpt>
      <trkpt lat="43.34472" lon="5.54305">
        <ele>631.9</ele>
        <time>2014-03-05T10:25:51Z</time>
      </trkpt>
      <trkpt lat="43.34469" lon="5.5431">
        <ele>635.7</ele>
        <time>2014-03-05T10:26:00Z</time>
      </trkpt>
      <trkpt lat="43.34471" lon="5.54315">
        <ele>638.2</ele>
        <time>2014-03-05T10:26:07Z</time>
      </trkpt>
      <trkpt lat="43.34472" lon="5.5432">
        <ele>639.7</ele>
        <time>2014-03-05T10:26:13Z</time>
      </trkpt>
      <trkpt lat="43.34473" lon="5.54321">
        <ele>639.7</ele>
        <time>2014-03-05T10:26:14Z</time>
      </trkpt>
      <trkpt lat="43.34475" lon="5.54331">
        <ele>637.5</ele>
        <time>2014-03-05T10:26:28Z</time>
      </trkpt>
      <trkpt lat="43.34475" lon="5.54337">
        <ele>637</ele>
        <time>2014-03-05T10:26:36Z</time>
      </trkpt>
      <trkpt lat="43.34477" lon="5.54343">
        <ele>639.4</ele>
        <time>2014-03-05T10:26:45Z</time>
      </trkpt>
      <trkpt lat="43.34479" lon="5.54348">
        <ele>642.4</ele>
        <time>2014-03-05T10:26:54Z</time>
      </trkpt>
      <trkpt lat="43.34481" lon="5.54353">
        <ele>643</ele>
        <time>2014-03-05T10:27:02Z</time>
      </trkpt>
      <trkpt lat="43.34482" lon="5.54359">
        <ele>641.7</ele>
        <time>2014-03-05T10:27:08Z</time>
      </trkpt>
      <trkpt lat="43.34482" lon="5.54364">
        <ele>641.2</ele>
        <time>2014-03-05T10:27:15Z</time>
      </trkpt>
      <trkpt lat="43.34482" lon="5.54365">
        <ele>641.7</ele>
        <time>2014-03-05T10:27:16Z</time>
      </trkpt>
      <trkpt lat="43.34478" lon="5.54374">
        <ele>646.9</ele>
        <time>2014-03-05T10:27:28Z</time>
      </trkpt>
      <trkpt lat="43.34478" lon="5.54379">
        <ele>647.7</ele>
        <time>2014-03-05T10:27:36Z</time>
      </trkpt>
      <trkpt lat="43.34479" lon="5.54385">
        <ele>650.5</ele>
        <time>2014-03-05T10:27:43Z</time>
      </trkpt>
      <trkpt lat="43.3448" lon="5.54391">
        <ele>652</ele>
        <time>2014-03-05T10:27:52Z</time>
      </trkpt>
      <trkpt lat="43.34484" lon="5.54393">
        <ele>656.5</ele>
        <time>2014-03-05T10:28:28Z</time>
      </trkpt>
      <trkpt lat="43.34484" lon="5.54394">
        <ele>656.2</ele>
        <time>2014-03-05T10:28:29Z</time>
      </trkpt>
      <trkpt lat="43.3449" lon="5.54401">
        <ele>658.2</ele>
        <time>2014-03-05T10:28:57Z</time>
      </trkpt>
      <trkpt lat="43.34494" lon="5.544">
        <ele>659.4</ele>
        <time>2014-03-05T10:29:04Z</time>
      </trkpt>
      <trkpt lat="43.34498" lon="5.54399">
        <ele>660.2</ele>
        <time>2014-03-05T10:29:10Z</time>
      </trkpt>
      <trkpt lat="43.345" lon="5.54404">
        <ele>662.2</ele>
        <time>2014-03-05T10:29:17Z</time>
      </trkpt>
      <trkpt lat="43.34501" lon="5.54409">
        <ele>663</ele>
        <time>2014-03-05T10:29:23Z</time>
      </trkpt>
      <trkpt lat="43.34504" lon="5.54414">
        <ele>663.4</ele>
        <time>2014-03-05T10:29:30Z</time>
      </trkpt>
      <trkpt lat="43.34504" lon="5.54415">
        <ele>663.4</ele>
        <time>2014-03-05T10:29:31Z</time>
      </trkpt>
      <trkpt lat="43.34505" lon="5.54425">
        <ele>663.5</ele>
        <time>2014-03-05T10:29:43Z</time>
      </trkpt>
      <trkpt lat="43.34507" lon="5.5443">
        <ele>663.7</ele>
        <time>2014-03-05T10:29:49Z</time>
      </trkpt>
      <trkpt lat="43.34509" lon="5.54435">
        <ele>665.9</ele>
        <time>2014-03-05T10:29:54Z</time>
      </trkpt>
      <trkpt lat="43.3451" lon="5.5444">
        <ele>666.5</ele>
        <time>2014-03-05T10:30:00Z</time>
      </trkpt>
      <trkpt lat="43.3451" lon="5.54446">
        <ele>667</ele>
        <time>2014-03-05T10:30:07Z</time>
      </trkpt>
      <trkpt lat="43.3451" lon="5.54452">
        <ele>668.4</ele>
        <time>2014-03-05T10:30:14Z</time>
      </trkpt>
      <trkpt lat="43.34512" lon="5.54457">
        <ele>669.5</ele>
        <time>2014-03-05T10:30:22Z</time>
      </trkpt>
      <trkpt lat="43.34512" lon="5.54462">
        <ele>670.2</ele>
        <time>2014-03-05T10:30:28Z</time>
      </trkpt>
      <trkpt lat="43.34513" lon="5.54468">
        <ele>670.7</ele>
        <time>2014-03-05T10:30:33Z</time>
      </trkpt>
      <trkpt lat="43.34513" lon="5.54469">
        <ele>670.9</ele>
        <time>2014-03-05T10:30:34Z</time>
      </trkpt>
      <trkpt lat="43.34515" lon="5.54479">
        <ele>670.7</ele>
        <time>2014-03-05T10:30:47Z</time>
      </trkpt>
      <trkpt lat="43.34514" lon="5.54483">
        <ele>671.5</ele>
        <time>2014-03-05T10:30:53Z</time>
      </trkpt>
      <trkpt lat="43.34512" lon="5.54489">
        <ele>673.9</ele>
        <time>2014-03-05T10:30:58Z</time>
      </trkpt>
      <trkpt lat="43.34513" lon="5.54494">
        <ele>673.2</ele>
        <time>2014-03-05T10:31:05Z</time>
      </trkpt>
      <trkpt lat="43.34514" lon="5.545">
        <ele>672.7</ele>
        <time>2014-03-05T10:31:12Z</time>
      </trkpt>
      <trkpt lat="43.34514" lon="5.54505">
        <ele>675.4</ele>
        <time>2014-03-05T10:31:16Z</time>
      </trkpt>
      <trkpt lat="43.34514" lon="5.5451">
        <ele>676.5</ele>
        <time>2014-03-05T10:31:21Z</time>
      </trkpt>
      <trkpt lat="43.34514" lon="5.54515">
        <ele>677.2</ele>
        <time>2014-03-05T10:31:27Z</time>
      </trkpt>
      <trkpt lat="43.34515" lon="5.54521">
        <ele>676.7</ele>
        <time>2014-03-05T10:31:34Z</time>
      </trkpt>
      <trkpt lat="43.34515" lon="5.54522">
        <ele>677</ele>
        <time>2014-03-05T10:31:35Z</time>
      </trkpt>
      <trkpt lat="43.34515" lon="5.54533">
        <ele>678.7</ele>
        <time>2014-03-05T10:31:47Z</time>
      </trkpt>
      <trkpt lat="43.34515" lon="5.54539">
        <ele>679</ele>
        <time>2014-03-05T10:31:53Z</time>
      </trkpt>
      <trkpt lat="43.34515" lon="5.54544">
        <ele>681.5</ele>
        <time>2014-03-05T10:31:57Z</time>
      </trkpt>
      <trkpt lat="43.34516" lon="5.5455">
        <ele>682.9</ele>
        <time>2014-03-05T10:32:02Z</time>
      </trkpt>
      <trkpt lat="43.34517" lon="5.54555">
        <ele>684</ele>
        <time>2014-03-05T10:32:07Z</time>
      </trkpt>
      <trkpt lat="43.34517" lon="5.54561">
        <ele>685.7</ele>
        <time>2014-03-05T10:32:12Z</time>
      </trkpt>
      <trkpt lat="43.34518" lon="5.54566">
        <ele>685.9</ele>
        <time>2014-03-05T10:32:18Z</time>
      </trkpt>
      <trkpt lat="43.34518" lon="5.54572">
        <ele>685.9</ele>
        <time>2014-03-05T10:32:23Z</time>
      </trkpt>
      <trkpt lat="43.34519" lon="5.54578">
        <ele>685</ele>
        <time>2014-03-05T10:32:29Z</time>
      </trkpt>
      <trkpt lat="43.3452" lon="5.54584">
        <ele>685.2</ele>
        <time>2014-03-05T10:32:35Z</time>
      </trkpt>
      <trkpt lat="43.3452" lon="5.54585">
        <ele>685.7</ele>
        <time>2014-03-05T10:32:36Z</time>
      </trkpt>
      <trkpt lat="43.34522" lon="5.54594">
        <ele>688</ele>
        <time>2014-03-05T10:32:46Z</time>
      </trkpt>
      <trkpt lat="43.34524" lon="5.54599">
        <ele>689.5</ele>
        <time>2014-03-05T10:32:53Z</time>
      </trkpt>
      <trkpt lat="43.34528" lon="5.54599">
        <ele>689.5</ele>
        <time>2014-03-05T10:32:59Z</time>
      </trkpt>
      <trkpt lat="43.34532" lon="5.54599">
        <ele>687.7</ele>
        <time>2014-03-05T10:33:04Z</time>
      </trkpt>
      <trkpt lat="43.34537" lon="5.54601">
        <ele>686.9</ele>
        <time>2014-03-05T10:33:10Z</time>
      </trkpt>
      <trkpt lat="43.34539" lon="5.54605">
        <ele>687.7</ele>
        <time>2014-03-05T10:33:16Z</time>
      </trkpt>
      <trkpt lat="43.34541" lon="5.54609">
        <ele>688.2</ele>
        <time>2014-03-05T10:33:22Z</time>
      </trkpt>
      <trkpt lat="43.34545" lon="5.54609">
        <ele>689.2</ele>
        <time>2014-03-05T10:33:41Z</time>
      </trkpt>
      <trkpt lat="43.34546" lon="5.54608">
        <ele>689</ele>
        <time>2014-03-05T10:33:42Z</time>
      </trkpt>
      <trkpt lat="43.34554" lon="5.54607">
        <ele>689</ele>
        <time>2014-03-05T10:33:53Z</time>
      </trkpt>
      <trkpt lat="43.34551" lon="5.54612">
        <ele>692.2</ele>
        <time>2014-03-05T10:34:17Z</time>
      </trkpt>
      <trkpt lat="43.34547" lon="5.54609">
        <ele>692.7</ele>
        <time>2014-03-05T10:34:43Z</time>
      </trkpt>
      <trkpt lat="43.34547" lon="5.54608">
        <ele>692.4</ele>
        <time>2014-03-05T10:34:44Z</time>
      </trkpt>
      <trkpt lat="43.34546" lon="5.54598">
        <ele>695.5</ele>
        <time>2014-03-05T10:35:14Z</time>
      </trkpt>
      <trkpt lat="43.34545" lon="5.54592">
        <ele>695</ele>
        <time>2014-03-05T10:35:35Z</time>
      </trkpt>
      <trkpt lat="43.34542" lon="5.54595">
        <ele>695</ele>
        <time>2014-03-05T10:36:05Z</time>
      </trkpt>
      <trkpt lat="43.34541" lon="5.54595">
        <ele>695</ele>
        <time>2014-03-05T10:36:06Z</time>
      </trkpt>
      <trkpt lat="43.34537" lon="5.54604">
        <ele>694.4</ele>
        <time>2014-03-05T10:36:18Z</time>
      </trkpt>
      <trkpt lat="43.34535" lon="5.54608">
        <ele>696.9</ele>
        <time>2014-03-05T10:37:23Z</time>
      </trkpt>
      <trkpt lat="43.34535" lon="5.54609">
        <ele>697.4</ele>
        <time>2014-03-05T10:37:24Z</time>
      </trkpt>
      <trkpt lat="43.34529" lon="5.54617">
        <ele>697</ele>
        <time>2014-03-05T10:37:53Z</time>
      </trkpt>
      <trkpt lat="43.34527" lon="5.54621">
        <ele>696.2</ele>
        <time>2014-03-05T10:37:58Z</time>
      </trkpt>
      <trkpt lat="43.34524" lon="5.54626">
        <ele>695.7</ele>
        <time>2014-03-05T10:38:03Z</time>
      </trkpt>
      <trkpt lat="43.34522" lon="5.5463">
        <ele>695.9</ele>
        <time>2014-03-05T10:38:07Z</time>
      </trkpt>
      <trkpt lat="43.3452" lon="5.54635">
        <ele>695.7</ele>
        <time>2014-03-05T10:38:12Z</time>
      </trkpt>
      <trkpt lat="43.34517" lon="5.5464">
        <ele>694.9</ele>
        <time>2014-03-05T10:38:17Z</time>
      </trkpt>
      <trkpt lat="43.34515" lon="5.54646">
        <ele>694.2</ele>
        <time>2014-03-05T10:38:22Z</time>
      </trkpt>
      <trkpt lat="43.34513" lon="5.5465">
        <ele>693.9</ele>
        <time>2014-03-05T10:38:27Z</time>
      </trkpt>
      <trkpt lat="43.34513" lon="5.54651">
        <ele>693.9</ele>
        <time>2014-03-05T10:38:28Z</time>
      </trkpt>
      <trkpt lat="43.34508" lon="5.5466">
        <ele>693.7</ele>
        <time>2014-03-05T10:38:37Z</time>
      </trkpt>
      <trkpt lat="43.34506" lon="5.54664">
        <ele>693.4</ele>
        <time>2014-03-05T10:38:41Z</time>
      </trkpt>
      <trkpt lat="43.34504" lon="5.54668">
        <ele>693.4</ele>
        <time>2014-03-05T10:38:45Z</time>
      </trkpt>
      <trkpt lat="43.34501" lon="5.54673">
        <ele>693.2</ele>
        <time>2014-03-05T10:38:50Z</time>
      </trkpt>
      <trkpt lat="43.34499" lon="5.54677">
        <ele>693.5</ele>
        <time>2014-03-05T10:38:54Z</time>
      </trkpt>
      <trkpt lat="43.34497" lon="5.54682">
        <ele>694</ele>
        <time>2014-03-05T10:38:59Z</time>
      </trkpt>
      <trkpt lat="43.34495" lon="5.54687">
        <ele>694.7</ele>
        <time>2014-03-05T10:39:04Z</time>
      </trkpt>
      <trkpt lat="43.34493" lon="5.54692">
        <ele>695.2</ele>
        <time>2014-03-05T10:39:08Z</time>
      </trkpt>
      <trkpt lat="43.3449" lon="5.54696">
        <ele>695.5</ele>
        <time>2014-03-05T10:39:13Z</time>
      </trkpt>
      <trkpt lat="43.34487" lon="5.547">
        <ele>695.7</ele>
        <time>2014-03-05T10:39:17Z</time>
      </trkpt>
      <trkpt lat="43.34484" lon="5.54705">
        <ele>696.2</ele>
        <time>2014-03-05T10:39:22Z</time>
      </trkpt>
      <trkpt lat="43.34482" lon="5.54709">
        <ele>697</ele>
        <time>2014-03-05T10:39:26Z</time>
      </trkpt>
      <trkpt lat="43.34479" lon="5.54713">
        <ele>697.5</ele>
        <time>2014-03-05T10:39:30Z</time>
      </trkpt>
      <trkpt lat="43.34479" lon="5.54714">
        <ele>697.7</ele>
        <time>2014-03-05T10:39:31Z</time>
      </trkpt>
      <trkpt lat="43.34474" lon="5.54721">
        <ele>697.7</ele>
        <time>2014-03-05T10:39:39Z</time>
      </trkpt>
      <trkpt lat="43.34471" lon="5.54725">
        <ele>697.5</ele>
        <time>2014-03-05T10:39:44Z</time>
      </trkpt>
      <trkpt lat="43.34469" lon="5.5473">
        <ele>698.2</ele>
        <time>2014-03-05T10:39:49Z</time>
      </trkpt>
      <trkpt lat="43.34466" lon="5.54734">
        <ele>698.7</ele>
        <time>2014-03-05T10:39:53Z</time>
      </trkpt>
      <trkpt lat="43.34464" lon="5.54738">
        <ele>699.2</ele>
        <time>2014-03-05T10:39:57Z</time>
      </trkpt>
      <trkpt lat="43.34462" lon="5.54742">
        <ele>700.2</ele>
        <time>2014-03-05T10:40:01Z</time>
      </trkpt>
      <trkpt lat="43.3446" lon="5.54746">
        <ele>701</ele>
        <time>2014-03-05T10:40:06Z</time>
      </trkpt>
      <trkpt lat="43.34457" lon="5.54751">
        <ele>702.7</ele>
        <time>2014-03-05T10:40:11Z</time>
      </trkpt>
      <trkpt lat="43.34456" lon="5.54754">
        <ele>705.2</ele>
        <time>2014-03-05T10:40:14Z</time>
      </trkpt>
      <trkpt lat="43.34454" lon="5.54758">
        <ele>707.2</ele>
        <time>2014-03-05T10:40:17Z</time>
      </trkpt>
      <trkpt lat="43.34452" lon="5.54764">
        <ele>708</ele>
        <time>2014-03-05T10:40:22Z</time>
      </trkpt>
      <trkpt lat="43.3445" lon="5.54769">
        <ele>708</ele>
        <time>2014-03-05T10:40:28Z</time>
      </trkpt>
      <trkpt lat="43.34449" lon="5.54775">
        <ele>707.7</ele>
        <time>2014-03-05T10:40:33Z</time>
      </trkpt>
      <trkpt lat="43.34449" lon="5.54776">
        <ele>708</ele>
        <time>2014-03-05T10:40:34Z</time>
      </trkpt>
      <trkpt lat="43.34448" lon="5.54786">
        <ele>708</ele>
        <time>2014-03-05T10:40:42Z</time>
      </trkpt>
      <trkpt lat="43.34448" lon="5.54791">
        <ele>708.7</ele>
        <time>2014-03-05T10:40:46Z</time>
      </trkpt>
      <trkpt lat="43.34447" lon="5.54796">
        <ele>709.9</ele>
        <time>2014-03-05T10:40:50Z</time>
      </trkpt>
      <trkpt lat="43.34447" lon="5.54802">
        <ele>710</ele>
        <time>2014-03-05T10:40:55Z</time>
      </trkpt>
      <trkpt lat="43.34447" lon="5.54808">
        <ele>709.7</ele>
        <time>2014-03-05T10:41:00Z</time>
      </trkpt>
      <trkpt lat="43.34447" lon="5.54814">
        <ele>712.2</ele>
        <time>2014-03-05T10:41:04Z</time>
      </trkpt>
      <trkpt lat="43.34446" lon="5.5482">
        <ele>712.2</ele>
        <time>2014-03-05T10:41:09Z</time>
      </trkpt>
      <trkpt lat="43.34446" lon="5.54826">
        <ele>712.2</ele>
        <time>2014-03-05T10:41:14Z</time>
      </trkpt>
      <trkpt lat="43.34446" lon="5.54831">
        <ele>712</ele>
        <time>2014-03-05T10:41:19Z</time>
      </trkpt>
      <trkpt lat="43.34446" lon="5.54837">
        <ele>713.7</ele>
        <time>2014-03-05T10:41:23Z</time>
      </trkpt>
      <trkpt lat="43.34446" lon="5.54843">
        <ele>713.5</ele>
        <time>2014-03-05T10:41:28Z</time>
      </trkpt>
      <trkpt lat="43.34446" lon="5.54848">
        <ele>713.9</ele>
        <time>2014-03-05T10:41:32Z</time>
      </trkpt>
      <trkpt lat="43.34447" lon="5.54854">
        <ele>714</ele>
        <time>2014-03-05T10:41:37Z</time>
      </trkpt>
      <trkpt lat="43.34447" lon="5.54855">
        <ele>714.2</ele>
        <time>2014-03-05T10:41:38Z</time>
      </trkpt>
      <trkpt lat="43.34449" lon="5.54865">
        <ele>714.9</ele>
        <time>2014-03-05T10:41:46Z</time>
      </trkpt>
      <trkpt lat="43.3445" lon="5.54871">
        <ele>715.2</ele>
        <time>2014-03-05T10:41:51Z</time>
      </trkpt>
      <trkpt lat="43.34451" lon="5.54876">
        <ele>715.2</ele>
        <time>2014-03-05T10:41:55Z</time>
      </trkpt>
      <trkpt lat="43.34451" lon="5.54882">
        <ele>715.5</ele>
        <time>2014-03-05T10:42:00Z</time>
      </trkpt>
      <trkpt lat="43.34451" lon="5.54888">
        <ele>716.2</ele>
        <time>2014-03-05T10:42:05Z</time>
      </trkpt>
      <trkpt lat="43.34447" lon="5.54891">
        <ele>717.2</ele>
        <time>2014-03-05T10:42:11Z</time>
      </trkpt>
      <trkpt lat="43.34443" lon="5.54892">
        <ele>718.7</ele>
        <time>2014-03-05T10:42:16Z</time>
      </trkpt>
      <trkpt lat="43.3444" lon="5.54889">
        <ele>719</ele>
        <time>2014-03-05T10:42:20Z</time>
      </trkpt>
      <trkpt lat="43.34437" lon="5.54886">
        <ele>719</ele>
        <time>2014-03-05T10:42:24Z</time>
      </trkpt>
      <trkpt lat="43.34435" lon="5.54881">
        <ele>718.5</ele>
        <time>2014-03-05T10:42:28Z</time>
      </trkpt>
      <trkpt lat="43.34433" lon="5.54877">
        <ele>718.7</ele>
        <time>2014-03-05T10:42:32Z</time>
      </trkpt>
      <trkpt lat="43.3443" lon="5.54873">
        <ele>719</ele>
        <time>2014-03-05T10:42:36Z</time>
      </trkpt>
      <trkpt lat="43.34428" lon="5.54869">
        <ele>719</ele>
        <time>2014-03-05T10:42:40Z</time>
      </trkpt>
      <trkpt lat="43.34427" lon="5.54868">
        <ele>719.2</ele>
        <time>2014-03-05T10:42:41Z</time>
      </trkpt>
      <trkpt lat="43.34423" lon="5.54861">
        <ele>719.2</ele>
        <time>2014-03-05T10:42:48Z</time>
      </trkpt>
      <trkpt lat="43.3442" lon="5.54857">
        <ele>719</ele>
        <time>2014-03-05T10:42:53Z</time>
      </trkpt>
      <trkpt lat="43.34418" lon="5.54851">
        <ele>718.9</ele>
        <time>2014-03-05T10:42:58Z</time>
      </trkpt>
      <trkpt lat="43.34416" lon="5.54846">
        <ele>718.7</ele>
        <time>2014-03-05T10:43:03Z</time>
      </trkpt>
      <trkpt lat="43.34415" lon="5.5484">
        <ele>718.7</ele>
        <time>2014-03-05T10:43:08Z</time>
      </trkpt>
      <trkpt lat="43.34414" lon="5.54834">
        <ele>719.5</ele>
        <time>2014-03-05T10:43:13Z</time>
      </trkpt>
      <trkpt lat="43.34414" lon="5.54828">
        <ele>720</ele>
        <time>2014-03-05T10:43:18Z</time>
      </trkpt>
      <trkpt lat="43.34414" lon="5.54823">
        <ele>720.2</ele>
        <time>2014-03-05T10:43:23Z</time>
      </trkpt>
      <trkpt lat="43.34414" lon="5.54817">
        <ele>720.2</ele>
        <time>2014-03-05T10:43:28Z</time>
      </trkpt>
      <trkpt lat="43.34414" lon="5.54811">
        <ele>720.4</ele>
        <time>2014-03-05T10:43:33Z</time>
      </trkpt>
      <trkpt lat="43.34413" lon="5.54805">
        <ele>720.4</ele>
        <time>2014-03-05T10:43:42Z</time>
      </trkpt>
      <trkpt lat="43.34413" lon="5.54804">
        <ele>720.2</ele>
        <time>2014-03-05T10:43:43Z</time>
      </trkpt>
      <trkpt lat="43.3441" lon="5.54794">
        <ele>720.7</ele>
        <time>2014-03-05T10:44:04Z</time>
      </trkpt>
      <trkpt lat="43.34406" lon="5.54798">
        <ele>717.4</ele>
        <time>2014-03-05T11:13:52Z</time>
      </trkpt>
      <trkpt lat="43.34406" lon="5.54798">
        <ele>717.2</ele>
        <time>2014-03-05T11:13:53Z</time>
      </trkpt>
      <trkpt lat="43.34411" lon="5.54797">
        <ele>719.5</ele>
        <time>2014-03-05T11:27:52Z</time>
      </trkpt>
      <trkpt lat="43.34407" lon="5.54794">
        <ele>716</ele>
        <time>2014-03-05T11:33:12Z</time>
      </trkpt>
      <trkpt lat="43.34411" lon="5.54794">
        <ele>718</ele>
        <time>2014-03-05T11:47:56Z</time>
      </trkpt>
      <trkpt lat="43.34407" lon="5.54797">
        <ele>714.7</ele>
        <time>2014-03-05T11:51:19Z</time>
      </trkpt>
      <trkpt lat="43.3441" lon="5.54802">
        <ele>713.9</ele>
        <time>2014-03-05T12:01:33Z</time>
      </trkpt>
      <trkpt lat="43.34408" lon="5.54797">
        <ele>717.5</ele>
        <time>2014-03-05T12:14:47Z</time>
      </trkpt>
      <trkpt lat="43.34412" lon="5.54794">
        <ele>721.2</ele>
        <time>2014-03-05T12:17:20Z</time>
      </trkpt>
      <trkpt lat="43.34416" lon="5.54803">
        <ele>720.9</ele>
        <time>2014-03-05T12:17:40Z</time>
      </trkpt>
      <trkpt lat="43.34415" lon="5.54809">
        <ele>721</ele>
        <time>2014-03-05T12:17:53Z</time>
      </trkpt>
      <trkpt lat="43.34415" lon="5.54814">
        <ele>722</ele>
        <time>2014-03-05T12:18:01Z</time>
      </trkpt>
      <trkpt lat="43.34416" lon="5.5482">
        <ele>722.2</ele>
        <time>2014-03-05T12:18:07Z</time>
      </trkpt>
      <trkpt lat="43.34415" lon="5.54826">
        <ele>722.5</ele>
        <time>2014-03-05T12:18:13Z</time>
      </trkpt>
      <trkpt lat="43.34415" lon="5.54831">
        <ele>722.4</ele>
        <time>2014-03-05T12:18:19Z</time>
      </trkpt>
      <trkpt lat="43.34415" lon="5.54837">
        <ele>722.2</ele>
        <time>2014-03-05T12:18:25Z</time>
      </trkpt>
      <trkpt lat="43.34415" lon="5.54838">
        <ele>722.2</ele>
        <time>2014-03-05T12:18:26Z</time>
      </trkpt>
      <trkpt lat="43.34409" lon="5.54842">
        <ele>722.5</ele>
        <time>2014-03-05T12:18:36Z</time>
      </trkpt>
      <trkpt lat="43.34405" lon="5.5484">
        <ele>723</ele>
        <time>2014-03-05T12:18:41Z</time>
      </trkpt>
      <trkpt lat="43.34402" lon="5.54838">
        <ele>723.2</ele>
        <time>2014-03-05T12:18:45Z</time>
      </trkpt>
      <trkpt lat="43.34398" lon="5.54836">
        <ele>723.4</ele>
        <time>2014-03-05T12:18:49Z</time>
      </trkpt>
      <trkpt lat="43.34395" lon="5.54835">
        <ele>723.2</ele>
        <time>2014-03-05T12:18:54Z</time>
      </trkpt>
      <trkpt lat="43.3439" lon="5.54834">
        <ele>723.5</ele>
        <time>2014-03-05T12:19:01Z</time>
      </trkpt>
      <trkpt lat="43.34386" lon="5.54836">
        <ele>724.5</ele>
        <time>2014-03-05T12:20:08Z</time>
      </trkpt>
      <trkpt lat="43.34386" lon="5.54836">
        <ele>724.2</ele>
        <time>2014-03-05T12:20:09Z</time>
      </trkpt>
      <trkpt lat="43.3438" lon="5.54843">
        <ele>722.5</ele>
        <time>2014-03-05T12:20:19Z</time>
      </trkpt>
      <trkpt lat="43.34376" lon="5.54846">
        <ele>721.7</ele>
        <time>2014-03-05T12:20:24Z</time>
      </trkpt>
      <trkpt lat="43.34372" lon="5.54848">
        <ele>721</ele>
        <time>2014-03-05T12:20:29Z</time>
      </trkpt>
      <trkpt lat="43.34368" lon="5.54851">
        <ele>720.5</ele>
        <time>2014-03-05T12:20:34Z</time>
      </trkpt>
      <trkpt lat="43.34364" lon="5.54852">
        <ele>719.9</ele>
        <time>2014-03-05T12:20:39Z</time>
      </trkpt>
      <trkpt lat="43.3436" lon="5.54852">
        <ele>719.5</ele>
        <time>2014-03-05T12:20:44Z</time>
      </trkpt>
      <trkpt lat="43.34355" lon="5.54853">
        <ele>719.2</ele>
        <time>2014-03-05T12:20:49Z</time>
      </trkpt>
      <trkpt lat="43.34351" lon="5.54853">
        <ele>718.5</ele>
        <time>2014-03-05T12:20:54Z</time>
      </trkpt>
      <trkpt lat="43.34347" lon="5.54854">
        <ele>718.2</ele>
        <time>2014-03-05T12:20:59Z</time>
      </trkpt>
      <trkpt lat="43.34342" lon="5.54854">
        <ele>717.9</ele>
        <time>2014-03-05T12:21:04Z</time>
      </trkpt>
      <trkpt lat="43.34338" lon="5.54856">
        <ele>717.7</ele>
        <time>2014-03-05T12:21:09Z</time>
      </trkpt>
      <trkpt lat="43.34338" lon="5.54856">
        <ele>717.7</ele>
        <time>2014-03-05T12:21:10Z</time>
      </trkpt>
      <trkpt lat="43.34331" lon="5.54859">
        <ele>717.4</ele>
        <time>2014-03-05T12:21:18Z</time>
      </trkpt>
      <trkpt lat="43.34327" lon="5.54862">
        <ele>716.5</ele>
        <time>2014-03-05T12:21:23Z</time>
      </trkpt>
      <trkpt lat="43.34323" lon="5.54865">
        <ele>715.5</ele>
        <time>2014-03-05T12:21:28Z</time>
      </trkpt>
      <trkpt lat="43.34319" lon="5.54868">
        <ele>715</ele>
        <time>2014-03-05T12:21:33Z</time>
      </trkpt>
      <trkpt lat="43.34315" lon="5.54871">
        <ele>714.7</ele>
        <time>2014-03-05T12:21:38Z</time>
      </trkpt>
      <trkpt lat="43.34312" lon="5.54873">
        <ele>714.2</ele>
        <time>2014-03-05T12:21:42Z</time>
      </trkpt>
      <trkpt lat="43.34308" lon="5.54876">
        <ele>713.5</ele>
        <time>2014-03-05T12:21:46Z</time>
      </trkpt>
      <trkpt lat="43.34304" lon="5.54878">
        <ele>713</ele>
        <time>2014-03-05T12:21:50Z</time>
      </trkpt>
      <trkpt lat="43.343" lon="5.5488">
        <ele>712.7</ele>
        <time>2014-03-05T12:21:54Z</time>
      </trkpt>
      <trkpt lat="43.34296" lon="5.54881">
        <ele>712.7</ele>
        <time>2014-03-05T12:21:58Z</time>
      </trkpt>
      <trkpt lat="43.34292" lon="5.54881">
        <ele>712.5</ele>
        <time>2014-03-05T12:22:02Z</time>
      </trkpt>
      <trkpt lat="43.34288" lon="5.54882">
        <ele>711.9</ele>
        <time>2014-03-05T12:22:06Z</time>
      </trkpt>
      <trkpt lat="43.34284" lon="5.54883">
        <ele>711.4</ele>
        <time>2014-03-05T12:22:10Z</time>
      </trkpt>
      <trkpt lat="43.34283" lon="5.54883">
        <ele>711.4</ele>
        <time>2014-03-05T12:22:11Z</time>
      </trkpt>
      <trkpt lat="43.34276" lon="5.54885">
        <ele>710.4</ele>
        <time>2014-03-05T12:22:19Z</time>
      </trkpt>
      <trkpt lat="43.34271" lon="5.54886">
        <ele>709.9</ele>
        <time>2014-03-05T12:22:23Z</time>
      </trkpt>
      <trkpt lat="43.34268" lon="5.54886">
        <ele>709.2</ele>
        <time>2014-03-05T12:22:27Z</time>
      </trkpt>
      <trkpt lat="43.34264" lon="5.54887">
        <ele>708.7</ele>
        <time>2014-03-05T12:22:31Z</time>
      </trkpt>
      <trkpt lat="43.3426" lon="5.54887">
        <ele>708.5</ele>
        <time>2014-03-05T12:22:35Z</time>
      </trkpt>
      <trkpt lat="43.34256" lon="5.54888">
        <ele>708.2</ele>
        <time>2014-03-05T12:22:39Z</time>
      </trkpt>
      <trkpt lat="43.34252" lon="5.54889">
        <ele>707.7</ele>
        <time>2014-03-05T12:22:43Z</time>
      </trkpt>
      <trkpt lat="43.34248" lon="5.5489">
        <ele>707.2</ele>
        <time>2014-03-05T12:22:47Z</time>
      </trkpt>
      <trkpt lat="43.34244" lon="5.54891">
        <ele>706.7</ele>
        <time>2014-03-05T12:22:51Z</time>
      </trkpt>
      <trkpt lat="43.3424" lon="5.54893">
        <ele>706.4</ele>
        <time>2014-03-05T12:22:55Z</time>
      </trkpt>
      <trkpt lat="43.34237" lon="5.54896">
        <ele>706.4</ele>
        <time>2014-03-05T12:22:59Z</time>
      </trkpt>
      <trkpt lat="43.34233" lon="5.54898">
        <ele>706.4</ele>
        <time>2014-03-05T12:23:03Z</time>
      </trkpt>
      <trkpt lat="43.3423" lon="5.54901">
        <ele>706</ele>
        <time>2014-03-05T12:23:07Z</time>
      </trkpt>
      <trkpt lat="43.34226" lon="5.54904">
        <ele>705.5</ele>
        <time>2014-03-05T12:23:11Z</time>
      </trkpt>
      <trkpt lat="43.34225" lon="5.54904">
        <ele>705.4</ele>
        <time>2014-03-05T12:23:12Z</time>
      </trkpt>
      <trkpt lat="43.34219" lon="5.5491">
        <ele>704.4</ele>
        <time>2014-03-05T12:23:20Z</time>
      </trkpt>
      <trkpt lat="43.34216" lon="5.54913">
        <ele>703.5</ele>
        <time>2014-03-05T12:23:24Z</time>
      </trkpt>
      <trkpt lat="43.34213" lon="5.54915">
        <ele>702.9</ele>
        <time>2014-03-05T12:23:28Z</time>
      </trkpt>
      <trkpt lat="43.34209" lon="5.54917">
        <ele>702.9</ele>
        <time>2014-03-05T12:23:31Z</time>
      </trkpt>
      <trkpt lat="43.34206" lon="5.54917">
        <ele>703</ele>
        <time>2014-03-05T12:23:34Z</time>
      </trkpt>
      <trkpt lat="43.34203" lon="5.54918">
        <ele>703</ele>
        <time>2014-03-05T12:23:37Z</time>
      </trkpt>
      <trkpt lat="43.34199" lon="5.54918">
        <ele>703</ele>
        <time>2014-03-05T12:23:40Z</time>
      </trkpt>
      <trkpt lat="43.34195" lon="5.54918">
        <ele>703</ele>
        <time>2014-03-05T12:23:44Z</time>
      </trkpt>
      <trkpt lat="43.34192" lon="5.54917">
        <ele>702.9</ele>
        <time>2014-03-05T12:23:47Z</time>
      </trkpt>
      <trkpt lat="43.34188" lon="5.54917">
        <ele>702.7</ele>
        <time>2014-03-05T12:23:50Z</time>
      </trkpt>
      <trkpt lat="43.34185" lon="5.54916">
        <ele>702.5</ele>
        <time>2014-03-05T12:23:53Z</time>
      </trkpt>
      <trkpt lat="43.34181" lon="5.54915">
        <ele>702.4</ele>
        <time>2014-03-05T12:23:57Z</time>
      </trkpt>
      <trkpt lat="43.34176" lon="5.54914">
        <ele>701.9</ele>
        <time>2014-03-05T12:24:01Z</time>
      </trkpt>
      <trkpt lat="43.34173" lon="5.54914">
        <ele>700.9</ele>
        <time>2014-03-05T12:24:05Z</time>
      </trkpt>
      <trkpt lat="43.34168" lon="5.54913">
        <ele>700</ele>
        <time>2014-03-05T12:24:09Z</time>
      </trkpt>
      <trkpt lat="43.34164" lon="5.54911">
        <ele>699.4</ele>
        <time>2014-03-05T12:24:13Z</time>
      </trkpt>
      <trkpt lat="43.34163" lon="5.54911">
        <ele>699.2</ele>
        <time>2014-03-05T12:24:14Z</time>
      </trkpt>
      <trkpt lat="43.34157" lon="5.54908">
        <ele>698.5</ele>
        <time>2014-03-05T12:24:20Z</time>
      </trkpt>
      <trkpt lat="43.34153" lon="5.54906">
        <ele>697.9</ele>
        <time>2014-03-05T12:24:24Z</time>
      </trkpt>
      <trkpt lat="43.34149" lon="5.54904">
        <ele>697.4</ele>
        <time>2014-03-05T12:24:28Z</time>
      </trkpt>
      <trkpt lat="43.34145" lon="5.54902">
        <ele>697</ele>
        <time>2014-03-05T12:24:32Z</time>
      </trkpt>
      <trkpt lat="43.34141" lon="5.54899">
        <ele>696</ele>
        <time>2014-03-05T12:24:36Z</time>
      </trkpt>
      <trkpt lat="43.34138" lon="5.54897">
        <ele>695.5</ele>
        <time>2014-03-05T12:24:39Z</time>
      </trkpt>
      <trkpt lat="43.34135" lon="5.54894">
        <ele>695.2</ele>
        <time>2014-03-05T12:24:43Z</time>
      </trkpt>
      <trkpt lat="43.34131" lon="5.54892">
        <ele>694.2</ele>
        <time>2014-03-05T12:24:47Z</time>
      </trkpt>
      <trkpt lat="43.34127" lon="5.54889">
        <ele>693.7</ele>
        <time>2014-03-05T12:24:51Z</time>
      </trkpt>
      <trkpt lat="43.34123" lon="5.54886">
        <ele>693</ele>
        <time>2014-03-05T12:24:55Z</time>
      </trkpt>
      <trkpt lat="43.3412" lon="5.54883">
        <ele>692.5</ele>
        <time>2014-03-05T12:24:59Z</time>
      </trkpt>
      <trkpt lat="43.34116" lon="5.5488">
        <ele>692</ele>
        <time>2014-03-05T12:25:03Z</time>
      </trkpt>
      <trkpt lat="43.34113" lon="5.54877">
        <ele>691.2</ele>
        <time>2014-03-05T12:25:07Z</time>
      </trkpt>
      <trkpt lat="43.3411" lon="5.54874">
        <ele>690.7</ele>
        <time>2014-03-05T12:25:10Z</time>
      </trkpt>
      <trkpt lat="43.34107" lon="5.54872">
        <ele>690.4</ele>
        <time>2014-03-05T12:25:13Z</time>
      </trkpt>
      <trkpt lat="43.34103" lon="5.54869">
        <ele>689.7</ele>
        <time>2014-03-05T12:25:17Z</time>
      </trkpt>
      <trkpt lat="43.34102" lon="5.54868">
        <ele>689.5</ele>
        <time>2014-03-05T12:25:18Z</time>
      </trkpt>
      <trkpt lat="43.34097" lon="5.54863">
        <ele>689</ele>
        <time>2014-03-05T12:25:24Z</time>
      </trkpt>
      <trkpt lat="43.34094" lon="5.5486">
        <ele>688.5</ele>
        <time>2014-03-05T12:25:28Z</time>
      </trkpt>
      <trkpt lat="43.34091" lon="5.54857">
        <ele>688.4</ele>
        <time>2014-03-05T12:25:32Z</time>
      </trkpt>
      <trkpt lat="43.34088" lon="5.54853">
        <ele>688</ele>
        <time>2014-03-05T12:25:36Z</time>
      </trkpt>
      <trkpt lat="43.34084" lon="5.5485">
        <ele>687.7</ele>
        <time>2014-03-05T12:25:40Z</time>
      </trkpt>
      <trkpt lat="43.3408" lon="5.54847">
        <ele>687.4</ele>
        <time>2014-03-05T12:25:44Z</time>
      </trkpt>
      <trkpt lat="43.34077" lon="5.54846">
        <ele>687</ele>
        <time>2014-03-05T12:25:48Z</time>
      </trkpt>
      <trkpt lat="43.34073" lon="5.54845">
        <ele>686</ele>
        <time>2014-03-05T12:25:52Z</time>
      </trkpt>
      <trkpt lat="43.34069" lon="5.54845">
        <ele>685.5</ele>
        <time>2014-03-05T12:25:56Z</time>
      </trkpt>
      <trkpt lat="43.34066" lon="5.54846">
        <ele>684.7</ele>
        <time>2014-03-05T12:26:00Z</time>
      </trkpt>
      <trkpt lat="43.34062" lon="5.54848">
        <ele>683.7</ele>
        <time>2014-03-05T12:26:04Z</time>
      </trkpt>
      <trkpt lat="43.34058" lon="5.54849">
        <ele>682.7</ele>
        <time>2014-03-05T12:26:08Z</time>
      </trkpt>
      <trkpt lat="43.34055" lon="5.54849">
        <ele>682</ele>
        <time>2014-03-05T12:26:12Z</time>
      </trkpt>
      <trkpt lat="43.34051" lon="5.54846">
        <ele>681</ele>
        <time>2014-03-05T12:26:17Z</time>
      </trkpt>
      <trkpt lat="43.34049" lon="5.54841">
        <ele>680.7</ele>
        <time>2014-03-05T12:26:22Z</time>
      </trkpt>
      <trkpt lat="43.34049" lon="5.5484">
        <ele>680.7</ele>
        <time>2014-03-05T12:26:23Z</time>
      </trkpt>
      <trkpt lat="43.34049" lon="5.5483">
        <ele>681.5</ele>
        <time>2014-03-05T12:26:33Z</time>
      </trkpt>
      <trkpt lat="43.3405" lon="5.54825">
        <ele>682</ele>
        <time>2014-03-05T12:26:37Z</time>
      </trkpt>
      <trkpt lat="43.34052" lon="5.5482">
        <ele>680.9</ele>
        <time>2014-03-05T12:26:42Z</time>
      </trkpt>
      <trkpt lat="43.34052" lon="5.54815">
        <ele>679.9</ele>
        <time>2014-03-05T12:26:46Z</time>
      </trkpt>
      <trkpt lat="43.34051" lon="5.5481">
        <ele>678.5</ele>
        <time>2014-03-05T12:26:50Z</time>
      </trkpt>
      <trkpt lat="43.34048" lon="5.54807">
        <ele>677.4</ele>
        <time>2014-03-05T12:26:54Z</time>
      </trkpt>
      <trkpt lat="43.34044" lon="5.54805">
        <ele>676.7</ele>
        <time>2014-03-05T12:26:59Z</time>
      </trkpt>
      <trkpt lat="43.3404" lon="5.54806">
        <ele>675.9</ele>
        <time>2014-03-05T12:27:03Z</time>
      </trkpt>
      <trkpt lat="43.34036" lon="5.54807">
        <ele>675.5</ele>
        <time>2014-03-05T12:27:07Z</time>
      </trkpt>
      <trkpt lat="43.34032" lon="5.54808">
        <ele>675.2</ele>
        <time>2014-03-05T12:27:11Z</time>
      </trkpt>
      <trkpt lat="43.34029" lon="5.54809">
        <ele>675</ele>
        <time>2014-03-05T12:27:14Z</time>
      </trkpt>
      <trkpt lat="43.34024" lon="5.54811">
        <ele>674.5</ele>
        <time>2014-03-05T12:27:18Z</time>
      </trkpt>
      <trkpt lat="43.34021" lon="5.54811">
        <ele>674.2</ele>
        <time>2014-03-05T12:27:21Z</time>
      </trkpt>
      <trkpt lat="43.34017" lon="5.54812">
        <ele>673.9</ele>
        <time>2014-03-05T12:27:25Z</time>
      </trkpt>
      <trkpt lat="43.34016" lon="5.54813">
        <ele>673.7</ele>
        <time>2014-03-05T12:27:26Z</time>
      </trkpt>
      <trkpt lat="43.34009" lon="5.54815">
        <ele>672.5</ele>
        <time>2014-03-05T12:27:33Z</time>
      </trkpt>
      <trkpt lat="43.34006" lon="5.54817">
        <ele>672</ele>
        <time>2014-03-05T12:27:36Z</time>
      </trkpt>
      <trkpt lat="43.34002" lon="5.54818">
        <ele>671.5</ele>
        <time>2014-03-05T12:27:39Z</time>
      </trkpt>
      <trkpt lat="43.33998" lon="5.54821">
        <ele>671.4</ele>
        <time>2014-03-05T12:27:43Z</time>
      </trkpt>
      <trkpt lat="43.33995" lon="5.54824">
        <ele>671</ele>
        <time>2014-03-05T12:27:47Z</time>
      </trkpt>
      <trkpt lat="43.33992" lon="5.54827">
        <ele>670.5</ele>
        <time>2014-03-05T12:27:51Z</time>
      </trkpt>
      <trkpt lat="43.33989" lon="5.54832">
        <ele>669.7</ele>
        <time>2014-03-05T12:27:55Z</time>
      </trkpt>
      <trkpt lat="43.33986" lon="5.54836">
        <ele>669.2</ele>
        <time>2014-03-05T12:27:59Z</time>
      </trkpt>
      <trkpt lat="43.33983" lon="5.54839">
        <ele>669</ele>
        <time>2014-03-05T12:28:03Z</time>
      </trkpt>
      <trkpt lat="43.3398" lon="5.54842">
        <ele>668</ele>
        <time>2014-03-05T12:28:08Z</time>
      </trkpt>
      <trkpt lat="43.33976" lon="5.54842">
        <ele>667.4</ele>
        <time>2014-03-05T12:28:12Z</time>
      </trkpt>
      <trkpt lat="43.33972" lon="5.54839">
        <ele>666.4</ele>
        <time>2014-03-05T12:28:17Z</time>
      </trkpt>
      <trkpt lat="43.33969" lon="5.54834">
        <ele>666</ele>
        <time>2014-03-05T12:28:22Z</time>
      </trkpt>
      <trkpt lat="43.33967" lon="5.54829">
        <ele>666</ele>
        <time>2014-03-05T12:28:26Z</time>
      </trkpt>
      <trkpt lat="43.33967" lon="5.54828">
        <ele>666</ele>
        <time>2014-03-05T12:28:27Z</time>
      </trkpt>
      <trkpt lat="43.33964" lon="5.54821">
        <ele>665.2</ele>
        <time>2014-03-05T12:28:32Z</time>
      </trkpt>
      <trkpt lat="43.33962" lon="5.54816">
        <ele>665</ele>
        <time>2014-03-05T12:28:35Z</time>
      </trkpt>
      <trkpt lat="43.3396" lon="5.54811">
        <ele>665</ele>
        <time>2014-03-05T12:28:38Z</time>
      </trkpt>
      <trkpt lat="43.33959" lon="5.54806">
        <ele>664.7</ele>
        <time>2014-03-05T12:28:41Z</time>
      </trkpt>
      <trkpt lat="43.33958" lon="5.54801">
        <ele>664.5</ele>
        <time>2014-03-05T12:28:44Z</time>
      </trkpt>
      <trkpt lat="43.33957" lon="5.54796">
        <ele>664.5</ele>
        <time>2014-03-05T12:28:47Z</time>
      </trkpt>
      <trkpt lat="43.33955" lon="5.54792">
        <ele>664.4</ele>
        <time>2014-03-05T12:28:50Z</time>
      </trkpt>
      <trkpt lat="43.33954" lon="5.54787">
        <ele>664.2</ele>
        <time>2014-03-05T12:28:53Z</time>
      </trkpt>
      <trkpt lat="43.33952" lon="5.54782">
        <ele>663.9</ele>
        <time>2014-03-05T12:28:57Z</time>
      </trkpt>
      <trkpt lat="43.3395" lon="5.54776">
        <ele>662.9</ele>
        <time>2014-03-05T12:29:02Z</time>
      </trkpt>
      <trkpt lat="43.33948" lon="5.54771">
        <ele>662.7</ele>
        <time>2014-03-05T12:29:06Z</time>
      </trkpt>
      <trkpt lat="43.33946" lon="5.54765">
        <ele>661.7</ele>
        <time>2014-03-05T12:29:14Z</time>
      </trkpt>
      <trkpt lat="43.33948" lon="5.54761">
        <ele>664</ele>
        <time>2014-03-05T12:30:25Z</time>
      </trkpt>
      <trkpt lat="43.33949" lon="5.5476">
        <ele>663.9</ele>
        <time>2014-03-05T12:30:26Z</time>
      </trkpt>
      <trkpt lat="43.33956" lon="5.54759">
        <ele>663</ele>
        <time>2014-03-05T12:30:39Z</time>
      </trkpt>
      <trkpt lat="43.3396" lon="5.54759">
        <ele>662.2</ele>
        <time>2014-03-05T12:30:44Z</time>
      </trkpt>
      <trkpt lat="43.33964" lon="5.54759">
        <ele>661</ele>
        <time>2014-03-05T12:30:50Z</time>
      </trkpt>
      <trkpt lat="43.33968" lon="5.54757">
        <ele>660.2</ele>
        <time>2014-03-05T12:30:56Z</time>
      </trkpt>
      <trkpt lat="43.33972" lon="5.54758">
        <ele>658.5</ele>
        <time>2014-03-05T12:31:00Z</time>
      </trkpt>
      <trkpt lat="43.33976" lon="5.5476">
        <ele>658</ele>
        <time>2014-03-05T12:31:05Z</time>
      </trkpt>
      <trkpt lat="43.3398" lon="5.54763">
        <ele>656.5</ele>
        <time>2014-03-05T12:31:15Z</time>
      </trkpt>
      <trkpt lat="43.33984" lon="5.54766">
        <ele>655.9</ele>
        <time>2014-03-05T12:31:28Z</time>
      </trkpt>
      <trkpt lat="43.33984" lon="5.54766">
        <ele>655.4</ele>
        <time>2014-03-05T12:31:29Z</time>
      </trkpt>
      <trkpt lat="43.33991" lon="5.5477">
        <ele>652.5</ele>
        <time>2014-03-05T12:31:46Z</time>
      </trkpt>
      <trkpt lat="43.33995" lon="5.54773">
        <ele>652.5</ele>
        <time>2014-03-05T12:31:51Z</time>
      </trkpt>
      <trkpt lat="43.33999" lon="5.54772">
        <ele>650.9</ele>
        <time>2014-03-05T12:31:55Z</time>
      </trkpt>
      <trkpt lat="43.34003" lon="5.54772">
        <ele>649.4</ele>
        <time>2014-03-05T12:31:59Z</time>
      </trkpt>
      <trkpt lat="43.34006" lon="5.5477">
        <ele>647.9</ele>
        <time>2014-03-05T12:32:04Z</time>
      </trkpt>
      <trkpt lat="43.34011" lon="5.54769">
        <ele>646</ele>
        <time>2014-03-05T12:32:09Z</time>
      </trkpt>
      <trkpt lat="43.34015" lon="5.54769">
        <ele>642.5</ele>
        <time>2014-03-05T12:32:13Z</time>
      </trkpt>
      <trkpt lat="43.34019" lon="5.54768">
        <ele>640.4</ele>
        <time>2014-03-05T12:32:18Z</time>
      </trkpt>
      <trkpt lat="43.34022" lon="5.54764">
        <ele>641.2</ele>
        <time>2014-03-05T12:32:23Z</time>
      </trkpt>
      <trkpt lat="43.34026" lon="5.54762">
        <ele>640.4</ele>
        <time>2014-03-05T12:32:28Z</time>
      </trkpt>
      <trkpt lat="43.34024" lon="5.54757">
        <ele>641.5</ele>
        <time>2014-03-05T12:32:39Z</time>
      </trkpt>
      <trkpt lat="43.34023" lon="5.54757">
        <ele>641.5</ele>
        <time>2014-03-05T12:32:40Z</time>
      </trkpt>
      <trkpt lat="43.34016" lon="5.54754">
        <ele>646.5</ele>
        <time>2014-03-05T12:33:03Z</time>
      </trkpt>
      <trkpt lat="43.34013" lon="5.54749">
        <ele>648.9</ele>
        <time>2014-03-05T12:33:13Z</time>
      </trkpt>
      <trkpt lat="43.34009" lon="5.54746">
        <ele>648.4</ele>
        <time>2014-03-05T12:33:24Z</time>
      </trkpt>
      <trkpt lat="43.34007" lon="5.54741">
        <ele>648.7</ele>
        <time>2014-03-05T12:33:36Z</time>
      </trkpt>
      <trkpt lat="43.34004" lon="5.54737">
        <ele>648.4</ele>
        <time>2014-03-05T12:33:56Z</time>
      </trkpt>
      <trkpt lat="43.34004" lon="5.54736">
        <ele>648.9</ele>
        <time>2014-03-05T12:33:57Z</time>
      </trkpt>
      <trkpt lat="43.33997" lon="5.5473">
        <ele>644.4</ele>
        <time>2014-03-05T12:34:16Z</time>
      </trkpt>
      <trkpt lat="43.33993" lon="5.54729">
        <ele>643.9</ele>
        <time>2014-03-05T12:34:20Z</time>
      </trkpt>
      <trkpt lat="43.33989" lon="5.54726">
        <ele>643</ele>
        <time>2014-03-05T12:34:26Z</time>
      </trkpt>
      <trkpt lat="43.33987" lon="5.54721">
        <ele>642.7</ele>
        <time>2014-03-05T12:34:32Z</time>
      </trkpt>
      <trkpt lat="43.33985" lon="5.54716">
        <ele>641.7</ele>
        <time>2014-03-05T12:34:40Z</time>
      </trkpt>
      <trkpt lat="43.33983" lon="5.54711">
        <ele>640.7</ele>
        <time>2014-03-05T12:34:46Z</time>
      </trkpt>
      <trkpt lat="43.33982" lon="5.54705">
        <ele>639.4</ele>
        <time>2014-03-05T12:34:52Z</time>
      </trkpt>
      <trkpt lat="43.33981" lon="5.54699">
        <ele>635.2</ele>
        <time>2014-03-05T12:35:00Z</time>
      </trkpt>
      <trkpt lat="43.33981" lon="5.54698">
        <ele>635.2</ele>
        <time>2014-03-05T12:35:01Z</time>
      </trkpt>
      <trkpt lat="43.3398" lon="5.54687">
        <ele>633</ele>
        <time>2014-03-05T12:35:13Z</time>
      </trkpt>
      <trkpt lat="43.33979" lon="5.54682">
        <ele>631</ele>
        <time>2014-03-05T12:35:19Z</time>
      </trkpt>
      <trkpt lat="43.33977" lon="5.54677">
        <ele>630.9</ele>
        <time>2014-03-05T12:35:26Z</time>
      </trkpt>
      <trkpt lat="43.33976" lon="5.54672">
        <ele>631</ele>
        <time>2014-03-05T12:35:32Z</time>
      </trkpt>
      <trkpt lat="43.33975" lon="5.54667">
        <ele>630.5</ele>
        <time>2014-03-05T12:35:37Z</time>
      </trkpt>
      <trkpt lat="43.33974" lon="5.54661">
        <ele>630</ele>
        <time>2014-03-05T12:35:43Z</time>
      </trkpt>
      <trkpt lat="43.33972" lon="5.54656">
        <ele>630.5</ele>
        <time>2014-03-05T12:35:47Z</time>
      </trkpt>
      <trkpt lat="43.33971" lon="5.5465">
        <ele>629.5</ele>
        <time>2014-03-05T12:35:52Z</time>
      </trkpt>
      <trkpt lat="43.33969" lon="5.54645">
        <ele>627.5</ele>
        <time>2014-03-05T12:35:57Z</time>
      </trkpt>
      <trkpt lat="43.33968" lon="5.54639">
        <ele>625.7</ele>
        <time>2014-03-05T12:36:02Z</time>
      </trkpt>
      <trkpt lat="43.33967" lon="5.54638">
        <ele>625.5</ele>
        <time>2014-03-05T12:36:03Z</time>
      </trkpt>
      <trkpt lat="43.33963" lon="5.54631">
        <ele>622.9</ele>
        <time>2014-03-05T12:36:11Z</time>
      </trkpt>
      <trkpt lat="43.33962" lon="5.54625">
        <ele>620.7</ele>
        <time>2014-03-05T12:36:19Z</time>
      </trkpt>
      <trkpt lat="43.3396" lon="5.5462">
        <ele>620</ele>
        <time>2014-03-05T12:36:25Z</time>
      </trkpt>
      <trkpt lat="43.33959" lon="5.54614">
        <ele>618.2</ele>
        <time>2014-03-05T12:36:33Z</time>
      </trkpt>
      <trkpt lat="43.33955" lon="5.54612">
        <ele>616.2</ele>
        <time>2014-03-05T12:36:40Z</time>
      </trkpt>
      <trkpt lat="43.33952" lon="5.54609">
        <ele>615.2</ele>
        <time>2014-03-05T12:36:46Z</time>
      </trkpt>
      <trkpt lat="43.33949" lon="5.54604">
        <ele>614.5</ele>
        <time>2014-03-05T12:36:53Z</time>
      </trkpt>
      <trkpt lat="43.33945" lon="5.54604">
        <ele>613.7</ele>
        <time>2014-03-05T12:36:58Z</time>
      </trkpt>
      <trkpt lat="43.33942" lon="5.54599">
        <ele>612.7</ele>
        <time>2014-03-05T12:37:03Z</time>
      </trkpt>
      <trkpt lat="43.33941" lon="5.54599">
        <ele>612.7</ele>
        <time>2014-03-05T12:37:04Z</time>
      </trkpt>
      <trkpt lat="43.33934" lon="5.54599">
        <ele>611</ele>
        <time>2014-03-05T12:37:14Z</time>
      </trkpt>
      <trkpt lat="43.3393" lon="5.54598">
        <ele>610.5</ele>
        <time>2014-03-05T12:37:18Z</time>
      </trkpt>
      <trkpt lat="43.33926" lon="5.54598">
        <ele>610</ele>
        <time>2014-03-05T12:37:22Z</time>
      </trkpt>
      <trkpt lat="43.33923" lon="5.54597">
        <ele>609.5</ele>
        <time>2014-03-05T12:37:25Z</time>
      </trkpt>
      <trkpt lat="43.33919" lon="5.54595">
        <ele>609</ele>
        <time>2014-03-05T12:37:29Z</time>
      </trkpt>
      <trkpt lat="43.33916" lon="5.54591">
        <ele>608.2</ele>
        <time>2014-03-05T12:37:33Z</time>
      </trkpt>
      <trkpt lat="43.33913" lon="5.54588">
        <ele>607.5</ele>
        <time>2014-03-05T12:37:36Z</time>
      </trkpt>
      <trkpt lat="43.3391" lon="5.54586">
        <ele>607.2</ele>
        <time>2014-03-05T12:37:39Z</time>
      </trkpt>
      <trkpt lat="43.33907" lon="5.54582">
        <ele>607</ele>
        <time>2014-03-05T12:37:43Z</time>
      </trkpt>
      <trkpt lat="43.33904" lon="5.54578">
        <ele>606.5</ele>
        <time>2014-03-05T12:37:47Z</time>
      </trkpt>
      <trkpt lat="43.33901" lon="5.54574">
        <ele>606</ele>
        <time>2014-03-05T12:37:51Z</time>
      </trkpt>
      <trkpt lat="43.33899" lon="5.5457">
        <ele>605</ele>
        <time>2014-03-05T12:37:55Z</time>
      </trkpt>
      <trkpt lat="43.33896" lon="5.54565">
        <ele>604.5</ele>
        <time>2014-03-05T12:37:59Z</time>
      </trkpt>
      <trkpt lat="43.33893" lon="5.54561">
        <ele>603.9</ele>
        <time>2014-03-05T12:38:03Z</time>
      </trkpt>
      <trkpt lat="43.33891" lon="5.54558">
        <ele>603.2</ele>
        <time>2014-03-05T12:38:06Z</time>
      </trkpt>
      <trkpt lat="43.3389" lon="5.54556">
        <ele>603</ele>
        <time>2014-03-05T12:38:07Z</time>
      </trkpt>
      <trkpt lat="43.33886" lon="5.54549">
        <ele>601.4</ele>
        <time>2014-03-05T12:38:14Z</time>
      </trkpt>
      <trkpt lat="43.33884" lon="5.54545">
        <ele>600.5</ele>
        <time>2014-03-05T12:38:18Z</time>
      </trkpt>
      <trkpt lat="43.33883" lon="5.54541">
        <ele>600</ele>
        <time>2014-03-05T12:38:21Z</time>
      </trkpt>
      <trkpt lat="43.33881" lon="5.54535">
        <ele>600.7</ele>
        <time>2014-03-05T12:38:24Z</time>
      </trkpt>
      <trkpt lat="43.3388" lon="5.54531">
        <ele>600.2</ele>
        <time>2014-03-05T12:38:28Z</time>
      </trkpt>
      <trkpt lat="43.33879" lon="5.54526">
        <ele>599.4</ele>
        <time>2014-03-05T12:38:32Z</time>
      </trkpt>
      <trkpt lat="43.33878" lon="5.5452">
        <ele>598.2</ele>
        <time>2014-03-05T12:38:37Z</time>
      </trkpt>
      <trkpt lat="43.33877" lon="5.54515">
        <ele>597.7</ele>
        <time>2014-03-05T12:38:41Z</time>
      </trkpt>
      <trkpt lat="43.33877" lon="5.54509">
        <ele>597.7</ele>
        <time>2014-03-05T12:38:46Z</time>
      </trkpt>
      <trkpt lat="43.33876" lon="5.54503">
        <ele>599</ele>
        <time>2014-03-05T12:38:52Z</time>
      </trkpt>
      <trkpt lat="43.33875" lon="5.54499">
        <ele>599.5</ele>
        <time>2014-03-05T12:38:56Z</time>
      </trkpt>
      <trkpt lat="43.33874" lon="5.54495">
        <ele>601</ele>
        <time>2014-03-05T12:38:59Z</time>
      </trkpt>
      <trkpt lat="43.33872" lon="5.54491">
        <ele>602</ele>
        <time>2014-03-05T12:39:02Z</time>
      </trkpt>
      <trkpt lat="43.33869" lon="5.54487">
        <ele>602.2</ele>
        <time>2014-03-05T12:39:06Z</time>
      </trkpt>
      <trkpt lat="43.33865" lon="5.54485">
        <ele>602</ele>
        <time>2014-03-05T12:39:11Z</time>
      </trkpt>
      <trkpt lat="43.33864" lon="5.54484">
        <ele>601.7</ele>
        <time>2014-03-05T12:39:12Z</time>
      </trkpt>
      <trkpt lat="43.33857" lon="5.54483">
        <ele>598.7</ele>
        <time>2014-03-05T12:39:23Z</time>
      </trkpt>
      <trkpt lat="43.33853" lon="5.54482">
        <ele>597.4</ele>
        <time>2014-03-05T12:39:27Z</time>
      </trkpt>
      <trkpt lat="43.3385" lon="5.54479">
        <ele>597.2</ele>
        <time>2014-03-05T12:39:31Z</time>
      </trkpt>
      <trkpt lat="43.33846" lon="5.54476">
        <ele>596.5</ele>
        <time>2014-03-05T12:39:36Z</time>
      </trkpt>
      <trkpt lat="43.33844" lon="5.54472">
        <ele>596.2</ele>
        <time>2014-03-05T12:39:40Z</time>
      </trkpt>
      <trkpt lat="43.3384" lon="5.54468">
        <ele>595.4</ele>
        <time>2014-03-05T12:39:47Z</time>
      </trkpt>
      <trkpt lat="43.33837" lon="5.54466">
        <ele>594</ele>
        <time>2014-03-05T12:39:55Z</time>
      </trkpt>
      <trkpt lat="43.33833" lon="5.54463">
        <ele>592.5</ele>
        <time>2014-03-05T12:40:03Z</time>
      </trkpt>
      <trkpt lat="43.3383" lon="5.54459">
        <ele>590.9</ele>
        <time>2014-03-05T12:40:12Z</time>
      </trkpt>
      <trkpt lat="43.3383" lon="5.54458">
        <ele>590.7</ele>
        <time>2014-03-05T12:40:13Z</time>
      </trkpt>
      <trkpt lat="43.33823" lon="5.54451">
        <ele>583</ele>
        <time>2014-03-05T12:40:40Z</time>
      </trkpt>
      <trkpt lat="43.33822" lon="5.54446">
        <ele>581.4</ele>
        <time>2014-03-05T12:40:46Z</time>
      </trkpt>
      <trkpt lat="43.33819" lon="5.54442">
        <ele>580.2</ele>
        <time>2014-03-05T12:40:51Z</time>
      </trkpt>
      <trkpt lat="43.33817" lon="5.54438">
        <ele>580.7</ele>
        <time>2014-03-05T12:40:55Z</time>
      </trkpt>
      <trkpt lat="43.33815" lon="5.54434">
        <ele>582</ele>
        <time>2014-03-05T12:41:01Z</time>
      </trkpt>
      <trkpt lat="43.33812" lon="5.54429">
        <ele>583.5</ele>
        <time>2014-03-05T12:41:07Z</time>
      </trkpt>
      <trkpt lat="43.3381" lon="5.54424">
        <ele>586.2</ele>
        <time>2014-03-05T12:41:24Z</time>
      </trkpt>
      <trkpt lat="43.33809" lon="5.54424">
        <ele>586.2</ele>
        <time>2014-03-05T12:41:25Z</time>
      </trkpt>
      <trkpt lat="43.33803" lon="5.54418">
        <ele>585.2</ele>
        <time>2014-03-05T12:41:37Z</time>
      </trkpt>
      <trkpt lat="43.338" lon="5.54414">
        <ele>585</ele>
        <time>2014-03-05T12:41:41Z</time>
      </trkpt>
      <trkpt lat="43.33797" lon="5.54409">
        <ele>584.7</ele>
        <time>2014-03-05T12:41:46Z</time>
      </trkpt>
      <trkpt lat="43.33794" lon="5.54406">
        <ele>584.4</ele>
        <time>2014-03-05T12:41:51Z</time>
      </trkpt>
      <trkpt lat="43.33791" lon="5.54403">
        <ele>582.4</ele>
        <time>2014-03-05T12:42:04Z</time>
      </trkpt>
      <trkpt lat="43.33788" lon="5.54399">
        <ele>582.5</ele>
        <time>2014-03-05T12:42:13Z</time>
      </trkpt>
      <trkpt lat="43.33785" lon="5.54394">
        <ele>581</ele>
        <time>2014-03-05T12:42:24Z</time>
      </trkpt>
      <trkpt lat="43.33781" lon="5.54392">
        <ele>578.4</ele>
        <time>2014-03-05T12:42:36Z</time>
      </trkpt>
      <trkpt lat="43.33781" lon="5.54392">
        <ele>578.2</ele>
        <time>2014-03-05T12:42:37Z</time>
      </trkpt>
      <trkpt lat="43.33774" lon="5.54386">
        <ele>574.7</ele>
        <time>2014-03-05T12:42:53Z</time>
      </trkpt>
      <trkpt lat="43.3377" lon="5.54385">
        <ele>574.9</ele>
        <time>2014-03-05T12:42:59Z</time>
      </trkpt>
      <trkpt lat="43.33766" lon="5.54385">
        <ele>574.7</ele>
        <time>2014-03-05T12:43:04Z</time>
      </trkpt>
      <trkpt lat="43.33762" lon="5.54384">
        <ele>574.7</ele>
        <time>2014-03-05T12:43:09Z</time>
      </trkpt>
      <trkpt lat="43.33758" lon="5.54383">
        <ele>574.2</ele>
        <time>2014-03-05T12:43:15Z</time>
      </trkpt>
      <trkpt lat="43.33753" lon="5.54382">
        <ele>573.4</ele>
        <time>2014-03-05T12:43:21Z</time>
      </trkpt>
      <trkpt lat="43.33749" lon="5.54383">
        <ele>571.7</ele>
        <time>2014-03-05T12:43:27Z</time>
      </trkpt>
      <trkpt lat="43.33745" lon="5.54381">
        <ele>570.2</ele>
        <time>2014-03-05T12:43:35Z</time>
      </trkpt>
      <trkpt lat="43.33742" lon="5.54377">
        <ele>569.2</ele>
        <time>2014-03-05T12:43:42Z</time>
      </trkpt>
      <trkpt lat="43.33742" lon="5.54377">
        <ele>569.2</ele>
        <time>2014-03-05T12:43:43Z</time>
      </trkpt>
      <trkpt lat="43.33737" lon="5.5437">
        <ele>567.7</ele>
        <time>2014-03-05T12:43:53Z</time>
      </trkpt>
      <trkpt lat="43.33733" lon="5.54366">
        <ele>565.9</ele>
        <time>2014-03-05T12:44:02Z</time>
      </trkpt>
      <trkpt lat="43.33729" lon="5.54365">
        <ele>564</ele>
        <time>2014-03-05T12:44:09Z</time>
      </trkpt>
      <trkpt lat="43.33725" lon="5.54363">
        <ele>562.2</ele>
        <time>2014-03-05T12:44:14Z</time>
      </trkpt>
      <trkpt lat="43.33721" lon="5.54362">
        <ele>560.4</ele>
        <time>2014-03-05T12:44:21Z</time>
      </trkpt>
      <trkpt lat="43.33717" lon="5.54363">
        <ele>557.5</ele>
        <time>2014-03-05T12:44:34Z</time>
      </trkpt>
      <trkpt lat="43.33712" lon="5.54365">
        <ele>555</ele>
        <time>2014-03-05T12:44:44Z</time>
      </trkpt>
      <trkpt lat="43.33712" lon="5.54366">
        <ele>554.5</ele>
        <time>2014-03-05T12:44:45Z</time>
      </trkpt>
      <trkpt lat="43.33705" lon="5.54371">
        <ele>550.5</ele>
        <time>2014-03-05T12:44:57Z</time>
      </trkpt>
      <trkpt lat="43.33703" lon="5.54375">
        <ele>549.7</ele>
        <time>2014-03-05T12:45:01Z</time>
      </trkpt>
      <trkpt lat="43.33699" lon="5.54377">
        <ele>549.2</ele>
        <time>2014-03-05T12:45:05Z</time>
      </trkpt>
      <trkpt lat="43.33695" lon="5.54377">
        <ele>548.4</ele>
        <time>2014-03-05T12:45:12Z</time>
      </trkpt>
      <trkpt lat="43.33692" lon="5.5438">
        <ele>550.7</ele>
        <time>2014-03-05T12:46:27Z</time>
      </trkpt>
      <trkpt lat="43.33691" lon="5.5438">
        <ele>550.5</ele>
        <time>2014-03-05T12:46:28Z</time>
      </trkpt>
      <trkpt lat="43.33684" lon="5.54379">
        <ele>546.5</ele>
        <time>2014-03-05T12:46:39Z</time>
      </trkpt>
      <trkpt lat="43.33681" lon="5.54374">
        <ele>546.2</ele>
        <time>2014-03-05T12:46:44Z</time>
      </trkpt>
      <trkpt lat="43.33678" lon="5.5437">
        <ele>545.5</ele>
        <time>2014-03-05T12:46:49Z</time>
      </trkpt>
      <trkpt lat="43.33675" lon="5.54366">
        <ele>542.7</ele>
        <time>2014-03-05T12:47:00Z</time>
      </trkpt>
      <trkpt lat="43.33671" lon="5.54362">
        <ele>538</ele>
        <time>2014-03-05T12:47:08Z</time>
      </trkpt>
      <trkpt lat="43.33668" lon="5.54359">
        <ele>536.2</ele>
        <time>2014-03-05T12:47:13Z</time>
      </trkpt>
      <trkpt lat="43.33665" lon="5.54354">
        <ele>540</ele>
        <time>2014-03-05T12:47:16Z</time>
      </trkpt>
      <trkpt lat="43.33664" lon="5.54349">
        <ele>542.7</ele>
        <time>2014-03-05T12:47:21Z</time>
      </trkpt>
      <trkpt lat="43.33661" lon="5.54345">
        <ele>542.2</ele>
        <time>2014-03-05T12:47:25Z</time>
      </trkpt>
      <trkpt lat="43.33658" lon="5.54342">
        <ele>541.4</ele>
        <time>2014-03-05T12:47:29Z</time>
      </trkpt>
      <trkpt lat="43.33657" lon="5.54342">
        <ele>541.2</ele>
        <time>2014-03-05T12:47:30Z</time>
      </trkpt>
      <trkpt lat="43.33652" lon="5.54335">
        <ele>539.4</ele>
        <time>2014-03-05T12:47:40Z</time>
      </trkpt>
      <trkpt lat="43.33648" lon="5.54332">
        <ele>535.2</ele>
        <time>2014-03-05T12:47:47Z</time>
      </trkpt>
      <trkpt lat="43.33645" lon="5.54329">
        <ele>532.2</ele>
        <time>2014-03-05T12:47:55Z</time>
      </trkpt>
      <trkpt lat="43.33641" lon="5.54325">
        <ele>529.5</ele>
        <time>2014-03-05T12:48:02Z</time>
      </trkpt>
      <trkpt lat="43.3364" lon="5.54319">
        <ele>528.2</ele>
        <time>2014-03-05T12:48:08Z</time>
      </trkpt>
      <trkpt lat="43.3364" lon="5.54314">
        <ele>530</ele>
        <time>2014-03-05T12:48:11Z</time>
      </trkpt>
      <trkpt lat="43.33638" lon="5.5431">
        <ele>528.2</ele>
        <time>2014-03-05T12:48:15Z</time>
      </trkpt>
      <trkpt lat="43.33636" lon="5.54305">
        <ele>523.5</ele>
        <time>2014-03-05T12:48:22Z</time>
      </trkpt>
      <trkpt lat="43.33635" lon="5.54299">
        <ele>523.4</ele>
        <time>2014-03-05T12:48:26Z</time>
      </trkpt>
      <trkpt lat="43.33634" lon="5.54294">
        <ele>524.4</ele>
        <time>2014-03-05T12:48:29Z</time>
      </trkpt>
      <trkpt lat="43.33634" lon="5.54289">
        <ele>523.2</ele>
        <time>2014-03-05T12:48:33Z</time>
      </trkpt>
      <trkpt lat="43.33633" lon="5.54287">
        <ele>524</ele>
        <time>2014-03-05T12:48:34Z</time>
      </trkpt>
      <trkpt lat="43.33631" lon="5.54279">
        <ele>525.4</ele>
        <time>2014-03-05T12:48:39Z</time>
      </trkpt>
      <trkpt lat="43.3363" lon="5.54274">
        <ele>526</ele>
        <time>2014-03-05T12:48:43Z</time>
      </trkpt>
      <trkpt lat="43.33629" lon="5.54268">
        <ele>524.7</ele>
        <time>2014-03-05T12:48:49Z</time>
      </trkpt>
      <trkpt lat="43.33629" lon="5.54263">
        <ele>524.9</ele>
        <time>2014-03-05T12:48:53Z</time>
      </trkpt>
      <trkpt lat="43.33627" lon="5.54258">
        <ele>523.9</ele>
        <time>2014-03-05T12:48:57Z</time>
      </trkpt>
      <trkpt lat="43.33626" lon="5.54252">
        <ele>522.4</ele>
        <time>2014-03-05T12:49:02Z</time>
      </trkpt>
      <trkpt lat="43.33624" lon="5.54248">
        <ele>522</ele>
        <time>2014-03-05T12:49:06Z</time>
      </trkpt>
      <trkpt lat="43.33623" lon="5.54242">
        <ele>518.7</ele>
        <time>2014-03-05T12:49:13Z</time>
      </trkpt>
      <trkpt lat="43.3362" lon="5.54236">
        <ele>515.2</ele>
        <time>2014-03-05T12:49:19Z</time>
      </trkpt>
      <trkpt lat="43.33618" lon="5.54234">
        <ele>514.5</ele>
        <time>2014-03-05T12:49:22Z</time>
      </trkpt>
      <trkpt lat="43.33614" lon="5.54231">
        <ele>517</ele>
        <time>2014-03-05T12:49:25Z</time>
      </trkpt>
      <trkpt lat="43.33611" lon="5.54228">
        <ele>517.7</ele>
        <time>2014-03-05T12:49:30Z</time>
      </trkpt>
      <trkpt lat="43.33609" lon="5.54223">
        <ele>516</ele>
        <time>2014-03-05T12:49:35Z</time>
      </trkpt>
      <trkpt lat="43.33608" lon="5.54222">
        <ele>515.5</ele>
        <time>2014-03-05T12:49:36Z</time>
      </trkpt>
      <trkpt lat="43.33604" lon="5.54214">
        <ele>512.2</ele>
        <time>2014-03-05T12:49:45Z</time>
      </trkpt>
      <trkpt lat="43.33601" lon="5.5421">
        <ele>510.6</ele>
        <time>2014-03-05T12:49:51Z</time>
      </trkpt>
      <trkpt lat="43.33599" lon="5.54206">
        <ele>508.8</ele>
        <time>2014-03-05T12:49:55Z</time>
      </trkpt>
      <trkpt lat="43.33596" lon="5.54202">
        <ele>508.2</ele>
        <time>2014-03-05T12:49:59Z</time>
      </trkpt>
      <trkpt lat="43.33592" lon="5.54199">
        <ele>505.7</ele>
        <time>2014-03-05T12:50:04Z</time>
      </trkpt>
      <trkpt lat="43.33589" lon="5.54195">
        <ele>505.2</ele>
        <time>2014-03-05T12:50:08Z</time>
      </trkpt>
      <trkpt lat="43.33587" lon="5.54191">
        <ele>503</ele>
        <time>2014-03-05T12:50:13Z</time>
      </trkpt>
      <trkpt lat="43.33586" lon="5.54188">
        <ele>500.7</ele>
        <time>2014-03-05T12:50:16Z</time>
      </trkpt>
      <trkpt lat="43.33585" lon="5.54185">
        <ele>502.6</ele>
        <time>2014-03-05T12:50:17Z</time>
      </trkpt>
      <trkpt lat="43.33583" lon="5.5418">
        <ele>504.7</ele>
        <time>2014-03-05T12:50:19Z</time>
      </trkpt>
      <trkpt lat="43.33581" lon="5.54175">
        <ele>501.7</ele>
        <time>2014-03-05T12:50:24Z</time>
      </trkpt>
      <trkpt lat="43.3358" lon="5.5417">
        <ele>497.2</ele>
        <time>2014-03-05T12:50:30Z</time>
      </trkpt>
      <trkpt lat="43.33578" lon="5.54164">
        <ele>494.8</ele>
        <time>2014-03-05T12:50:35Z</time>
      </trkpt>
      <trkpt lat="43.33577" lon="5.5416">
        <ele>495.1</ele>
        <time>2014-03-05T12:50:38Z</time>
      </trkpt>
      <trkpt lat="43.33576" lon="5.54159">
        <ele>495.2</ele>
        <time>2014-03-05T12:50:39Z</time>
      </trkpt>
      <trkpt lat="43.33575" lon="5.5415">
        <ele>496.7</ele>
        <time>2014-03-05T12:50:44Z</time>
      </trkpt>
      <trkpt lat="43.33574" lon="5.54145">
        <ele>496.7</ele>
        <time>2014-03-05T12:50:47Z</time>
      </trkpt>
      <trkpt lat="43.33572" lon="5.5414">
        <ele>497.3</ele>
        <time>2014-03-05T12:50:50Z</time>
      </trkpt>
      <trkpt lat="43.33571" lon="5.54135">
        <ele>498.2</ele>
        <time>2014-03-05T12:50:53Z</time>
      </trkpt>
      <trkpt lat="43.33569" lon="5.54132">
        <ele>500.2</ele>
        <time>2014-03-05T12:50:54Z</time>
      </trkpt>
      <trkpt lat="43.33567" lon="5.54127">
        <ele>502.8</ele>
        <time>2014-03-05T12:50:56Z</time>
      </trkpt>
      <trkpt lat="43.33565" lon="5.54123">
        <ele>504.7</ele>
        <time>2014-03-05T12:50:58Z</time>
      </trkpt>
      <trkpt lat="43.33563" lon="5.54119">
        <ele>504.6</ele>
        <time>2014-03-05T12:51:01Z</time>
      </trkpt>
      <trkpt lat="43.3356" lon="5.54116">
        <ele>504.2</ele>
        <time>2014-03-05T12:51:04Z</time>
      </trkpt>
      <trkpt lat="43.33558" lon="5.54111">
        <ele>504.7</ele>
        <time>2014-03-05T12:51:07Z</time>
      </trkpt>
      <trkpt lat="43.33557" lon="5.54108">
        <ele>505.6</ele>
        <time>2014-03-05T12:51:09Z</time>
      </trkpt>
      <trkpt lat="43.33555" lon="5.54103">
        <ele>507.2</ele>
        <time>2014-03-05T12:51:11Z</time>
      </trkpt>
      <trkpt lat="43.33553" lon="5.54098">
        <ele>507.6</ele>
        <time>2014-03-05T12:51:14Z</time>
      </trkpt>
      <trkpt lat="43.33552" lon="5.54094">
        <ele>508.5</ele>
        <time>2014-03-05T12:51:16Z</time>
      </trkpt>
      <trkpt lat="43.3355" lon="5.5409">
        <ele>508.1</ele>
        <time>2014-03-05T12:51:19Z</time>
      </trkpt>
      <trkpt lat="43.33547" lon="5.54087">
        <ele>507.1</ele>
        <time>2014-03-05T12:51:22Z</time>
      </trkpt>
      <trkpt lat="43.33545" lon="5.54082">
        <ele>505.2</ele>
        <time>2014-03-05T12:51:26Z</time>
      </trkpt>
      <trkpt lat="43.33544" lon="5.54077">
        <ele>503.8</ele>
        <time>2014-03-05T12:51:30Z</time>
      </trkpt>
      <trkpt lat="43.33541" lon="5.54073">
        <ele>503.7</ele>
        <time>2014-03-05T12:51:33Z</time>
      </trkpt>
      <trkpt lat="43.33539" lon="5.54068">
        <ele>503.8</ele>
        <time>2014-03-05T12:51:36Z</time>
      </trkpt>
      <trkpt lat="43.33538" lon="5.54064">
        <ele>503.5</ele>
        <time>2014-03-05T12:51:39Z</time>
      </trkpt>
      <trkpt lat="43.33538" lon="5.54062">
        <ele>504.5</ele>
        <time>2014-03-05T12:51:40Z</time>
      </trkpt>
      <trkpt lat="43.33535" lon="5.54054">
        <ele>504.2</ele>
        <time>2014-03-05T12:51:45Z</time>
      </trkpt>
      <trkpt lat="43.33533" lon="5.54051">
        <ele>504.2</ele>
        <time>2014-03-05T12:51:48Z</time>
      </trkpt>
      <trkpt lat="43.3353" lon="5.54046">
        <ele>503.7</ele>
        <time>2014-03-05T12:51:51Z</time>
      </trkpt>
      <trkpt lat="43.33527" lon="5.54043">
        <ele>503.6</ele>
        <time>2014-03-05T12:51:54Z</time>
      </trkpt>
      <trkpt lat="43.33524" lon="5.54041">
        <ele>503.7</ele>
        <time>2014-03-05T12:51:57Z</time>
      </trkpt>
      <trkpt lat="43.3352" lon="5.54039">
        <ele>504.6</ele>
        <time>2014-03-05T12:52:02Z</time>
      </trkpt>
      <trkpt lat="43.33516" lon="5.54038">
        <ele>504.2</ele>
        <time>2014-03-05T12:52:10Z</time>
      </trkpt>
      <trkpt lat="43.33512" lon="5.54038">
        <ele>503.6</ele>
        <time>2014-03-05T12:52:16Z</time>
      </trkpt>
      <trkpt lat="43.33508" lon="5.54035">
        <ele>500.1</ele>
        <time>2014-03-05T12:52:23Z</time>
      </trkpt>
      <trkpt lat="43.33505" lon="5.54031">
        <ele>499.7</ele>
        <time>2014-03-05T12:52:27Z</time>
      </trkpt>
      <trkpt lat="43.33503" lon="5.54027">
        <ele>498.7</ele>
        <time>2014-03-05T12:52:31Z</time>
      </trkpt>
      <trkpt lat="43.33502" lon="5.54023">
        <ele>501.1</ele>
        <time>2014-03-05T12:52:33Z</time>
      </trkpt>
      <trkpt lat="43.33501" lon="5.54019">
        <ele>503.1</ele>
        <time>2014-03-05T12:52:35Z</time>
      </trkpt>
      <trkpt lat="43.33501" lon="5.54014">
        <ele>503.5</ele>
        <time>2014-03-05T12:52:38Z</time>
      </trkpt>
      <trkpt lat="43.33501" lon="5.54009">
        <ele>502.5</ele>
        <time>2014-03-05T12:52:42Z</time>
      </trkpt>
      <trkpt lat="43.33501" lon="5.54008">
        <ele>502.2</ele>
        <time>2014-03-05T12:52:43Z</time>
      </trkpt>
      <trkpt lat="43.335" lon="5.53999">
        <ele>499.1</ele>
        <time>2014-03-05T12:52:50Z</time>
      </trkpt>
      <trkpt lat="43.33498" lon="5.53995">
        <ele>497.7</ele>
        <time>2014-03-05T12:52:54Z</time>
      </trkpt>
      <trkpt lat="43.33496" lon="5.53991">
        <ele>496.8</ele>
        <time>2014-03-05T12:52:57Z</time>
      </trkpt>
      <trkpt lat="43.33493" lon="5.53988">
        <ele>497</ele>
        <time>2014-03-05T12:53:00Z</time>
      </trkpt>
      <trkpt lat="43.3349" lon="5.53985">
        <ele>497.3</ele>
        <time>2014-03-05T12:53:03Z</time>
      </trkpt>
      <trkpt lat="43.33487" lon="5.53982">
        <ele>497.7</ele>
        <time>2014-03-05T12:53:06Z</time>
      </trkpt>
      <trkpt lat="43.33484" lon="5.53979">
        <ele>498</ele>
        <time>2014-03-05T12:53:09Z</time>
      </trkpt>
      <trkpt lat="43.3348" lon="5.53976">
        <ele>497.1</ele>
        <time>2014-03-05T12:53:13Z</time>
      </trkpt>
      <trkpt lat="43.33476" lon="5.53973">
        <ele>496.1</ele>
        <time>2014-03-05T12:53:17Z</time>
      </trkpt>
      <trkpt lat="43.33472" lon="5.5397">
        <ele>494.7</ele>
        <time>2014-03-05T12:53:21Z</time>
      </trkpt>
      <trkpt lat="43.33469" lon="5.53968">
        <ele>494.1</ele>
        <time>2014-03-05T12:53:24Z</time>
      </trkpt>
      <trkpt lat="43.33466" lon="5.53964">
        <ele>493</ele>
        <time>2014-03-05T12:53:28Z</time>
      </trkpt>
      <trkpt lat="43.33463" lon="5.53959">
        <ele>491.6</ele>
        <time>2014-03-05T12:53:32Z</time>
      </trkpt>
      <trkpt lat="43.3346" lon="5.53956">
        <ele>491.1</ele>
        <time>2014-03-05T12:53:35Z</time>
      </trkpt>
      <trkpt lat="43.33458" lon="5.53953">
        <ele>491</ele>
        <time>2014-03-05T12:53:38Z</time>
      </trkpt>
      <trkpt lat="43.33455" lon="5.53948">
        <ele>490</ele>
        <time>2014-03-05T12:53:42Z</time>
      </trkpt>
      <trkpt lat="43.33453" lon="5.53945">
        <ele>489.7</ele>
        <time>2014-03-05T12:53:45Z</time>
      </trkpt>
      <trkpt lat="43.33452" lon="5.53943">
        <ele>489.8</ele>
        <time>2014-03-05T12:53:46Z</time>
      </trkpt>
      <trkpt lat="43.33448" lon="5.53938">
        <ele>490.2</ele>
        <time>2014-03-05T12:53:51Z</time>
      </trkpt>
      <trkpt lat="43.33445" lon="5.53935">
        <ele>490.2</ele>
        <time>2014-03-05T12:53:54Z</time>
      </trkpt>
      <trkpt lat="43.33442" lon="5.53932">
        <ele>490</ele>
        <time>2014-03-05T12:53:57Z</time>
      </trkpt>
      <trkpt lat="43.3344" lon="5.53929">
        <ele>490.1</ele>
        <time>2014-03-05T12:54:00Z</time>
      </trkpt>
      <trkpt lat="43.33436" lon="5.53925">
        <ele>489.8</ele>
        <time>2014-03-05T12:54:04Z</time>
      </trkpt>
      <trkpt lat="43.33434" lon="5.53922">
        <ele>489.1</ele>
        <time>2014-03-05T12:54:08Z</time>
      </trkpt>
      <trkpt lat="43.3343" lon="5.53919">
        <ele>488.2</ele>
        <time>2014-03-05T12:54:12Z</time>
      </trkpt>
      <trkpt lat="43.33428" lon="5.53915">
        <ele>488.5</ele>
        <time>2014-03-05T12:54:15Z</time>
      </trkpt>
      <trkpt lat="43.33425" lon="5.53911">
        <ele>490.2</ele>
        <time>2014-03-05T12:54:18Z</time>
      </trkpt>
      <trkpt lat="43.33422" lon="5.53907">
        <ele>491.2</ele>
        <time>2014-03-05T12:54:22Z</time>
      </trkpt>
      <trkpt lat="43.3342" lon="5.53903">
        <ele>493.1</ele>
        <time>2014-03-05T12:54:26Z</time>
      </trkpt>
      <trkpt lat="43.33419" lon="5.53899">
        <ele>493.3</ele>
        <time>2014-03-05T12:54:28Z</time>
      </trkpt>
      <trkpt lat="43.33417" lon="5.53894">
        <ele>495.7</ele>
        <time>2014-03-05T12:54:31Z</time>
      </trkpt>
      <trkpt lat="43.33416" lon="5.53888">
        <ele>495.5</ele>
        <time>2014-03-05T12:54:35Z</time>
      </trkpt>
      <trkpt lat="43.33415" lon="5.53883">
        <ele>496.2</ele>
        <time>2014-03-05T12:54:38Z</time>
      </trkpt>
      <trkpt lat="43.33414" lon="5.53877">
        <ele>496.2</ele>
        <time>2014-03-05T12:54:42Z</time>
      </trkpt>
      <trkpt lat="43.33412" lon="5.53872">
        <ele>494.7</ele>
        <time>2014-03-05T12:54:46Z</time>
      </trkpt>
      <trkpt lat="43.33412" lon="5.53871">
        <ele>494.3</ele>
        <time>2014-03-05T12:54:47Z</time>
      </trkpt>
      <trkpt lat="43.33406" lon="5.53863">
        <ele>490.8</ele>
        <time>2014-03-05T12:54:55Z</time>
      </trkpt>
      <trkpt lat="43.33403" lon="5.53859">
        <ele>489.6</ele>
        <time>2014-03-05T12:54:59Z</time>
      </trkpt>
      <trkpt lat="43.33401" lon="5.53855">
        <ele>488.1</ele>
        <time>2014-03-05T12:55:03Z</time>
      </trkpt>
      <trkpt lat="43.33398" lon="5.53851">
        <ele>487.8</ele>
        <time>2014-03-05T12:55:06Z</time>
      </trkpt>
      <trkpt lat="43.33396" lon="5.53846">
        <ele>488.2</ele>
        <time>2014-03-05T12:55:09Z</time>
      </trkpt>
      <trkpt lat="43.33395" lon="5.53842">
        <ele>489.2</ele>
        <time>2014-03-05T12:55:11Z</time>
      </trkpt>
      <trkpt lat="43.33393" lon="5.53839">
        <ele>491.1</ele>
        <time>2014-03-05T12:55:13Z</time>
      </trkpt>
      <trkpt lat="43.33391" lon="5.53834">
        <ele>491.7</ele>
        <time>2014-03-05T12:55:16Z</time>
      </trkpt>
      <trkpt lat="43.33389" lon="5.53829">
        <ele>495.1</ele>
        <time>2014-03-05T12:55:18Z</time>
      </trkpt>
      <trkpt lat="43.33388" lon="5.53824">
        <ele>495.3</ele>
        <time>2014-03-05T12:55:21Z</time>
      </trkpt>
      <trkpt lat="43.33386" lon="5.53818">
        <ele>494.6</ele>
        <time>2014-03-05T12:55:25Z</time>
      </trkpt>
      <trkpt lat="43.33384" lon="5.53814">
        <ele>494.6</ele>
        <time>2014-03-05T12:55:28Z</time>
      </trkpt>
      <trkpt lat="43.33382" lon="5.5381">
        <ele>495.1</ele>
        <time>2014-03-05T12:55:31Z</time>
      </trkpt>
      <trkpt lat="43.3338" lon="5.53805">
        <ele>494.2</ele>
        <time>2014-03-05T12:55:35Z</time>
      </trkpt>
      <trkpt lat="43.33378" lon="5.53801">
        <ele>495.2</ele>
        <time>2014-03-05T12:55:38Z</time>
      </trkpt>
      <trkpt lat="43.33376" lon="5.53796">
        <ele>494.1</ele>
        <time>2014-03-05T12:55:42Z</time>
      </trkpt>
      <trkpt lat="43.33375" lon="5.53792">
        <ele>492.2</ele>
        <time>2014-03-05T12:55:46Z</time>
      </trkpt>
      <trkpt lat="43.33374" lon="5.53787">
        <ele>489.1</ele>
        <time>2014-03-05T12:55:50Z</time>
      </trkpt>
      <trkpt lat="43.33374" lon="5.53785">
        <ele>489.2</ele>
        <time>2014-03-05T12:55:51Z</time>
      </trkpt>
      <trkpt lat="43.33372" lon="5.53776">
        <ele>487</ele>
        <time>2014-03-05T12:55:57Z</time>
      </trkpt>
      <trkpt lat="43.33371" lon="5.53771">
        <ele>485.6</ele>
        <time>2014-03-05T12:56:01Z</time>
      </trkpt>
      <trkpt lat="43.3337" lon="5.53767">
        <ele>485.2</ele>
        <time>2014-03-05T12:56:04Z</time>
      </trkpt>
      <trkpt lat="43.33369" lon="5.53761">
        <ele>488.1</ele>
        <time>2014-03-05T12:56:33Z</time>
      </trkpt>
      <trkpt lat="43.33367" lon="5.53755">
        <ele>491.1</ele>
        <time>2014-03-05T12:56:41Z</time>
      </trkpt>
      <trkpt lat="43.33367" lon="5.5375">
        <ele>488.3</ele>
        <time>2014-03-05T12:56:46Z</time>
      </trkpt>
      <trkpt lat="43.33365" lon="5.53745">
        <ele>487.1</ele>
        <time>2014-03-05T12:56:50Z</time>
      </trkpt>
      <trkpt lat="43.33363" lon="5.5374">
        <ele>487.6</ele>
        <time>2014-03-05T12:56:53Z</time>
      </trkpt>
      <trkpt lat="43.33363" lon="5.53739">
        <ele>487.6</ele>
        <time>2014-03-05T12:56:54Z</time>
      </trkpt>
      <trkpt lat="43.3336" lon="5.53729">
        <ele>488.7</ele>
        <time>2014-03-05T12:57:12Z</time>
      </trkpt>
      <trkpt lat="43.33358" lon="5.53724">
        <ele>489</ele>
        <time>2014-03-05T12:57:24Z</time>
      </trkpt>
      <trkpt lat="43.33355" lon="5.5372">
        <ele>488</ele>
        <time>2014-03-05T12:57:30Z</time>
      </trkpt>
      <trkpt lat="43.33352" lon="5.53716">
        <ele>486.8</ele>
        <time>2014-03-05T12:57:35Z</time>
      </trkpt>
      <trkpt lat="43.3335" lon="5.53712">
        <ele>487.5</ele>
        <time>2014-03-05T12:57:38Z</time>
      </trkpt>
      <trkpt lat="43.33349" lon="5.53708">
        <ele>488.7</ele>
        <time>2014-03-05T12:57:40Z</time>
      </trkpt>
      <trkpt lat="43.33347" lon="5.53703">
        <ele>489.2</ele>
        <time>2014-03-05T12:57:44Z</time>
      </trkpt>
      <trkpt lat="43.33345" lon="5.53699">
        <ele>487.2</ele>
        <time>2014-03-05T12:57:49Z</time>
      </trkpt>
      <trkpt lat="43.33343" lon="5.53694">
        <ele>486.3</ele>
        <time>2014-03-05T12:57:53Z</time>
      </trkpt>
      <trkpt lat="43.33341" lon="5.5369">
        <ele>483.7</ele>
        <time>2014-03-05T12:57:58Z</time>
      </trkpt>
      <trkpt lat="43.33341" lon="5.53689">
        <ele>483.7</ele>
        <time>2014-03-05T12:57:59Z</time>
      </trkpt>
      <trkpt lat="43.33337" lon="5.53681">
        <ele>484.2</ele>
        <time>2014-03-05T12:58:08Z</time>
      </trkpt>
      <trkpt lat="43.33334" lon="5.53676">
        <ele>481.8</ele>
        <time>2014-03-05T12:58:13Z</time>
      </trkpt>
      <trkpt lat="43.33332" lon="5.53672">
        <ele>481.3</ele>
        <time>2014-03-05T12:58:16Z</time>
      </trkpt>
      <trkpt lat="43.3333" lon="5.53668">
        <ele>481.5</ele>
        <time>2014-03-05T12:58:19Z</time>
      </trkpt>
      <trkpt lat="43.33329" lon="5.53664">
        <ele>481.3</ele>
        <time>2014-03-05T12:58:22Z</time>
      </trkpt>
      <trkpt lat="43.33327" lon="5.53659">
        <ele>480.3</ele>
        <time>2014-03-05T12:58:26Z</time>
      </trkpt>
      <trkpt lat="43.33325" lon="5.53653">
        <ele>478.6</ele>
        <time>2014-03-05T12:58:32Z</time>
      </trkpt>
      <trkpt lat="43.33324" lon="5.53648">
        <ele>477.5</ele>
        <time>2014-03-05T12:58:37Z</time>
      </trkpt>
      <trkpt lat="43.33323" lon="5.53643">
        <ele>477.7</ele>
        <time>2014-03-05T12:58:41Z</time>
      </trkpt>
      <trkpt lat="43.33321" lon="5.53638">
        <ele>477.7</ele>
        <time>2014-03-05T12:58:45Z</time>
      </trkpt>
      <trkpt lat="43.33319" lon="5.53634">
        <ele>477.7</ele>
        <time>2014-03-05T12:58:48Z</time>
      </trkpt>
      <trkpt lat="43.33317" lon="5.5363">
        <ele>478.2</ele>
        <time>2014-03-05T12:58:51Z</time>
      </trkpt>
      <trkpt lat="43.33315" lon="5.53626">
        <ele>477.8</ele>
        <time>2014-03-05T12:58:54Z</time>
      </trkpt>
      <trkpt lat="43.33313" lon="5.53621">
        <ele>475.6</ele>
        <time>2014-03-05T12:58:59Z</time>
      </trkpt>
      <trkpt lat="43.33312" lon="5.53619">
        <ele>475.5</ele>
        <time>2014-03-05T12:59:00Z</time>
      </trkpt>
      <trkpt lat="43.33309" lon="5.53611">
        <ele>475.2</ele>
        <time>2014-03-05T12:59:06Z</time>
      </trkpt>
      <trkpt lat="43.33307" lon="5.53607">
        <ele>475</ele>
        <time>2014-03-05T12:59:09Z</time>
      </trkpt>
      <trkpt lat="43.33304" lon="5.53603">
        <ele>475.5</ele>
        <time>2014-03-05T12:59:12Z</time>
      </trkpt>
      <trkpt lat="43.33302" lon="5.536">
        <ele>475.6</ele>
        <time>2014-03-05T12:59:15Z</time>
      </trkpt>
      <trkpt lat="43.333" lon="5.53596">
        <ele>477.1</ele>
        <time>2014-03-05T12:59:17Z</time>
      </trkpt>
      <trkpt lat="43.33297" lon="5.53592">
        <ele>477.8</ele>
        <time>2014-03-05T12:59:22Z</time>
      </trkpt>
      <trkpt lat="43.33293" lon="5.53589">
        <ele>477.3</ele>
        <time>2014-03-05T12:59:28Z</time>
      </trkpt>
      <trkpt lat="43.3329" lon="5.53585">
        <ele>476.3</ele>
        <time>2014-03-05T12:59:35Z</time>
      </trkpt>
      <trkpt lat="43.33288" lon="5.5358">
        <ele>474.7</ele>
        <time>2014-03-05T12:59:41Z</time>
      </trkpt>
      <trkpt lat="43.33285" lon="5.53577">
        <ele>473.7</ele>
        <time>2014-03-05T12:59:45Z</time>
      </trkpt>
      <trkpt lat="43.33281" lon="5.53574">
        <ele>474</ele>
        <time>2014-03-05T12:59:49Z</time>
      </trkpt>
      <trkpt lat="43.33278" lon="5.53573">
        <ele>472.2</ele>
        <time>2014-03-05T12:59:53Z</time>
      </trkpt>
      <trkpt lat="43.33274" lon="5.53571">
        <ele>470.2</ele>
        <time>2014-03-05T12:59:57Z</time>
      </trkpt>
      <trkpt lat="43.33272" lon="5.53568">
        <ele>469.6</ele>
        <time>2014-03-05T13:00:00Z</time>
      </trkpt>
      <trkpt lat="43.3327" lon="5.53566">
        <ele>471.7</ele>
        <time>2014-03-05T13:00:01Z</time>
      </trkpt>
      <trkpt lat="43.33267" lon="5.5356">
        <ele>471.7</ele>
        <time>2014-03-05T13:00:06Z</time>
      </trkpt>
      <trkpt lat="43.33265" lon="5.53556">
        <ele>472.2</ele>
        <time>2014-03-05T13:00:09Z</time>
      </trkpt>
      <trkpt lat="43.33264" lon="5.53553">
        <ele>472.7</ele>
        <time>2014-03-05T13:00:11Z</time>
      </trkpt>
      <trkpt lat="43.33262" lon="5.5355">
        <ele>475.5</ele>
        <time>2014-03-05T13:00:12Z</time>
      </trkpt>
      <trkpt lat="43.3326" lon="5.53546">
        <ele>477.2</ele>
        <time>2014-03-05T13:00:14Z</time>
      </trkpt>
      <trkpt lat="43.33257" lon="5.53541">
        <ele>477.2</ele>
        <time>2014-03-05T13:00:18Z</time>
      </trkpt>
      <trkpt lat="43.33255" lon="5.53537">
        <ele>478.3</ele>
        <time>2014-03-05T13:00:21Z</time>
      </trkpt>
      <trkpt lat="43.33253" lon="5.53531">
        <ele>479.5</ele>
        <time>2014-03-05T13:00:24Z</time>
      </trkpt>
      <trkpt lat="43.33251" lon="5.53527">
        <ele>480.2</ele>
        <time>2014-03-05T13:00:27Z</time>
      </trkpt>
      <trkpt lat="43.33248" lon="5.53523">
        <ele>480.2</ele>
        <time>2014-03-05T13:00:31Z</time>
      </trkpt>
      <trkpt lat="43.33245" lon="5.53518">
        <ele>482</ele>
        <time>2014-03-05T13:00:35Z</time>
      </trkpt>
      <trkpt lat="43.33243" lon="5.53513">
        <ele>483.1</ele>
        <time>2014-03-05T13:00:40Z</time>
      </trkpt>
      <trkpt lat="43.33241" lon="5.53508">
        <ele>486.3</ele>
        <time>2014-03-05T13:02:35Z</time>
      </trkpt>
      <trkpt lat="43.33241" lon="5.53508">
        <ele>486.6</ele>
        <time>2014-03-05T13:02:36Z</time>
      </trkpt>
      <trkpt lat="43.33236" lon="5.53508">
        <ele>486.8</ele>
        <time>2014-03-05T13:03:41Z</time>
      </trkpt>
      <trkpt lat="43.33229" lon="5.53503">
        <ele>487.2</ele>
        <time>2014-03-05T13:03:56Z</time>
      </trkpt>
      <trkpt lat="43.33226" lon="5.53501">
        <ele>486.6</ele>
        <time>2014-03-05T13:04:02Z</time>
      </trkpt>
      <trkpt lat="43.33222" lon="5.53498">
        <ele>486</ele>
        <time>2014-03-05T13:04:09Z</time>
      </trkpt>
      <trkpt lat="43.33219" lon="5.53495">
        <ele>485</ele>
        <time>2014-03-05T13:04:14Z</time>
      </trkpt>
      <trkpt lat="43.33215" lon="5.53493">
        <ele>484.2</ele>
        <time>2014-03-05T13:04:19Z</time>
      </trkpt>
      <trkpt lat="43.3321" lon="5.53493">
        <ele>483.6</ele>
        <time>2014-03-05T13:04:26Z</time>
      </trkpt>
      <trkpt lat="43.33207" lon="5.53491">
        <ele>482.7</ele>
        <time>2014-03-05T13:04:34Z</time>
      </trkpt>
      <trkpt lat="43.33202" lon="5.53489">
        <ele>482.2</ele>
        <time>2014-03-05T13:04:40Z</time>
      </trkpt>
      <trkpt lat="43.33198" lon="5.53492">
        <ele>481.2</ele>
        <time>2014-03-05T13:04:46Z</time>
      </trkpt>
      <trkpt lat="43.33198" lon="5.53492">
        <ele>481.1</ele>
        <time>2014-03-05T13:04:47Z</time>
      </trkpt>
      <trkpt lat="43.33191" lon="5.53492">
        <ele>480</ele>
        <time>2014-03-05T13:04:56Z</time>
      </trkpt>
      <trkpt lat="43.33187" lon="5.53492">
        <ele>479.1</ele>
        <time>2014-03-05T13:05:01Z</time>
      </trkpt>
      <trkpt lat="43.33183" lon="5.53493">
        <ele>478.5</ele>
        <time>2014-03-05T13:05:06Z</time>
      </trkpt>
      <trkpt lat="43.33179" lon="5.53493">
        <ele>477.7</ele>
        <time>2014-03-05T13:05:11Z</time>
      </trkpt>
      <trkpt lat="43.33176" lon="5.5349">
        <ele>477.3</ele>
        <time>2014-03-05T13:05:15Z</time>
      </trkpt>
      <trkpt lat="43.33172" lon="5.53489">
        <ele>477</ele>
        <time>2014-03-05T13:05:19Z</time>
      </trkpt>
      <trkpt lat="43.33169" lon="5.53488">
        <ele>476.2</ele>
        <time>2014-03-05T13:05:24Z</time>
      </trkpt>
      <trkpt lat="43.33165" lon="5.53486">
        <ele>475.6</ele>
        <time>2014-03-05T13:05:28Z</time>
      </trkpt>
      <trkpt lat="43.33161" lon="5.53485">
        <ele>475.5</ele>
        <time>2014-03-05T13:05:32Z</time>
      </trkpt>
      <trkpt lat="43.33157" lon="5.53483">
        <ele>475.3</ele>
        <time>2014-03-05T13:05:36Z</time>
      </trkpt>
      <trkpt lat="43.33157" lon="5.53488">
        <ele>470.8</ele>
        <time>2014-03-05T13:05:53Z</time>
      </trkpt>
      <trkpt lat="43.33158" lon="5.53489">
        <ele>471.2</ele>
        <time>2014-03-05T13:05:54Z</time>
      </trkpt>
      <trkpt lat="43.33158" lon="5.53488">
        <ele>469.1</ele>
        <time>2014-03-05T13:06:23Z</time>
      </trkpt>
      <trkpt lat="43.33156" lon="5.53486">
        <ele>467.7</ele>
        <time>2014-03-05T13:06:25Z</time>
      </trkpt>
      <trkpt lat="43.33152" lon="5.53484">
        <ele>466.6</ele>
        <time>2014-03-05T13:06:28Z</time>
      </trkpt>
      <trkpt lat="43.33148" lon="5.53483">
        <ele>465.6</ele>
        <time>2014-03-05T13:06:31Z</time>
      </trkpt>
      <trkpt lat="43.33144" lon="5.53483">
        <ele>464.7</ele>
        <time>2014-03-05T13:06:34Z</time>
      </trkpt>
      <trkpt lat="43.3314" lon="5.53483">
        <ele>464.1</ele>
        <time>2014-03-05T13:06:37Z</time>
      </trkpt>
      <trkpt lat="43.33136" lon="5.53484">
        <ele>463</ele>
        <time>2014-03-05T13:06:41Z</time>
      </trkpt>
      <trkpt lat="43.33132" lon="5.53483">
        <ele>463.2</ele>
        <time>2014-03-05T13:06:44Z</time>
      </trkpt>
      <trkpt lat="43.33128" lon="5.53482">
        <ele>463</ele>
        <time>2014-03-05T13:06:47Z</time>
      </trkpt>
      <trkpt lat="43.33125" lon="5.53482">
        <ele>463</ele>
        <time>2014-03-05T13:06:49Z</time>
      </trkpt>
      <trkpt lat="43.3312" lon="5.53482">
        <ele>462.7</ele>
        <time>2014-03-05T13:06:52Z</time>
      </trkpt>
      <trkpt lat="43.33116" lon="5.53483">
        <ele>462.2</ele>
        <time>2014-03-05T13:06:56Z</time>
      </trkpt>
      <trkpt lat="43.33115" lon="5.53482">
        <ele>462.1</ele>
        <time>2014-03-05T13:06:57Z</time>
      </trkpt>
      <trkpt lat="43.3311" lon="5.53478">
        <ele>460.1</ele>
        <time>2014-03-05T13:07:02Z</time>
      </trkpt>
      <trkpt lat="43.33107" lon="5.53476">
        <ele>460.3</ele>
        <time>2014-03-05T13:07:04Z</time>
      </trkpt>
      <trkpt lat="43.33103" lon="5.53476">
        <ele>459.8</ele>
        <time>2014-03-05T13:07:07Z</time>
      </trkpt>
      <trkpt lat="43.331" lon="5.53475">
        <ele>459.5</ele>
        <time>2014-03-05T13:07:10Z</time>
      </trkpt>
      <trkpt lat="43.33096" lon="5.53475">
        <ele>459.2</ele>
        <time>2014-03-05T13:07:13Z</time>
      </trkpt>
      <trkpt lat="43.33092" lon="5.53477">
        <ele>458.3</ele>
        <time>2014-03-05T13:07:19Z</time>
      </trkpt>
      <trkpt lat="43.33088" lon="5.53478">
        <ele>458.2</ele>
        <time>2014-03-05T13:07:25Z</time>
      </trkpt>
      <trkpt lat="43.33083" lon="5.53479">
        <ele>457.8</ele>
        <time>2014-03-05T13:07:30Z</time>
      </trkpt>
      <trkpt lat="43.33079" lon="5.53477">
        <ele>457</ele>
        <time>2014-03-05T13:07:38Z</time>
      </trkpt>
      <trkpt lat="43.33075" lon="5.53477">
        <ele>457</ele>
        <time>2014-03-05T13:07:41Z</time>
      </trkpt>
      <trkpt lat="43.33072" lon="5.53477">
        <ele>456.2</ele>
        <time>2014-03-05T13:07:44Z</time>
      </trkpt>
      <trkpt lat="43.33068" lon="5.53475">
        <ele>455.7</ele>
        <time>2014-03-05T13:07:47Z</time>
      </trkpt>
      <trkpt lat="43.33065" lon="5.53473">
        <ele>451.8</ele>
        <time>2014-03-05T13:07:52Z</time>
      </trkpt>
      <trkpt lat="43.33062" lon="5.5347">
        <ele>451.6</ele>
        <time>2014-03-05T13:07:55Z</time>
      </trkpt>
      <trkpt lat="43.33058" lon="5.53468">
        <ele>449.3</ele>
        <time>2014-03-05T13:08:04Z</time>
      </trkpt>
      <trkpt lat="43.33058" lon="5.53467">
        <ele>449.1</ele>
        <time>2014-03-05T13:08:05Z</time>
      </trkpt>
      <trkpt lat="43.33052" lon="5.53462">
        <ele>446.5</ele>
        <time>2014-03-05T13:08:14Z</time>
      </trkpt>
      <trkpt lat="43.3305" lon="5.53457">
        <ele>447.5</ele>
        <time>2014-03-05T13:08:17Z</time>
      </trkpt>
      <trkpt lat="43.33048" lon="5.53452">
        <ele>448.2</ele>
        <time>2014-03-05T13:08:20Z</time>
      </trkpt>
      <trkpt lat="43.33045" lon="5.53448">
        <ele>448.6</ele>
        <time>2014-03-05T13:08:23Z</time>
      </trkpt>
      <trkpt lat="43.33043" lon="5.53444">
        <ele>449</ele>
        <time>2014-03-05T13:08:26Z</time>
      </trkpt>
      <trkpt lat="43.3304" lon="5.5344">
        <ele>449.2</ele>
        <time>2014-03-05T13:08:29Z</time>
      </trkpt>
      <trkpt lat="43.33038" lon="5.53436">
        <ele>449.6</ele>
        <time>2014-03-05T13:08:32Z</time>
      </trkpt>
      <trkpt lat="43.33035" lon="5.53433">
        <ele>449.7</ele>
        <time>2014-03-05T13:08:35Z</time>
      </trkpt>
      <trkpt lat="43.33033" lon="5.53429">
        <ele>450</ele>
        <time>2014-03-05T13:08:38Z</time>
      </trkpt>
      <trkpt lat="43.3303" lon="5.53425">
        <ele>450.2</ele>
        <time>2014-03-05T13:08:41Z</time>
      </trkpt>
      <trkpt lat="43.33027" lon="5.53422">
        <ele>450.3</ele>
        <time>2014-03-05T13:08:44Z</time>
      </trkpt>
      <trkpt lat="43.33024" lon="5.53418">
        <ele>450.5</ele>
        <time>2014-03-05T13:08:47Z</time>
      </trkpt>
      <trkpt lat="43.33021" lon="5.53414">
        <ele>451.1</ele>
        <time>2014-03-05T13:08:50Z</time>
      </trkpt>
      <trkpt lat="43.33018" lon="5.53411">
        <ele>451.7</ele>
        <time>2014-03-05T13:08:53Z</time>
      </trkpt>
      <trkpt lat="43.33015" lon="5.53408">
        <ele>452.1</ele>
        <time>2014-03-05T13:08:56Z</time>
      </trkpt>
      <trkpt lat="43.33012" lon="5.53404">
        <ele>451.7</ele>
        <time>2014-03-05T13:08:59Z</time>
      </trkpt>
      <trkpt lat="43.3301" lon="5.534">
        <ele>449.8</ele>
        <time>2014-03-05T13:09:04Z</time>
      </trkpt>
      <trkpt lat="43.33008" lon="5.53395">
        <ele>447.5</ele>
        <time>2014-03-05T13:09:09Z</time>
      </trkpt>
      <trkpt lat="43.33008" lon="5.53394">
        <ele>446.8</ele>
        <time>2014-03-05T13:09:10Z</time>
      </trkpt>
      <trkpt lat="43.33007" lon="5.53385">
        <ele>444.8</ele>
        <time>2014-03-05T13:09:17Z</time>
      </trkpt>
      <trkpt lat="43.33008" lon="5.53379">
        <ele>443.8</ele>
        <time>2014-03-05T13:09:21Z</time>
      </trkpt>
      <trkpt lat="43.33006" lon="5.53374">
        <ele>444.2</ele>
        <time>2014-03-05T13:09:25Z</time>
      </trkpt>
      <trkpt lat="43.33004" lon="5.5337">
        <ele>444.2</ele>
        <time>2014-03-05T13:09:28Z</time>
      </trkpt>
      <trkpt lat="43.33002" lon="5.53365">
        <ele>444.6</ele>
        <time>2014-03-05T13:09:32Z</time>
      </trkpt>
      <trkpt lat="43.32999" lon="5.53361">
        <ele>445</ele>
        <time>2014-03-05T13:09:36Z</time>
      </trkpt>
      <trkpt lat="43.32998" lon="5.53355">
        <ele>442.1</ele>
        <time>2014-03-05T13:09:43Z</time>
      </trkpt>
      <trkpt lat="43.32996" lon="5.5335">
        <ele>441.2</ele>
        <time>2014-03-05T13:09:49Z</time>
      </trkpt>
      <trkpt lat="43.32994" lon="5.53345">
        <ele>440.8</ele>
        <time>2014-03-05T13:09:55Z</time>
      </trkpt>
      <trkpt lat="43.32992" lon="5.53339">
        <ele>439.7</ele>
        <time>2014-03-05T13:10:02Z</time>
      </trkpt>
      <trkpt lat="43.3299" lon="5.53335">
        <ele>439.2</ele>
        <time>2014-03-05T13:10:07Z</time>
      </trkpt>
      <trkpt lat="43.32987" lon="5.53331">
        <ele>439.2</ele>
        <time>2014-03-05T13:10:12Z</time>
      </trkpt>
      <trkpt lat="43.32986" lon="5.5333">
        <ele>439</ele>
        <time>2014-03-05T13:10:13Z</time>
      </trkpt>
      <trkpt lat="43.32982" lon="5.53322">
        <ele>438.1</ele>
        <time>2014-03-05T13:10:25Z</time>
      </trkpt>
      <trkpt lat="43.32979" lon="5.53318">
        <ele>437.7</ele>
        <time>2014-03-05T13:10:30Z</time>
      </trkpt>
      <trkpt lat="43.32976" lon="5.53313">
        <ele>435.8</ele>
        <time>2014-03-05T13:10:35Z</time>
      </trkpt>
      <trkpt lat="43.32974" lon="5.53309">
        <ele>435.2</ele>
        <time>2014-03-05T13:10:39Z</time>
      </trkpt>
      <trkpt lat="43.32972" lon="5.53304">
        <ele>434.7</ele>
        <time>2014-03-05T13:10:43Z</time>
      </trkpt>
      <trkpt lat="43.3297" lon="5.533">
        <ele>434.6</ele>
        <time>2014-03-05T13:10:46Z</time>
      </trkpt>
      <trkpt lat="43.32968" lon="5.53295">
        <ele>433.8</ele>
        <time>2014-03-05T13:10:50Z</time>
      </trkpt>
      <trkpt lat="43.32966" lon="5.53291">
        <ele>433.7</ele>
        <time>2014-03-05T13:10:54Z</time>
      </trkpt>
      <trkpt lat="43.32964" lon="5.53286">
        <ele>433.6</ele>
        <time>2014-03-05T13:10:58Z</time>
      </trkpt>
      <trkpt lat="43.32961" lon="5.53282">
        <ele>434</ele>
        <time>2014-03-05T13:11:01Z</time>
      </trkpt>
      <trkpt lat="43.32959" lon="5.53279">
        <ele>434.3</ele>
        <time>2014-03-05T13:11:04Z</time>
      </trkpt>
      <trkpt lat="43.32957" lon="5.53275">
        <ele>434</ele>
        <time>2014-03-05T13:11:07Z</time>
      </trkpt>
      <trkpt lat="43.32955" lon="5.53271">
        <ele>433.7</ele>
        <time>2014-03-05T13:11:10Z</time>
      </trkpt>
      <trkpt lat="43.32953" lon="5.53266">
        <ele>434.1</ele>
        <time>2014-03-05T13:11:13Z</time>
      </trkpt>
      <trkpt lat="43.32952" lon="5.53265">
        <ele>434.2</ele>
        <time>2014-03-05T13:11:14Z</time>
      </trkpt>
      <trkpt lat="43.3295" lon="5.53257">
        <ele>432.3</ele>
        <time>2014-03-05T13:11:20Z</time>
      </trkpt>
      <trkpt lat="43.32948" lon="5.53252">
        <ele>431.2</ele>
        <time>2014-03-05T13:11:24Z</time>
      </trkpt>
      <trkpt lat="43.32946" lon="5.53248">
        <ele>430.7</ele>
        <time>2014-03-05T13:11:27Z</time>
      </trkpt>
      <trkpt lat="43.32944" lon="5.53244">
        <ele>431</ele>
        <time>2014-03-05T13:11:30Z</time>
      </trkpt>
      <trkpt lat="43.32942" lon="5.5324">
        <ele>431.2</ele>
        <time>2014-03-05T13:11:33Z</time>
      </trkpt>
      <trkpt lat="43.3294" lon="5.53235">
        <ele>431.2</ele>
        <time>2014-03-05T13:11:36Z</time>
      </trkpt>
      <trkpt lat="43.32937" lon="5.53231">
        <ele>431.2</ele>
        <time>2014-03-05T13:11:39Z</time>
      </trkpt>
      <trkpt lat="43.32935" lon="5.53227">
        <ele>430.3</ele>
        <time>2014-03-05T13:11:43Z</time>
      </trkpt>
      <trkpt lat="43.32933" lon="5.53223">
        <ele>430.1</ele>
        <time>2014-03-05T13:11:46Z</time>
      </trkpt>
      <trkpt lat="43.32931" lon="5.53218">
        <ele>429.2</ele>
        <time>2014-03-05T13:11:50Z</time>
      </trkpt>
      <trkpt lat="43.32929" lon="5.53213">
        <ele>429</ele>
        <time>2014-03-05T13:11:54Z</time>
      </trkpt>
      <trkpt lat="43.32926" lon="5.53208">
        <ele>429</ele>
        <time>2014-03-05T13:11:58Z</time>
      </trkpt>
      <trkpt lat="43.32925" lon="5.53204">
        <ele>428.8</ele>
        <time>2014-03-05T13:12:01Z</time>
      </trkpt>
      <trkpt lat="43.32922" lon="5.53201">
        <ele>428.7</ele>
        <time>2014-03-05T13:12:04Z</time>
      </trkpt>
      <trkpt lat="43.32919" lon="5.53197">
        <ele>429.2</ele>
        <time>2014-03-05T13:12:07Z</time>
      </trkpt>
      <trkpt lat="43.32916" lon="5.53195">
        <ele>429.8</ele>
        <time>2014-03-05T13:12:10Z</time>
      </trkpt>
      <trkpt lat="43.32913" lon="5.53194">
        <ele>429.8</ele>
        <time>2014-03-05T13:12:13Z</time>
      </trkpt>
      <trkpt lat="43.32909" lon="5.53191">
        <ele>430</ele>
        <time>2014-03-05T13:12:16Z</time>
      </trkpt>
      <trkpt lat="43.32908" lon="5.5319">
        <ele>429.8</ele>
        <time>2014-03-05T13:12:17Z</time>
      </trkpt>
      <trkpt lat="43.32903" lon="5.53185">
        <ele>429.5</ele>
        <time>2014-03-05T13:12:22Z</time>
      </trkpt>
      <trkpt lat="43.329" lon="5.53182">
        <ele>429</ele>
        <time>2014-03-05T13:12:26Z</time>
      </trkpt>
      <trkpt lat="43.32897" lon="5.53179">
        <ele>427.8</ele>
        <time>2014-03-05T13:12:31Z</time>
      </trkpt>
      <trkpt lat="43.32899" lon="5.53174">
        <ele>420.3</ele>
        <time>2014-03-05T13:12:39Z</time>
      </trkpt>
      <trkpt lat="43.32896" lon="5.53171">
        <ele>420.8</ele>
        <time>2014-03-05T13:12:42Z</time>
      </trkpt>
      <trkpt lat="43.32893" lon="5.53168">
        <ele>421.2</ele>
        <time>2014-03-05T13:12:45Z</time>
      </trkpt>
      <trkpt lat="43.3289" lon="5.53164">
        <ele>421.2</ele>
        <time>2014-03-05T13:12:49Z</time>
      </trkpt>
      <trkpt lat="43.32888" lon="5.53159">
        <ele>418.7</ele>
        <time>2014-03-05T13:12:54Z</time>
      </trkpt>
      <trkpt lat="43.32885" lon="5.53156">
        <ele>418.7</ele>
        <time>2014-03-05T13:12:57Z</time>
      </trkpt>
      <trkpt lat="43.32882" lon="5.53153">
        <ele>419.2</ele>
        <time>2014-03-05T13:13:00Z</time>
      </trkpt>
      <trkpt lat="43.32879" lon="5.53149">
        <ele>419.2</ele>
        <time>2014-03-05T13:13:04Z</time>
      </trkpt>
      <trkpt lat="43.32876" lon="5.53146">
        <ele>419.3</ele>
        <time>2014-03-05T13:13:08Z</time>
      </trkpt>
      <trkpt lat="43.32878" lon="5.53141">
        <ele>411.6</ele>
        <time>2014-03-05T13:13:19Z</time>
      </trkpt>
      <trkpt lat="43.32877" lon="5.53139">
        <ele>411.7</ele>
        <time>2014-03-05T13:13:20Z</time>
      </trkpt>
      <trkpt lat="43.32875" lon="5.53131">
        <ele>408.7</ele>
        <time>2014-03-05T13:13:31Z</time>
      </trkpt>
      <trkpt lat="43.32874" lon="5.53126">
        <ele>407.7</ele>
        <time>2014-03-05T13:13:37Z</time>
      </trkpt>
      <trkpt lat="43.32872" lon="5.53122">
        <ele>407.2</ele>
        <time>2014-03-05T13:13:41Z</time>
      </trkpt>
      <trkpt lat="43.32868" lon="5.53118">
        <ele>407</ele>
        <time>2014-03-05T13:13:45Z</time>
      </trkpt>
      <trkpt lat="43.32865" lon="5.53116">
        <ele>406.7</ele>
        <time>2014-03-05T13:13:49Z</time>
      </trkpt>
      <trkpt lat="43.32861" lon="5.53112">
        <ele>406.3</ele>
        <time>2014-03-05T13:13:54Z</time>
      </trkpt>
      <trkpt lat="43.32859" lon="5.53108">
        <ele>405.5</ele>
        <time>2014-03-05T13:14:03Z</time>
      </trkpt>
      <trkpt lat="43.32858" lon="5.53102">
        <ele>403.7</ele>
        <time>2014-03-05T13:14:09Z</time>
      </trkpt>
      <trkpt lat="43.32857" lon="5.53097">
        <ele>403</ele>
        <time>2014-03-05T13:14:16Z</time>
      </trkpt>
      <trkpt lat="43.32855" lon="5.53092">
        <ele>402.3</ele>
        <time>2014-03-05T13:14:22Z</time>
      </trkpt>
      <trkpt lat="43.32855" lon="5.53091">
        <ele>402.2</ele>
        <time>2014-03-05T13:14:23Z</time>
      </trkpt>
      <trkpt lat="43.32853" lon="5.53081">
        <ele>400.2</ele>
        <time>2014-03-05T13:14:37Z</time>
      </trkpt>
      <trkpt lat="43.32852" lon="5.53075">
        <ele>398.3</ele>
        <time>2014-03-05T13:14:45Z</time>
      </trkpt>
      <trkpt lat="43.32851" lon="5.5307">
        <ele>397.1</ele>
        <time>2014-03-05T13:14:51Z</time>
      </trkpt>
      <trkpt lat="43.32849" lon="5.53065">
        <ele>396.5</ele>
        <time>2014-03-05T13:14:57Z</time>
      </trkpt>
      <trkpt lat="43.32845" lon="5.53062">
        <ele>396.2</ele>
        <time>2014-03-05T13:15:01Z</time>
      </trkpt>
      <trkpt lat="43.32842" lon="5.5306">
        <ele>396.2</ele>
        <time>2014-03-05T13:15:05Z</time>
      </trkpt>
      <trkpt lat="43.32839" lon="5.53055">
        <ele>395.5</ele>
        <time>2014-03-05T13:15:11Z</time>
      </trkpt>
      <trkpt lat="43.32836" lon="5.53051">
        <ele>394.6</ele>
        <time>2014-03-05T13:15:18Z</time>
      </trkpt>
      <trkpt lat="43.32833" lon="5.53046">
        <ele>393.6</ele>
        <time>2014-03-05T13:15:25Z</time>
      </trkpt>
      <trkpt lat="43.32833" lon="5.53046">
        <ele>393.5</ele>
        <time>2014-03-05T13:15:26Z</time>
      </trkpt>
      <trkpt lat="43.32828" lon="5.53037">
        <ele>392.3</ele>
        <time>2014-03-05T13:15:36Z</time>
      </trkpt>
      <trkpt lat="43.32825" lon="5.53034">
        <ele>392.2</ele>
        <time>2014-03-05T13:15:39Z</time>
      </trkpt>
      <trkpt lat="43.32822" lon="5.53032">
        <ele>392.1</ele>
        <time>2014-03-05T13:15:42Z</time>
      </trkpt>
      <trkpt lat="43.32819" lon="5.5303">
        <ele>392</ele>
        <time>2014-03-05T13:15:45Z</time>
      </trkpt>
      <trkpt lat="43.32815" lon="5.53028">
        <ele>389.8</ele>
        <time>2014-03-05T13:15:50Z</time>
      </trkpt>
      <trkpt lat="43.32812" lon="5.53025">
        <ele>389.2</ele>
        <time>2014-03-05T13:15:56Z</time>
      </trkpt>
      <trkpt lat="43.32811" lon="5.53019">
        <ele>386.2</ele>
        <time>2014-03-05T13:16:04Z</time>
      </trkpt>
      <trkpt lat="43.32809" lon="5.53014">
        <ele>386</ele>
        <time>2014-03-05T13:16:09Z</time>
      </trkpt>
      <trkpt lat="43.32807" lon="5.5301">
        <ele>385.8</ele>
        <time>2014-03-05T13:16:14Z</time>
      </trkpt>
      <trkpt lat="43.32804" lon="5.53005">
        <ele>384.6</ele>
        <time>2014-03-05T13:16:21Z</time>
      </trkpt>
      <trkpt lat="43.32802" lon="5.53">
        <ele>383.8</ele>
        <time>2014-03-05T13:16:28Z</time>
      </trkpt>
      <trkpt lat="43.32802" lon="5.52999">
        <ele>383.7</ele>
        <time>2014-03-05T13:16:29Z</time>
      </trkpt>
      <trkpt lat="43.32798" lon="5.5299">
        <ele>383</ele>
        <time>2014-03-05T13:16:38Z</time>
      </trkpt>
      <trkpt lat="43.32795" lon="5.52987">
        <ele>382.7</ele>
        <time>2014-03-05T13:16:42Z</time>
      </trkpt>
      <trkpt lat="43.32792" lon="5.52984">
        <ele>382.3</ele>
        <time>2014-03-05T13:16:46Z</time>
      </trkpt>
      <trkpt lat="43.32789" lon="5.5298">
        <ele>382</ele>
        <time>2014-03-05T13:16:52Z</time>
      </trkpt>
      <trkpt lat="43.32786" lon="5.52976">
        <ele>381.1</ele>
        <time>2014-03-05T13:16:59Z</time>
      </trkpt>
      <trkpt lat="43.32785" lon="5.5297">
        <ele>378.7</ele>
        <time>2014-03-05T13:17:09Z</time>
      </trkpt>
      <trkpt lat="43.32783" lon="5.52966">
        <ele>377.7</ele>
        <time>2014-03-05T13:17:15Z</time>
      </trkpt>
      <trkpt lat="43.32781" lon="5.5296">
        <ele>376.7</ele>
        <time>2014-03-05T13:17:22Z</time>
      </trkpt>
      <trkpt lat="43.3278" lon="5.52955">
        <ele>375.1</ele>
        <time>2014-03-05T13:17:29Z</time>
      </trkpt>
      <trkpt lat="43.3278" lon="5.52954">
        <ele>374.8</ele>
        <time>2014-03-05T13:17:30Z</time>
      </trkpt>
      <trkpt lat="43.32775" lon="5.52947">
        <ele>373.7</ele>
        <time>2014-03-05T13:17:37Z</time>
      </trkpt>
      <trkpt lat="43.32772" lon="5.52943">
        <ele>373.2</ele>
        <time>2014-03-05T13:17:41Z</time>
      </trkpt>
      <trkpt lat="43.3277" lon="5.5294">
        <ele>372.3</ele>
        <time>2014-03-05T13:17:45Z</time>
      </trkpt>
      <trkpt lat="43.32767" lon="5.52935">
        <ele>371.7</ele>
        <time>2014-03-05T13:17:50Z</time>
      </trkpt>
      <trkpt lat="43.32764" lon="5.5293">
        <ele>370.5</ele>
        <time>2014-03-05T13:17:55Z</time>
      </trkpt>
      <trkpt lat="43.32762" lon="5.52926">
        <ele>369.8</ele>
        <time>2014-03-05T13:17:59Z</time>
      </trkpt>
      <trkpt lat="43.32759" lon="5.52922">
        <ele>369.3</ele>
        <time>2014-03-05T13:18:03Z</time>
      </trkpt>
      <trkpt lat="43.32756" lon="5.52919">
        <ele>368.7</ele>
        <time>2014-03-05T13:18:06Z</time>
      </trkpt>
      <trkpt lat="43.32754" lon="5.52915">
        <ele>367.7</ele>
        <time>2014-03-05T13:18:10Z</time>
      </trkpt>
      <trkpt lat="43.32754" lon="5.52909">
        <ele>366.1</ele>
        <time>2014-03-05T13:18:15Z</time>
      </trkpt>
      <trkpt lat="43.32752" lon="5.52904">
        <ele>365.5</ele>
        <time>2014-03-05T13:18:20Z</time>
      </trkpt>
      <trkpt lat="43.3275" lon="5.529">
        <ele>364.6</ele>
        <time>2014-03-05T13:18:23Z</time>
      </trkpt>
      <trkpt lat="43.32747" lon="5.52895">
        <ele>364.2</ele>
        <time>2014-03-05T13:18:27Z</time>
      </trkpt>
      <trkpt lat="43.32745" lon="5.52891">
        <ele>363.8</ele>
        <time>2014-03-05T13:18:31Z</time>
      </trkpt>
      <trkpt lat="43.32745" lon="5.5289">
        <ele>363.7</ele>
        <time>2014-03-05T13:18:32Z</time>
      </trkpt>
      <trkpt lat="43.32739" lon="5.52885">
        <ele>363.2</ele>
        <time>2014-03-05T13:18:40Z</time>
      </trkpt>
      <trkpt lat="43.32735" lon="5.52885">
        <ele>356.7</ele>
        <time>2014-03-05T13:19:20Z</time>
      </trkpt>
      <trkpt lat="43.32731" lon="5.52882">
        <ele>357.7</ele>
        <time>2014-03-05T13:19:28Z</time>
      </trkpt>
      <trkpt lat="43.32728" lon="5.52879">
        <ele>357.5</ele>
        <time>2014-03-05T13:19:33Z</time>
      </trkpt>
      <trkpt lat="43.32728" lon="5.52878">
        <ele>357.5</ele>
        <time>2014-03-05T13:19:34Z</time>
      </trkpt>
      <trkpt lat="43.32722" lon="5.52874">
        <ele>356.7</ele>
        <time>2014-03-05T13:19:41Z</time>
      </trkpt>
      <trkpt lat="43.32719" lon="5.52872">
        <ele>357</ele>
        <time>2014-03-05T13:19:45Z</time>
      </trkpt>
      <trkpt lat="43.32715" lon="5.52869">
        <ele>357.2</ele>
        <time>2014-03-05T13:19:48Z</time>
      </trkpt>
      <trkpt lat="43.32712" lon="5.52867">
        <ele>357.3</ele>
        <time>2014-03-05T13:19:51Z</time>
      </trkpt>
      <trkpt lat="43.32709" lon="5.52864">
        <ele>357.2</ele>
        <time>2014-03-05T13:19:54Z</time>
      </trkpt>
      <trkpt lat="43.32706" lon="5.52861">
        <ele>357.3</ele>
        <time>2014-03-05T13:19:58Z</time>
      </trkpt>
      <trkpt lat="43.32702" lon="5.52858">
        <ele>357.7</ele>
        <time>2014-03-05T13:20:03Z</time>
      </trkpt>
      <trkpt lat="43.32699" lon="5.52855">
        <ele>358</ele>
        <time>2014-03-05T13:20:08Z</time>
      </trkpt>
      <trkpt lat="43.32696" lon="5.52853">
        <ele>358.7</ele>
        <time>2014-03-05T13:20:12Z</time>
      </trkpt>
      <trkpt lat="43.32692" lon="5.5285">
        <ele>359.5</ele>
        <time>2014-03-05T13:20:16Z</time>
      </trkpt>
      <trkpt lat="43.32689" lon="5.52846">
        <ele>359.7</ele>
        <time>2014-03-05T13:20:20Z</time>
      </trkpt>
      <trkpt lat="43.32686" lon="5.52843">
        <ele>360.1</ele>
        <time>2014-03-05T13:20:24Z</time>
      </trkpt>
      <trkpt lat="43.32683" lon="5.5284">
        <ele>360.2</ele>
        <time>2014-03-05T13:20:27Z</time>
      </trkpt>
      <trkpt lat="43.3268" lon="5.52838">
        <ele>360.6</ele>
        <time>2014-03-05T13:20:30Z</time>
      </trkpt>
      <trkpt lat="43.32677" lon="5.52834">
        <ele>360.7</ele>
        <time>2014-03-05T13:20:34Z</time>
      </trkpt>
      <trkpt lat="43.32676" lon="5.52833">
        <ele>360.7</ele>
        <time>2014-03-05T13:20:35Z</time>
      </trkpt>
      <trkpt lat="43.3267" lon="5.52828">
        <ele>361.2</ele>
        <time>2014-03-05T13:20:41Z</time>
      </trkpt>
      <trkpt lat="43.32667" lon="5.52825">
        <ele>361.2</ele>
        <time>2014-03-05T13:20:44Z</time>
      </trkpt>
      <trkpt lat="43.32665" lon="5.52821">
        <ele>361.1</ele>
        <time>2014-03-05T13:20:48Z</time>
      </trkpt>
      <trkpt lat="43.32663" lon="5.52817">
        <ele>360.7</ele>
        <time>2014-03-05T13:20:52Z</time>
      </trkpt>
      <trkpt lat="43.3266" lon="5.52812">
        <ele>359.7</ele>
        <time>2014-03-05T13:20:57Z</time>
      </trkpt>
      <trkpt lat="43.32657" lon="5.52808">
        <ele>359.3</ele>
        <time>2014-03-05T13:21:01Z</time>
      </trkpt>
      <trkpt lat="43.32654" lon="5.52805">
        <ele>359</ele>
        <time>2014-03-05T13:21:05Z</time>
      </trkpt>
      <trkpt lat="43.3265" lon="5.52801">
        <ele>358.8</ele>
        <time>2014-03-05T13:21:09Z</time>
      </trkpt>
      <trkpt lat="43.32647" lon="5.52799">
        <ele>358.8</ele>
        <time>2014-03-05T13:21:12Z</time>
      </trkpt>
      <trkpt lat="43.32644" lon="5.52797">
        <ele>359</ele>
        <time>2014-03-05T13:21:15Z</time>
      </trkpt>
      <trkpt lat="43.3264" lon="5.52794">
        <ele>359.2</ele>
        <time>2014-03-05T13:21:19Z</time>
      </trkpt>
      <trkpt lat="43.32637" lon="5.52792">
        <ele>359.5</ele>
        <time>2014-03-05T13:21:22Z</time>
      </trkpt>
      <trkpt lat="43.32634" lon="5.52789">
        <ele>359.7</ele>
        <time>2014-03-05T13:21:26Z</time>
      </trkpt>
      <trkpt lat="43.32631" lon="5.52787">
        <ele>360</ele>
        <time>2014-03-05T13:21:29Z</time>
      </trkpt>
      <trkpt lat="43.32628" lon="5.52783">
        <ele>359.7</ele>
        <time>2014-03-05T13:21:33Z</time>
      </trkpt>
      <trkpt lat="43.32624" lon="5.5278">
        <ele>359.6</ele>
        <time>2014-03-05T13:21:37Z</time>
      </trkpt>
      <trkpt lat="43.32624" lon="5.5278">
        <ele>359.5</ele>
        <time>2014-03-05T13:21:38Z</time>
      </trkpt>
      <trkpt lat="43.32619" lon="5.52774">
        <ele>359.3</ele>
        <time>2014-03-05T13:21:45Z</time>
      </trkpt>
      <trkpt lat="43.32616" lon="5.5277">
        <ele>359</ele>
        <time>2014-03-05T13:21:49Z</time>
      </trkpt>
      <trkpt lat="43.32613" lon="5.52767">
        <ele>358.5</ele>
        <time>2014-03-05T13:21:53Z</time>
      </trkpt>
      <trkpt lat="43.3261" lon="5.52762">
        <ele>358.1</ele>
        <time>2014-03-05T13:21:58Z</time>
      </trkpt>
      <trkpt lat="43.32608" lon="5.52758">
        <ele>357.2</ele>
        <time>2014-03-05T13:22:03Z</time>
      </trkpt>
      <trkpt lat="43.32604" lon="5.52754">
        <ele>356.2</ele>
        <time>2014-03-05T13:22:09Z</time>
      </trkpt>
      <trkpt lat="43.32601" lon="5.52751">
        <ele>356.2</ele>
        <time>2014-03-05T13:22:13Z</time>
      </trkpt>
      <trkpt lat="43.32598" lon="5.52747">
        <ele>356</ele>
        <time>2014-03-05T13:22:17Z</time>
      </trkpt>
      <trkpt lat="43.32595" lon="5.52744">
        <ele>355.7</ele>
        <time>2014-03-05T13:22:21Z</time>
      </trkpt>
      <trkpt lat="43.32592" lon="5.52741">
        <ele>355.3</ele>
        <time>2014-03-05T13:22:24Z</time>
      </trkpt>
      <trkpt lat="43.32589" lon="5.52738">
        <ele>355.2</ele>
        <time>2014-03-05T13:22:28Z</time>
      </trkpt>
      <trkpt lat="43.32586" lon="5.52734">
        <ele>355</ele>
        <time>2014-03-05T13:22:32Z</time>
      </trkpt>
      <trkpt lat="43.32583" lon="5.52731">
        <ele>355</ele>
        <time>2014-03-05T13:22:35Z</time>
      </trkpt>
      <trkpt lat="43.32579" lon="5.52729">
        <ele>355.2</ele>
        <time>2014-03-05T13:22:39Z</time>
      </trkpt>
      <trkpt lat="43.32578" lon="5.52728">
        <ele>355.2</ele>
        <time>2014-03-05T13:22:40Z</time>
      </trkpt>
      <trkpt lat="43.32572" lon="5.52724">
        <ele>355.2</ele>
        <time>2014-03-05T13:22:47Z</time>
      </trkpt>
      <trkpt lat="43.32568" lon="5.52722">
        <ele>354.2</ele>
        <time>2014-03-05T13:22:52Z</time>
      </trkpt>
      <trkpt lat="43.32565" lon="5.5272">
        <ele>354.2</ele>
        <time>2014-03-05T13:22:56Z</time>
      </trkpt>
      <trkpt lat="43.32561" lon="5.52716">
        <ele>353.6</ele>
        <time>2014-03-05T13:23:01Z</time>
      </trkpt>
      <trkpt lat="43.32558" lon="5.52711">
        <ele>352.7</ele>
        <time>2014-03-05T13:23:06Z</time>
      </trkpt>
      <trkpt lat="43.32555" lon="5.52708">
        <ele>351.2</ele>
        <time>2014-03-05T13:23:12Z</time>
      </trkpt>
      <trkpt lat="43.32552" lon="5.52703">
        <ele>350.3</ele>
        <time>2014-03-05T13:23:17Z</time>
      </trkpt>
      <trkpt lat="43.32549" lon="5.527">
        <ele>349.7</ele>
        <time>2014-03-05T13:23:22Z</time>
      </trkpt>
      <trkpt lat="43.32546" lon="5.52697">
        <ele>349.3</ele>
        <time>2014-03-05T13:23:26Z</time>
      </trkpt>
      <trkpt lat="43.32543" lon="5.52693">
        <ele>348.6</ele>
        <time>2014-03-05T13:23:31Z</time>
      </trkpt>
      <trkpt lat="43.3254" lon="5.5269">
        <ele>348.2</ele>
        <time>2014-03-05T13:23:35Z</time>
      </trkpt>
      <trkpt lat="43.32536" lon="5.52687">
        <ele>347.7</ele>
        <time>2014-03-05T13:23:40Z</time>
      </trkpt>
      <trkpt lat="43.32536" lon="5.52686">
        <ele>347.6</ele>
        <time>2014-03-05T13:23:41Z</time>
      </trkpt>
      <trkpt lat="43.32532" lon="5.52677">
        <ele>342.6</ele>
        <time>2014-03-05T13:23:59Z</time>
      </trkpt>
      <trkpt lat="43.32529" lon="5.52673">
        <ele>340.6</ele>
        <time>2014-03-05T13:24:06Z</time>
      </trkpt>
      <trkpt lat="43.32525" lon="5.5267">
        <ele>340.5</ele>
        <time>2014-03-05T13:24:12Z</time>
      </trkpt>
      <trkpt lat="43.32522" lon="5.5267">
        <ele>340.7</ele>
        <time>2014-03-05T13:24:16Z</time>
      </trkpt>
      <trkpt lat="43.32517" lon="5.52669">
        <ele>341.2</ele>
        <time>2014-03-05T13:24:20Z</time>
      </trkpt>
      <trkpt lat="43.32514" lon="5.52668">
        <ele>341.2</ele>
        <time>2014-03-05T13:24:24Z</time>
      </trkpt>
      <trkpt lat="43.3251" lon="5.52669">
        <ele>340.8</ele>
        <time>2014-03-05T13:24:28Z</time>
      </trkpt>
      <trkpt lat="43.32506" lon="5.5267">
        <ele>341.2</ele>
        <time>2014-03-05T13:24:32Z</time>
      </trkpt>
      <trkpt lat="43.32502" lon="5.52671">
        <ele>341.8</ele>
        <time>2014-03-05T13:24:37Z</time>
      </trkpt>
      <trkpt lat="43.32498" lon="5.52672">
        <ele>342.7</ele>
        <time>2014-03-05T13:24:41Z</time>
      </trkpt>
      <trkpt lat="43.32497" lon="5.52672">
        <ele>342.7</ele>
        <time>2014-03-05T13:24:42Z</time>
      </trkpt>
      <trkpt lat="43.3249" lon="5.52673">
        <ele>343.6</ele>
        <time>2014-03-05T13:24:49Z</time>
      </trkpt>
      <trkpt lat="43.32486" lon="5.52676">
        <ele>343.6</ele>
        <time>2014-03-05T13:24:53Z</time>
      </trkpt>
      <trkpt lat="43.32483" lon="5.52677">
        <ele>343.5</ele>
        <time>2014-03-05T13:24:57Z</time>
      </trkpt>
      <trkpt lat="43.32479" lon="5.52679">
        <ele>342.2</ele>
        <time>2014-03-05T13:25:00Z</time>
      </trkpt>
      <trkpt lat="43.32476" lon="5.5268">
        <ele>341.1</ele>
        <time>2014-03-05T13:25:03Z</time>
      </trkpt>
      <trkpt lat="43.32473" lon="5.52683">
        <ele>340</ele>
        <time>2014-03-05T13:25:06Z</time>
      </trkpt>
      <trkpt lat="43.3247" lon="5.52686">
        <ele>339</ele>
        <time>2014-03-05T13:25:09Z</time>
      </trkpt>
      <trkpt lat="43.32467" lon="5.5269">
        <ele>338.2</ele>
        <time>2014-03-05T13:25:13Z</time>
      </trkpt>
      <trkpt lat="43.32463" lon="5.52694">
        <ele>338</ele>
        <time>2014-03-05T13:25:17Z</time>
      </trkpt>
      <trkpt lat="43.3246" lon="5.52697">
        <ele>337.3</ele>
        <time>2014-03-05T13:25:21Z</time>
      </trkpt>
      <trkpt lat="43.32456" lon="5.52701">
        <ele>337.6</ele>
        <time>2014-03-05T13:25:25Z</time>
      </trkpt>
      <trkpt lat="43.32453" lon="5.52704">
        <ele>338.5</ele>
        <time>2014-03-05T13:25:29Z</time>
      </trkpt>
      <trkpt lat="43.32449" lon="5.52705">
        <ele>339.1</ele>
        <time>2014-03-05T13:25:32Z</time>
      </trkpt>
      <trkpt lat="43.32445" lon="5.52706">
        <ele>339.1</ele>
        <time>2014-03-05T13:25:36Z</time>
      </trkpt>
      <trkpt lat="43.32441" lon="5.52706">
        <ele>340.3</ele>
        <time>2014-03-05T13:25:40Z</time>
      </trkpt>
      <trkpt lat="43.32438" lon="5.52707">
        <ele>341.2</ele>
        <time>2014-03-05T13:25:43Z</time>
      </trkpt>
      <trkpt lat="43.32437" lon="5.52707">
        <ele>341.7</ele>
        <time>2014-03-05T13:25:44Z</time>
      </trkpt>
      <trkpt lat="43.32431" lon="5.52709">
        <ele>342.6</ele>
        <time>2014-03-05T13:25:49Z</time>
      </trkpt>
      <trkpt lat="43.32427" lon="5.5271">
        <ele>341.2</ele>
        <time>2014-03-05T13:25:52Z</time>
      </trkpt>
      <trkpt lat="43.32424" lon="5.52711">
        <ele>340.3</ele>
        <time>2014-03-05T13:25:55Z</time>
      </trkpt>
      <trkpt lat="43.32421" lon="5.52711">
        <ele>339.5</ele>
        <time>2014-03-05T13:25:58Z</time>
      </trkpt>
      <trkpt lat="43.32417" lon="5.52711">
        <ele>339.2</ele>
        <time>2014-03-05T13:26:01Z</time>
      </trkpt>
      <trkpt lat="43.32413" lon="5.52711">
        <ele>339.2</ele>
        <time>2014-03-05T13:26:05Z</time>
      </trkpt>
      <trkpt lat="43.32409" lon="5.52712">
        <ele>338.6</ele>
        <time>2014-03-05T13:26:09Z</time>
      </trkpt>
      <trkpt lat="43.32405" lon="5.52712">
        <ele>338.5</ele>
        <time>2014-03-05T13:26:13Z</time>
      </trkpt>
      <trkpt lat="43.32401" lon="5.52714">
        <ele>338.6</ele>
        <time>2014-03-05T13:26:17Z</time>
      </trkpt>
      <trkpt lat="43.32397" lon="5.52716">
        <ele>338.2</ele>
        <time>2014-03-05T13:26:21Z</time>
      </trkpt>
      <trkpt lat="43.32393" lon="5.52717">
        <ele>338</ele>
        <time>2014-03-05T13:26:25Z</time>
      </trkpt>
      <trkpt lat="43.3239" lon="5.52719">
        <ele>337.7</ele>
        <time>2014-03-05T13:26:29Z</time>
      </trkpt>
      <trkpt lat="43.32386" lon="5.5272">
        <ele>337.2</ele>
        <time>2014-03-05T13:26:32Z</time>
      </trkpt>
      <trkpt lat="43.32382" lon="5.52721">
        <ele>337.3</ele>
        <time>2014-03-05T13:26:35Z</time>
      </trkpt>
      <trkpt lat="43.32379" lon="5.52722">
        <ele>337.2</ele>
        <time>2014-03-05T13:26:39Z</time>
      </trkpt>
      <trkpt lat="43.32375" lon="5.52723">
        <ele>337.7</ele>
        <time>2014-03-05T13:26:43Z</time>
      </trkpt>
      <trkpt lat="43.32371" lon="5.52725">
        <ele>339</ele>
        <time>2014-03-05T13:26:48Z</time>
      </trkpt>
      <trkpt lat="43.3237" lon="5.52725">
        <ele>339.2</ele>
        <time>2014-03-05T13:26:49Z</time>
      </trkpt>
      <trkpt lat="43.32363" lon="5.52729">
        <ele>340.1</ele>
        <time>2014-03-05T13:26:59Z</time>
      </trkpt>
      <trkpt lat="43.3236" lon="5.52732">
        <ele>337.5</ele>
        <time>2014-03-05T13:27:06Z</time>
      </trkpt>
      <trkpt lat="43.32356" lon="5.52732">
        <ele>337.7</ele>
        <time>2014-03-05T13:27:11Z</time>
      </trkpt>
      <trkpt lat="43.32352" lon="5.52732">
        <ele>338.1</ele>
        <time>2014-03-05T13:27:15Z</time>
      </trkpt>
      <trkpt lat="43.32348" lon="5.5273">
        <ele>335.7</ele>
        <time>2014-03-05T13:27:29Z</time>
      </trkpt>
      <trkpt lat="43.32351" lon="5.52733">
        <ele>339.5</ele>
        <time>2014-03-05T13:31:15Z</time>
      </trkpt>
      <trkpt lat="43.32352" lon="5.52732">
        <ele>340.7</ele>
        <time>2014-03-05T13:31:16Z</time>
      </trkpt>
      <trkpt lat="43.32353" lon="5.52726">
        <ele>339.6</ele>
        <time>2014-03-05T13:34:33Z</time>
      </trkpt>
      <trkpt lat="43.32353" lon="5.52726">
        <ele>339.3</ele>
        <time>2014-03-05T13:34:34Z</time>
      </trkpt>
      <trkpt lat="43.32355" lon="5.52716">
        <ele>339.2</ele>
        <time>2014-03-05T13:34:45Z</time>
      </trkpt>
      <trkpt lat="43.32358" lon="5.52712">
        <ele>340.8</ele>
        <time>2014-03-05T13:34:50Z</time>
      </trkpt>
      <trkpt lat="43.3236" lon="5.52707">
        <ele>340.7</ele>
        <time>2014-03-05T13:34:55Z</time>
      </trkpt>
      <trkpt lat="43.32363" lon="5.52702">
        <ele>337.1</ele>
        <time>2014-03-05T13:35:02Z</time>
      </trkpt>
      <trkpt lat="43.32363" lon="5.52697">
        <ele>334.7</ele>
        <time>2014-03-05T13:35:07Z</time>
      </trkpt>
      <trkpt lat="43.32363" lon="5.52692">
        <ele>332.5</ele>
        <time>2014-03-05T13:35:11Z</time>
      </trkpt>
      <trkpt lat="43.32363" lon="5.52687">
        <ele>331.7</ele>
        <time>2014-03-05T13:35:14Z</time>
      </trkpt>
      <trkpt lat="43.32363" lon="5.52681">
        <ele>330.7</ele>
        <time>2014-03-05T13:35:18Z</time>
      </trkpt>
      <trkpt lat="43.32362" lon="5.52676">
        <ele>330.5</ele>
        <time>2014-03-05T13:35:21Z</time>
      </trkpt>
      <trkpt lat="43.32361" lon="5.52671">
        <ele>330.1</ele>
        <time>2014-03-05T13:35:24Z</time>
      </trkpt>
      <trkpt lat="43.32363" lon="5.52666">
        <ele>330.7</ele>
        <time>2014-03-05T13:35:27Z</time>
      </trkpt>
      <trkpt lat="43.32364" lon="5.5266">
        <ele>330.7</ele>
        <time>2014-03-05T13:35:31Z</time>
      </trkpt>
      <trkpt lat="43.32365" lon="5.52656">
        <ele>330.7</ele>
        <time>2014-03-05T13:35:34Z</time>
      </trkpt>
      <trkpt lat="43.32365" lon="5.52654">
        <ele>330.7</ele>
        <time>2014-03-05T13:35:35Z</time>
      </trkpt>
      <trkpt lat="43.32365" lon="5.52645">
        <ele>330.7</ele>
        <time>2014-03-05T13:35:41Z</time>
      </trkpt>
      <trkpt lat="43.32365" lon="5.5264">
        <ele>330.7</ele>
        <time>2014-03-05T13:35:44Z</time>
      </trkpt>
      <trkpt lat="43.32364" lon="5.52635">
        <ele>330.7</ele>
        <time>2014-03-05T13:35:47Z</time>
      </trkpt>
      <trkpt lat="43.32364" lon="5.5263">
        <ele>330.2</ele>
        <time>2014-03-05T13:35:50Z</time>
      </trkpt>
      <trkpt lat="43.32363" lon="5.52624">
        <ele>328.8</ele>
        <time>2014-03-05T13:35:54Z</time>
      </trkpt>
      <trkpt lat="43.32362" lon="5.52619">
        <ele>328.7</ele>
        <time>2014-03-05T13:35:57Z</time>
      </trkpt>
      <trkpt lat="43.32362" lon="5.52614">
        <ele>328.2</ele>
        <time>2014-03-05T13:36:00Z</time>
      </trkpt>
      <trkpt lat="43.32361" lon="5.52609">
        <ele>327.2</ele>
        <time>2014-03-05T13:36:04Z</time>
      </trkpt>
      <trkpt lat="43.3236" lon="5.52603">
        <ele>326.7</ele>
        <time>2014-03-05T13:36:07Z</time>
      </trkpt>
      <trkpt lat="43.3236" lon="5.52598">
        <ele>326.7</ele>
        <time>2014-03-05T13:36:10Z</time>
      </trkpt>
      <trkpt lat="43.32361" lon="5.52594">
        <ele>327.2</ele>
        <time>2014-03-05T13:36:13Z</time>
      </trkpt>
      <trkpt lat="43.32361" lon="5.52588">
        <ele>326.1</ele>
        <time>2014-03-05T13:36:17Z</time>
      </trkpt>
      <trkpt lat="43.3236" lon="5.52582">
        <ele>325.2</ele>
        <time>2014-03-05T13:36:21Z</time>
      </trkpt>
      <trkpt lat="43.32361" lon="5.52576">
        <ele>325.6</ele>
        <time>2014-03-05T13:36:25Z</time>
      </trkpt>
      <trkpt lat="43.3236" lon="5.52571">
        <ele>325.5</ele>
        <time>2014-03-05T13:36:29Z</time>
      </trkpt>
      <trkpt lat="43.3236" lon="5.52565">
        <ele>324.5</ele>
        <time>2014-03-05T13:36:34Z</time>
      </trkpt>
      <trkpt lat="43.3236" lon="5.5256">
        <ele>324.7</ele>
        <time>2014-03-05T13:36:38Z</time>
      </trkpt>
      <trkpt lat="43.3236" lon="5.52558">
        <ele>324.5</ele>
        <time>2014-03-05T13:36:39Z</time>
      </trkpt>
      <trkpt lat="43.32359" lon="5.52548">
        <ele>322.8</ele>
        <time>2014-03-05T13:36:46Z</time>
      </trkpt>
      <trkpt lat="43.32358" lon="5.52542">
        <ele>323</ele>
        <time>2014-03-05T13:36:50Z</time>
      </trkpt>
      <trkpt lat="43.32357" lon="5.52537">
        <ele>323.1</ele>
        <time>2014-03-05T13:36:53Z</time>
      </trkpt>
      <trkpt lat="43.32356" lon="5.52532">
        <ele>323.6</ele>
        <time>2014-03-05T13:36:56Z</time>
      </trkpt>
      <trkpt lat="43.32354" lon="5.52527">
        <ele>323</ele>
        <time>2014-03-05T13:37:00Z</time>
      </trkpt>
      <trkpt lat="43.32353" lon="5.52521">
        <ele>323.1</ele>
        <time>2014-03-05T13:37:04Z</time>
      </trkpt>
      <trkpt lat="43.32351" lon="5.52517">
        <ele>322.5</ele>
        <time>2014-03-05T13:37:08Z</time>
      </trkpt>
      <trkpt lat="43.32349" lon="5.52512">
        <ele>321.7</ele>
        <time>2014-03-05T13:37:12Z</time>
      </trkpt>
      <trkpt lat="43.32347" lon="5.52507">
        <ele>320.8</ele>
        <time>2014-03-05T13:37:16Z</time>
      </trkpt>
      <trkpt lat="43.32346" lon="5.52501">
        <ele>319.6</ele>
        <time>2014-03-05T13:37:21Z</time>
      </trkpt>
      <trkpt lat="43.32345" lon="5.52495">
        <ele>318.7</ele>
        <time>2014-03-05T13:37:25Z</time>
      </trkpt>
      <trkpt lat="43.32344" lon="5.5249">
        <ele>317.3</ele>
        <time>2014-03-05T13:37:29Z</time>
      </trkpt>
      <trkpt lat="43.32342" lon="5.52485">
        <ele>316.6</ele>
        <time>2014-03-05T13:37:33Z</time>
      </trkpt>
      <trkpt lat="43.32341" lon="5.52479">
        <ele>315.7</ele>
        <time>2014-03-05T13:37:38Z</time>
      </trkpt>
      <trkpt lat="43.3234" lon="5.52474">
        <ele>314.5</ele>
        <time>2014-03-05T13:37:43Z</time>
      </trkpt>
      <trkpt lat="43.3234" lon="5.52473">
        <ele>314.2</ele>
        <time>2014-03-05T13:37:44Z</time>
      </trkpt>
      <trkpt lat="43.32336" lon="5.52465">
        <ele>310.7</ele>
        <time>2014-03-05T13:37:56Z</time>
      </trkpt>
      <trkpt lat="43.32335" lon="5.5246">
        <ele>310.2</ele>
        <time>2014-03-05T13:37:59Z</time>
      </trkpt>
      <trkpt lat="43.32333" lon="5.52455">
        <ele>308.8</ele>
        <time>2014-03-05T13:38:03Z</time>
      </trkpt>
      <trkpt lat="43.32331" lon="5.5245">
        <ele>307.3</ele>
        <time>2014-03-05T13:38:08Z</time>
      </trkpt>
      <trkpt lat="43.32329" lon="5.52445">
        <ele>306.7</ele>
        <time>2014-03-05T13:38:12Z</time>
      </trkpt>
      <trkpt lat="43.32329" lon="5.52439">
        <ele>305</ele>
        <time>2014-03-05T13:38:19Z</time>
      </trkpt>
      <trkpt lat="43.32327" lon="5.52434">
        <ele>304.2</ele>
        <time>2014-03-05T13:38:23Z</time>
      </trkpt>
      <trkpt lat="43.32325" lon="5.52429">
        <ele>303.3</ele>
        <time>2014-03-05T13:38:28Z</time>
      </trkpt>
      <trkpt lat="43.32323" lon="5.52425">
        <ele>303.2</ele>
        <time>2014-03-05T13:38:32Z</time>
      </trkpt>
      <trkpt lat="43.32321" lon="5.5242">
        <ele>302.2</ele>
        <time>2014-03-05T13:38:37Z</time>
      </trkpt>
      <trkpt lat="43.32319" lon="5.52414">
        <ele>300.6</ele>
        <time>2014-03-05T13:38:42Z</time>
      </trkpt>
      <trkpt lat="43.32321" lon="5.5241">
        <ele>301.6</ele>
        <time>2014-03-05T13:38:46Z</time>
      </trkpt>
      <trkpt lat="43.32321" lon="5.52408">
        <ele>301.2</ele>
        <time>2014-03-05T13:38:47Z</time>
      </trkpt>
      <trkpt lat="43.32321" lon="5.52402">
        <ele>302.5</ele>
        <time>2014-03-05T13:38:52Z</time>
      </trkpt>
      <trkpt lat="43.32321" lon="5.52396">
        <ele>302</ele>
        <time>2014-03-05T13:38:58Z</time>
      </trkpt>
      <trkpt lat="43.32319" lon="5.52391">
        <ele>299.7</ele>
        <time>2014-03-05T13:39:04Z</time>
      </trkpt>
      <trkpt lat="43.32317" lon="5.52387">
        <ele>298.7</ele>
        <time>2014-03-05T13:39:08Z</time>
      </trkpt>
      <trkpt lat="43.32314" lon="5.52382">
        <ele>297.5</ele>
        <time>2014-03-05T13:39:13Z</time>
      </trkpt>
      <trkpt lat="43.32313" lon="5.52377">
        <ele>296</ele>
        <time>2014-03-05T13:39:18Z</time>
      </trkpt>
      <trkpt lat="43.32311" lon="5.52372">
        <ele>295.6</ele>
        <time>2014-03-05T13:39:22Z</time>
      </trkpt>
      <trkpt lat="43.3231" lon="5.52367">
        <ele>296.2</ele>
        <time>2014-03-05T13:39:26Z</time>
      </trkpt>
      <trkpt lat="43.32308" lon="5.52362">
        <ele>296.3</ele>
        <time>2014-03-05T13:39:30Z</time>
      </trkpt>
      <trkpt lat="43.32307" lon="5.52358">
        <ele>295</ele>
        <time>2014-03-05T13:39:35Z</time>
      </trkpt>
      <trkpt lat="43.32305" lon="5.52353">
        <ele>294.7</ele>
        <time>2014-03-05T13:39:39Z</time>
      </trkpt>
      <trkpt lat="43.32304" lon="5.52348">
        <ele>293.1</ele>
        <time>2014-03-05T13:39:44Z</time>
      </trkpt>
      <trkpt lat="43.32303" lon="5.52343">
        <ele>291.6</ele>
        <time>2014-03-05T13:39:49Z</time>
      </trkpt>
      <trkpt lat="43.32302" lon="5.52341">
        <ele>291.6</ele>
        <time>2014-03-05T13:39:50Z</time>
      </trkpt>
      <trkpt lat="43.32305" lon="5.52335">
        <ele>292.6</ele>
        <time>2014-03-05T13:39:55Z</time>
      </trkpt>
      <trkpt lat="43.32305" lon="5.52329">
        <ele>293.2</ele>
        <time>2014-03-05T13:39:59Z</time>
      </trkpt>
      <trkpt lat="43.32304" lon="5.52325">
        <ele>292</ele>
        <time>2014-03-05T13:40:03Z</time>
      </trkpt>
      <trkpt lat="43.32302" lon="5.5232">
        <ele>291.6</ele>
        <time>2014-03-05T13:40:06Z</time>
      </trkpt>
      <trkpt lat="43.323" lon="5.52316">
        <ele>291.2</ele>
        <time>2014-03-05T13:40:09Z</time>
      </trkpt>
      <trkpt lat="43.32299" lon="5.52311">
        <ele>289.3</ele>
        <time>2014-03-05T13:40:13Z</time>
      </trkpt>
      <trkpt lat="43.32297" lon="5.52306">
        <ele>288.7</ele>
        <time>2014-03-05T13:40:16Z</time>
      </trkpt>
      <trkpt lat="43.32295" lon="5.52301">
        <ele>287.6</ele>
        <time>2014-03-05T13:40:20Z</time>
      </trkpt>
      <trkpt lat="43.32294" lon="5.52296">
        <ele>286.3</ele>
        <time>2014-03-05T13:40:24Z</time>
      </trkpt>
      <trkpt lat="43.32293" lon="5.5229">
        <ele>285.3</ele>
        <time>2014-03-05T13:40:28Z</time>
      </trkpt>
      <trkpt lat="43.32293" lon="5.52285">
        <ele>284.7</ele>
        <time>2014-03-05T13:40:31Z</time>
      </trkpt>
      <trkpt lat="43.32291" lon="5.5228">
        <ele>284.2</ele>
        <time>2014-03-05T13:40:34Z</time>
      </trkpt>
      <trkpt lat="43.32291" lon="5.52275">
        <ele>284.2</ele>
        <time>2014-03-05T13:40:37Z</time>
      </trkpt>
      <trkpt lat="43.3229" lon="5.52269">
        <ele>283.1</ele>
        <time>2014-03-05T13:40:41Z</time>
      </trkpt>
      <trkpt lat="43.32289" lon="5.52264">
        <ele>281.6</ele>
        <time>2014-03-05T13:40:45Z</time>
      </trkpt>
      <trkpt lat="43.32289" lon="5.52259">
        <ele>280.8</ele>
        <time>2014-03-05T13:40:48Z</time>
      </trkpt>
      <trkpt lat="43.32287" lon="5.52254">
        <ele>280.3</ele>
        <time>2014-03-05T13:40:51Z</time>
      </trkpt>
      <trkpt lat="43.32287" lon="5.52253">
        <ele>280.2</ele>
        <time>2014-03-05T13:40:52Z</time>
      </trkpt>
      <trkpt lat="43.32289" lon="5.52247">
        <ele>282.1</ele>
        <time>2014-03-05T13:40:55Z</time>
      </trkpt>
      <trkpt lat="43.32291" lon="5.52245">
        <ele>284</ele>
        <time>2014-03-05T13:40:56Z</time>
      </trkpt>
      <trkpt lat="43.32294" lon="5.52241">
        <ele>285.7</ele>
        <time>2014-03-05T13:40:58Z</time>
      </trkpt>
      <trkpt lat="43.32294" lon="5.52237">
        <ele>286.5</ele>
        <time>2014-03-05T13:41:01Z</time>
      </trkpt>
      <trkpt lat="43.32293" lon="5.52231">
        <ele>285.8</ele>
        <time>2014-03-05T13:41:05Z</time>
      </trkpt>
      <trkpt lat="43.32291" lon="5.52227">
        <ele>285.1</ele>
        <time>2014-03-05T13:41:08Z</time>
      </trkpt>
      <trkpt lat="43.32289" lon="5.52221">
        <ele>283.8</ele>
        <time>2014-03-05T13:41:12Z</time>
      </trkpt>
      <trkpt lat="43.32288" lon="5.52217">
        <ele>283.1</ele>
        <time>2014-03-05T13:41:15Z</time>
      </trkpt>
      <trkpt lat="43.32286" lon="5.52213">
        <ele>282.3</ele>
        <time>2014-03-05T13:41:18Z</time>
      </trkpt>
      <trkpt lat="43.32284" lon="5.52208">
        <ele>281.6</ele>
        <time>2014-03-05T13:41:21Z</time>
      </trkpt>
      <trkpt lat="43.32282" lon="5.52204">
        <ele>280.7</ele>
        <time>2014-03-05T13:41:24Z</time>
      </trkpt>
      <trkpt lat="43.3228" lon="5.522">
        <ele>279.8</ele>
        <time>2014-03-05T13:41:27Z</time>
      </trkpt>
      <trkpt lat="43.32278" lon="5.52195">
        <ele>278.8</ele>
        <time>2014-03-05T13:41:30Z</time>
      </trkpt>
      <trkpt lat="43.32276" lon="5.52191">
        <ele>278.3</ele>
        <time>2014-03-05T13:41:33Z</time>
      </trkpt>
      <trkpt lat="43.32274" lon="5.52188">
        <ele>277.8</ele>
        <time>2014-03-05T13:41:36Z</time>
      </trkpt>
      <trkpt lat="43.32272" lon="5.52183">
        <ele>277.3</ele>
        <time>2014-03-05T13:41:39Z</time>
      </trkpt>
      <trkpt lat="43.3227" lon="5.52179">
        <ele>276.6</ele>
        <time>2014-03-05T13:41:42Z</time>
      </trkpt>
      <trkpt lat="43.32267" lon="5.52175">
        <ele>276</ele>
        <time>2014-03-05T13:41:45Z</time>
      </trkpt>
      <trkpt lat="43.32265" lon="5.52171">
        <ele>275.3</ele>
        <time>2014-03-05T13:41:48Z</time>
      </trkpt>
      <trkpt lat="43.32262" lon="5.52166">
        <ele>275.1</ele>
        <time>2014-03-05T13:41:51Z</time>
      </trkpt>
      <trkpt lat="43.3226" lon="5.52161">
        <ele>273.6</ele>
        <time>2014-03-05T13:41:55Z</time>
      </trkpt>
      <trkpt lat="43.32259" lon="5.5216">
        <ele>273.3</ele>
        <time>2014-03-05T13:41:56Z</time>
      </trkpt>
      <trkpt lat="43.32256" lon="5.52152">
        <ele>272.3</ele>
        <time>2014-03-05T13:42:01Z</time>
      </trkpt>
      <trkpt lat="43.32253" lon="5.52148">
        <ele>271.2</ele>
        <time>2014-03-05T13:42:04Z</time>
      </trkpt>
      <trkpt lat="43.32252" lon="5.52144">
        <ele>270.2</ele>
        <time>2014-03-05T13:42:07Z</time>
      </trkpt>
      <trkpt lat="43.3225" lon="5.5214">
        <ele>269.2</ele>
        <time>2014-03-05T13:42:10Z</time>
      </trkpt>
      <trkpt lat="43.32248" lon="5.52136">
        <ele>268.2</ele>
        <time>2014-03-05T13:42:13Z</time>
      </trkpt>
      <trkpt lat="43.32245" lon="5.52131">
        <ele>266.7</ele>
        <time>2014-03-05T13:42:17Z</time>
      </trkpt>
      <trkpt lat="43.32243" lon="5.52126">
        <ele>265.8</ele>
        <time>2014-03-05T13:42:21Z</time>
      </trkpt>
      <trkpt lat="43.32242" lon="5.52121">
        <ele>265.2</ele>
        <time>2014-03-05T13:42:24Z</time>
      </trkpt>
      <trkpt lat="43.32241" lon="5.52117">
        <ele>264.6</ele>
        <time>2014-03-05T13:42:27Z</time>
      </trkpt>
      <trkpt lat="43.3224" lon="5.52111">
        <ele>263.2</ele>
        <time>2014-03-05T13:42:32Z</time>
      </trkpt>
      <trkpt lat="43.32239" lon="5.52106">
        <ele>262.2</ele>
        <time>2014-03-05T13:42:35Z</time>
      </trkpt>
      <trkpt lat="43.32239" lon="5.52101">
        <ele>260.7</ele>
        <time>2014-03-05T13:42:39Z</time>
      </trkpt>
      <trkpt lat="43.32237" lon="5.52095">
        <ele>259.6</ele>
        <time>2014-03-05T13:42:43Z</time>
      </trkpt>
      <trkpt lat="43.32237" lon="5.52089">
        <ele>259.2</ele>
        <time>2014-03-05T13:42:47Z</time>
      </trkpt>
      <trkpt lat="43.32235" lon="5.52084">
        <ele>258.8</ele>
        <time>2014-03-05T13:42:51Z</time>
      </trkpt>
      <trkpt lat="43.32234" lon="5.52079">
        <ele>258.7</ele>
        <time>2014-03-05T13:42:54Z</time>
      </trkpt>
      <trkpt lat="43.32232" lon="5.52074">
        <ele>257.7</ele>
        <time>2014-03-05T13:42:58Z</time>
      </trkpt>
      <trkpt lat="43.32232" lon="5.52073">
        <ele>257.5</ele>
        <time>2014-03-05T13:42:59Z</time>
      </trkpt>
      <trkpt lat="43.32229" lon="5.52065">
        <ele>257.2</ele>
        <time>2014-03-05T13:43:05Z</time>
      </trkpt>
      <trkpt lat="43.32226" lon="5.52059">
        <ele>257.1</ele>
        <time>2014-03-05T13:43:09Z</time>
      </trkpt>
      <trkpt lat="43.32224" lon="5.52055">
        <ele>258</ele>
        <time>2014-03-05T13:43:12Z</time>
      </trkpt>
      <trkpt lat="43.32222" lon="5.5205">
        <ele>257.7</ele>
        <time>2014-03-05T13:43:16Z</time>
      </trkpt>
      <trkpt lat="43.3222" lon="5.52044">
        <ele>256.6</ele>
        <time>2014-03-05T13:43:22Z</time>
      </trkpt>
      <trkpt lat="43.3222" lon="5.52039">
        <ele>254</ele>
        <time>2014-03-05T13:43:28Z</time>
      </trkpt>
      <trkpt lat="43.32218" lon="5.52033">
        <ele>251.8</ele>
        <time>2014-03-05T13:43:35Z</time>
      </trkpt>
      <trkpt lat="43.32216" lon="5.52029">
        <ele>250.8</ele>
        <time>2014-03-05T13:43:40Z</time>
      </trkpt>
      <trkpt lat="43.32214" lon="5.52025">
        <ele>251.1</ele>
        <time>2014-03-05T13:43:43Z</time>
      </trkpt>
      <trkpt lat="43.32212" lon="5.52019">
        <ele>250.3</ele>
        <time>2014-03-05T13:43:47Z</time>
      </trkpt>
      <trkpt lat="43.32211" lon="5.52014">
        <ele>251.6</ele>
        <time>2014-03-05T13:43:50Z</time>
      </trkpt>
      <trkpt lat="43.32211" lon="5.52009">
        <ele>251</ele>
        <time>2014-03-05T13:43:54Z</time>
      </trkpt>
      <trkpt lat="43.32211" lon="5.52004">
        <ele>250.3</ele>
        <time>2014-03-05T13:43:58Z</time>
      </trkpt>
      <trkpt lat="43.3221" lon="5.51998">
        <ele>250.6</ele>
        <time>2014-03-05T13:44:01Z</time>
      </trkpt>
      <trkpt lat="43.3221" lon="5.51996">
        <ele>251</ele>
        <time>2014-03-05T13:44:02Z</time>
      </trkpt>
      <trkpt lat="43.3221" lon="5.51987">
        <ele>250.8</ele>
        <time>2014-03-05T13:44:07Z</time>
      </trkpt>
      <trkpt lat="43.3221" lon="5.51981">
        <ele>250.1</ele>
        <time>2014-03-05T13:44:11Z</time>
      </trkpt>
      <trkpt lat="43.32211" lon="5.51976">
        <ele>249.8</ele>
        <time>2014-03-05T13:44:15Z</time>
      </trkpt>
      <trkpt lat="43.32213" lon="5.5197">
        <ele>248.3</ele>
        <time>2014-03-05T13:44:21Z</time>
      </trkpt>
      <trkpt lat="43.32214" lon="5.51964">
        <ele>246.6</ele>
        <time>2014-03-05T13:44:27Z</time>
      </trkpt>
      <trkpt lat="43.32217" lon="5.5196">
        <ele>245.3</ele>
        <time>2014-03-05T13:44:39Z</time>
      </trkpt>
      <trkpt lat="43.3222" lon="5.51956">
        <ele>246.6</ele>
        <time>2014-03-05T13:44:49Z</time>
      </trkpt>
      <trkpt lat="43.32222" lon="5.51951">
        <ele>247</ele>
        <time>2014-03-05T13:44:57Z</time>
      </trkpt>
      <trkpt lat="43.32224" lon="5.51947">
        <ele>247.8</ele>
        <time>2014-03-05T13:45:03Z</time>
      </trkpt>
      <trkpt lat="43.32225" lon="5.51946">
        <ele>248.1</ele>
        <time>2014-03-05T13:45:04Z</time>
      </trkpt>
      <trkpt lat="43.32224" lon="5.51935">
        <ele>245.1</ele>
        <time>2014-03-05T13:45:17Z</time>
      </trkpt>
      <trkpt lat="43.32223" lon="5.51929">
        <ele>243.8</ele>
        <time>2014-03-05T13:45:22Z</time>
      </trkpt>
      <trkpt lat="43.32223" lon="5.51924">
        <ele>242.1</ele>
        <time>2014-03-05T13:45:27Z</time>
      </trkpt>
      <trkpt lat="43.32223" lon="5.51919">
        <ele>240.6</ele>
        <time>2014-03-05T13:45:32Z</time>
      </trkpt>
      <trkpt lat="43.32224" lon="5.51913">
        <ele>239.6</ele>
        <time>2014-03-05T13:45:41Z</time>
      </trkpt>
      <trkpt lat="43.32226" lon="5.51911">
        <ele>240.3</ele>
        <time>2014-03-05T13:45:44Z</time>
      </trkpt>
      <trkpt lat="43.32229" lon="5.5191">
        <ele>242.3</ele>
        <time>2014-03-05T13:45:45Z</time>
      </trkpt>
      <trkpt lat="43.32233" lon="5.51908">
        <ele>245.6</ele>
        <time>2014-03-05T13:45:47Z</time>
      </trkpt>
      <trkpt lat="43.32236" lon="5.51905">
        <ele>246.6</ele>
        <time>2014-03-05T13:45:51Z</time>
      </trkpt>
      <trkpt lat="43.32238" lon="5.51901">
        <ele>247.6</ele>
        <time>2014-03-05T13:45:56Z</time>
      </trkpt>
      <trkpt lat="43.32239" lon="5.51895">
        <ele>247.3</ele>
        <time>2014-03-05T13:46:02Z</time>
      </trkpt>
      <trkpt lat="43.32238" lon="5.5189">
        <ele>246.8</ele>
        <time>2014-03-05T13:46:07Z</time>
      </trkpt>
      <trkpt lat="43.32238" lon="5.51889">
        <ele>246.1</ele>
        <time>2014-03-05T13:46:08Z</time>
      </trkpt>
      <trkpt lat="43.32238" lon="5.51879">
        <ele>241.3</ele>
        <time>2014-03-05T13:46:20Z</time>
      </trkpt>
      <trkpt lat="43.32238" lon="5.51873">
        <ele>238.6</ele>
        <time>2014-03-05T13:46:25Z</time>
      </trkpt>
      <trkpt lat="43.32236" lon="5.51868">
        <ele>237.3</ele>
        <time>2014-03-05T13:46:29Z</time>
      </trkpt>
      <trkpt lat="43.32234" lon="5.51863">
        <ele>236.6</ele>
        <time>2014-03-05T13:46:33Z</time>
      </trkpt>
      <trkpt lat="43.32235" lon="5.51858">
        <ele>236.5</ele>
        <time>2014-03-05T13:46:38Z</time>
      </trkpt>
      <trkpt lat="43.32237" lon="5.51853">
        <ele>238.6</ele>
        <time>2014-03-05T13:46:42Z</time>
      </trkpt>
      <trkpt lat="43.32238" lon="5.51849">
        <ele>238.8</ele>
        <time>2014-03-05T13:46:48Z</time>
      </trkpt>
      <trkpt lat="43.32241" lon="5.51845">
        <ele>238.3</ele>
        <time>2014-03-05T13:46:54Z</time>
      </trkpt>
      <trkpt lat="43.32241" lon="5.51839">
        <ele>237.8</ele>
        <time>2014-03-05T13:46:58Z</time>
      </trkpt>
      <trkpt lat="43.32242" lon="5.51834">
        <ele>237.5</ele>
        <time>2014-03-05T13:47:02Z</time>
      </trkpt>
      <trkpt lat="43.32243" lon="5.51829">
        <ele>236.5</ele>
        <time>2014-03-05T13:47:07Z</time>
      </trkpt>
      <trkpt lat="43.32242" lon="5.51823">
        <ele>234.8</ele>
        <time>2014-03-05T13:47:12Z</time>
      </trkpt>
      <trkpt lat="43.32242" lon="5.51822">
        <ele>234.5</ele>
        <time>2014-03-05T13:47:13Z</time>
      </trkpt>
      <trkpt lat="43.32242" lon="5.51813">
        <ele>233.3</ele>
        <time>2014-03-05T13:47:24Z</time>
      </trkpt>
      <trkpt lat="43.32242" lon="5.51807">
        <ele>231.3</ele>
        <time>2014-03-05T13:47:30Z</time>
      </trkpt>
      <trkpt lat="43.3224" lon="5.51802">
        <ele>229.1</ele>
        <time>2014-03-05T13:47:38Z</time>
      </trkpt>
      <trkpt lat="43.32242" lon="5.51796">
        <ele>230.1</ele>
        <time>2014-03-05T13:47:45Z</time>
      </trkpt>
      <trkpt lat="43.32245" lon="5.51792">
        <ele>230.3</ele>
        <time>2014-03-05T13:47:54Z</time>
      </trkpt>
      <trkpt lat="43.32244" lon="5.51786">
        <ele>228.3</ele>
        <time>2014-03-05T13:48:04Z</time>
      </trkpt>
      <trkpt lat="43.32243" lon="5.51781">
        <ele>226.6</ele>
        <time>2014-03-05T13:48:11Z</time>
      </trkpt>
      <trkpt lat="43.32244" lon="5.51775">
        <ele>227.1</ele>
        <time>2014-03-05T13:48:21Z</time>
      </trkpt>
      <trkpt lat="43.32244" lon="5.51774">
        <ele>227.1</ele>
        <time>2014-03-05T13:48:22Z</time>
      </trkpt>
      <trkpt lat="43.3225" lon="5.51767">
        <ele>225.5</ele>
        <time>2014-03-05T13:48:44Z</time>
      </trkpt>
      <trkpt lat="43.32252" lon="5.51762">
        <ele>223.6</ele>
        <time>2014-03-05T13:48:51Z</time>
      </trkpt>
      <trkpt lat="43.3225" lon="5.51758">
        <ele>221.6</ele>
        <time>2014-03-05T13:49:00Z</time>
      </trkpt>
      <trkpt lat="43.32246" lon="5.51758">
        <ele>219.8</ele>
        <time>2014-03-05T13:49:04Z</time>
      </trkpt>
      <trkpt lat="43.32242" lon="5.51755">
        <ele>219.1</ele>
        <time>2014-03-05T13:49:08Z</time>
      </trkpt>
      <trkpt lat="43.32238" lon="5.51754">
        <ele>218</ele>
        <time>2014-03-05T13:49:12Z</time>
      </trkpt>
      <trkpt lat="43.32234" lon="5.51752">
        <ele>217.5</ele>
        <time>2014-03-05T13:49:16Z</time>
      </trkpt>
      <trkpt lat="43.32232" lon="5.51748">
        <ele>217.6</ele>
        <time>2014-03-05T13:49:20Z</time>
      </trkpt>
      <trkpt lat="43.32228" lon="5.51745">
        <ele>216.8</ele>
        <time>2014-03-05T13:49:25Z</time>
      </trkpt>
      <trkpt lat="43.32227" lon="5.51744">
        <ele>216.8</ele>
        <time>2014-03-05T13:49:26Z</time>
      </trkpt>
      <trkpt lat="43.32224" lon="5.51737">
        <ele>216.6</ele>
        <time>2014-03-05T13:49:35Z</time>
      </trkpt>
      <trkpt lat="43.32223" lon="5.51731">
        <ele>215.8</ele>
        <time>2014-03-05T13:49:45Z</time>
      </trkpt>
      <trkpt lat="43.32222" lon="5.51726">
        <ele>216.5</ele>
        <time>2014-03-05T13:49:52Z</time>
      </trkpt>
      <trkpt lat="43.3222" lon="5.51721">
        <ele>216.8</ele>
        <time>2014-03-05T13:49:58Z</time>
      </trkpt>
      <trkpt lat="43.32218" lon="5.51716">
        <ele>216.1</ele>
        <time>2014-03-05T13:50:05Z</time>
      </trkpt>
      <trkpt lat="43.32216" lon="5.51712">
        <ele>216.5</ele>
        <time>2014-03-05T13:50:09Z</time>
      </trkpt>
      <trkpt lat="43.32213" lon="5.51707">
        <ele>216.5</ele>
        <time>2014-03-05T13:50:12Z</time>
      </trkpt>
      <trkpt lat="43.32211" lon="5.51702">
        <ele>215.3</ele>
        <time>2014-03-05T13:50:16Z</time>
      </trkpt>
      <trkpt lat="43.32209" lon="5.51697">
        <ele>215.5</ele>
        <time>2014-03-05T13:50:19Z</time>
      </trkpt>
      <trkpt lat="43.32206" lon="5.51693">
        <ele>215.1</ele>
        <time>2014-03-05T13:50:22Z</time>
      </trkpt>
      <trkpt lat="43.32204" lon="5.51689">
        <ele>213.8</ele>
        <time>2014-03-05T13:50:26Z</time>
      </trkpt>
      <trkpt lat="43.32204" lon="5.51687">
        <ele>213.6</ele>
        <time>2014-03-05T13:50:27Z</time>
      </trkpt>
      <trkpt lat="43.32199" lon="5.51681">
        <ele>213.6</ele>
        <time>2014-03-05T13:50:34Z</time>
      </trkpt>
      <trkpt lat="43.32198" lon="5.51675">
        <ele>211.5</ele>
        <time>2014-03-05T13:50:40Z</time>
      </trkpt>
      <trkpt lat="43.32197" lon="5.51669">
        <ele>211.6</ele>
        <time>2014-03-05T13:50:47Z</time>
      </trkpt>
      <trkpt lat="43.32198" lon="5.51663">
        <ele>212.3</ele>
        <time>2014-03-05T13:50:57Z</time>
      </trkpt>
      <trkpt lat="43.32197" lon="5.51658">
        <ele>211.8</ele>
        <time>2014-03-05T13:51:03Z</time>
      </trkpt>
      <trkpt lat="43.32197" lon="5.51653">
        <ele>213.1</ele>
        <time>2014-03-05T13:51:15Z</time>
      </trkpt>
      <trkpt lat="43.32194" lon="5.51648">
        <ele>210.6</ele>
        <time>2014-03-05T13:51:22Z</time>
      </trkpt>
      <trkpt lat="43.32192" lon="5.51644">
        <ele>209.8</ele>
        <time>2014-03-05T13:51:27Z</time>
      </trkpt>
      <trkpt lat="43.32191" lon="5.51643">
        <ele>210.1</ele>
        <time>2014-03-05T13:51:28Z</time>
      </trkpt>
      <trkpt lat="43.32189" lon="5.51633">
        <ele>211.1</ele>
        <time>2014-03-05T13:51:38Z</time>
      </trkpt>
      <trkpt lat="43.32189" lon="5.51628">
        <ele>213.3</ele>
        <time>2014-03-05T13:51:43Z</time>
      </trkpt>
      <trkpt lat="43.32188" lon="5.51623">
        <ele>214.6</ele>
        <time>2014-03-05T13:51:49Z</time>
      </trkpt>
      <trkpt lat="43.32188" lon="5.51618">
        <ele>214.3</ele>
        <time>2014-03-05T13:51:54Z</time>
      </trkpt>
      <trkpt lat="43.32185" lon="5.51613">
        <ele>215.6</ele>
        <time>2014-03-05T13:51:58Z</time>
      </trkpt>
      <trkpt lat="43.32183" lon="5.51608">
        <ele>213.3</ele>
        <time>2014-03-05T13:52:04Z</time>
      </trkpt>
      <trkpt lat="43.32184" lon="5.51604">
        <ele>213.1</ele>
        <time>2014-03-05T13:52:07Z</time>
      </trkpt>
      <trkpt lat="43.32182" lon="5.51599">
        <ele>213.8</ele>
        <time>2014-03-05T13:52:10Z</time>
      </trkpt>
      <trkpt lat="43.3218" lon="5.51595">
        <ele>209.5</ele>
        <time>2014-03-05T13:52:24Z</time>
      </trkpt>
      <trkpt lat="43.32175" lon="5.51595">
        <ele>205.8</ele>
        <time>2014-03-05T13:52:42Z</time>
      </trkpt>
      <trkpt lat="43.32175" lon="5.51595">
        <ele>205.6</ele>
        <time>2014-03-05T13:52:43Z</time>
      </trkpt>
      <trkpt lat="43.32176" lon="5.5159">
        <ele>200.3</ele>
        <time>2014-03-05T13:53:32Z</time>
      </trkpt>
      <trkpt lat="43.32173" lon="5.51585">
        <ele>200.3</ele>
        <time>2014-03-05T13:53:37Z</time>
      </trkpt>
      <trkpt lat="43.32172" lon="5.5158">
        <ele>200.1</ele>
        <time>2014-03-05T13:53:41Z</time>
      </trkpt>
      <trkpt lat="43.32171" lon="5.51575">
        <ele>200.3</ele>
        <time>2014-03-05T13:53:46Z</time>
      </trkpt>
      <trkpt lat="43.32171" lon="5.51574">
        <ele>200.3</ele>
        <time>2014-03-05T13:53:47Z</time>
      </trkpt>
      <trkpt lat="43.32168" lon="5.51566">
        <ele>202.6</ele>
        <time>2014-03-05T13:53:54Z</time>
      </trkpt>
      <trkpt lat="43.32168" lon="5.51561">
        <ele>204.1</ele>
        <time>2014-03-05T13:53:58Z</time>
      </trkpt>
      <trkpt lat="43.32167" lon="5.51555">
        <ele>204.6</ele>
        <time>2014-03-05T13:54:02Z</time>
      </trkpt>
      <trkpt lat="43.32166" lon="5.5155">
        <ele>205.5</ele>
        <time>2014-03-05T13:54:05Z</time>
      </trkpt>
      <trkpt lat="43.32164" lon="5.51545">
        <ele>205.8</ele>
        <time>2014-03-05T13:54:09Z</time>
      </trkpt>
      <trkpt lat="43.32163" lon="5.51539">
        <ele>206.5</ele>
        <time>2014-03-05T13:54:13Z</time>
      </trkpt>
      <trkpt lat="43.32161" lon="5.51534">
        <ele>208.6</ele>
        <time>2014-03-05T13:54:16Z</time>
      </trkpt>
      <trkpt lat="43.3216" lon="5.5153">
        <ele>209.6</ele>
        <time>2014-03-05T13:54:19Z</time>
      </trkpt>
      <trkpt lat="43.32157" lon="5.51525">
        <ele>210.1</ele>
        <time>2014-03-05T13:54:22Z</time>
      </trkpt>
      <trkpt lat="43.32156" lon="5.51521">
        <ele>209.8</ele>
        <time>2014-03-05T13:54:25Z</time>
      </trkpt>
      <trkpt lat="43.32154" lon="5.51516">
        <ele>208</ele>
        <time>2014-03-05T13:54:28Z</time>
      </trkpt>
      <trkpt lat="43.32153" lon="5.51511">
        <ele>206.3</ele>
        <time>2014-03-05T13:54:31Z</time>
      </trkpt>
      <trkpt lat="43.32153" lon="5.51506">
        <ele>203.8</ele>
        <time>2014-03-05T13:54:35Z</time>
      </trkpt>
      <trkpt lat="43.32152" lon="5.515">
        <ele>204.5</ele>
        <time>2014-03-05T13:54:38Z</time>
      </trkpt>
      <trkpt lat="43.32152" lon="5.51495">
        <ele>203.8</ele>
        <time>2014-03-05T13:54:41Z</time>
      </trkpt>
      <trkpt lat="43.32154" lon="5.51489">
        <ele>202</ele>
        <time>2014-03-05T13:54:45Z</time>
      </trkpt>
      <trkpt lat="43.32155" lon="5.51484">
        <ele>197.8</ele>
        <time>2014-03-05T13:54:51Z</time>
      </trkpt>
      <trkpt lat="43.32156" lon="5.51483">
        <ele>197.8</ele>
        <time>2014-03-05T13:54:52Z</time>
      </trkpt>
      <trkpt lat="43.32159" lon="5.51474">
        <ele>198.1</ele>
        <time>2014-03-05T13:54:58Z</time>
      </trkpt>
      <trkpt lat="43.32162" lon="5.51471">
        <ele>198.8</ele>
        <time>2014-03-05T13:55:01Z</time>
      </trkpt>
      <trkpt lat="43.32165" lon="5.51466">
        <ele>199.6</ele>
        <time>2014-03-05T13:55:04Z</time>
      </trkpt>
      <trkpt lat="43.32166" lon="5.51462">
        <ele>199.8</ele>
        <time>2014-03-05T13:55:07Z</time>
      </trkpt>
      <trkpt lat="43.32169" lon="5.51459">
        <ele>200.5</ele>
        <time>2014-03-05T13:55:09Z</time>
      </trkpt>
      <trkpt lat="43.32171" lon="5.51454">
        <ele>202.8</ele>
        <time>2014-03-05T13:55:13Z</time>
      </trkpt>
      <trkpt lat="43.32174" lon="5.51451">
        <ele>205.3</ele>
        <time>2014-03-05T13:55:17Z</time>
      </trkpt>
      <trkpt lat="43.32177" lon="5.51448">
        <ele>207.6</ele>
        <time>2014-03-05T13:55:20Z</time>
      </trkpt>
      <trkpt lat="43.3218" lon="5.51445">
        <ele>205.6</ele>
        <time>2014-03-05T13:55:22Z</time>
      </trkpt>
      <trkpt lat="43.32183" lon="5.51443">
        <ele>203.8</ele>
        <time>2014-03-05T13:55:24Z</time>
      </trkpt>
      <trkpt lat="43.32186" lon="5.5144">
        <ele>203.8</ele>
        <time>2014-03-05T13:55:26Z</time>
      </trkpt>
      <trkpt lat="43.32189" lon="5.51436">
        <ele>204.3</ele>
        <time>2014-03-05T13:55:29Z</time>
      </trkpt>
      <trkpt lat="43.32191" lon="5.51431">
        <ele>204.6</ele>
        <time>2014-03-05T13:55:32Z</time>
      </trkpt>
      <trkpt lat="43.32192" lon="5.51426">
        <ele>205.6</ele>
        <time>2014-03-05T13:55:36Z</time>
      </trkpt>
      <trkpt lat="43.32191" lon="5.5142">
        <ele>207.1</ele>
        <time>2014-03-05T13:55:41Z</time>
      </trkpt>
      <trkpt lat="43.32189" lon="5.51416">
        <ele>208.1</ele>
        <time>2014-03-05T13:55:45Z</time>
      </trkpt>
      <trkpt lat="43.32188" lon="5.51412">
        <ele>209.8</ele>
        <time>2014-03-05T13:55:49Z</time>
      </trkpt>
      <trkpt lat="43.32187" lon="5.51406">
        <ele>209.3</ele>
        <time>2014-03-05T13:55:53Z</time>
      </trkpt>
      <trkpt lat="43.32186" lon="5.51405">
        <ele>209.6</ele>
        <time>2014-03-05T13:55:54Z</time>
      </trkpt>
      <trkpt lat="43.32187" lon="5.51394">
        <ele>208.1</ele>
        <time>2014-03-05T13:56:01Z</time>
      </trkpt>
      <trkpt lat="43.32187" lon="5.51389">
        <ele>206.6</ele>
        <time>2014-03-05T13:56:05Z</time>
      </trkpt>
      <trkpt lat="43.32188" lon="5.51384">
        <ele>206</ele>
        <time>2014-03-05T13:56:09Z</time>
      </trkpt>
      <trkpt lat="43.32188" lon="5.51378">
        <ele>205.6</ele>
        <time>2014-03-05T13:56:13Z</time>
      </trkpt>
      <trkpt lat="43.32188" lon="5.51372">
        <ele>205.8</ele>
        <time>2014-03-05T13:56:17Z</time>
      </trkpt>
      <trkpt lat="43.32187" lon="5.51367">
        <ele>205.5</ele>
        <time>2014-03-05T13:56:21Z</time>
      </trkpt>
      <trkpt lat="43.32185" lon="5.51364">
        <ele>208.1</ele>
        <time>2014-03-05T13:56:24Z</time>
      </trkpt>
      <trkpt lat="43.32182" lon="5.51359">
        <ele>208.6</ele>
        <time>2014-03-05T13:56:28Z</time>
      </trkpt>
      <trkpt lat="43.32179" lon="5.51355">
        <ele>211.5</ele>
        <time>2014-03-05T13:56:32Z</time>
      </trkpt>
      <trkpt lat="43.32176" lon="5.51351">
        <ele>213</ele>
        <time>2014-03-05T13:56:36Z</time>
      </trkpt>
      <trkpt lat="43.32175" lon="5.51346">
        <ele>213.3</ele>
        <time>2014-03-05T13:56:41Z</time>
      </trkpt>
      <trkpt lat="43.32173" lon="5.51341">
        <ele>212.3</ele>
        <time>2014-03-05T13:56:45Z</time>
      </trkpt>
      <trkpt lat="43.32171" lon="5.51336">
        <ele>212.5</ele>
        <time>2014-03-05T13:56:50Z</time>
      </trkpt>
      <trkpt lat="43.32169" lon="5.51332">
        <ele>211.6</ele>
        <time>2014-03-05T13:56:56Z</time>
      </trkpt>
      <trkpt lat="43.32168" lon="5.51331">
        <ele>211.5</ele>
        <time>2014-03-05T13:56:57Z</time>
      </trkpt>
      <trkpt lat="43.32163" lon="5.51323">
        <ele>211.1</ele>
        <time>2014-03-05T13:57:05Z</time>
      </trkpt>
      <trkpt lat="43.32161" lon="5.51319">
        <ele>211.1</ele>
        <time>2014-03-05T13:57:09Z</time>
      </trkpt>
      <trkpt lat="43.32158" lon="5.51315">
        <ele>211.8</ele>
        <time>2014-03-05T13:57:13Z</time>
      </trkpt>
      <trkpt lat="43.32156" lon="5.51311">
        <ele>212.8</ele>
        <time>2014-03-05T13:57:17Z</time>
      </trkpt>
      <trkpt lat="43.32153" lon="5.51307">
        <ele>213.3</ele>
        <time>2014-03-05T13:57:21Z</time>
      </trkpt>
      <trkpt lat="43.3215" lon="5.51303">
        <ele>213.5</ele>
        <time>2014-03-05T13:57:26Z</time>
      </trkpt>
      <trkpt lat="43.32148" lon="5.51299">
        <ele>214.1</ele>
        <time>2014-03-05T13:57:31Z</time>
      </trkpt>
      <trkpt lat="43.32145" lon="5.51295">
        <ele>214.6</ele>
        <time>2014-03-05T13:57:36Z</time>
      </trkpt>
      <trkpt lat="43.32142" lon="5.5129">
        <ele>215.3</ele>
        <time>2014-03-05T13:57:41Z</time>
      </trkpt>
      <trkpt lat="43.3214" lon="5.51286">
        <ele>215.8</ele>
        <time>2014-03-05T13:57:47Z</time>
      </trkpt>
      <trkpt lat="43.32137" lon="5.51282">
        <ele>217.1</ele>
        <time>2014-03-05T13:57:53Z</time>
      </trkpt>
      <trkpt lat="43.32134" lon="5.51277">
        <ele>218</ele>
        <time>2014-03-05T13:57:57Z</time>
      </trkpt>
      <trkpt lat="43.32134" lon="5.51277">
        <ele>218.1</ele>
        <time>2014-03-05T13:57:58Z</time>
      </trkpt>
      <trkpt lat="43.32128" lon="5.51269">
        <ele>219.8</ele>
        <time>2014-03-05T13:58:08Z</time>
      </trkpt>
      <trkpt lat="43.32126" lon="5.51265">
        <ele>220.1</ele>
        <time>2014-03-05T13:58:12Z</time>
      </trkpt>
      <trkpt lat="43.32123" lon="5.51261">
        <ele>220.5</ele>
        <time>2014-03-05T13:58:17Z</time>
      </trkpt>
      <trkpt lat="43.3212" lon="5.51259">
        <ele>221.1</ele>
        <time>2014-03-05T13:58:21Z</time>
      </trkpt>
      <trkpt lat="43.32116" lon="5.51256">
        <ele>221.1</ele>
        <time>2014-03-05T13:58:25Z</time>
      </trkpt>
      <trkpt lat="43.32112" lon="5.51255">
        <ele>221.3</ele>
        <time>2014-03-05T13:58:31Z</time>
      </trkpt>
      <trkpt lat="43.32109" lon="5.51253">
        <ele>220.1</ele>
        <time>2014-03-05T13:58:35Z</time>
      </trkpt>
      <trkpt lat="43.32105" lon="5.51253">
        <ele>217.3</ele>
        <time>2014-03-05T13:58:39Z</time>
      </trkpt>
      <trkpt lat="43.321" lon="5.51254">
        <ele>212.3</ele>
        <time>2014-03-05T13:58:44Z</time>
      </trkpt>
      <trkpt lat="43.32097" lon="5.51254">
        <ele>209.3</ele>
        <time>2014-03-05T13:58:48Z</time>
      </trkpt>
      <trkpt lat="43.32093" lon="5.51256">
        <ele>207.8</ele>
        <time>2014-03-05T13:58:52Z</time>
      </trkpt>
      <trkpt lat="43.32089" lon="5.51257">
        <ele>206.6</ele>
        <time>2014-03-05T13:58:56Z</time>
      </trkpt>
      <trkpt lat="43.32086" lon="5.51258">
        <ele>205.8</ele>
        <time>2014-03-05T13:58:59Z</time>
      </trkpt>
      <trkpt lat="43.32084" lon="5.51258">
        <ele>205.6</ele>
        <time>2014-03-05T13:59:00Z</time>
      </trkpt>
      <trkpt lat="43.32078" lon="5.51257">
        <ele>208.3</ele>
        <time>2014-03-05T13:59:04Z</time>
      </trkpt>
      <trkpt lat="43.32074" lon="5.51257">
        <ele>211.1</ele>
        <time>2014-03-05T13:59:07Z</time>
      </trkpt>
      <trkpt lat="43.3207" lon="5.51257">
        <ele>213.8</ele>
        <time>2014-03-05T13:59:10Z</time>
      </trkpt>
      <trkpt lat="43.32066" lon="5.51256">
        <ele>214.6</ele>
        <time>2014-03-05T13:59:13Z</time>
      </trkpt>
      <trkpt lat="43.32063" lon="5.51254">
        <ele>215.8</ele>
        <time>2014-03-05T13:59:16Z</time>
      </trkpt>
      <trkpt lat="43.32059" lon="5.51252">
        <ele>216.8</ele>
        <time>2014-03-05T13:59:19Z</time>
      </trkpt>
      <trkpt lat="43.32056" lon="5.5125">
        <ele>217.5</ele>
        <time>2014-03-05T13:59:22Z</time>
      </trkpt>
      <trkpt lat="43.32052" lon="5.51248">
        <ele>217.1</ele>
        <time>2014-03-05T13:59:25Z</time>
      </trkpt>
      <trkpt lat="43.32049" lon="5.51246">
        <ele>215.8</ele>
        <time>2014-03-05T13:59:28Z</time>
      </trkpt>
      <trkpt lat="43.32045" lon="5.51245">
        <ele>215.8</ele>
        <time>2014-03-05T13:59:31Z</time>
      </trkpt>
      <trkpt lat="43.32041" lon="5.51244">
        <ele>217</ele>
        <time>2014-03-05T13:59:34Z</time>
      </trkpt>
      <trkpt lat="43.32038" lon="5.51243">
        <ele>217.1</ele>
        <time>2014-03-05T13:59:37Z</time>
      </trkpt>
      <trkpt lat="43.32034" lon="5.51243">
        <ele>217.3</ele>
        <time>2014-03-05T13:59:41Z</time>
      </trkpt>
      <trkpt lat="43.32031" lon="5.51243">
        <ele>218</ele>
        <time>2014-03-05T13:59:44Z</time>
      </trkpt>
      <trkpt lat="43.32027" lon="5.51241">
        <ele>218.6</ele>
        <time>2014-03-05T13:59:47Z</time>
      </trkpt>
      <trkpt lat="43.32024" lon="5.51239">
        <ele>217.3</ele>
        <time>2014-03-05T13:59:51Z</time>
      </trkpt>
      <trkpt lat="43.3202" lon="5.51237">
        <ele>216.6</ele>
        <time>2014-03-05T13:59:54Z</time>
      </trkpt>
      <trkpt lat="43.32017" lon="5.51236">
        <ele>216.1</ele>
        <time>2014-03-05T13:59:57Z</time>
      </trkpt>
      <trkpt lat="43.32013" lon="5.51235">
        <ele>215.8</ele>
        <time>2014-03-05T14:00:00Z</time>
      </trkpt>
      <trkpt lat="43.32012" lon="5.51234">
        <ele>215.6</ele>
        <time>2014-03-05T14:00:01Z</time>
      </trkpt>
      <trkpt lat="43.32006" lon="5.51231">
        <ele>212.8</ele>
        <time>2014-03-05T14:00:08Z</time>
      </trkpt>
      <trkpt lat="43.32002" lon="5.5123">
        <ele>212.3</ele>
        <time>2014-03-05T14:00:11Z</time>
      </trkpt>
      <trkpt lat="43.31998" lon="5.51229">
        <ele>211</ele>
        <time>2014-03-05T14:00:16Z</time>
      </trkpt>
      <trkpt lat="43.31993" lon="5.51227">
        <ele>209.8</ele>
        <time>2014-03-05T14:00:20Z</time>
      </trkpt>
      <trkpt lat="43.31989" lon="5.51225">
        <ele>211.6</ele>
        <time>2014-03-05T14:00:24Z</time>
      </trkpt>
      <trkpt lat="43.31985" lon="5.51224">
        <ele>211.8</ele>
        <time>2014-03-05T14:00:28Z</time>
      </trkpt>
      <trkpt lat="43.31981" lon="5.51223">
        <ele>210.1</ele>
        <time>2014-03-05T14:00:32Z</time>
      </trkpt>
      <trkpt lat="43.31977" lon="5.51222">
        <ele>209.1</ele>
        <time>2014-03-05T14:00:35Z</time>
      </trkpt>
      <trkpt lat="43.31974" lon="5.5122">
        <ele>208.3</ele>
        <time>2014-03-05T14:00:38Z</time>
      </trkpt>
      <trkpt lat="43.3197" lon="5.51218">
        <ele>210.1</ele>
        <time>2014-03-05T14:00:41Z</time>
      </trkpt>
      <trkpt lat="43.31966" lon="5.51217">
        <ele>210.8</ele>
        <time>2014-03-05T14:00:44Z</time>
      </trkpt>
      <trkpt lat="43.31963" lon="5.51216">
        <ele>210.6</ele>
        <time>2014-03-05T14:00:46Z</time>
      </trkpt>
      <trkpt lat="43.3196" lon="5.51213">
        <ele>214.1</ele>
        <time>2014-03-05T14:00:49Z</time>
      </trkpt>
      <trkpt lat="43.31956" lon="5.5121">
        <ele>215.8</ele>
        <time>2014-03-05T14:00:52Z</time>
      </trkpt>
      <trkpt lat="43.31952" lon="5.51208">
        <ele>216.1</ele>
        <time>2014-03-05T14:00:55Z</time>
      </trkpt>
      <trkpt lat="43.31949" lon="5.51206">
        <ele>215.3</ele>
        <time>2014-03-05T14:00:58Z</time>
      </trkpt>
      <trkpt lat="43.31945" lon="5.51204">
        <ele>214.3</ele>
        <time>2014-03-05T14:01:02Z</time>
      </trkpt>
      <trkpt lat="43.31943" lon="5.51203">
        <ele>213.8</ele>
        <time>2014-03-05T14:01:03Z</time>
      </trkpt>
      <trkpt lat="43.31937" lon="5.512">
        <ele>211.3</ele>
        <time>2014-03-05T14:01:09Z</time>
      </trkpt>
      <trkpt lat="43.31933" lon="5.51198">
        <ele>208.3</ele>
        <time>2014-03-05T14:01:12Z</time>
      </trkpt>
      <trkpt lat="43.3193" lon="5.51194">
        <ele>210.6</ele>
        <time>2014-03-05T14:01:16Z</time>
      </trkpt>
      <trkpt lat="43.31927" lon="5.51191">
        <ele>211.6</ele>
        <time>2014-03-05T14:01:19Z</time>
      </trkpt>
      <trkpt lat="43.31924" lon="5.51188">
        <ele>211.5</ele>
        <time>2014-03-05T14:01:22Z</time>
      </trkpt>
      <trkpt lat="43.3192" lon="5.51186">
        <ele>211.3</ele>
        <time>2014-03-05T14:01:25Z</time>
      </trkpt>
      <trkpt lat="43.31917" lon="5.51183">
        <ele>212.3</ele>
        <time>2014-03-05T14:01:28Z</time>
      </trkpt>
      <trkpt lat="43.31913" lon="5.51182">
        <ele>213.3</ele>
        <time>2014-03-05T14:01:31Z</time>
      </trkpt>
      <trkpt lat="43.3191" lon="5.51181">
        <ele>213.3</ele>
        <time>2014-03-05T14:01:33Z</time>
      </trkpt>
      <trkpt lat="43.31907" lon="5.5118">
        <ele>212.8</ele>
        <time>2014-03-05T14:01:35Z</time>
      </trkpt>
      <trkpt lat="43.31903" lon="5.51179">
        <ele>212.8</ele>
        <time>2014-03-05T14:01:38Z</time>
      </trkpt>
      <trkpt lat="43.31899" lon="5.51179">
        <ele>213.6</ele>
        <time>2014-03-05T14:01:41Z</time>
      </trkpt>
      <trkpt lat="43.31896" lon="5.51177">
        <ele>214.3</ele>
        <time>2014-03-05T14:01:43Z</time>
      </trkpt>
      <trkpt lat="43.31892" lon="5.51177">
        <ele>214.3</ele>
        <time>2014-03-05T14:01:46Z</time>
      </trkpt>
      <trkpt lat="43.31888" lon="5.51178">
        <ele>214.1</ele>
        <time>2014-03-05T14:01:50Z</time>
      </trkpt>
      <trkpt lat="43.31884" lon="5.51177">
        <ele>213.3</ele>
        <time>2014-03-05T14:01:53Z</time>
      </trkpt>
      <trkpt lat="43.3188" lon="5.51178">
        <ele>213</ele>
        <time>2014-03-05T14:01:57Z</time>
      </trkpt>
      <trkpt lat="43.31876" lon="5.51179">
        <ele>211</ele>
        <time>2014-03-05T14:02:02Z</time>
      </trkpt>
      <trkpt lat="43.31872" lon="5.5118">
        <ele>208.6</ele>
        <time>2014-03-05T14:02:07Z</time>
      </trkpt>
      <trkpt lat="43.31871" lon="5.5118">
        <ele>208.1</ele>
        <time>2014-03-05T14:02:08Z</time>
      </trkpt>
      <trkpt lat="43.31863" lon="5.5118">
        <ele>207.3</ele>
        <time>2014-03-05T14:02:16Z</time>
      </trkpt>
      <trkpt lat="43.3186" lon="5.5118">
        <ele>206.8</ele>
        <time>2014-03-05T14:02:19Z</time>
      </trkpt>
      <trkpt lat="43.31855" lon="5.5118">
        <ele>206</ele>
        <time>2014-03-05T14:02:23Z</time>
      </trkpt>
      <trkpt lat="43.31852" lon="5.51178">
        <ele>205.8</ele>
        <time>2014-03-05T14:02:26Z</time>
      </trkpt>
      <trkpt lat="43.31848" lon="5.51177">
        <ele>205.1</ele>
        <time>2014-03-05T14:02:29Z</time>
      </trkpt>
      <trkpt lat="43.31845" lon="5.51176">
        <ele>204.8</ele>
        <time>2014-03-05T14:02:32Z</time>
      </trkpt>
      <trkpt lat="43.31841" lon="5.51174">
        <ele>204.5</ele>
        <time>2014-03-05T14:02:35Z</time>
      </trkpt>
      <trkpt lat="43.31837" lon="5.51172">
        <ele>204.1</ele>
        <time>2014-03-05T14:02:38Z</time>
      </trkpt>
      <trkpt lat="43.31834" lon="5.5117">
        <ele>203.8</ele>
        <time>2014-03-05T14:02:41Z</time>
      </trkpt>
      <trkpt lat="43.31831" lon="5.51167">
        <ele>203.5</ele>
        <time>2014-03-05T14:02:44Z</time>
      </trkpt>
      <trkpt lat="43.31827" lon="5.51165">
        <ele>203.3</ele>
        <time>2014-03-05T14:02:47Z</time>
      </trkpt>
      <trkpt lat="43.31825" lon="5.51161">
        <ele>202.6</ele>
        <time>2014-03-05T14:02:50Z</time>
      </trkpt>
      <trkpt lat="43.31821" lon="5.51157">
        <ele>202.5</ele>
        <time>2014-03-05T14:02:52Z</time>
      </trkpt>
      <trkpt lat="43.31817" lon="5.51156">
        <ele>203.5</ele>
        <time>2014-03-05T14:02:55Z</time>
      </trkpt>
      <trkpt lat="43.31813" lon="5.51156">
        <ele>203.1</ele>
        <time>2014-03-05T14:02:58Z</time>
      </trkpt>
      <trkpt lat="43.3181" lon="5.51156">
        <ele>202.3</ele>
        <time>2014-03-05T14:03:01Z</time>
      </trkpt>
      <trkpt lat="43.31806" lon="5.51157">
        <ele>201.6</ele>
        <time>2014-03-05T14:03:04Z</time>
      </trkpt>
      <trkpt lat="43.31803" lon="5.51158">
        <ele>200.6</ele>
        <time>2014-03-05T14:03:07Z</time>
      </trkpt>
      <trkpt lat="43.31799" lon="5.51159">
        <ele>199.3</ele>
        <time>2014-03-05T14:03:10Z</time>
      </trkpt>
      <trkpt lat="43.31798" lon="5.51159">
        <ele>199.1</ele>
        <time>2014-03-05T14:03:11Z</time>
      </trkpt>
      <trkpt lat="43.31791" lon="5.5116">
        <ele>197.3</ele>
        <time>2014-03-05T14:03:17Z</time>
      </trkpt>
      <trkpt lat="43.31788" lon="5.51161">
        <ele>196.8</ele>
        <time>2014-03-05T14:03:20Z</time>
      </trkpt>
      <trkpt lat="43.31785" lon="5.51162">
        <ele>196.6</ele>
        <time>2014-03-05T14:03:23Z</time>
      </trkpt>
      <trkpt lat="43.3178" lon="5.51164">
        <ele>195.6</ele>
        <time>2014-03-05T14:03:27Z</time>
      </trkpt>
      <trkpt lat="43.31776" lon="5.51165">
        <ele>195.1</ele>
        <time>2014-03-05T14:03:31Z</time>
      </trkpt>
      <trkpt lat="43.31772" lon="5.51166">
        <ele>196</ele>
        <time>2014-03-05T14:03:34Z</time>
      </trkpt>
      <trkpt lat="43.31769" lon="5.51169">
        <ele>197.5</ele>
        <time>2014-03-05T14:03:37Z</time>
      </trkpt>
      <trkpt lat="43.31764" lon="5.51168">
        <ele>195.6</ele>
        <time>2014-03-05T14:03:41Z</time>
      </trkpt>
      <trkpt lat="43.3176" lon="5.5117">
        <ele>194.3</ele>
        <time>2014-03-05T14:03:45Z</time>
      </trkpt>
      <trkpt lat="43.31756" lon="5.51171">
        <ele>195</ele>
        <time>2014-03-05T14:03:49Z</time>
      </trkpt>
      <trkpt lat="43.31753" lon="5.51175">
        <ele>195.8</ele>
        <time>2014-03-05T14:03:53Z</time>
      </trkpt>
      <trkpt lat="43.31749" lon="5.51177">
        <ele>195.6</ele>
        <time>2014-03-05T14:03:57Z</time>
      </trkpt>
      <trkpt lat="43.31746" lon="5.51181">
        <ele>196.1</ele>
        <time>2014-03-05T14:04:01Z</time>
      </trkpt>
      <trkpt lat="43.31743" lon="5.51184">
        <ele>196.3</ele>
        <time>2014-03-05T14:04:05Z</time>
      </trkpt>
      <trkpt lat="43.31739" lon="5.51186">
        <ele>196.5</ele>
        <time>2014-03-05T14:04:08Z</time>
      </trkpt>
      <trkpt lat="43.31736" lon="5.51189">
        <ele>197</ele>
        <time>2014-03-05T14:04:12Z</time>
      </trkpt>
      <trkpt lat="43.31735" lon="5.5119">
        <ele>197.1</ele>
        <time>2014-03-05T14:04:13Z</time>
      </trkpt>
      <trkpt lat="43.3173" lon="5.51197">
        <ele>197.8</ele>
        <time>2014-03-05T14:04:22Z</time>
      </trkpt>
      <trkpt lat="43.31726" lon="5.512">
        <ele>198</ele>
        <time>2014-03-05T14:04:27Z</time>
      </trkpt>
      <trkpt lat="43.31723" lon="5.51203">
        <ele>196.3</ele>
        <time>2014-03-05T14:04:31Z</time>
      </trkpt>
      <trkpt lat="43.31721" lon="5.51208">
        <ele>196.8</ele>
        <time>2014-03-05T14:04:34Z</time>
      </trkpt>
      <trkpt lat="43.31718" lon="5.51212">
        <ele>197.6</ele>
        <time>2014-03-05T14:04:37Z</time>
      </trkpt>
      <trkpt lat="43.31716" lon="5.51216">
        <ele>197.8</ele>
        <time>2014-03-05T14:04:40Z</time>
      </trkpt>
      <trkpt lat="43.31712" lon="5.51219">
        <ele>195.6</ele>
        <time>2014-03-05T14:04:44Z</time>
      </trkpt>
      <trkpt lat="43.31711" lon="5.51222">
        <ele>197.3</ele>
        <time>2014-03-05T14:04:47Z</time>
      </trkpt>
      <trkpt lat="43.31707" lon="5.51226">
        <ele>197.5</ele>
        <time>2014-03-05T14:04:51Z</time>
      </trkpt>
      <trkpt lat="43.31703" lon="5.51228">
        <ele>196.3</ele>
        <time>2014-03-05T14:04:55Z</time>
      </trkpt>
      <trkpt lat="43.317" lon="5.51229">
        <ele>193.6</ele>
        <time>2014-03-05T14:04:58Z</time>
      </trkpt>
      <trkpt lat="43.31696" lon="5.51233">
        <ele>194.1</ele>
        <time>2014-03-05T14:05:02Z</time>
      </trkpt>
      <trkpt lat="43.31693" lon="5.51235">
        <ele>195.8</ele>
        <time>2014-03-05T14:05:05Z</time>
      </trkpt>
      <trkpt lat="43.31689" lon="5.51237">
        <ele>195.8</ele>
        <time>2014-03-05T14:05:08Z</time>
      </trkpt>
      <trkpt lat="43.31685" lon="5.51239">
        <ele>194.8</ele>
        <time>2014-03-05T14:05:11Z</time>
      </trkpt>
      <trkpt lat="43.31682" lon="5.51241">
        <ele>193.1</ele>
        <time>2014-03-05T14:05:14Z</time>
      </trkpt>
      <trkpt lat="43.3168" lon="5.51243">
        <ele>193.8</ele>
        <time>2014-03-05T14:05:15Z</time>
      </trkpt>
      <trkpt lat="43.31675" lon="5.51246">
        <ele>192.8</ele>
        <time>2014-03-05T14:05:21Z</time>
      </trkpt>
      <trkpt lat="43.31671" lon="5.51248">
        <ele>192.1</ele>
        <time>2014-03-05T14:05:25Z</time>
      </trkpt>
      <trkpt lat="43.31668" lon="5.51251">
        <ele>192.1</ele>
        <time>2014-03-05T14:05:28Z</time>
      </trkpt>
      <trkpt lat="43.31664" lon="5.51254">
        <ele>191.6</ele>
        <time>2014-03-05T14:05:31Z</time>
      </trkpt>
      <trkpt lat="43.31661" lon="5.51257">
        <ele>191.8</ele>
        <time>2014-03-05T14:05:34Z</time>
      </trkpt>
      <trkpt lat="43.31658" lon="5.5126">
        <ele>192.6</ele>
        <time>2014-03-05T14:05:36Z</time>
      </trkpt>
      <trkpt lat="43.31655" lon="5.51264">
        <ele>193.1</ele>
        <time>2014-03-05T14:05:39Z</time>
      </trkpt>
      <trkpt lat="43.31651" lon="5.51267">
        <ele>193</ele>
        <time>2014-03-05T14:05:42Z</time>
      </trkpt>
      <trkpt lat="43.31647" lon="5.51268">
        <ele>192</ele>
        <time>2014-03-05T14:05:46Z</time>
      </trkpt>
      <trkpt lat="43.31643" lon="5.5127">
        <ele>191.6</ele>
        <time>2014-03-05T14:05:51Z</time>
      </trkpt>
      <trkpt lat="43.31639" lon="5.5127">
        <ele>190.3</ele>
        <time>2014-03-05T14:05:55Z</time>
      </trkpt>
      <trkpt lat="43.31635" lon="5.51271">
        <ele>188.3</ele>
        <time>2014-03-05T14:05:59Z</time>
      </trkpt>
      <trkpt lat="43.31631" lon="5.51273">
        <ele>187.3</ele>
        <time>2014-03-05T14:06:02Z</time>
      </trkpt>
      <trkpt lat="43.31627" lon="5.51273">
        <ele>187.3</ele>
        <time>2014-03-05T14:06:06Z</time>
      </trkpt>
      <trkpt lat="43.31623" lon="5.51275">
        <ele>186.6</ele>
        <time>2014-03-05T14:06:10Z</time>
      </trkpt>
      <trkpt lat="43.31619" lon="5.51275">
        <ele>185.8</ele>
        <time>2014-03-05T14:06:14Z</time>
      </trkpt>
      <trkpt lat="43.31615" lon="5.51274">
        <ele>186.8</ele>
        <time>2014-03-05T14:06:17Z</time>
      </trkpt>
      <trkpt lat="43.31614" lon="5.51275">
        <ele>186.5</ele>
        <time>2014-03-05T14:06:18Z</time>
      </trkpt>
    </trkseg>
  </trk>
</gpx>